<?xml version="1.0" encoding="UTF-8" standalone="no" ?>
<gpx xmlns="http://www.topografix.com/GPX/1/1" xmlns:xsi="http://www.w3.org/2001/XMLSchema-instance" xsi:schemaLocation="http://www.topografix.com/GPX/1/1 http://www.topografix.com/GPX/1/1/gpx.xsd" version="1.1" creator="VisuGPX - https://www.visugpx.com">
  <metadata>
    <name>Marche de la Gym de Marsannay du jeudi 05 Déc 2019</name>
    <desc><![CDATA[circuit autour de Morey jusqu'au Clos Vougeot]]></desc>
  </metadata>
  <trk>
    <name><![CDATA[Track]]></name>
    <trkseg>
      <trkpt lat="47.19892" lon="4.96216">
        <ele>282.30310058594</ele>
        <time>2019-12-05T09:07:48+0100</time>
      </trkpt>
      <trkpt lat="47.19894" lon="4.96212">
        <ele>282.29022216797</ele>
        <time>2019-12-05T09:07:51+0100</time>
      </trkpt>
      <trkpt lat="47.19896" lon="4.9621">
        <ele>282.29891967773</ele>
        <time>2019-12-05T09:07:54+0100</time>
      </trkpt>
      <trkpt lat="47.19898" lon="4.96208">
        <ele>282.32162475586</ele>
        <time>2019-12-05T09:07:57+0100</time>
      </trkpt>
      <trkpt lat="47.19901" lon="4.96206">
        <ele>282.3454284668</ele>
        <time>2019-12-05T09:08:00+0100</time>
      </trkpt>
      <trkpt lat="47.19903" lon="4.96205">
        <ele>282.37078857422</ele>
        <time>2019-12-05T09:08:03+0100</time>
      </trkpt>
      <trkpt lat="47.19906" lon="4.96204">
        <ele>282.41110229492</ele>
        <time>2019-12-05T09:08:06+0100</time>
      </trkpt>
      <trkpt lat="47.19908" lon="4.96202">
        <ele>282.4690246582</ele>
        <time>2019-12-05T09:08:09+0100</time>
      </trkpt>
      <trkpt lat="47.19911" lon="4.962">
        <ele>282.53668212891</ele>
        <time>2019-12-05T09:08:12+0100</time>
      </trkpt>
      <trkpt lat="47.19914" lon="4.96198">
        <ele>282.61526489258</ele>
        <time>2019-12-05T09:08:16+0100</time>
      </trkpt>
      <trkpt lat="47.19918" lon="4.96196">
        <ele>282.72406005859</ele>
        <time>2019-12-05T09:08:19+0100</time>
      </trkpt>
      <trkpt lat="47.1992" lon="4.96194">
        <ele>282.84439086914</ele>
        <time>2019-12-05T09:08:22+0100</time>
      </trkpt>
      <trkpt lat="47.19922" lon="4.96191">
        <ele>282.98458862305</ele>
        <time>2019-12-05T09:08:25+0100</time>
      </trkpt>
      <trkpt lat="47.19924" lon="4.96188">
        <ele>283.13659667969</ele>
        <time>2019-12-05T09:08:28+0100</time>
      </trkpt>
      <trkpt lat="47.19926" lon="4.96184">
        <ele>283.29580688477</ele>
        <time>2019-12-05T09:08:31+0100</time>
      </trkpt>
      <trkpt lat="47.19927" lon="4.9618">
        <ele>283.46115112305</ele>
        <time>2019-12-05T09:08:34+0100</time>
      </trkpt>
      <trkpt lat="47.19928" lon="4.96177">
        <ele>283.62872314453</ele>
        <time>2019-12-05T09:08:37+0100</time>
      </trkpt>
      <trkpt lat="47.19928" lon="4.96173">
        <ele>283.83255004883</ele>
        <time>2019-12-05T09:08:40+0100</time>
      </trkpt>
      <trkpt lat="47.19928" lon="4.96169">
        <ele>284.07202148438</ele>
        <time>2019-12-05T09:08:43+0100</time>
      </trkpt>
      <trkpt lat="47.19929" lon="4.96166">
        <ele>284.3332824707</ele>
        <time>2019-12-05T09:08:46+0100</time>
      </trkpt>
      <trkpt lat="47.1993" lon="4.9616">
        <ele>284.60870361328</ele>
        <time>2019-12-05T09:08:49+0100</time>
      </trkpt>
      <trkpt lat="47.19931" lon="4.96155">
        <ele>284.88357543945</ele>
        <time>2019-12-05T09:08:52+0100</time>
      </trkpt>
      <trkpt lat="47.19932" lon="4.9615">
        <ele>285.18167114258</ele>
        <time>2019-12-05T09:08:55+0100</time>
      </trkpt>
      <trkpt lat="47.19934" lon="4.96145">
        <ele>285.49502563477</ele>
        <time>2019-12-05T09:08:58+0100</time>
      </trkpt>
      <trkpt lat="47.19935" lon="4.96141">
        <ele>285.8271484375</ele>
        <time>2019-12-05T09:09:01+0100</time>
      </trkpt>
      <trkpt lat="47.19935" lon="4.96136">
        <ele>286.17742919922</ele>
        <time>2019-12-05T09:09:04+0100</time>
      </trkpt>
      <trkpt lat="47.19936" lon="4.96131">
        <ele>286.53088378906</ele>
        <time>2019-12-05T09:09:07+0100</time>
      </trkpt>
      <trkpt lat="47.19936" lon="4.96127">
        <ele>286.87020874023</ele>
        <time>2019-12-05T09:09:10+0100</time>
      </trkpt>
      <trkpt lat="47.19936" lon="4.96124">
        <ele>287.23101806641</ele>
        <time>2019-12-05T09:09:13+0100</time>
      </trkpt>
      <trkpt lat="47.19937" lon="4.96119">
        <ele>287.59106445312</ele>
        <time>2019-12-05T09:09:16+0100</time>
      </trkpt>
      <trkpt lat="47.19939" lon="4.96114">
        <ele>287.94223022461</ele>
        <time>2019-12-05T09:09:19+0100</time>
      </trkpt>
      <trkpt lat="47.1994" lon="4.96109">
        <ele>288.28939819336</ele>
        <time>2019-12-05T09:09:22+0100</time>
      </trkpt>
      <trkpt lat="47.19942" lon="4.96104">
        <ele>288.62051391602</ele>
        <time>2019-12-05T09:09:25+0100</time>
      </trkpt>
      <trkpt lat="47.19943" lon="4.961">
        <ele>288.94732666016</ele>
        <time>2019-12-05T09:09:28+0100</time>
      </trkpt>
      <trkpt lat="47.19944" lon="4.96096">
        <ele>289.27233886719</ele>
        <time>2019-12-05T09:09:31+0100</time>
      </trkpt>
      <trkpt lat="47.19945" lon="4.96092">
        <ele>289.6083984375</ele>
        <time>2019-12-05T09:09:34+0100</time>
      </trkpt>
      <trkpt lat="47.19946" lon="4.9609">
        <ele>289.94445800781</ele>
        <time>2019-12-05T09:09:37+0100</time>
      </trkpt>
      <trkpt lat="47.19947" lon="4.96087">
        <ele>290.29119873047</ele>
        <time>2019-12-05T09:09:40+0100</time>
      </trkpt>
      <trkpt lat="47.19948" lon="4.96084">
        <ele>290.64352416992</ele>
        <time>2019-12-05T09:09:43+0100</time>
      </trkpt>
      <trkpt lat="47.1995" lon="4.9608">
        <ele>290.99887084961</ele>
        <time>2019-12-05T09:09:46+0100</time>
      </trkpt>
      <trkpt lat="47.19953" lon="4.96075">
        <ele>291.35830688477</ele>
        <time>2019-12-05T09:09:49+0100</time>
      </trkpt>
      <trkpt lat="47.19955" lon="4.96072">
        <ele>291.70932006836</ele>
        <time>2019-12-05T09:09:52+0100</time>
      </trkpt>
      <trkpt lat="47.19957" lon="4.96069">
        <ele>292.06115722656</ele>
        <time>2019-12-05T09:09:55+0100</time>
      </trkpt>
      <trkpt lat="47.19958" lon="4.96063">
        <ele>292.43655395508</ele>
        <time>2019-12-05T09:09:58+0100</time>
      </trkpt>
      <trkpt lat="47.1996" lon="4.96059">
        <ele>292.82540893555</ele>
        <time>2019-12-05T09:10:01+0100</time>
      </trkpt>
      <trkpt lat="47.1996" lon="4.96055">
        <ele>293.19189453125</ele>
        <time>2019-12-05T09:10:04+0100</time>
      </trkpt>
      <trkpt lat="47.1996" lon="4.96052">
        <ele>293.54049682617</ele>
        <time>2019-12-05T09:10:07+0100</time>
      </trkpt>
      <trkpt lat="47.19961" lon="4.96049">
        <ele>293.87823486328</ele>
        <time>2019-12-05T09:10:10+0100</time>
      </trkpt>
      <trkpt lat="47.19963" lon="4.96044">
        <ele>294.20846557617</ele>
        <time>2019-12-05T09:10:13+0100</time>
      </trkpt>
      <trkpt lat="47.19965" lon="4.96039">
        <ele>294.52935791016</ele>
        <time>2019-12-05T09:10:16+0100</time>
      </trkpt>
      <trkpt lat="47.19967" lon="4.96035">
        <ele>294.81976318359</ele>
        <time>2019-12-05T09:10:19+0100</time>
      </trkpt>
      <trkpt lat="47.19968" lon="4.96031">
        <ele>295.08682250977</ele>
        <time>2019-12-05T09:10:22+0100</time>
      </trkpt>
      <trkpt lat="47.19969" lon="4.96028">
        <ele>295.3251953125</ele>
        <time>2019-12-05T09:10:25+0100</time>
      </trkpt>
      <trkpt lat="47.19971" lon="4.96024">
        <ele>295.54925537109</ele>
        <time>2019-12-05T09:10:28+0100</time>
      </trkpt>
      <trkpt lat="47.19972" lon="4.96019">
        <ele>295.72647094727</ele>
        <time>2019-12-05T09:10:31+0100</time>
      </trkpt>
      <trkpt lat="47.19974" lon="4.96014">
        <ele>295.88223266602</ele>
        <time>2019-12-05T09:10:34+0100</time>
      </trkpt>
      <trkpt lat="47.19975" lon="4.96009">
        <ele>296.02490234375</ele>
        <time>2019-12-05T09:10:37+0100</time>
      </trkpt>
      <trkpt lat="47.19976" lon="4.96005">
        <ele>296.16900634766</ele>
        <time>2019-12-05T09:10:40+0100</time>
      </trkpt>
      <trkpt lat="47.19978" lon="4.96">
        <ele>296.32507324219</ele>
        <time>2019-12-05T09:10:43+0100</time>
      </trkpt>
      <trkpt lat="47.19979" lon="4.95995">
        <ele>296.47305297852</ele>
        <time>2019-12-05T09:10:46+0100</time>
      </trkpt>
      <trkpt lat="47.1998" lon="4.95991">
        <ele>296.60345458984</ele>
        <time>2019-12-05T09:10:49+0100</time>
      </trkpt>
      <trkpt lat="47.19982" lon="4.95986">
        <ele>296.71960449219</ele>
        <time>2019-12-05T09:10:52+0100</time>
      </trkpt>
      <trkpt lat="47.19983" lon="4.95982">
        <ele>296.82092285156</ele>
        <time>2019-12-05T09:10:55+0100</time>
      </trkpt>
      <trkpt lat="47.19984" lon="4.95977">
        <ele>296.91253662109</ele>
        <time>2019-12-05T09:10:58+0100</time>
      </trkpt>
      <trkpt lat="47.19986" lon="4.95972">
        <ele>296.97381591797</ele>
        <time>2019-12-05T09:11:01+0100</time>
      </trkpt>
      <trkpt lat="47.19987" lon="4.95968">
        <ele>297.0178527832</ele>
        <time>2019-12-05T09:11:04+0100</time>
      </trkpt>
      <trkpt lat="47.19988" lon="4.95964">
        <ele>297.04486083984</ele>
        <time>2019-12-05T09:11:07+0100</time>
      </trkpt>
      <trkpt lat="47.1999" lon="4.95959">
        <ele>297.06268310547</ele>
        <time>2019-12-05T09:11:10+0100</time>
      </trkpt>
      <trkpt lat="47.19992" lon="4.95955">
        <ele>297.06930541992</ele>
        <time>2019-12-05T09:11:13+0100</time>
      </trkpt>
      <trkpt lat="47.19993" lon="4.95951">
        <ele>297.06951904297</ele>
        <time>2019-12-05T09:11:16+0100</time>
      </trkpt>
      <trkpt lat="47.19995" lon="4.95948">
        <ele>297.06298828125</ele>
        <time>2019-12-05T09:11:19+0100</time>
      </trkpt>
      <trkpt lat="47.19997" lon="4.95944">
        <ele>297.05862426758</ele>
        <time>2019-12-05T09:11:22+0100</time>
      </trkpt>
      <trkpt lat="47.19998" lon="4.9594">
        <ele>297.05413818359</ele>
        <time>2019-12-05T09:11:25+0100</time>
      </trkpt>
      <trkpt lat="47.2" lon="4.95936">
        <ele>297.05865478516</ele>
        <time>2019-12-05T09:11:28+0100</time>
      </trkpt>
      <trkpt lat="47.20002" lon="4.95932">
        <ele>297.06945800781</ele>
        <time>2019-12-05T09:11:31+0100</time>
      </trkpt>
      <trkpt lat="47.20003" lon="4.95929">
        <ele>297.08020019531</ele>
        <time>2019-12-05T09:11:34+0100</time>
      </trkpt>
      <trkpt lat="47.20004" lon="4.95925">
        <ele>297.09384155273</ele>
        <time>2019-12-05T09:11:37+0100</time>
      </trkpt>
      <trkpt lat="47.20005" lon="4.95921">
        <ele>297.1178894043</ele>
        <time>2019-12-05T09:11:40+0100</time>
      </trkpt>
      <trkpt lat="47.20005" lon="4.95918">
        <ele>297.15258789062</ele>
        <time>2019-12-05T09:11:43+0100</time>
      </trkpt>
      <trkpt lat="47.20006" lon="4.95915">
        <ele>297.19592285156</ele>
        <time>2019-12-05T09:11:46+0100</time>
      </trkpt>
      <trkpt lat="47.20007" lon="4.95913">
        <ele>297.24411010742</ele>
        <time>2019-12-05T09:11:49+0100</time>
      </trkpt>
      <trkpt lat="47.20007" lon="4.95909">
        <ele>297.29144287109</ele>
        <time>2019-12-05T09:11:52+0100</time>
      </trkpt>
      <trkpt lat="47.20008" lon="4.95906">
        <ele>297.34188842773</ele>
        <time>2019-12-05T09:11:55+0100</time>
      </trkpt>
      <trkpt lat="47.20008" lon="4.95901">
        <ele>297.39611816406</ele>
        <time>2019-12-05T09:11:58+0100</time>
      </trkpt>
      <trkpt lat="47.20009" lon="4.95898">
        <ele>297.45031738281</ele>
        <time>2019-12-05T09:12:01+0100</time>
      </trkpt>
      <trkpt lat="47.2001" lon="4.95895">
        <ele>297.5002746582</ele>
        <time>2019-12-05T09:12:04+0100</time>
      </trkpt>
      <trkpt lat="47.2001" lon="4.95892">
        <ele>297.55090332031</ele>
        <time>2019-12-05T09:12:07+0100</time>
      </trkpt>
      <trkpt lat="47.20011" lon="4.95888">
        <ele>297.60363769531</ele>
        <time>2019-12-05T09:12:10+0100</time>
      </trkpt>
      <trkpt lat="47.20012" lon="4.95885">
        <ele>297.65856933594</ele>
        <time>2019-12-05T09:12:13+0100</time>
      </trkpt>
      <trkpt lat="47.20012" lon="4.95883">
        <ele>297.71899414062</ele>
        <time>2019-12-05T09:12:16+0100</time>
      </trkpt>
      <trkpt lat="47.20013" lon="4.95879">
        <ele>297.78039550781</ele>
        <time>2019-12-05T09:12:19+0100</time>
      </trkpt>
      <trkpt lat="47.20013" lon="4.95878">
        <ele>297.82308959961</ele>
        <time>2019-12-05T09:12:22+0100</time>
      </trkpt>
      <trkpt lat="47.20013" lon="4.95878">
        <ele>297.84338378906</ele>
        <time>2019-12-05T09:12:25+0100</time>
      </trkpt>
      <trkpt lat="47.20012" lon="4.95878">
        <ele>297.90026855469</ele>
        <time>2019-12-05T09:12:28+0100</time>
      </trkpt>
      <trkpt lat="47.20012" lon="4.95878">
        <ele>297.94500732422</ele>
        <time>2019-12-05T09:12:31+0100</time>
      </trkpt>
      <trkpt lat="47.20012" lon="4.95874">
        <ele>297.99353027344</ele>
        <time>2019-12-05T09:12:34+0100</time>
      </trkpt>
      <trkpt lat="47.20012" lon="4.95871">
        <ele>298.04721069336</ele>
        <time>2019-12-05T09:12:37+0100</time>
      </trkpt>
      <trkpt lat="47.20012" lon="4.9587">
        <ele>298.07153320312</ele>
        <time>2019-12-05T09:12:40+0100</time>
      </trkpt>
      <trkpt lat="47.20011" lon="4.95869">
        <ele>298.06552124023</ele>
        <time>2019-12-05T09:12:43+0100</time>
      </trkpt>
      <trkpt lat="47.20011" lon="4.95869">
        <ele>298.06307983398</ele>
        <time>2019-12-05T09:12:46+0100</time>
      </trkpt>
      <trkpt lat="47.20011" lon="4.95869">
        <ele>298.03887939453</ele>
        <time>2019-12-05T09:12:49+0100</time>
      </trkpt>
      <trkpt lat="47.20011" lon="4.95868">
        <ele>298.02713012695</ele>
        <time>2019-12-05T09:12:52+0100</time>
      </trkpt>
      <trkpt lat="47.20011" lon="4.95869">
        <ele>298.0299987793</ele>
        <time>2019-12-05T09:12:55+0100</time>
      </trkpt>
      <trkpt lat="47.20011" lon="4.9587">
        <ele>298.05606079102</ele>
        <time>2019-12-05T09:12:58+0100</time>
      </trkpt>
      <trkpt lat="47.20012" lon="4.95869">
        <ele>298.08557128906</ele>
        <time>2019-12-05T09:13:01+0100</time>
      </trkpt>
      <trkpt lat="47.20013" lon="4.95865">
        <ele>298.15585327148</ele>
        <time>2019-12-05T09:13:04+0100</time>
      </trkpt>
      <trkpt lat="47.20014" lon="4.95861">
        <ele>298.265625</ele>
        <time>2019-12-05T09:13:07+0100</time>
      </trkpt>
      <trkpt lat="47.20015" lon="4.95857">
        <ele>298.39999389648</ele>
        <time>2019-12-05T09:13:10+0100</time>
      </trkpt>
      <trkpt lat="47.20016" lon="4.95854">
        <ele>298.54052734375</ele>
        <time>2019-12-05T09:13:13+0100</time>
      </trkpt>
      <trkpt lat="47.20017" lon="4.95851">
        <ele>298.67166137695</ele>
        <time>2019-12-05T09:13:16+0100</time>
      </trkpt>
      <trkpt lat="47.20017" lon="4.95851">
        <ele>298.68557739258</ele>
        <time>2019-12-05T09:13:19+0100</time>
      </trkpt>
      <trkpt lat="47.20018" lon="4.9585">
        <ele>298.79895019531</ele>
        <time>2019-12-05T09:13:22+0100</time>
      </trkpt>
      <trkpt lat="47.20019" lon="4.95849">
        <ele>298.90185546875</ele>
        <time>2019-12-05T09:13:25+0100</time>
      </trkpt>
      <trkpt lat="47.20019" lon="4.95849">
        <ele>299.0153503418</ele>
        <time>2019-12-05T09:13:28+0100</time>
      </trkpt>
      <trkpt lat="47.2002" lon="4.95848">
        <ele>299.03073120117</ele>
        <time>2019-12-05T09:13:31+0100</time>
      </trkpt>
      <trkpt lat="47.2002" lon="4.95848">
        <ele>299.08419799805</ele>
        <time>2019-12-05T09:13:34+0100</time>
      </trkpt>
      <trkpt lat="47.2002" lon="4.95847">
        <ele>299.09680175781</ele>
        <time>2019-12-05T09:13:37+0100</time>
      </trkpt>
      <trkpt lat="47.2002" lon="4.95847">
        <ele>299.14682006836</ele>
        <time>2019-12-05T09:13:40+0100</time>
      </trkpt>
      <trkpt lat="47.2002" lon="4.95847">
        <ele>299.15679931641</ele>
        <time>2019-12-05T09:13:43+0100</time>
      </trkpt>
      <trkpt lat="47.20021" lon="4.95847">
        <ele>299.16552734375</ele>
        <time>2019-12-05T09:13:46+0100</time>
      </trkpt>
      <trkpt lat="47.20021" lon="4.95847">
        <ele>299.16937255859</ele>
        <time>2019-12-05T09:13:49+0100</time>
      </trkpt>
      <trkpt lat="47.20021" lon="4.95847">
        <ele>299.16690063477</ele>
        <time>2019-12-05T09:13:52+0100</time>
      </trkpt>
      <trkpt lat="47.20021" lon="4.95847">
        <ele>299.15939331055</ele>
        <time>2019-12-05T09:13:55+0100</time>
      </trkpt>
      <trkpt lat="47.20021" lon="4.95846">
        <ele>299.14575195312</ele>
        <time>2019-12-05T09:13:58+0100</time>
      </trkpt>
      <trkpt lat="47.20021" lon="4.95843">
        <ele>299.18453979492</ele>
        <time>2019-12-05T09:14:01+0100</time>
      </trkpt>
      <trkpt lat="47.20021" lon="4.95838">
        <ele>299.25979614258</ele>
        <time>2019-12-05T09:14:04+0100</time>
      </trkpt>
      <trkpt lat="47.20022" lon="4.95834">
        <ele>299.36935424805</ele>
        <time>2019-12-05T09:14:07+0100</time>
      </trkpt>
      <trkpt lat="47.20023" lon="4.9583">
        <ele>299.52523803711</ele>
        <time>2019-12-05T09:14:10+0100</time>
      </trkpt>
      <trkpt lat="47.20024" lon="4.95827">
        <ele>299.7314453125</ele>
        <time>2019-12-05T09:14:13+0100</time>
      </trkpt>
      <trkpt lat="47.20024" lon="4.95823">
        <ele>299.92092895508</ele>
        <time>2019-12-05T09:14:16+0100</time>
      </trkpt>
      <trkpt lat="47.20024" lon="4.9582">
        <ele>300.13348388672</ele>
        <time>2019-12-05T09:14:19+0100</time>
      </trkpt>
      <trkpt lat="47.20024" lon="4.95816">
        <ele>300.3835144043</ele>
        <time>2019-12-05T09:14:22+0100</time>
      </trkpt>
      <trkpt lat="47.20025" lon="4.95813">
        <ele>300.60882568359</ele>
        <time>2019-12-05T09:14:25+0100</time>
      </trkpt>
      <trkpt lat="47.20025" lon="4.95809">
        <ele>300.8134765625</ele>
        <time>2019-12-05T09:14:28+0100</time>
      </trkpt>
      <trkpt lat="47.20026" lon="4.95807">
        <ele>300.98956298828</ele>
        <time>2019-12-05T09:14:31+0100</time>
      </trkpt>
      <trkpt lat="47.20026" lon="4.95804">
        <ele>301.10726928711</ele>
        <time>2019-12-05T09:14:34+0100</time>
      </trkpt>
      <trkpt lat="47.20026" lon="4.958">
        <ele>301.20159912109</ele>
        <time>2019-12-05T09:14:37+0100</time>
      </trkpt>
      <trkpt lat="47.20026" lon="4.95797">
        <ele>301.30841064453</ele>
        <time>2019-12-05T09:14:40+0100</time>
      </trkpt>
      <trkpt lat="47.20025" lon="4.95792">
        <ele>301.44537353516</ele>
        <time>2019-12-05T09:14:43+0100</time>
      </trkpt>
      <trkpt lat="47.20025" lon="4.95787">
        <ele>301.62783813477</ele>
        <time>2019-12-05T09:14:46+0100</time>
      </trkpt>
      <trkpt lat="47.20025" lon="4.95785">
        <ele>301.85232543945</ele>
        <time>2019-12-05T09:14:49+0100</time>
      </trkpt>
      <trkpt lat="47.20024" lon="4.95781">
        <ele>302.10815429688</ele>
        <time>2019-12-05T09:14:52+0100</time>
      </trkpt>
      <trkpt lat="47.20023" lon="4.95778">
        <ele>302.35308837891</ele>
        <time>2019-12-05T09:14:55+0100</time>
      </trkpt>
      <trkpt lat="47.20023" lon="4.95775">
        <ele>302.61740112305</ele>
        <time>2019-12-05T09:14:58+0100</time>
      </trkpt>
      <trkpt lat="47.20023" lon="4.95772">
        <ele>302.95269775391</ele>
        <time>2019-12-05T09:15:01+0100</time>
      </trkpt>
      <trkpt lat="47.20022" lon="4.95767">
        <ele>303.37069702148</ele>
        <time>2019-12-05T09:15:04+0100</time>
      </trkpt>
      <trkpt lat="47.20021" lon="4.95762">
        <ele>303.84613037109</ele>
        <time>2019-12-05T09:15:07+0100</time>
      </trkpt>
      <trkpt lat="47.20021" lon="4.9576">
        <ele>304.36303710938</ele>
        <time>2019-12-05T09:15:10+0100</time>
      </trkpt>
      <trkpt lat="47.2002" lon="4.95756">
        <ele>304.89636230469</ele>
        <time>2019-12-05T09:15:13+0100</time>
      </trkpt>
      <trkpt lat="47.20018" lon="4.9575">
        <ele>305.42218017578</ele>
        <time>2019-12-05T09:15:16+0100</time>
      </trkpt>
      <trkpt lat="47.20017" lon="4.95746">
        <ele>305.92236328125</ele>
        <time>2019-12-05T09:15:19+0100</time>
      </trkpt>
      <trkpt lat="47.20016" lon="4.95742">
        <ele>306.39324951172</ele>
        <time>2019-12-05T09:15:22+0100</time>
      </trkpt>
      <trkpt lat="47.20014" lon="4.95737">
        <ele>306.82632446289</ele>
        <time>2019-12-05T09:15:25+0100</time>
      </trkpt>
      <trkpt lat="47.20013" lon="4.95732">
        <ele>307.20629882812</ele>
        <time>2019-12-05T09:15:28+0100</time>
      </trkpt>
      <trkpt lat="47.20012" lon="4.95728">
        <ele>307.54461669922</ele>
        <time>2019-12-05T09:15:31+0100</time>
      </trkpt>
      <trkpt lat="47.2001" lon="4.95724">
        <ele>307.85580444336</ele>
        <time>2019-12-05T09:15:34+0100</time>
      </trkpt>
      <trkpt lat="47.20009" lon="4.9572">
        <ele>308.16506958008</ele>
        <time>2019-12-05T09:15:37+0100</time>
      </trkpt>
      <trkpt lat="47.20008" lon="4.95717">
        <ele>308.46038818359</ele>
        <time>2019-12-05T09:15:40+0100</time>
      </trkpt>
      <trkpt lat="47.20007" lon="4.95716">
        <ele>308.73190307617</ele>
        <time>2019-12-05T09:15:43+0100</time>
      </trkpt>
      <trkpt lat="47.20006" lon="4.95716">
        <ele>308.99279785156</ele>
        <time>2019-12-05T09:15:46+0100</time>
      </trkpt>
      <trkpt lat="47.20004" lon="4.95716">
        <ele>309.2331237793</ele>
        <time>2019-12-05T09:15:49+0100</time>
      </trkpt>
      <trkpt lat="47.20003" lon="4.95717">
        <ele>309.45080566406</ele>
        <time>2019-12-05T09:15:52+0100</time>
      </trkpt>
      <trkpt lat="47.20001" lon="4.95719">
        <ele>309.67370605469</ele>
        <time>2019-12-05T09:15:55+0100</time>
      </trkpt>
      <trkpt lat="47.19997" lon="4.95721">
        <ele>309.90240478516</ele>
        <time>2019-12-05T09:15:58+0100</time>
      </trkpt>
      <trkpt lat="47.19995" lon="4.95723">
        <ele>310.1330871582</ele>
        <time>2019-12-05T09:16:01+0100</time>
      </trkpt>
      <trkpt lat="47.19993" lon="4.95724">
        <ele>310.36651611328</ele>
        <time>2019-12-05T09:16:04+0100</time>
      </trkpt>
      <trkpt lat="47.19991" lon="4.95725">
        <ele>310.59982299805</ele>
        <time>2019-12-05T09:16:07+0100</time>
      </trkpt>
      <trkpt lat="47.19988" lon="4.95726">
        <ele>310.84713745117</ele>
        <time>2019-12-05T09:16:10+0100</time>
      </trkpt>
      <trkpt lat="47.19985" lon="4.95727">
        <ele>311.12176513672</ele>
        <time>2019-12-05T09:16:13+0100</time>
      </trkpt>
      <trkpt lat="47.19982" lon="4.95728">
        <ele>311.41162109375</ele>
        <time>2019-12-05T09:16:16+0100</time>
      </trkpt>
      <trkpt lat="47.1998" lon="4.9573">
        <ele>311.69552612305</ele>
        <time>2019-12-05T09:16:19+0100</time>
      </trkpt>
      <trkpt lat="47.19978" lon="4.9573">
        <ele>311.990234375</ele>
        <time>2019-12-05T09:16:22+0100</time>
      </trkpt>
      <trkpt lat="47.19975" lon="4.95729">
        <ele>312.29626464844</ele>
        <time>2019-12-05T09:16:25+0100</time>
      </trkpt>
      <trkpt lat="47.19972" lon="4.9573">
        <ele>312.5927734375</ele>
        <time>2019-12-05T09:16:28+0100</time>
      </trkpt>
      <trkpt lat="47.19968" lon="4.95731">
        <ele>312.89901733398</ele>
        <time>2019-12-05T09:16:31+0100</time>
      </trkpt>
      <trkpt lat="47.19965" lon="4.95731">
        <ele>313.21545410156</ele>
        <time>2019-12-05T09:16:34+0100</time>
      </trkpt>
      <trkpt lat="47.19962" lon="4.95731">
        <ele>313.53131103516</ele>
        <time>2019-12-05T09:16:37+0100</time>
      </trkpt>
      <trkpt lat="47.1996" lon="4.9573">
        <ele>313.86489868164</ele>
        <time>2019-12-05T09:16:40+0100</time>
      </trkpt>
      <trkpt lat="47.19958" lon="4.95729">
        <ele>314.21780395508</ele>
        <time>2019-12-05T09:16:43+0100</time>
      </trkpt>
      <trkpt lat="47.19954" lon="4.95729">
        <ele>314.57788085938</ele>
        <time>2019-12-05T09:16:46+0100</time>
      </trkpt>
      <trkpt lat="47.19951" lon="4.95729">
        <ele>314.93948364258</ele>
        <time>2019-12-05T09:16:49+0100</time>
      </trkpt>
      <trkpt lat="47.19949" lon="4.95729">
        <ele>315.328125</ele>
        <time>2019-12-05T09:16:52+0100</time>
      </trkpt>
      <trkpt lat="47.19947" lon="4.9573">
        <ele>315.75347900391</ele>
        <time>2019-12-05T09:16:55+0100</time>
      </trkpt>
      <trkpt lat="47.19943" lon="4.9573">
        <ele>316.19107055664</ele>
        <time>2019-12-05T09:16:58+0100</time>
      </trkpt>
      <trkpt lat="47.1994" lon="4.95729">
        <ele>316.65295410156</ele>
        <time>2019-12-05T09:17:01+0100</time>
      </trkpt>
      <trkpt lat="47.19938" lon="4.95729">
        <ele>317.12377929688</ele>
        <time>2019-12-05T09:17:04+0100</time>
      </trkpt>
      <trkpt lat="47.19935" lon="4.95729">
        <ele>317.59744262695</ele>
        <time>2019-12-05T09:17:07+0100</time>
      </trkpt>
      <trkpt lat="47.19932" lon="4.95729">
        <ele>318.04428100586</ele>
        <time>2019-12-05T09:17:10+0100</time>
      </trkpt>
      <trkpt lat="47.19929" lon="4.95729">
        <ele>318.49136352539</ele>
        <time>2019-12-05T09:17:13+0100</time>
      </trkpt>
      <trkpt lat="47.19926" lon="4.95729">
        <ele>318.94647216797</ele>
        <time>2019-12-05T09:17:16+0100</time>
      </trkpt>
      <trkpt lat="47.19924" lon="4.9573">
        <ele>319.37585449219</ele>
        <time>2019-12-05T09:17:19+0100</time>
      </trkpt>
      <trkpt lat="47.19921" lon="4.95729">
        <ele>319.77313232422</ele>
        <time>2019-12-05T09:17:22+0100</time>
      </trkpt>
      <trkpt lat="47.19919" lon="4.9573">
        <ele>320.14828491211</ele>
        <time>2019-12-05T09:17:25+0100</time>
      </trkpt>
      <trkpt lat="47.19917" lon="4.9573">
        <ele>320.52386474609</ele>
        <time>2019-12-05T09:17:28+0100</time>
      </trkpt>
      <trkpt lat="47.19914" lon="4.95729">
        <ele>320.90200805664</ele>
        <time>2019-12-05T09:17:31+0100</time>
      </trkpt>
      <trkpt lat="47.19912" lon="4.95728">
        <ele>321.27575683594</ele>
        <time>2019-12-05T09:17:34+0100</time>
      </trkpt>
      <trkpt lat="47.19908" lon="4.95727">
        <ele>321.65173339844</ele>
        <time>2019-12-05T09:17:37+0100</time>
      </trkpt>
      <trkpt lat="47.19905" lon="4.95726">
        <ele>322.06076049805</ele>
        <time>2019-12-05T09:17:40+0100</time>
      </trkpt>
      <trkpt lat="47.19901" lon="4.95726">
        <ele>322.47155761719</ele>
        <time>2019-12-05T09:17:43+0100</time>
      </trkpt>
      <trkpt lat="47.19897" lon="4.95726">
        <ele>322.86572265625</ele>
        <time>2019-12-05T09:17:46+0100</time>
      </trkpt>
      <trkpt lat="47.19894" lon="4.95724">
        <ele>323.26715087891</ele>
        <time>2019-12-05T09:17:49+0100</time>
      </trkpt>
      <trkpt lat="47.19889" lon="4.95723">
        <ele>323.67044067383</ele>
        <time>2019-12-05T09:17:52+0100</time>
      </trkpt>
      <trkpt lat="47.19885" lon="4.95723">
        <ele>324.02743530273</ele>
        <time>2019-12-05T09:17:55+0100</time>
      </trkpt>
      <trkpt lat="47.19881" lon="4.95722">
        <ele>324.34182739258</ele>
        <time>2019-12-05T09:17:58+0100</time>
      </trkpt>
      <trkpt lat="47.19879" lon="4.95722">
        <ele>324.67910766602</ele>
        <time>2019-12-05T09:18:01+0100</time>
      </trkpt>
      <trkpt lat="47.19876" lon="4.95722">
        <ele>325.01611328125</ele>
        <time>2019-12-05T09:18:04+0100</time>
      </trkpt>
      <trkpt lat="47.19871" lon="4.95723">
        <ele>325.28887939453</ele>
        <time>2019-12-05T09:18:07+0100</time>
      </trkpt>
      <trkpt lat="47.19868" lon="4.95723">
        <ele>325.49066162109</ele>
        <time>2019-12-05T09:18:10+0100</time>
      </trkpt>
      <trkpt lat="47.19865" lon="4.95723">
        <ele>325.65957641602</ele>
        <time>2019-12-05T09:18:13+0100</time>
      </trkpt>
      <trkpt lat="47.19863" lon="4.95724">
        <ele>325.79965209961</ele>
        <time>2019-12-05T09:18:16+0100</time>
      </trkpt>
      <trkpt lat="47.1986" lon="4.95725">
        <ele>325.92236328125</ele>
        <time>2019-12-05T09:18:19+0100</time>
      </trkpt>
      <trkpt lat="47.19857" lon="4.95727">
        <ele>326.02737426758</ele>
        <time>2019-12-05T09:18:22+0100</time>
      </trkpt>
      <trkpt lat="47.19854" lon="4.95728">
        <ele>326.09768676758</ele>
        <time>2019-12-05T09:18:25+0100</time>
      </trkpt>
      <trkpt lat="47.19851" lon="4.9573">
        <ele>326.12847900391</ele>
        <time>2019-12-05T09:18:28+0100</time>
      </trkpt>
      <trkpt lat="47.19848" lon="4.95731">
        <ele>326.11407470703</ele>
        <time>2019-12-05T09:18:31+0100</time>
      </trkpt>
      <trkpt lat="47.19845" lon="4.95732">
        <ele>326.10180664062</ele>
        <time>2019-12-05T09:18:34+0100</time>
      </trkpt>
      <trkpt lat="47.19842" lon="4.95733">
        <ele>326.09753417969</ele>
        <time>2019-12-05T09:18:37+0100</time>
      </trkpt>
      <trkpt lat="47.19839" lon="4.95733">
        <ele>326.11108398438</ele>
        <time>2019-12-05T09:18:40+0100</time>
      </trkpt>
      <trkpt lat="47.19837" lon="4.95732">
        <ele>326.13137817383</ele>
        <time>2019-12-05T09:18:43+0100</time>
      </trkpt>
      <trkpt lat="47.19834" lon="4.95732">
        <ele>326.17245483398</ele>
        <time>2019-12-05T09:18:46+0100</time>
      </trkpt>
      <trkpt lat="47.1983" lon="4.95732">
        <ele>326.23010253906</ele>
        <time>2019-12-05T09:18:49+0100</time>
      </trkpt>
      <trkpt lat="47.19827" lon="4.95732">
        <ele>326.28521728516</ele>
        <time>2019-12-05T09:18:52+0100</time>
      </trkpt>
      <trkpt lat="47.19823" lon="4.95732">
        <ele>326.34301757812</ele>
        <time>2019-12-05T09:18:55+0100</time>
      </trkpt>
      <trkpt lat="47.19821" lon="4.95732">
        <ele>326.41809082031</ele>
        <time>2019-12-05T09:18:58+0100</time>
      </trkpt>
      <trkpt lat="47.19818" lon="4.95731">
        <ele>326.48291015625</ele>
        <time>2019-12-05T09:19:01+0100</time>
      </trkpt>
      <trkpt lat="47.19815" lon="4.95731">
        <ele>326.54632568359</ele>
        <time>2019-12-05T09:19:04+0100</time>
      </trkpt>
      <trkpt lat="47.19811" lon="4.9573">
        <ele>326.62097167969</ele>
        <time>2019-12-05T09:19:07+0100</time>
      </trkpt>
      <trkpt lat="47.19807" lon="4.9573">
        <ele>326.70785522461</ele>
        <time>2019-12-05T09:19:10+0100</time>
      </trkpt>
      <trkpt lat="47.19804" lon="4.9573">
        <ele>326.78485107422</ele>
        <time>2019-12-05T09:19:13+0100</time>
      </trkpt>
      <trkpt lat="47.19801" lon="4.9573">
        <ele>326.89514160156</ele>
        <time>2019-12-05T09:19:16+0100</time>
      </trkpt>
      <trkpt lat="47.19798" lon="4.9573">
        <ele>326.99285888672</ele>
        <time>2019-12-05T09:19:19+0100</time>
      </trkpt>
      <trkpt lat="47.19795" lon="4.95729">
        <ele>327.08685302734</ele>
        <time>2019-12-05T09:19:22+0100</time>
      </trkpt>
      <trkpt lat="47.19791" lon="4.95729">
        <ele>327.18692016602</ele>
        <time>2019-12-05T09:19:25+0100</time>
      </trkpt>
      <trkpt lat="47.19789" lon="4.95729">
        <ele>327.29495239258</ele>
        <time>2019-12-05T09:19:28+0100</time>
      </trkpt>
      <trkpt lat="47.19787" lon="4.95728">
        <ele>327.39898681641</ele>
        <time>2019-12-05T09:19:31+0100</time>
      </trkpt>
      <trkpt lat="47.19783" lon="4.95728">
        <ele>327.48583984375</ele>
        <time>2019-12-05T09:19:34+0100</time>
      </trkpt>
      <trkpt lat="47.19781" lon="4.95729">
        <ele>327.55944824219</ele>
        <time>2019-12-05T09:19:37+0100</time>
      </trkpt>
      <trkpt lat="47.19778" lon="4.95729">
        <ele>327.63397216797</ele>
        <time>2019-12-05T09:19:40+0100</time>
      </trkpt>
      <trkpt lat="47.19775" lon="4.95728">
        <ele>327.72775268555</ele>
        <time>2019-12-05T09:19:43+0100</time>
      </trkpt>
      <trkpt lat="47.19772" lon="4.95727">
        <ele>327.83352661133</ele>
        <time>2019-12-05T09:19:46+0100</time>
      </trkpt>
      <trkpt lat="47.19769" lon="4.95727">
        <ele>327.93887329102</ele>
        <time>2019-12-05T09:19:49+0100</time>
      </trkpt>
      <trkpt lat="47.19765" lon="4.95726">
        <ele>328.02590942383</ele>
        <time>2019-12-05T09:19:52+0100</time>
      </trkpt>
      <trkpt lat="47.19762" lon="4.95727">
        <ele>328.09753417969</ele>
        <time>2019-12-05T09:19:55+0100</time>
      </trkpt>
      <trkpt lat="47.19759" lon="4.95726">
        <ele>328.15243530273</ele>
        <time>2019-12-05T09:19:58+0100</time>
      </trkpt>
      <trkpt lat="47.19755" lon="4.95726">
        <ele>328.19534301758</ele>
        <time>2019-12-05T09:20:01+0100</time>
      </trkpt>
      <trkpt lat="47.19751" lon="4.95726">
        <ele>328.2255859375</ele>
        <time>2019-12-05T09:20:04+0100</time>
      </trkpt>
      <trkpt lat="47.19748" lon="4.95726">
        <ele>328.26010131836</ele>
        <time>2019-12-05T09:20:07+0100</time>
      </trkpt>
      <trkpt lat="47.19745" lon="4.95726">
        <ele>328.31011962891</ele>
        <time>2019-12-05T09:20:10+0100</time>
      </trkpt>
      <trkpt lat="47.19742" lon="4.95725">
        <ele>328.38018798828</ele>
        <time>2019-12-05T09:20:13+0100</time>
      </trkpt>
      <trkpt lat="47.1974" lon="4.95725">
        <ele>328.44436645508</ele>
        <time>2019-12-05T09:20:16+0100</time>
      </trkpt>
      <trkpt lat="47.19738" lon="4.95725">
        <ele>328.50234985352</ele>
        <time>2019-12-05T09:20:19+0100</time>
      </trkpt>
      <trkpt lat="47.19734" lon="4.95725">
        <ele>328.5498046875</ele>
        <time>2019-12-05T09:20:22+0100</time>
      </trkpt>
      <trkpt lat="47.19731" lon="4.95724">
        <ele>328.60879516602</ele>
        <time>2019-12-05T09:20:25+0100</time>
      </trkpt>
      <trkpt lat="47.19727" lon="4.95724">
        <ele>328.65737915039</ele>
        <time>2019-12-05T09:20:28+0100</time>
      </trkpt>
      <trkpt lat="47.19724" lon="4.95724">
        <ele>328.69442749023</ele>
        <time>2019-12-05T09:20:31+0100</time>
      </trkpt>
      <trkpt lat="47.1972" lon="4.95722">
        <ele>328.72055053711</ele>
        <time>2019-12-05T09:20:34+0100</time>
      </trkpt>
      <trkpt lat="47.19718" lon="4.95722">
        <ele>328.75274658203</ele>
        <time>2019-12-05T09:20:37+0100</time>
      </trkpt>
      <trkpt lat="47.19715" lon="4.95721">
        <ele>328.78759765625</ele>
        <time>2019-12-05T09:20:40+0100</time>
      </trkpt>
      <trkpt lat="47.19713" lon="4.9572">
        <ele>328.8196105957</ele>
        <time>2019-12-05T09:20:43+0100</time>
      </trkpt>
      <trkpt lat="47.19711" lon="4.95718">
        <ele>328.83682250977</ele>
        <time>2019-12-05T09:20:46+0100</time>
      </trkpt>
      <trkpt lat="47.1971" lon="4.95715">
        <ele>328.85989379883</ele>
        <time>2019-12-05T09:20:49+0100</time>
      </trkpt>
      <trkpt lat="47.1971" lon="4.95711">
        <ele>328.90560913086</ele>
        <time>2019-12-05T09:20:52+0100</time>
      </trkpt>
      <trkpt lat="47.19709" lon="4.95708">
        <ele>328.953125</ele>
        <time>2019-12-05T09:20:55+0100</time>
      </trkpt>
      <trkpt lat="47.19709" lon="4.95705">
        <ele>329.01223754883</ele>
        <time>2019-12-05T09:20:58+0100</time>
      </trkpt>
      <trkpt lat="47.19709" lon="4.95702">
        <ele>329.07708740234</ele>
        <time>2019-12-05T09:21:01+0100</time>
      </trkpt>
      <trkpt lat="47.19709" lon="4.95699">
        <ele>329.14935302734</ele>
        <time>2019-12-05T09:21:04+0100</time>
      </trkpt>
      <trkpt lat="47.19709" lon="4.95696">
        <ele>329.23950195312</ele>
        <time>2019-12-05T09:21:07+0100</time>
      </trkpt>
      <trkpt lat="47.19709" lon="4.95693">
        <ele>329.33920288086</ele>
        <time>2019-12-05T09:21:10+0100</time>
      </trkpt>
      <trkpt lat="47.19709" lon="4.95689">
        <ele>329.44912719727</ele>
        <time>2019-12-05T09:21:13+0100</time>
      </trkpt>
      <trkpt lat="47.19709" lon="4.95686">
        <ele>329.56219482422</ele>
        <time>2019-12-05T09:21:16+0100</time>
      </trkpt>
      <trkpt lat="47.19709" lon="4.95683">
        <ele>329.66644287109</ele>
        <time>2019-12-05T09:21:19+0100</time>
      </trkpt>
      <trkpt lat="47.19709" lon="4.9568">
        <ele>329.76373291016</ele>
        <time>2019-12-05T09:21:22+0100</time>
      </trkpt>
      <trkpt lat="47.19709" lon="4.95678">
        <ele>329.86270141602</ele>
        <time>2019-12-05T09:21:25+0100</time>
      </trkpt>
      <trkpt lat="47.19709" lon="4.95676">
        <ele>329.97497558594</ele>
        <time>2019-12-05T09:21:28+0100</time>
      </trkpt>
      <trkpt lat="47.19709" lon="4.95673">
        <ele>330.10583496094</ele>
        <time>2019-12-05T09:21:31+0100</time>
      </trkpt>
      <trkpt lat="47.19709" lon="4.9567">
        <ele>330.25738525391</ele>
        <time>2019-12-05T09:21:34+0100</time>
      </trkpt>
      <trkpt lat="47.19708" lon="4.95667">
        <ele>330.43179321289</ele>
        <time>2019-12-05T09:21:36+0100</time>
      </trkpt>
      <trkpt lat="47.19708" lon="4.95665">
        <ele>330.61825561523</ele>
        <time>2019-12-05T09:21:39+0100</time>
      </trkpt>
      <trkpt lat="47.19708" lon="4.95662">
        <ele>330.81762695312</ele>
        <time>2019-12-05T09:21:42+0100</time>
      </trkpt>
      <trkpt lat="47.19708" lon="4.9566">
        <ele>331.03234863281</ele>
        <time>2019-12-05T09:21:45+0100</time>
      </trkpt>
      <trkpt lat="47.19708" lon="4.95657">
        <ele>331.26007080078</ele>
        <time>2019-12-05T09:21:48+0100</time>
      </trkpt>
      <trkpt lat="47.19708" lon="4.95655">
        <ele>331.50439453125</ele>
        <time>2019-12-05T09:21:51+0100</time>
      </trkpt>
      <trkpt lat="47.19708" lon="4.95653">
        <ele>331.76382446289</ele>
        <time>2019-12-05T09:21:54+0100</time>
      </trkpt>
      <trkpt lat="47.19709" lon="4.9565">
        <ele>332.03094482422</ele>
        <time>2019-12-05T09:21:57+0100</time>
      </trkpt>
      <trkpt lat="47.19709" lon="4.95646">
        <ele>332.31213378906</ele>
        <time>2019-12-05T09:22:00+0100</time>
      </trkpt>
      <trkpt lat="47.19709" lon="4.95644">
        <ele>332.60235595703</ele>
        <time>2019-12-05T09:22:03+0100</time>
      </trkpt>
      <trkpt lat="47.19709" lon="4.95641">
        <ele>332.89910888672</ele>
        <time>2019-12-05T09:22:06+0100</time>
      </trkpt>
      <trkpt lat="47.19709" lon="4.95639">
        <ele>333.20623779297</ele>
        <time>2019-12-05T09:22:09+0100</time>
      </trkpt>
      <trkpt lat="47.19709" lon="4.95636">
        <ele>333.51251220703</ele>
        <time>2019-12-05T09:22:12+0100</time>
      </trkpt>
      <trkpt lat="47.19709" lon="4.95634">
        <ele>333.81942749023</ele>
        <time>2019-12-05T09:22:15+0100</time>
      </trkpt>
      <trkpt lat="47.19709" lon="4.95631">
        <ele>334.12692260742</ele>
        <time>2019-12-05T09:22:18+0100</time>
      </trkpt>
      <trkpt lat="47.1971" lon="4.95629">
        <ele>334.43597412109</ele>
        <time>2019-12-05T09:22:21+0100</time>
      </trkpt>
      <trkpt lat="47.1971" lon="4.95626">
        <ele>334.74661254883</ele>
        <time>2019-12-05T09:22:24+0100</time>
      </trkpt>
      <trkpt lat="47.1971" lon="4.95623">
        <ele>335.05377197266</ele>
        <time>2019-12-05T09:22:27+0100</time>
      </trkpt>
      <trkpt lat="47.1971" lon="4.9562">
        <ele>335.35791015625</ele>
        <time>2019-12-05T09:22:30+0100</time>
      </trkpt>
      <trkpt lat="47.1971" lon="4.95617">
        <ele>335.66445922852</ele>
        <time>2019-12-05T09:22:33+0100</time>
      </trkpt>
      <trkpt lat="47.1971" lon="4.95614">
        <ele>335.9714050293</ele>
        <time>2019-12-05T09:22:36+0100</time>
      </trkpt>
      <trkpt lat="47.1971" lon="4.95612">
        <ele>336.27572631836</ele>
        <time>2019-12-05T09:22:39+0100</time>
      </trkpt>
      <trkpt lat="47.1971" lon="4.9561">
        <ele>336.58190917969</ele>
        <time>2019-12-05T09:22:42+0100</time>
      </trkpt>
      <trkpt lat="47.1971" lon="4.95607">
        <ele>336.90438842773</ele>
        <time>2019-12-05T09:22:45+0100</time>
      </trkpt>
      <trkpt lat="47.1971" lon="4.95606">
        <ele>337.23397827148</ele>
        <time>2019-12-05T09:22:48+0100</time>
      </trkpt>
      <trkpt lat="47.1971" lon="4.95604">
        <ele>337.56481933594</ele>
        <time>2019-12-05T09:22:51+0100</time>
      </trkpt>
      <trkpt lat="47.1971" lon="4.95602">
        <ele>337.90719604492</ele>
        <time>2019-12-05T09:22:54+0100</time>
      </trkpt>
      <trkpt lat="47.1971" lon="4.95599">
        <ele>338.26382446289</ele>
        <time>2019-12-05T09:22:57+0100</time>
      </trkpt>
      <trkpt lat="47.1971" lon="4.95597">
        <ele>338.62564086914</ele>
        <time>2019-12-05T09:23:00+0100</time>
      </trkpt>
      <trkpt lat="47.1971" lon="4.95594">
        <ele>338.99340820312</ele>
        <time>2019-12-05T09:23:03+0100</time>
      </trkpt>
      <trkpt lat="47.1971" lon="4.95593">
        <ele>339.36761474609</ele>
        <time>2019-12-05T09:23:06+0100</time>
      </trkpt>
      <trkpt lat="47.19709" lon="4.95591">
        <ele>339.74090576172</ele>
        <time>2019-12-05T09:23:09+0100</time>
      </trkpt>
      <trkpt lat="47.19709" lon="4.95588">
        <ele>340.11181640625</ele>
        <time>2019-12-05T09:23:12+0100</time>
      </trkpt>
      <trkpt lat="47.19709" lon="4.95586">
        <ele>340.48721313477</ele>
        <time>2019-12-05T09:23:15+0100</time>
      </trkpt>
      <trkpt lat="47.19709" lon="4.95583">
        <ele>340.86614990234</ele>
        <time>2019-12-05T09:23:18+0100</time>
      </trkpt>
      <trkpt lat="47.19709" lon="4.95581">
        <ele>341.24557495117</ele>
        <time>2019-12-05T09:23:21+0100</time>
      </trkpt>
      <trkpt lat="47.1971" lon="4.95578">
        <ele>341.62396240234</ele>
        <time>2019-12-05T09:23:24+0100</time>
      </trkpt>
      <trkpt lat="47.1971" lon="4.95577">
        <ele>341.77618408203</ele>
        <time>2019-12-05T09:23:27+0100</time>
      </trkpt>
      <trkpt lat="47.1971" lon="4.95575">
        <ele>342.17474365234</ele>
        <time>2019-12-05T09:23:30+0100</time>
      </trkpt>
      <trkpt lat="47.1971" lon="4.95573">
        <ele>342.58020019531</ele>
        <time>2019-12-05T09:23:33+0100</time>
      </trkpt>
      <trkpt lat="47.1971" lon="4.95572">
        <ele>342.86987304688</ele>
        <time>2019-12-05T09:23:36+0100</time>
      </trkpt>
      <trkpt lat="47.1971" lon="4.9557">
        <ele>343.28668212891</ele>
        <time>2019-12-05T09:23:39+0100</time>
      </trkpt>
      <trkpt lat="47.1971" lon="4.95569">
        <ele>343.45233154297</ele>
        <time>2019-12-05T09:23:42+0100</time>
      </trkpt>
      <trkpt lat="47.19709" lon="4.95568">
        <ele>343.87216186523</ele>
        <time>2019-12-05T09:23:45+0100</time>
      </trkpt>
      <trkpt lat="47.19709" lon="4.95567">
        <ele>344.03039550781</ele>
        <time>2019-12-05T09:23:48+0100</time>
      </trkpt>
      <trkpt lat="47.19709" lon="4.95567">
        <ele>344.0666809082</ele>
        <time>2019-12-05T09:23:51+0100</time>
      </trkpt>
      <trkpt lat="47.19709" lon="4.95567">
        <ele>344.29208374023</ele>
        <time>2019-12-05T09:23:54+0100</time>
      </trkpt>
      <trkpt lat="47.19709" lon="4.95569">
        <ele>344.31866455078</ele>
        <time>2019-12-05T09:23:57+0100</time>
      </trkpt>
      <trkpt lat="47.19709" lon="4.95569">
        <ele>344.34100341797</ele>
        <time>2019-12-05T09:24:00+0100</time>
      </trkpt>
      <trkpt lat="47.19709" lon="4.95569">
        <ele>344.36614990234</ele>
        <time>2019-12-05T09:24:03+0100</time>
      </trkpt>
      <trkpt lat="47.19709" lon="4.95569">
        <ele>344.39147949219</ele>
        <time>2019-12-05T09:24:06+0100</time>
      </trkpt>
      <trkpt lat="47.19709" lon="4.95569">
        <ele>344.41638183594</ele>
        <time>2019-12-05T09:24:09+0100</time>
      </trkpt>
      <trkpt lat="47.19709" lon="4.95569">
        <ele>344.44314575195</ele>
        <time>2019-12-05T09:24:12+0100</time>
      </trkpt>
      <trkpt lat="47.19709" lon="4.9557">
        <ele>344.47171020508</ele>
        <time>2019-12-05T09:24:15+0100</time>
      </trkpt>
      <trkpt lat="47.19709" lon="4.9557">
        <ele>344.50469970703</ele>
        <time>2019-12-05T09:24:18+0100</time>
      </trkpt>
      <trkpt lat="47.19709" lon="4.95569">
        <ele>344.54327392578</ele>
        <time>2019-12-05T09:24:21+0100</time>
      </trkpt>
      <trkpt lat="47.19709" lon="4.95569">
        <ele>344.58450317383</ele>
        <time>2019-12-05T09:24:24+0100</time>
      </trkpt>
      <trkpt lat="47.19709" lon="4.95569">
        <ele>344.62747192383</ele>
        <time>2019-12-05T09:24:27+0100</time>
      </trkpt>
      <trkpt lat="47.19709" lon="4.95569">
        <ele>344.67514038086</ele>
        <time>2019-12-05T09:24:30+0100</time>
      </trkpt>
      <trkpt lat="47.19709" lon="4.95569">
        <ele>344.72537231445</ele>
        <time>2019-12-05T09:24:33+0100</time>
      </trkpt>
      <trkpt lat="47.19709" lon="4.95569">
        <ele>344.77355957031</ele>
        <time>2019-12-05T09:24:36+0100</time>
      </trkpt>
      <trkpt lat="47.19709" lon="4.95569">
        <ele>344.81469726562</ele>
        <time>2019-12-05T09:24:39+0100</time>
      </trkpt>
      <trkpt lat="47.19709" lon="4.95569">
        <ele>344.849609375</ele>
        <time>2019-12-05T09:24:42+0100</time>
      </trkpt>
      <trkpt lat="47.19709" lon="4.95569">
        <ele>344.88088989258</ele>
        <time>2019-12-05T09:24:45+0100</time>
      </trkpt>
      <trkpt lat="47.19709" lon="4.95569">
        <ele>344.9108581543</ele>
        <time>2019-12-05T09:24:48+0100</time>
      </trkpt>
      <trkpt lat="47.19708" lon="4.95569">
        <ele>344.93957519531</ele>
        <time>2019-12-05T09:24:51+0100</time>
      </trkpt>
      <trkpt lat="47.19708" lon="4.95569">
        <ele>344.96463012695</ele>
        <time>2019-12-05T09:24:54+0100</time>
      </trkpt>
      <trkpt lat="47.19708" lon="4.95569">
        <ele>344.98651123047</ele>
        <time>2019-12-05T09:24:57+0100</time>
      </trkpt>
      <trkpt lat="47.19708" lon="4.95569">
        <ele>345.00894165039</ele>
        <time>2019-12-05T09:25:00+0100</time>
      </trkpt>
      <trkpt lat="47.19708" lon="4.95569">
        <ele>345.03295898438</ele>
        <time>2019-12-05T09:25:03+0100</time>
      </trkpt>
      <trkpt lat="47.19709" lon="4.95569">
        <ele>345.05606079102</ele>
        <time>2019-12-05T09:25:06+0100</time>
      </trkpt>
      <trkpt lat="47.19709" lon="4.95569">
        <ele>345.07885742188</ele>
        <time>2019-12-05T09:25:09+0100</time>
      </trkpt>
      <trkpt lat="47.19709" lon="4.95569">
        <ele>345.10440063477</ele>
        <time>2019-12-05T09:25:12+0100</time>
      </trkpt>
      <trkpt lat="47.19709" lon="4.95569">
        <ele>345.13507080078</ele>
        <time>2019-12-05T09:25:15+0100</time>
      </trkpt>
      <trkpt lat="47.19709" lon="4.95569">
        <ele>345.1706237793</ele>
        <time>2019-12-05T09:25:18+0100</time>
      </trkpt>
      <trkpt lat="47.19709" lon="4.95569">
        <ele>345.20986938477</ele>
        <time>2019-12-05T09:25:21+0100</time>
      </trkpt>
      <trkpt lat="47.19709" lon="4.95569">
        <ele>345.24716186523</ele>
        <time>2019-12-05T09:25:24+0100</time>
      </trkpt>
      <trkpt lat="47.19709" lon="4.95569">
        <ele>345.2844543457</ele>
        <time>2019-12-05T09:25:27+0100</time>
      </trkpt>
      <trkpt lat="47.19709" lon="4.95569">
        <ele>345.32748413086</ele>
        <time>2019-12-05T09:25:30+0100</time>
      </trkpt>
      <trkpt lat="47.19709" lon="4.95569">
        <ele>345.37539672852</ele>
        <time>2019-12-05T09:25:33+0100</time>
      </trkpt>
      <trkpt lat="47.19709" lon="4.95569">
        <ele>345.42401123047</ele>
        <time>2019-12-05T09:25:36+0100</time>
      </trkpt>
      <trkpt lat="47.19709" lon="4.95569">
        <ele>345.474609375</ele>
        <time>2019-12-05T09:25:39+0100</time>
      </trkpt>
      <trkpt lat="47.19709" lon="4.95569">
        <ele>345.52722167969</ele>
        <time>2019-12-05T09:25:42+0100</time>
      </trkpt>
      <trkpt lat="47.1971" lon="4.95569">
        <ele>345.57516479492</ele>
        <time>2019-12-05T09:25:45+0100</time>
      </trkpt>
      <trkpt lat="47.1971" lon="4.95569">
        <ele>345.62622070312</ele>
        <time>2019-12-05T09:25:48+0100</time>
      </trkpt>
      <trkpt lat="47.1971" lon="4.95569">
        <ele>345.67816162109</ele>
        <time>2019-12-05T09:25:51+0100</time>
      </trkpt>
      <trkpt lat="47.1971" lon="4.95569">
        <ele>345.73211669922</ele>
        <time>2019-12-05T09:25:54+0100</time>
      </trkpt>
      <trkpt lat="47.1971" lon="4.95569">
        <ele>345.79287719727</ele>
        <time>2019-12-05T09:25:57+0100</time>
      </trkpt>
      <trkpt lat="47.19711" lon="4.9557">
        <ele>345.8564453125</ele>
        <time>2019-12-05T09:26:00+0100</time>
      </trkpt>
      <trkpt lat="47.19711" lon="4.9557">
        <ele>345.92254638672</ele>
        <time>2019-12-05T09:26:03+0100</time>
      </trkpt>
      <trkpt lat="47.19711" lon="4.95569">
        <ele>345.98907470703</ele>
        <time>2019-12-05T09:26:06+0100</time>
      </trkpt>
      <trkpt lat="47.1971" lon="4.95569">
        <ele>346.04843139648</ele>
        <time>2019-12-05T09:26:09+0100</time>
      </trkpt>
      <trkpt lat="47.1971" lon="4.95569">
        <ele>346.10131835938</ele>
        <time>2019-12-05T09:26:12+0100</time>
      </trkpt>
      <trkpt lat="47.1971" lon="4.95569">
        <ele>346.150390625</ele>
        <time>2019-12-05T09:26:15+0100</time>
      </trkpt>
      <trkpt lat="47.1971" lon="4.95569">
        <ele>346.19787597656</ele>
        <time>2019-12-05T09:26:18+0100</time>
      </trkpt>
      <trkpt lat="47.1971" lon="4.95569">
        <ele>346.24234008789</ele>
        <time>2019-12-05T09:26:21+0100</time>
      </trkpt>
      <trkpt lat="47.1971" lon="4.95568">
        <ele>346.28414916992</ele>
        <time>2019-12-05T09:26:24+0100</time>
      </trkpt>
      <trkpt lat="47.1971" lon="4.95568">
        <ele>346.32525634766</ele>
        <time>2019-12-05T09:26:27+0100</time>
      </trkpt>
      <trkpt lat="47.1971" lon="4.95568">
        <ele>346.36401367188</ele>
        <time>2019-12-05T09:26:30+0100</time>
      </trkpt>
      <trkpt lat="47.1971" lon="4.95568">
        <ele>346.3987121582</ele>
        <time>2019-12-05T09:26:33+0100</time>
      </trkpt>
      <trkpt lat="47.1971" lon="4.95567">
        <ele>346.42980957031</ele>
        <time>2019-12-05T09:26:36+0100</time>
      </trkpt>
      <trkpt lat="47.1971" lon="4.95567">
        <ele>346.45959472656</ele>
        <time>2019-12-05T09:26:39+0100</time>
      </trkpt>
      <trkpt lat="47.1971" lon="4.95567">
        <ele>346.48947143555</ele>
        <time>2019-12-05T09:26:42+0100</time>
      </trkpt>
      <trkpt lat="47.1971" lon="4.95566">
        <ele>346.51922607422</ele>
        <time>2019-12-05T09:26:45+0100</time>
      </trkpt>
      <trkpt lat="47.1971" lon="4.95566">
        <ele>346.54473876953</ele>
        <time>2019-12-05T09:26:48+0100</time>
      </trkpt>
      <trkpt lat="47.1971" lon="4.95566">
        <ele>346.57504272461</ele>
        <time>2019-12-05T09:26:51+0100</time>
      </trkpt>
      <trkpt lat="47.1971" lon="4.95566">
        <ele>346.60659790039</ele>
        <time>2019-12-05T09:26:54+0100</time>
      </trkpt>
      <trkpt lat="47.19709" lon="4.95565">
        <ele>346.64019775391</ele>
        <time>2019-12-05T09:26:57+0100</time>
      </trkpt>
      <trkpt lat="47.19709" lon="4.95565">
        <ele>346.67370605469</ele>
        <time>2019-12-05T09:27:00+0100</time>
      </trkpt>
      <trkpt lat="47.19709" lon="4.95565">
        <ele>346.70950317383</ele>
        <time>2019-12-05T09:27:03+0100</time>
      </trkpt>
      <trkpt lat="47.19709" lon="4.95566">
        <ele>346.74459838867</ele>
        <time>2019-12-05T09:27:06+0100</time>
      </trkpt>
      <trkpt lat="47.19709" lon="4.95566">
        <ele>346.77850341797</ele>
        <time>2019-12-05T09:27:09+0100</time>
      </trkpt>
      <trkpt lat="47.19709" lon="4.95566">
        <ele>346.81176757812</ele>
        <time>2019-12-05T09:27:12+0100</time>
      </trkpt>
      <trkpt lat="47.19709" lon="4.95566">
        <ele>346.84292602539</ele>
        <time>2019-12-05T09:27:15+0100</time>
      </trkpt>
      <trkpt lat="47.19709" lon="4.95566">
        <ele>346.87203979492</ele>
        <time>2019-12-05T09:27:18+0100</time>
      </trkpt>
      <trkpt lat="47.19709" lon="4.95566">
        <ele>346.89889526367</ele>
        <time>2019-12-05T09:27:21+0100</time>
      </trkpt>
      <trkpt lat="47.19709" lon="4.95566">
        <ele>346.92431640625</ele>
        <time>2019-12-05T09:27:24+0100</time>
      </trkpt>
      <trkpt lat="47.19709" lon="4.95566">
        <ele>346.94491577148</ele>
        <time>2019-12-05T09:27:27+0100</time>
      </trkpt>
      <trkpt lat="47.19709" lon="4.95566">
        <ele>346.96170043945</ele>
        <time>2019-12-05T09:27:30+0100</time>
      </trkpt>
      <trkpt lat="47.19709" lon="4.95566">
        <ele>346.97354125977</ele>
        <time>2019-12-05T09:27:33+0100</time>
      </trkpt>
      <trkpt lat="47.19709" lon="4.95566">
        <ele>346.98318481445</ele>
        <time>2019-12-05T09:27:36+0100</time>
      </trkpt>
      <trkpt lat="47.19709" lon="4.95566">
        <ele>346.99108886719</ele>
        <time>2019-12-05T09:27:39+0100</time>
      </trkpt>
      <trkpt lat="47.19709" lon="4.95566">
        <ele>346.99838256836</ele>
        <time>2019-12-05T09:27:42+0100</time>
      </trkpt>
      <trkpt lat="47.19709" lon="4.95566">
        <ele>347.00509643555</ele>
        <time>2019-12-05T09:27:45+0100</time>
      </trkpt>
      <trkpt lat="47.19709" lon="4.95566">
        <ele>347.01141357422</ele>
        <time>2019-12-05T09:27:48+0100</time>
      </trkpt>
      <trkpt lat="47.19709" lon="4.95566">
        <ele>347.01776123047</ele>
        <time>2019-12-05T09:27:51+0100</time>
      </trkpt>
      <trkpt lat="47.19709" lon="4.95566">
        <ele>347.02453613281</ele>
        <time>2019-12-05T09:27:54+0100</time>
      </trkpt>
      <trkpt lat="47.19709" lon="4.95566">
        <ele>347.03457641602</ele>
        <time>2019-12-05T09:27:57+0100</time>
      </trkpt>
      <trkpt lat="47.19709" lon="4.95566">
        <ele>347.04760742188</ele>
        <time>2019-12-05T09:28:00+0100</time>
      </trkpt>
      <trkpt lat="47.19709" lon="4.95566">
        <ele>347.0573425293</ele>
        <time>2019-12-05T09:28:03+0100</time>
      </trkpt>
      <trkpt lat="47.19709" lon="4.95566">
        <ele>347.07162475586</ele>
        <time>2019-12-05T09:28:06+0100</time>
      </trkpt>
      <trkpt lat="47.19709" lon="4.95566">
        <ele>347.08618164062</ele>
        <time>2019-12-05T09:28:09+0100</time>
      </trkpt>
      <trkpt lat="47.19709" lon="4.95566">
        <ele>347.09963989258</ele>
        <time>2019-12-05T09:28:12+0100</time>
      </trkpt>
      <trkpt lat="47.19709" lon="4.95566">
        <ele>347.10876464844</ele>
        <time>2019-12-05T09:28:15+0100</time>
      </trkpt>
      <trkpt lat="47.19709" lon="4.95567">
        <ele>347.10711669922</ele>
        <time>2019-12-05T09:28:18+0100</time>
      </trkpt>
      <trkpt lat="47.1971" lon="4.95567">
        <ele>347.09851074219</ele>
        <time>2019-12-05T09:28:21+0100</time>
      </trkpt>
      <trkpt lat="47.1971" lon="4.95567">
        <ele>347.08703613281</ele>
        <time>2019-12-05T09:28:24+0100</time>
      </trkpt>
      <trkpt lat="47.1971" lon="4.95567">
        <ele>347.07669067383</ele>
        <time>2019-12-05T09:28:27+0100</time>
      </trkpt>
      <trkpt lat="47.1971" lon="4.95567">
        <ele>347.0647277832</ele>
        <time>2019-12-05T09:28:30+0100</time>
      </trkpt>
      <trkpt lat="47.19712" lon="4.95568">
        <ele>347.04998779297</ele>
        <time>2019-12-05T09:28:33+0100</time>
      </trkpt>
      <trkpt lat="47.19712" lon="4.95569">
        <ele>347.03552246094</ele>
        <time>2019-12-05T09:28:36+0100</time>
      </trkpt>
      <trkpt lat="47.19712" lon="4.95569">
        <ele>347.03079223633</ele>
        <time>2019-12-05T09:28:39+0100</time>
      </trkpt>
      <trkpt lat="47.19712" lon="4.95569">
        <ele>347.03536987305</ele>
        <time>2019-12-05T09:28:42+0100</time>
      </trkpt>
      <trkpt lat="47.19712" lon="4.95569">
        <ele>347.04772949219</ele>
        <time>2019-12-05T09:28:45+0100</time>
      </trkpt>
      <trkpt lat="47.19712" lon="4.95569">
        <ele>347.06475830078</ele>
        <time>2019-12-05T09:28:48+0100</time>
      </trkpt>
      <trkpt lat="47.19712" lon="4.95569">
        <ele>347.0846862793</ele>
        <time>2019-12-05T09:28:51+0100</time>
      </trkpt>
      <trkpt lat="47.19712" lon="4.95568">
        <ele>347.10781860352</ele>
        <time>2019-12-05T09:28:54+0100</time>
      </trkpt>
      <trkpt lat="47.19711" lon="4.95568">
        <ele>347.35165405273</ele>
        <time>2019-12-05T09:28:57+0100</time>
      </trkpt>
      <trkpt lat="47.19711" lon="4.95568">
        <ele>347.37802124023</ele>
        <time>2019-12-05T09:29:00+0100</time>
      </trkpt>
      <trkpt lat="47.19711" lon="4.95568">
        <ele>347.40505981445</ele>
        <time>2019-12-05T09:29:03+0100</time>
      </trkpt>
      <trkpt lat="47.19711" lon="4.95568">
        <ele>347.42782592773</ele>
        <time>2019-12-05T09:29:06+0100</time>
      </trkpt>
      <trkpt lat="47.19711" lon="4.95568">
        <ele>347.44540405273</ele>
        <time>2019-12-05T09:29:09+0100</time>
      </trkpt>
      <trkpt lat="47.19711" lon="4.95568">
        <ele>347.46621704102</ele>
        <time>2019-12-05T09:29:12+0100</time>
      </trkpt>
      <trkpt lat="47.19711" lon="4.95568">
        <ele>347.49105834961</ele>
        <time>2019-12-05T09:29:15+0100</time>
      </trkpt>
      <trkpt lat="47.19711" lon="4.95568">
        <ele>347.51934814453</ele>
        <time>2019-12-05T09:29:18+0100</time>
      </trkpt>
      <trkpt lat="47.19711" lon="4.95568">
        <ele>347.55035400391</ele>
        <time>2019-12-05T09:29:21+0100</time>
      </trkpt>
      <trkpt lat="47.19711" lon="4.95568">
        <ele>347.58312988281</ele>
        <time>2019-12-05T09:29:24+0100</time>
      </trkpt>
      <trkpt lat="47.19711" lon="4.95568">
        <ele>347.61441040039</ele>
        <time>2019-12-05T09:29:27+0100</time>
      </trkpt>
      <trkpt lat="47.19711" lon="4.95568">
        <ele>347.64859008789</ele>
        <time>2019-12-05T09:29:30+0100</time>
      </trkpt>
      <trkpt lat="47.19711" lon="4.95568">
        <ele>347.67977905273</ele>
        <time>2019-12-05T09:29:33+0100</time>
      </trkpt>
      <trkpt lat="47.19711" lon="4.95568">
        <ele>347.70935058594</ele>
        <time>2019-12-05T09:29:36+0100</time>
      </trkpt>
      <trkpt lat="47.19711" lon="4.95568">
        <ele>347.73916625977</ele>
        <time>2019-12-05T09:29:39+0100</time>
      </trkpt>
      <trkpt lat="47.1971" lon="4.95567">
        <ele>347.87893676758</ele>
        <time>2019-12-05T09:29:42+0100</time>
      </trkpt>
      <trkpt lat="47.19711" lon="4.95566">
        <ele>347.91412353516</ele>
        <time>2019-12-05T09:29:45+0100</time>
      </trkpt>
      <trkpt lat="47.19711" lon="4.95566">
        <ele>348.06283569336</ele>
        <time>2019-12-05T09:29:48+0100</time>
      </trkpt>
      <trkpt lat="47.1971" lon="4.95566">
        <ele>348.45681762695</ele>
        <time>2019-12-05T09:29:51+0100</time>
      </trkpt>
      <trkpt lat="47.19708" lon="4.95565">
        <ele>348.87600708008</ele>
        <time>2019-12-05T09:29:54+0100</time>
      </trkpt>
      <trkpt lat="47.19707" lon="4.95564">
        <ele>349.31979370117</ele>
        <time>2019-12-05T09:29:57+0100</time>
      </trkpt>
      <trkpt lat="47.19706" lon="4.95563">
        <ele>349.75842285156</ele>
        <time>2019-12-05T09:30:00+0100</time>
      </trkpt>
      <trkpt lat="47.19704" lon="4.95563">
        <ele>350.17953491211</ele>
        <time>2019-12-05T09:30:03+0100</time>
      </trkpt>
      <trkpt lat="47.19703" lon="4.95563">
        <ele>350.59631347656</ele>
        <time>2019-12-05T09:30:06+0100</time>
      </trkpt>
      <trkpt lat="47.197" lon="4.95564">
        <ele>350.87106323242</ele>
        <time>2019-12-05T09:30:09+0100</time>
      </trkpt>
      <trkpt lat="47.19699" lon="4.95564">
        <ele>351.2907409668</ele>
        <time>2019-12-05T09:30:12+0100</time>
      </trkpt>
      <trkpt lat="47.19697" lon="4.95563">
        <ele>351.70724487305</ele>
        <time>2019-12-05T09:30:15+0100</time>
      </trkpt>
      <trkpt lat="47.19695" lon="4.95563">
        <ele>352.11834716797</ele>
        <time>2019-12-05T09:30:18+0100</time>
      </trkpt>
      <trkpt lat="47.19692" lon="4.95563">
        <ele>352.54364013672</ele>
        <time>2019-12-05T09:30:21+0100</time>
      </trkpt>
      <trkpt lat="47.1969" lon="4.95563">
        <ele>352.97100830078</ele>
        <time>2019-12-05T09:30:24+0100</time>
      </trkpt>
      <trkpt lat="47.19687" lon="4.95563">
        <ele>353.40213012695</ele>
        <time>2019-12-05T09:30:27+0100</time>
      </trkpt>
      <trkpt lat="47.19685" lon="4.95563">
        <ele>353.84201049805</ele>
        <time>2019-12-05T09:30:30+0100</time>
      </trkpt>
      <trkpt lat="47.19683" lon="4.95562">
        <ele>354.16235351562</ele>
        <time>2019-12-05T09:30:33+0100</time>
      </trkpt>
      <trkpt lat="47.1968" lon="4.95562">
        <ele>354.63244628906</ele>
        <time>2019-12-05T09:30:36+0100</time>
      </trkpt>
      <trkpt lat="47.19677" lon="4.95561">
        <ele>355.10470581055</ele>
        <time>2019-12-05T09:30:39+0100</time>
      </trkpt>
      <trkpt lat="47.19674" lon="4.9556">
        <ele>355.58084106445</ele>
        <time>2019-12-05T09:30:42+0100</time>
      </trkpt>
      <trkpt lat="47.19671" lon="4.95559">
        <ele>356.07083129883</ele>
        <time>2019-12-05T09:30:45+0100</time>
      </trkpt>
      <trkpt lat="47.19666" lon="4.95556">
        <ele>356.57080078125</ele>
        <time>2019-12-05T09:30:48+0100</time>
      </trkpt>
      <trkpt lat="47.19664" lon="4.95555">
        <ele>357.05682373047</ele>
        <time>2019-12-05T09:30:51+0100</time>
      </trkpt>
      <trkpt lat="47.1966" lon="4.95554">
        <ele>357.53106689453</ele>
        <time>2019-12-05T09:30:54+0100</time>
      </trkpt>
      <trkpt lat="47.19657" lon="4.95553">
        <ele>357.98941040039</ele>
        <time>2019-12-05T09:30:57+0100</time>
      </trkpt>
      <trkpt lat="47.19653" lon="4.95551">
        <ele>358.44641113281</ele>
        <time>2019-12-05T09:31:00+0100</time>
      </trkpt>
      <trkpt lat="47.19652" lon="4.9555">
        <ele>358.86791992188</ele>
        <time>2019-12-05T09:31:03+0100</time>
      </trkpt>
      <trkpt lat="47.19648" lon="4.95548">
        <ele>359.30172729492</ele>
        <time>2019-12-05T09:31:06+0100</time>
      </trkpt>
      <trkpt lat="47.19645" lon="4.95547">
        <ele>359.70056152344</ele>
        <time>2019-12-05T09:31:09+0100</time>
      </trkpt>
      <trkpt lat="47.19642" lon="4.95544">
        <ele>360.07263183594</ele>
        <time>2019-12-05T09:31:12+0100</time>
      </trkpt>
      <trkpt lat="47.1964" lon="4.95543">
        <ele>360.41427612305</ele>
        <time>2019-12-05T09:31:15+0100</time>
      </trkpt>
      <trkpt lat="47.19638" lon="4.95541">
        <ele>360.72601318359</ele>
        <time>2019-12-05T09:31:18+0100</time>
      </trkpt>
      <trkpt lat="47.19637" lon="4.95538">
        <ele>361.02886962891</ele>
        <time>2019-12-05T09:31:21+0100</time>
      </trkpt>
      <trkpt lat="47.19635" lon="4.95534">
        <ele>361.3251953125</ele>
        <time>2019-12-05T09:31:24+0100</time>
      </trkpt>
      <trkpt lat="47.19632" lon="4.95532">
        <ele>361.5983581543</ele>
        <time>2019-12-05T09:31:27+0100</time>
      </trkpt>
      <trkpt lat="47.19629" lon="4.95529">
        <ele>361.84628295898</ele>
        <time>2019-12-05T09:31:30+0100</time>
      </trkpt>
      <trkpt lat="47.19626" lon="4.95527">
        <ele>362.06619262695</ele>
        <time>2019-12-05T09:31:33+0100</time>
      </trkpt>
      <trkpt lat="47.19625" lon="4.95526">
        <ele>362.2001953125</ele>
        <time>2019-12-05T09:31:36+0100</time>
      </trkpt>
      <trkpt lat="47.19622" lon="4.95525">
        <ele>362.36968994141</ele>
        <time>2019-12-05T09:31:39+0100</time>
      </trkpt>
      <trkpt lat="47.19617" lon="4.95524">
        <ele>362.52410888672</ele>
        <time>2019-12-05T09:31:42+0100</time>
      </trkpt>
      <trkpt lat="47.19615" lon="4.95523">
        <ele>362.66815185547</ele>
        <time>2019-12-05T09:31:45+0100</time>
      </trkpt>
      <trkpt lat="47.19612" lon="4.95523">
        <ele>362.79318237305</ele>
        <time>2019-12-05T09:31:48+0100</time>
      </trkpt>
      <trkpt lat="47.19608" lon="4.95522">
        <ele>362.8908996582</ele>
        <time>2019-12-05T09:31:51+0100</time>
      </trkpt>
      <trkpt lat="47.19605" lon="4.9552">
        <ele>362.95227050781</ele>
        <time>2019-12-05T09:31:54+0100</time>
      </trkpt>
      <trkpt lat="47.19603" lon="4.95518">
        <ele>363.02172851562</ele>
        <time>2019-12-05T09:31:57+0100</time>
      </trkpt>
      <trkpt lat="47.19603" lon="4.95516">
        <ele>363.06451416016</ele>
        <time>2019-12-05T09:32:00+0100</time>
      </trkpt>
      <trkpt lat="47.19599" lon="4.95514">
        <ele>363.11328125</ele>
        <time>2019-12-05T09:32:03+0100</time>
      </trkpt>
      <trkpt lat="47.19594" lon="4.95511">
        <ele>363.15139770508</ele>
        <time>2019-12-05T09:32:06+0100</time>
      </trkpt>
      <trkpt lat="47.1959" lon="4.95508">
        <ele>363.18035888672</ele>
        <time>2019-12-05T09:32:09+0100</time>
      </trkpt>
      <trkpt lat="47.19587" lon="4.95507">
        <ele>363.19818115234</ele>
        <time>2019-12-05T09:32:12+0100</time>
      </trkpt>
      <trkpt lat="47.19585" lon="4.95505">
        <ele>363.20639038086</ele>
        <time>2019-12-05T09:32:15+0100</time>
      </trkpt>
      <trkpt lat="47.19582" lon="4.95503">
        <ele>363.1907043457</ele>
        <time>2019-12-05T09:32:18+0100</time>
      </trkpt>
      <trkpt lat="47.19578" lon="4.95502">
        <ele>363.15325927734</ele>
        <time>2019-12-05T09:32:21+0100</time>
      </trkpt>
      <trkpt lat="47.19577" lon="4.95501">
        <ele>363.13330078125</ele>
        <time>2019-12-05T09:32:24+0100</time>
      </trkpt>
      <trkpt lat="47.19575" lon="4.955">
        <ele>363.09756469727</ele>
        <time>2019-12-05T09:32:27+0100</time>
      </trkpt>
      <trkpt lat="47.19573" lon="4.95499">
        <ele>363.09692382812</ele>
        <time>2019-12-05T09:32:30+0100</time>
      </trkpt>
      <trkpt lat="47.19571" lon="4.95496">
        <ele>363.12881469727</ele>
        <time>2019-12-05T09:32:33+0100</time>
      </trkpt>
      <trkpt lat="47.19568" lon="4.95493">
        <ele>363.20462036133</ele>
        <time>2019-12-05T09:32:36+0100</time>
      </trkpt>
      <trkpt lat="47.19566" lon="4.95491">
        <ele>363.32299804688</ele>
        <time>2019-12-05T09:32:39+0100</time>
      </trkpt>
      <trkpt lat="47.19564" lon="4.95487">
        <ele>363.48666381836</ele>
        <time>2019-12-05T09:32:42+0100</time>
      </trkpt>
      <trkpt lat="47.19561" lon="4.95485">
        <ele>363.64398193359</ele>
        <time>2019-12-05T09:32:45+0100</time>
      </trkpt>
      <trkpt lat="47.19559" lon="4.95482">
        <ele>363.78967285156</ele>
        <time>2019-12-05T09:32:48+0100</time>
      </trkpt>
      <trkpt lat="47.19558" lon="4.95481">
        <ele>363.90213012695</ele>
        <time>2019-12-05T09:32:51+0100</time>
      </trkpt>
      <trkpt lat="47.19556" lon="4.95479">
        <ele>364.00799560547</ele>
        <time>2019-12-05T09:32:54+0100</time>
      </trkpt>
      <trkpt lat="47.19554" lon="4.95477">
        <ele>364.10107421875</ele>
        <time>2019-12-05T09:32:57+0100</time>
      </trkpt>
      <trkpt lat="47.19552" lon="4.95475">
        <ele>364.19302368164</ele>
        <time>2019-12-05T09:33:00+0100</time>
      </trkpt>
      <trkpt lat="47.1955" lon="4.95473">
        <ele>364.30639648438</ele>
        <time>2019-12-05T09:33:03+0100</time>
      </trkpt>
      <trkpt lat="47.1955" lon="4.9547">
        <ele>364.39944458008</ele>
        <time>2019-12-05T09:33:06+0100</time>
      </trkpt>
      <trkpt lat="47.19549" lon="4.95468">
        <ele>364.48831176758</ele>
        <time>2019-12-05T09:33:09+0100</time>
      </trkpt>
      <trkpt lat="47.19548" lon="4.95466">
        <ele>364.59768676758</ele>
        <time>2019-12-05T09:33:12+0100</time>
      </trkpt>
      <trkpt lat="47.19546" lon="4.95463">
        <ele>364.72271728516</ele>
        <time>2019-12-05T09:33:15+0100</time>
      </trkpt>
      <trkpt lat="47.19543" lon="4.9546">
        <ele>364.87860107422</ele>
        <time>2019-12-05T09:33:18+0100</time>
      </trkpt>
      <trkpt lat="47.19541" lon="4.95457">
        <ele>365.05227661133</ele>
        <time>2019-12-05T09:33:21+0100</time>
      </trkpt>
      <trkpt lat="47.1954" lon="4.95455">
        <ele>365.23648071289</ele>
        <time>2019-12-05T09:33:24+0100</time>
      </trkpt>
      <trkpt lat="47.19539" lon="4.95453">
        <ele>365.41058349609</ele>
        <time>2019-12-05T09:33:27+0100</time>
      </trkpt>
      <trkpt lat="47.19538" lon="4.95451">
        <ele>365.57196044922</ele>
        <time>2019-12-05T09:33:30+0100</time>
      </trkpt>
      <trkpt lat="47.19537" lon="4.95449">
        <ele>365.73754882812</ele>
        <time>2019-12-05T09:33:33+0100</time>
      </trkpt>
      <trkpt lat="47.19536" lon="4.95448">
        <ele>365.83416748047</ele>
        <time>2019-12-05T09:33:36+0100</time>
      </trkpt>
      <trkpt lat="47.19535" lon="4.95447">
        <ele>365.98248291016</ele>
        <time>2019-12-05T09:33:39+0100</time>
      </trkpt>
      <trkpt lat="47.19535" lon="4.95446">
        <ele>366.07870483398</ele>
        <time>2019-12-05T09:33:42+0100</time>
      </trkpt>
      <trkpt lat="47.19534" lon="4.95444">
        <ele>366.22808837891</ele>
        <time>2019-12-05T09:33:45+0100</time>
      </trkpt>
      <trkpt lat="47.19533" lon="4.95442">
        <ele>366.38415527344</ele>
        <time>2019-12-05T09:33:48+0100</time>
      </trkpt>
      <trkpt lat="47.19532" lon="4.95441">
        <ele>366.49215698242</ele>
        <time>2019-12-05T09:33:51+0100</time>
      </trkpt>
      <trkpt lat="47.19531" lon="4.95441">
        <ele>366.59963989258</ele>
        <time>2019-12-05T09:33:54+0100</time>
      </trkpt>
      <trkpt lat="47.19529" lon="4.95441">
        <ele>366.77490234375</ele>
        <time>2019-12-05T09:33:57+0100</time>
      </trkpt>
      <trkpt lat="47.19525" lon="4.95441">
        <ele>366.88385009766</ele>
        <time>2019-12-05T09:34:00+0100</time>
      </trkpt>
      <trkpt lat="47.19523" lon="4.95441">
        <ele>367.01477050781</ele>
        <time>2019-12-05T09:34:03+0100</time>
      </trkpt>
      <trkpt lat="47.1952" lon="4.95441">
        <ele>367.13537597656</ele>
        <time>2019-12-05T09:34:06+0100</time>
      </trkpt>
      <trkpt lat="47.19517" lon="4.95439">
        <ele>367.28967285156</ele>
        <time>2019-12-05T09:34:09+0100</time>
      </trkpt>
      <trkpt lat="47.19515" lon="4.95439">
        <ele>367.43170166016</ele>
        <time>2019-12-05T09:34:12+0100</time>
      </trkpt>
      <trkpt lat="47.19513" lon="4.95437">
        <ele>367.58255004883</ele>
        <time>2019-12-05T09:34:15+0100</time>
      </trkpt>
      <trkpt lat="47.1951" lon="4.95434">
        <ele>367.74447631836</ele>
        <time>2019-12-05T09:34:18+0100</time>
      </trkpt>
      <trkpt lat="47.19508" lon="4.95432">
        <ele>367.93487548828</ele>
        <time>2019-12-05T09:34:21+0100</time>
      </trkpt>
      <trkpt lat="47.19506" lon="4.95429">
        <ele>368.14120483398</ele>
        <time>2019-12-05T09:34:24+0100</time>
      </trkpt>
      <trkpt lat="47.19503" lon="4.95426">
        <ele>368.35784912109</ele>
        <time>2019-12-05T09:34:27+0100</time>
      </trkpt>
      <trkpt lat="47.19502" lon="4.95424">
        <ele>368.58331298828</ele>
        <time>2019-12-05T09:34:30+0100</time>
      </trkpt>
      <trkpt lat="47.195" lon="4.95423">
        <ele>368.80770874023</ele>
        <time>2019-12-05T09:34:33+0100</time>
      </trkpt>
      <trkpt lat="47.19497" lon="4.95418">
        <ele>369.0612487793</ele>
        <time>2019-12-05T09:34:36+0100</time>
      </trkpt>
      <trkpt lat="47.19495" lon="4.95416">
        <ele>369.34631347656</ele>
        <time>2019-12-05T09:34:39+0100</time>
      </trkpt>
      <trkpt lat="47.1949" lon="4.95415">
        <ele>369.65728759766</ele>
        <time>2019-12-05T09:34:42+0100</time>
      </trkpt>
      <trkpt lat="47.19486" lon="4.95414">
        <ele>369.95825195312</ele>
        <time>2019-12-05T09:34:45+0100</time>
      </trkpt>
      <trkpt lat="47.19483" lon="4.95412">
        <ele>370.25375366211</ele>
        <time>2019-12-05T09:34:48+0100</time>
      </trkpt>
      <trkpt lat="47.1948" lon="4.95412">
        <ele>370.52026367188</ele>
        <time>2019-12-05T09:34:51+0100</time>
      </trkpt>
      <trkpt lat="47.19477" lon="4.95412">
        <ele>370.77548217773</ele>
        <time>2019-12-05T09:34:54+0100</time>
      </trkpt>
      <trkpt lat="47.19474" lon="4.95412">
        <ele>371.00668334961</ele>
        <time>2019-12-05T09:34:57+0100</time>
      </trkpt>
      <trkpt lat="47.1947" lon="4.95411">
        <ele>371.22430419922</ele>
        <time>2019-12-05T09:35:00+0100</time>
      </trkpt>
      <trkpt lat="47.19468" lon="4.9541">
        <ele>371.43399047852</ele>
        <time>2019-12-05T09:35:03+0100</time>
      </trkpt>
      <trkpt lat="47.19466" lon="4.95407">
        <ele>371.6516418457</ele>
        <time>2019-12-05T09:35:06+0100</time>
      </trkpt>
      <trkpt lat="47.19464" lon="4.95406">
        <ele>371.85885620117</ele>
        <time>2019-12-05T09:35:10+0100</time>
      </trkpt>
      <trkpt lat="47.19461" lon="4.95403">
        <ele>372.05871582031</ele>
        <time>2019-12-05T09:35:13+0100</time>
      </trkpt>
      <trkpt lat="47.19459" lon="4.95401">
        <ele>372.23715209961</ele>
        <time>2019-12-05T09:35:16+0100</time>
      </trkpt>
      <trkpt lat="47.19457" lon="4.95398">
        <ele>372.42108154297</ele>
        <time>2019-12-05T09:35:19+0100</time>
      </trkpt>
      <trkpt lat="47.19454" lon="4.95396">
        <ele>372.58493041992</ele>
        <time>2019-12-05T09:35:22+0100</time>
      </trkpt>
      <trkpt lat="47.19452" lon="4.95393">
        <ele>372.77456665039</ele>
        <time>2019-12-05T09:35:25+0100</time>
      </trkpt>
      <trkpt lat="47.19449" lon="4.9539">
        <ele>372.93423461914</ele>
        <time>2019-12-05T09:35:28+0100</time>
      </trkpt>
      <trkpt lat="47.19446" lon="4.95387">
        <ele>373.09140014648</ele>
        <time>2019-12-05T09:35:31+0100</time>
      </trkpt>
      <trkpt lat="47.19444" lon="4.95385">
        <ele>373.24453735352</ele>
        <time>2019-12-05T09:35:34+0100</time>
      </trkpt>
      <trkpt lat="47.19441" lon="4.95384">
        <ele>373.37750244141</ele>
        <time>2019-12-05T09:35:37+0100</time>
      </trkpt>
      <trkpt lat="47.19437" lon="4.95381">
        <ele>373.53524780273</ele>
        <time>2019-12-05T09:35:40+0100</time>
      </trkpt>
      <trkpt lat="47.19435" lon="4.95379">
        <ele>373.69540405273</ele>
        <time>2019-12-05T09:35:43+0100</time>
      </trkpt>
      <trkpt lat="47.19433" lon="4.95374">
        <ele>373.83306884766</ele>
        <time>2019-12-05T09:35:46+0100</time>
      </trkpt>
      <trkpt lat="47.1943" lon="4.9537">
        <ele>373.91528320312</ele>
        <time>2019-12-05T09:35:49+0100</time>
      </trkpt>
      <trkpt lat="47.19428" lon="4.95367">
        <ele>373.9482421875</ele>
        <time>2019-12-05T09:35:52+0100</time>
      </trkpt>
      <trkpt lat="47.19426" lon="4.95362">
        <ele>373.93588256836</ele>
        <time>2019-12-05T09:35:55+0100</time>
      </trkpt>
      <trkpt lat="47.19424" lon="4.95358">
        <ele>373.85980224609</ele>
        <time>2019-12-05T09:35:58+0100</time>
      </trkpt>
      <trkpt lat="47.19422" lon="4.95355">
        <ele>373.7268371582</ele>
        <time>2019-12-05T09:36:01+0100</time>
      </trkpt>
      <trkpt lat="47.1942" lon="4.95352">
        <ele>373.5671081543</ele>
        <time>2019-12-05T09:36:04+0100</time>
      </trkpt>
      <trkpt lat="47.19418" lon="4.95349">
        <ele>373.37484741211</ele>
        <time>2019-12-05T09:36:07+0100</time>
      </trkpt>
      <trkpt lat="47.19416" lon="4.95345">
        <ele>373.16635131836</ele>
        <time>2019-12-05T09:36:10+0100</time>
      </trkpt>
      <trkpt lat="47.19413" lon="4.95342">
        <ele>372.96118164062</ele>
        <time>2019-12-05T09:36:13+0100</time>
      </trkpt>
      <trkpt lat="47.19411" lon="4.95339">
        <ele>372.75335693359</ele>
        <time>2019-12-05T09:36:16+0100</time>
      </trkpt>
      <trkpt lat="47.1941" lon="4.95337">
        <ele>372.54019165039</ele>
        <time>2019-12-05T09:36:19+0100</time>
      </trkpt>
      <trkpt lat="47.19407" lon="4.95333">
        <ele>372.33325195312</ele>
        <time>2019-12-05T09:36:22+0100</time>
      </trkpt>
      <trkpt lat="47.19404" lon="4.9533">
        <ele>372.13980102539</ele>
        <time>2019-12-05T09:36:25+0100</time>
      </trkpt>
      <trkpt lat="47.19403" lon="4.95328">
        <ele>371.9538269043</ele>
        <time>2019-12-05T09:36:28+0100</time>
      </trkpt>
      <trkpt lat="47.19401" lon="4.95325">
        <ele>371.78088378906</ele>
        <time>2019-12-05T09:36:31+0100</time>
      </trkpt>
      <trkpt lat="47.19399" lon="4.95322">
        <ele>371.61791992188</ele>
        <time>2019-12-05T09:36:34+0100</time>
      </trkpt>
      <trkpt lat="47.19397" lon="4.95319">
        <ele>371.47476196289</ele>
        <time>2019-12-05T09:36:37+0100</time>
      </trkpt>
      <trkpt lat="47.19395" lon="4.95316">
        <ele>371.353515625</ele>
        <time>2019-12-05T09:36:40+0100</time>
      </trkpt>
      <trkpt lat="47.19393" lon="4.95313">
        <ele>371.25247192383</ele>
        <time>2019-12-05T09:36:43+0100</time>
      </trkpt>
      <trkpt lat="47.19391" lon="4.9531">
        <ele>371.18170166016</ele>
        <time>2019-12-05T09:36:46+0100</time>
      </trkpt>
      <trkpt lat="47.19389" lon="4.95307">
        <ele>371.13049316406</ele>
        <time>2019-12-05T09:36:49+0100</time>
      </trkpt>
      <trkpt lat="47.19387" lon="4.95304">
        <ele>371.09561157227</ele>
        <time>2019-12-05T09:36:52+0100</time>
      </trkpt>
      <trkpt lat="47.19385" lon="4.95301">
        <ele>371.0478515625</ele>
        <time>2019-12-05T09:36:55+0100</time>
      </trkpt>
      <trkpt lat="47.19383" lon="4.95299">
        <ele>370.99987792969</ele>
        <time>2019-12-05T09:36:58+0100</time>
      </trkpt>
      <trkpt lat="47.19381" lon="4.95296">
        <ele>370.95980834961</ele>
        <time>2019-12-05T09:37:01+0100</time>
      </trkpt>
      <trkpt lat="47.1938" lon="4.95293">
        <ele>370.93246459961</ele>
        <time>2019-12-05T09:37:04+0100</time>
      </trkpt>
      <trkpt lat="47.19377" lon="4.95289">
        <ele>370.94488525391</ele>
        <time>2019-12-05T09:37:07+0100</time>
      </trkpt>
      <trkpt lat="47.19376" lon="4.95286">
        <ele>370.97201538086</ele>
        <time>2019-12-05T09:37:10+0100</time>
      </trkpt>
      <trkpt lat="47.19374" lon="4.95282">
        <ele>371.01971435547</ele>
        <time>2019-12-05T09:37:13+0100</time>
      </trkpt>
      <trkpt lat="47.19373" lon="4.9528">
        <ele>371.07931518555</ele>
        <time>2019-12-05T09:37:16+0100</time>
      </trkpt>
      <trkpt lat="47.19371" lon="4.95278">
        <ele>371.14666748047</ele>
        <time>2019-12-05T09:37:19+0100</time>
      </trkpt>
      <trkpt lat="47.19369" lon="4.95274">
        <ele>371.21478271484</ele>
        <time>2019-12-05T09:37:22+0100</time>
      </trkpt>
      <trkpt lat="47.19367" lon="4.95272">
        <ele>371.2858581543</ele>
        <time>2019-12-05T09:37:25+0100</time>
      </trkpt>
      <trkpt lat="47.19365" lon="4.95269">
        <ele>371.36358642578</ele>
        <time>2019-12-05T09:37:28+0100</time>
      </trkpt>
      <trkpt lat="47.19363" lon="4.95267">
        <ele>371.45132446289</ele>
        <time>2019-12-05T09:37:31+0100</time>
      </trkpt>
      <trkpt lat="47.19361" lon="4.95265">
        <ele>371.55947875977</ele>
        <time>2019-12-05T09:37:34+0100</time>
      </trkpt>
      <trkpt lat="47.19359" lon="4.95261">
        <ele>371.68606567383</ele>
        <time>2019-12-05T09:37:37+0100</time>
      </trkpt>
      <trkpt lat="47.19357" lon="4.95258">
        <ele>371.82080078125</ele>
        <time>2019-12-05T09:37:40+0100</time>
      </trkpt>
      <trkpt lat="47.19356" lon="4.95256">
        <ele>371.95855712891</ele>
        <time>2019-12-05T09:37:43+0100</time>
      </trkpt>
      <trkpt lat="47.19353" lon="4.95252">
        <ele>372.10409545898</ele>
        <time>2019-12-05T09:37:46+0100</time>
      </trkpt>
      <trkpt lat="47.19352" lon="4.9525">
        <ele>372.26449584961</ele>
        <time>2019-12-05T09:37:49+0100</time>
      </trkpt>
      <trkpt lat="47.1935" lon="4.95247">
        <ele>372.43572998047</ele>
        <time>2019-12-05T09:37:52+0100</time>
      </trkpt>
      <trkpt lat="47.19348" lon="4.95242">
        <ele>372.61175537109</ele>
        <time>2019-12-05T09:37:55+0100</time>
      </trkpt>
      <trkpt lat="47.19346" lon="4.95238">
        <ele>372.78277587891</ele>
        <time>2019-12-05T09:37:58+0100</time>
      </trkpt>
      <trkpt lat="47.19344" lon="4.95235">
        <ele>372.94143676758</ele>
        <time>2019-12-05T09:38:01+0100</time>
      </trkpt>
      <trkpt lat="47.19343" lon="4.95232">
        <ele>373.09799194336</ele>
        <time>2019-12-05T09:38:04+0100</time>
      </trkpt>
      <trkpt lat="47.1934" lon="4.9523">
        <ele>373.26272583008</ele>
        <time>2019-12-05T09:38:07+0100</time>
      </trkpt>
      <trkpt lat="47.19338" lon="4.95227">
        <ele>373.43203735352</ele>
        <time>2019-12-05T09:38:10+0100</time>
      </trkpt>
      <trkpt lat="47.19337" lon="4.95224">
        <ele>373.60879516602</ele>
        <time>2019-12-05T09:38:13+0100</time>
      </trkpt>
      <trkpt lat="47.19335" lon="4.95222">
        <ele>373.80718994141</ele>
        <time>2019-12-05T09:38:16+0100</time>
      </trkpt>
      <trkpt lat="47.19333" lon="4.9522">
        <ele>374.02334594727</ele>
        <time>2019-12-05T09:38:19+0100</time>
      </trkpt>
      <trkpt lat="47.19331" lon="4.95218">
        <ele>374.25695800781</ele>
        <time>2019-12-05T09:38:22+0100</time>
      </trkpt>
      <trkpt lat="47.19328" lon="4.95214">
        <ele>374.50994873047</ele>
        <time>2019-12-05T09:38:25+0100</time>
      </trkpt>
      <trkpt lat="47.19325" lon="4.95211">
        <ele>374.76956176758</ele>
        <time>2019-12-05T09:38:28+0100</time>
      </trkpt>
      <trkpt lat="47.19324" lon="4.95209">
        <ele>375.01947021484</ele>
        <time>2019-12-05T09:38:31+0100</time>
      </trkpt>
      <trkpt lat="47.19321" lon="4.95206">
        <ele>375.27243041992</ele>
        <time>2019-12-05T09:38:34+0100</time>
      </trkpt>
      <trkpt lat="47.19319" lon="4.95202">
        <ele>375.55172729492</ele>
        <time>2019-12-05T09:38:37+0100</time>
      </trkpt>
      <trkpt lat="47.19317" lon="4.95201">
        <ele>375.83795166016</ele>
        <time>2019-12-05T09:38:40+0100</time>
      </trkpt>
      <trkpt lat="47.19314" lon="4.95199">
        <ele>376.13034057617</ele>
        <time>2019-12-05T09:38:43+0100</time>
      </trkpt>
      <trkpt lat="47.19311" lon="4.95197">
        <ele>376.4176940918</ele>
        <time>2019-12-05T09:38:46+0100</time>
      </trkpt>
      <trkpt lat="47.19308" lon="4.95196">
        <ele>376.7048034668</ele>
        <time>2019-12-05T09:38:49+0100</time>
      </trkpt>
      <trkpt lat="47.19305" lon="4.95194">
        <ele>376.97152709961</ele>
        <time>2019-12-05T09:38:52+0100</time>
      </trkpt>
      <trkpt lat="47.19304" lon="4.95192">
        <ele>377.22415161133</ele>
        <time>2019-12-05T09:38:55+0100</time>
      </trkpt>
      <trkpt lat="47.19301" lon="4.9519">
        <ele>377.46844482422</ele>
        <time>2019-12-05T09:38:58+0100</time>
      </trkpt>
      <trkpt lat="47.19299" lon="4.95187">
        <ele>377.68960571289</ele>
        <time>2019-12-05T09:39:01+0100</time>
      </trkpt>
      <trkpt lat="47.19296" lon="4.95185">
        <ele>377.89721679688</ele>
        <time>2019-12-05T09:39:04+0100</time>
      </trkpt>
      <trkpt lat="47.19292" lon="4.95183">
        <ele>378.09588623047</ele>
        <time>2019-12-05T09:39:07+0100</time>
      </trkpt>
      <trkpt lat="47.1929" lon="4.95182">
        <ele>378.29095458984</ele>
        <time>2019-12-05T09:39:10+0100</time>
      </trkpt>
      <trkpt lat="47.19286" lon="4.95181">
        <ele>378.51202392578</ele>
        <time>2019-12-05T09:39:13+0100</time>
      </trkpt>
      <trkpt lat="47.19283" lon="4.9518">
        <ele>378.73550415039</ele>
        <time>2019-12-05T09:39:16+0100</time>
      </trkpt>
      <trkpt lat="47.19281" lon="4.95178">
        <ele>378.95120239258</ele>
        <time>2019-12-05T09:39:19+0100</time>
      </trkpt>
      <trkpt lat="47.19279" lon="4.95177">
        <ele>379.17999267578</ele>
        <time>2019-12-05T09:39:22+0100</time>
      </trkpt>
      <trkpt lat="47.19275" lon="4.95176">
        <ele>379.42199707031</ele>
        <time>2019-12-05T09:39:25+0100</time>
      </trkpt>
      <trkpt lat="47.19273" lon="4.95176">
        <ele>379.65255737305</ele>
        <time>2019-12-05T09:39:28+0100</time>
      </trkpt>
      <trkpt lat="47.19269" lon="4.95174">
        <ele>379.87344360352</ele>
        <time>2019-12-05T09:39:31+0100</time>
      </trkpt>
      <trkpt lat="47.19267" lon="4.95173">
        <ele>380.07412719727</ele>
        <time>2019-12-05T09:39:34+0100</time>
      </trkpt>
      <trkpt lat="47.19263" lon="4.95171">
        <ele>380.25476074219</ele>
        <time>2019-12-05T09:39:37+0100</time>
      </trkpt>
      <trkpt lat="47.19261" lon="4.95169">
        <ele>380.4287109375</ele>
        <time>2019-12-05T09:39:40+0100</time>
      </trkpt>
      <trkpt lat="47.19258" lon="4.95167">
        <ele>380.57247924805</ele>
        <time>2019-12-05T09:39:43+0100</time>
      </trkpt>
      <trkpt lat="47.19255" lon="4.95164">
        <ele>380.70602416992</ele>
        <time>2019-12-05T09:39:46+0100</time>
      </trkpt>
      <trkpt lat="47.19252" lon="4.95161">
        <ele>380.84561157227</ele>
        <time>2019-12-05T09:39:49+0100</time>
      </trkpt>
      <trkpt lat="47.19249" lon="4.95159">
        <ele>380.96057128906</ele>
        <time>2019-12-05T09:39:52+0100</time>
      </trkpt>
      <trkpt lat="47.19247" lon="4.95157">
        <ele>381.0397644043</ele>
        <time>2019-12-05T09:39:55+0100</time>
      </trkpt>
      <trkpt lat="47.19245" lon="4.95154">
        <ele>381.09359741211</ele>
        <time>2019-12-05T09:39:58+0100</time>
      </trkpt>
      <trkpt lat="47.19241" lon="4.95152">
        <ele>381.12905883789</ele>
        <time>2019-12-05T09:40:01+0100</time>
      </trkpt>
      <trkpt lat="47.19237" lon="4.95149">
        <ele>381.15658569336</ele>
        <time>2019-12-05T09:40:04+0100</time>
      </trkpt>
      <trkpt lat="47.19235" lon="4.95146">
        <ele>381.15850830078</ele>
        <time>2019-12-05T09:40:07+0100</time>
      </trkpt>
      <trkpt lat="47.19233" lon="4.95144">
        <ele>381.1076965332</ele>
        <time>2019-12-05T09:40:10+0100</time>
      </trkpt>
      <trkpt lat="47.1923" lon="4.95141">
        <ele>381.01287841797</ele>
        <time>2019-12-05T09:40:13+0100</time>
      </trkpt>
      <trkpt lat="47.19228" lon="4.9514">
        <ele>380.87188720703</ele>
        <time>2019-12-05T09:40:16+0100</time>
      </trkpt>
      <trkpt lat="47.19225" lon="4.95138">
        <ele>380.71136474609</ele>
        <time>2019-12-05T09:40:19+0100</time>
      </trkpt>
      <trkpt lat="47.19222" lon="4.95135">
        <ele>380.544921875</ele>
        <time>2019-12-05T09:40:22+0100</time>
      </trkpt>
      <trkpt lat="47.19219" lon="4.95133">
        <ele>380.35729980469</ele>
        <time>2019-12-05T09:40:25+0100</time>
      </trkpt>
      <trkpt lat="47.19216" lon="4.95131">
        <ele>380.14068603516</ele>
        <time>2019-12-05T09:40:28+0100</time>
      </trkpt>
      <trkpt lat="47.19213" lon="4.95129">
        <ele>379.90328979492</ele>
        <time>2019-12-05T09:40:31+0100</time>
      </trkpt>
      <trkpt lat="47.19209" lon="4.95126">
        <ele>379.66961669922</ele>
        <time>2019-12-05T09:40:34+0100</time>
      </trkpt>
      <trkpt lat="47.19206" lon="4.95124">
        <ele>379.43341064453</ele>
        <time>2019-12-05T09:40:37+0100</time>
      </trkpt>
      <trkpt lat="47.19203" lon="4.95122">
        <ele>379.19921875</ele>
        <time>2019-12-05T09:40:40+0100</time>
      </trkpt>
      <trkpt lat="47.192" lon="4.9512">
        <ele>378.9645690918</ele>
        <time>2019-12-05T09:40:43+0100</time>
      </trkpt>
      <trkpt lat="47.19196" lon="4.95118">
        <ele>378.71798706055</ele>
        <time>2019-12-05T09:40:46+0100</time>
      </trkpt>
      <trkpt lat="47.19193" lon="4.95116">
        <ele>378.47839355469</ele>
        <time>2019-12-05T09:40:49+0100</time>
      </trkpt>
      <trkpt lat="47.19192" lon="4.95116">
        <ele>378.37261962891</ele>
        <time>2019-12-05T09:40:52+0100</time>
      </trkpt>
      <trkpt lat="47.19192" lon="4.95116">
        <ele>378.33978271484</ele>
        <time>2019-12-05T09:40:55+0100</time>
      </trkpt>
      <trkpt lat="47.19192" lon="4.95116">
        <ele>378.30316162109</ele>
        <time>2019-12-05T09:40:58+0100</time>
      </trkpt>
      <trkpt lat="47.19192" lon="4.95116">
        <ele>378.26373291016</ele>
        <time>2019-12-05T09:41:01+0100</time>
      </trkpt>
      <trkpt lat="47.19192" lon="4.95115">
        <ele>378.22180175781</ele>
        <time>2019-12-05T09:41:04+0100</time>
      </trkpt>
      <trkpt lat="47.19191" lon="4.95115">
        <ele>378.17700195312</ele>
        <time>2019-12-05T09:41:07+0100</time>
      </trkpt>
      <trkpt lat="47.19191" lon="4.95115">
        <ele>378.12966918945</ele>
        <time>2019-12-05T09:41:10+0100</time>
      </trkpt>
      <trkpt lat="47.19191" lon="4.95115">
        <ele>378.07922363281</ele>
        <time>2019-12-05T09:41:13+0100</time>
      </trkpt>
      <trkpt lat="47.19191" lon="4.95115">
        <ele>378.02899169922</ele>
        <time>2019-12-05T09:41:16+0100</time>
      </trkpt>
      <trkpt lat="47.19191" lon="4.95115">
        <ele>377.97705078125</ele>
        <time>2019-12-05T09:41:19+0100</time>
      </trkpt>
      <trkpt lat="47.19191" lon="4.95115">
        <ele>377.9208984375</ele>
        <time>2019-12-05T09:41:22+0100</time>
      </trkpt>
      <trkpt lat="47.19191" lon="4.95115">
        <ele>377.86102294922</ele>
        <time>2019-12-05T09:41:25+0100</time>
      </trkpt>
      <trkpt lat="47.19191" lon="4.95115">
        <ele>377.79995727539</ele>
        <time>2019-12-05T09:41:28+0100</time>
      </trkpt>
      <trkpt lat="47.19191" lon="4.95115">
        <ele>377.73693847656</ele>
        <time>2019-12-05T09:41:31+0100</time>
      </trkpt>
      <trkpt lat="47.19191" lon="4.95115">
        <ele>377.67349243164</ele>
        <time>2019-12-05T09:41:34+0100</time>
      </trkpt>
      <trkpt lat="47.19191" lon="4.95115">
        <ele>377.60919189453</ele>
        <time>2019-12-05T09:41:37+0100</time>
      </trkpt>
      <trkpt lat="47.19191" lon="4.95115">
        <ele>377.5461730957</ele>
        <time>2019-12-05T09:41:40+0100</time>
      </trkpt>
      <trkpt lat="47.19191" lon="4.95115">
        <ele>377.48455810547</ele>
        <time>2019-12-05T09:41:43+0100</time>
      </trkpt>
      <trkpt lat="47.19191" lon="4.95115">
        <ele>377.42504882812</ele>
        <time>2019-12-05T09:41:46+0100</time>
      </trkpt>
      <trkpt lat="47.19191" lon="4.95114">
        <ele>377.36755371094</ele>
        <time>2019-12-05T09:41:49+0100</time>
      </trkpt>
      <trkpt lat="47.19191" lon="4.95114">
        <ele>377.3078918457</ele>
        <time>2019-12-05T09:41:52+0100</time>
      </trkpt>
      <trkpt lat="47.19191" lon="4.95115">
        <ele>377.24310302734</ele>
        <time>2019-12-05T09:41:55+0100</time>
      </trkpt>
      <trkpt lat="47.19191" lon="4.95115">
        <ele>377.17431640625</ele>
        <time>2019-12-05T09:41:58+0100</time>
      </trkpt>
      <trkpt lat="47.19191" lon="4.95115">
        <ele>377.10571289062</ele>
        <time>2019-12-05T09:42:01+0100</time>
      </trkpt>
      <trkpt lat="47.19191" lon="4.95115">
        <ele>377.04153442383</ele>
        <time>2019-12-05T09:42:04+0100</time>
      </trkpt>
      <trkpt lat="47.19191" lon="4.95115">
        <ele>376.98278808594</ele>
        <time>2019-12-05T09:42:07+0100</time>
      </trkpt>
      <trkpt lat="47.19191" lon="4.95115">
        <ele>376.92822265625</ele>
        <time>2019-12-05T09:42:10+0100</time>
      </trkpt>
      <trkpt lat="47.19191" lon="4.95115">
        <ele>376.87799072266</ele>
        <time>2019-12-05T09:42:13+0100</time>
      </trkpt>
      <trkpt lat="47.19191" lon="4.95115">
        <ele>376.83062744141</ele>
        <time>2019-12-05T09:42:16+0100</time>
      </trkpt>
      <trkpt lat="47.19191" lon="4.95115">
        <ele>376.78335571289</ele>
        <time>2019-12-05T09:42:19+0100</time>
      </trkpt>
      <trkpt lat="47.19191" lon="4.95115">
        <ele>376.73455810547</ele>
        <time>2019-12-05T09:42:22+0100</time>
      </trkpt>
      <trkpt lat="47.19191" lon="4.95115">
        <ele>376.68402099609</ele>
        <time>2019-12-05T09:42:25+0100</time>
      </trkpt>
      <trkpt lat="47.19191" lon="4.95115">
        <ele>376.63262939453</ele>
        <time>2019-12-05T09:42:28+0100</time>
      </trkpt>
      <trkpt lat="47.19191" lon="4.95115">
        <ele>376.58065795898</ele>
        <time>2019-12-05T09:42:31+0100</time>
      </trkpt>
      <trkpt lat="47.19191" lon="4.95115">
        <ele>376.52914428711</ele>
        <time>2019-12-05T09:42:34+0100</time>
      </trkpt>
      <trkpt lat="47.19191" lon="4.95115">
        <ele>376.47741699219</ele>
        <time>2019-12-05T09:42:37+0100</time>
      </trkpt>
      <trkpt lat="47.19191" lon="4.95115">
        <ele>376.42877197266</ele>
        <time>2019-12-05T09:42:40+0100</time>
      </trkpt>
      <trkpt lat="47.1919" lon="4.95115">
        <ele>376.38330078125</ele>
        <time>2019-12-05T09:42:43+0100</time>
      </trkpt>
      <trkpt lat="47.1919" lon="4.95115">
        <ele>376.20761108398</ele>
        <time>2019-12-05T09:42:46+0100</time>
      </trkpt>
      <trkpt lat="47.1919" lon="4.95115">
        <ele>375.79455566406</ele>
        <time>2019-12-05T09:42:49+0100</time>
      </trkpt>
      <trkpt lat="47.1919" lon="4.95115">
        <ele>375.53561401367</ele>
        <time>2019-12-05T09:42:52+0100</time>
      </trkpt>
      <trkpt lat="47.1919" lon="4.95115">
        <ele>375.27883911133</ele>
        <time>2019-12-05T09:42:55+0100</time>
      </trkpt>
      <trkpt lat="47.1919" lon="4.95115">
        <ele>375.24264526367</ele>
        <time>2019-12-05T09:42:58+0100</time>
      </trkpt>
      <trkpt lat="47.1919" lon="4.95115">
        <ele>375.08584594727</ele>
        <time>2019-12-05T09:43:01+0100</time>
      </trkpt>
      <trkpt lat="47.19189" lon="4.95114">
        <ele>375.04840087891</ele>
        <time>2019-12-05T09:43:04+0100</time>
      </trkpt>
      <trkpt lat="47.19189" lon="4.95114">
        <ele>375.01129150391</ele>
        <time>2019-12-05T09:43:07+0100</time>
      </trkpt>
      <trkpt lat="47.19189" lon="4.95114">
        <ele>374.97280883789</ele>
        <time>2019-12-05T09:43:10+0100</time>
      </trkpt>
      <trkpt lat="47.19189" lon="4.95114">
        <ele>374.93215942383</ele>
        <time>2019-12-05T09:43:13+0100</time>
      </trkpt>
      <trkpt lat="47.19189" lon="4.95114">
        <ele>374.75857543945</ele>
        <time>2019-12-05T09:43:16+0100</time>
      </trkpt>
      <trkpt lat="47.19189" lon="4.95113">
        <ele>374.71838378906</ele>
        <time>2019-12-05T09:43:19+0100</time>
      </trkpt>
      <trkpt lat="47.19189" lon="4.95113">
        <ele>374.67861938477</ele>
        <time>2019-12-05T09:43:22+0100</time>
      </trkpt>
      <trkpt lat="47.19189" lon="4.95113">
        <ele>374.64178466797</ele>
        <time>2019-12-05T09:43:25+0100</time>
      </trkpt>
      <trkpt lat="47.19189" lon="4.95113">
        <ele>374.60461425781</ele>
        <time>2019-12-05T09:43:28+0100</time>
      </trkpt>
      <trkpt lat="47.19189" lon="4.95113">
        <ele>374.56832885742</ele>
        <time>2019-12-05T09:43:31+0100</time>
      </trkpt>
      <trkpt lat="47.19189" lon="4.95113">
        <ele>374.53182983398</ele>
        <time>2019-12-05T09:43:34+0100</time>
      </trkpt>
      <trkpt lat="47.19189" lon="4.95113">
        <ele>374.49435424805</ele>
        <time>2019-12-05T09:43:37+0100</time>
      </trkpt>
      <trkpt lat="47.19189" lon="4.95113">
        <ele>374.45706176758</ele>
        <time>2019-12-05T09:43:40+0100</time>
      </trkpt>
      <trkpt lat="47.19188" lon="4.95113">
        <ele>374.22161865234</ele>
        <time>2019-12-05T09:43:43+0100</time>
      </trkpt>
      <trkpt lat="47.19187" lon="4.95111">
        <ele>373.91479492188</ele>
        <time>2019-12-05T09:43:46+0100</time>
      </trkpt>
      <trkpt lat="47.19186" lon="4.9511">
        <ele>373.60665893555</ele>
        <time>2019-12-05T09:43:49+0100</time>
      </trkpt>
      <trkpt lat="47.19184" lon="4.95108">
        <ele>373.31399536133</ele>
        <time>2019-12-05T09:43:52+0100</time>
      </trkpt>
      <trkpt lat="47.19182" lon="4.95106">
        <ele>373.04510498047</ele>
        <time>2019-12-05T09:43:55+0100</time>
      </trkpt>
      <trkpt lat="47.1918" lon="4.95105">
        <ele>372.80130004883</ele>
        <time>2019-12-05T09:43:58+0100</time>
      </trkpt>
      <trkpt lat="47.19177" lon="4.95103">
        <ele>372.60305786133</ele>
        <time>2019-12-05T09:44:01+0100</time>
      </trkpt>
      <trkpt lat="47.19175" lon="4.95102">
        <ele>372.45077514648</ele>
        <time>2019-12-05T09:44:04+0100</time>
      </trkpt>
      <trkpt lat="47.19173" lon="4.951">
        <ele>372.33178710938</ele>
        <time>2019-12-05T09:44:07+0100</time>
      </trkpt>
      <trkpt lat="47.19171" lon="4.95097">
        <ele>372.22863769531</ele>
        <time>2019-12-05T09:44:10+0100</time>
      </trkpt>
      <trkpt lat="47.19168" lon="4.95095">
        <ele>372.14489746094</ele>
        <time>2019-12-05T09:44:13+0100</time>
      </trkpt>
      <trkpt lat="47.19166" lon="4.95093">
        <ele>372.0703125</ele>
        <time>2019-12-05T09:44:16+0100</time>
      </trkpt>
      <trkpt lat="47.19164" lon="4.95092">
        <ele>371.99319458008</ele>
        <time>2019-12-05T09:44:19+0100</time>
      </trkpt>
      <trkpt lat="47.19163" lon="4.95091">
        <ele>371.90377807617</ele>
        <time>2019-12-05T09:44:22+0100</time>
      </trkpt>
      <trkpt lat="47.19161" lon="4.9509">
        <ele>371.81539916992</ele>
        <time>2019-12-05T09:44:25+0100</time>
      </trkpt>
      <trkpt lat="47.19158" lon="4.95088">
        <ele>371.74761962891</ele>
        <time>2019-12-05T09:44:28+0100</time>
      </trkpt>
      <trkpt lat="47.19156" lon="4.95087">
        <ele>371.67642211914</ele>
        <time>2019-12-05T09:44:31+0100</time>
      </trkpt>
      <trkpt lat="47.19154" lon="4.95086">
        <ele>371.61483764648</ele>
        <time>2019-12-05T09:44:34+0100</time>
      </trkpt>
      <trkpt lat="47.19152" lon="4.95085">
        <ele>371.53530883789</ele>
        <time>2019-12-05T09:44:37+0100</time>
      </trkpt>
      <trkpt lat="47.19149" lon="4.95083">
        <ele>371.47033691406</ele>
        <time>2019-12-05T09:44:40+0100</time>
      </trkpt>
      <trkpt lat="47.19146" lon="4.95082">
        <ele>371.42495727539</ele>
        <time>2019-12-05T09:44:43+0100</time>
      </trkpt>
      <trkpt lat="47.19144" lon="4.95081">
        <ele>371.36666870117</ele>
        <time>2019-12-05T09:44:46+0100</time>
      </trkpt>
      <trkpt lat="47.19141" lon="4.95081">
        <ele>371.29531860352</ele>
        <time>2019-12-05T09:44:49+0100</time>
      </trkpt>
      <trkpt lat="47.1914" lon="4.95081">
        <ele>371.21694946289</ele>
        <time>2019-12-05T09:44:52+0100</time>
      </trkpt>
      <trkpt lat="47.19137" lon="4.95081">
        <ele>371.14947509766</ele>
        <time>2019-12-05T09:44:55+0100</time>
      </trkpt>
      <trkpt lat="47.19135" lon="4.95081">
        <ele>371.03207397461</ele>
        <time>2019-12-05T09:44:58+0100</time>
      </trkpt>
      <trkpt lat="47.19133" lon="4.95081">
        <ele>370.91067504883</ele>
        <time>2019-12-05T09:45:01+0100</time>
      </trkpt>
      <trkpt lat="47.19131" lon="4.95081">
        <ele>370.79296875</ele>
        <time>2019-12-05T09:45:04+0100</time>
      </trkpt>
      <trkpt lat="47.19128" lon="4.95082">
        <ele>370.69174194336</ele>
        <time>2019-12-05T09:45:07+0100</time>
      </trkpt>
      <trkpt lat="47.19125" lon="4.95082">
        <ele>370.60934448242</ele>
        <time>2019-12-05T09:45:10+0100</time>
      </trkpt>
      <trkpt lat="47.19124" lon="4.95082">
        <ele>370.52908325195</ele>
        <time>2019-12-05T09:45:13+0100</time>
      </trkpt>
      <trkpt lat="47.19122" lon="4.95083">
        <ele>370.47061157227</ele>
        <time>2019-12-05T09:45:16+0100</time>
      </trkpt>
      <trkpt lat="47.1912" lon="4.95084">
        <ele>370.42166137695</ele>
        <time>2019-12-05T09:45:19+0100</time>
      </trkpt>
      <trkpt lat="47.19118" lon="4.95085">
        <ele>370.39398193359</ele>
        <time>2019-12-05T09:45:22+0100</time>
      </trkpt>
      <trkpt lat="47.19114" lon="4.95087">
        <ele>370.37976074219</ele>
        <time>2019-12-05T09:45:25+0100</time>
      </trkpt>
      <trkpt lat="47.19112" lon="4.95088">
        <ele>370.37750244141</ele>
        <time>2019-12-05T09:45:28+0100</time>
      </trkpt>
      <trkpt lat="47.1911" lon="4.95088">
        <ele>370.37670898438</ele>
        <time>2019-12-05T09:45:31+0100</time>
      </trkpt>
      <trkpt lat="47.19108" lon="4.9509">
        <ele>370.3740234375</ele>
        <time>2019-12-05T09:45:34+0100</time>
      </trkpt>
      <trkpt lat="47.19106" lon="4.95093">
        <ele>370.35070800781</ele>
        <time>2019-12-05T09:45:37+0100</time>
      </trkpt>
      <trkpt lat="47.19103" lon="4.95093">
        <ele>370.31909179688</ele>
        <time>2019-12-05T09:45:40+0100</time>
      </trkpt>
      <trkpt lat="47.19101" lon="4.95094">
        <ele>370.31576538086</ele>
        <time>2019-12-05T09:45:43+0100</time>
      </trkpt>
      <trkpt lat="47.19098" lon="4.95095">
        <ele>370.32907104492</ele>
        <time>2019-12-05T09:45:46+0100</time>
      </trkpt>
      <trkpt lat="47.19095" lon="4.95096">
        <ele>370.32009887695</ele>
        <time>2019-12-05T09:45:49+0100</time>
      </trkpt>
      <trkpt lat="47.19092" lon="4.95098">
        <ele>370.31430053711</ele>
        <time>2019-12-05T09:45:52+0100</time>
      </trkpt>
      <trkpt lat="47.1909" lon="4.951">
        <ele>370.27978515625</ele>
        <time>2019-12-05T09:45:55+0100</time>
      </trkpt>
      <trkpt lat="47.19088" lon="4.95101">
        <ele>370.21908569336</ele>
        <time>2019-12-05T09:45:58+0100</time>
      </trkpt>
      <trkpt lat="47.19086" lon="4.95102">
        <ele>370.13485717773</ele>
        <time>2019-12-05T09:46:01+0100</time>
      </trkpt>
      <trkpt lat="47.19084" lon="4.95103">
        <ele>370.03805541992</ele>
        <time>2019-12-05T09:46:04+0100</time>
      </trkpt>
      <trkpt lat="47.19081" lon="4.95106">
        <ele>369.91995239258</ele>
        <time>2019-12-05T09:46:07+0100</time>
      </trkpt>
      <trkpt lat="47.19079" lon="4.95108">
        <ele>369.78009033203</ele>
        <time>2019-12-05T09:46:10+0100</time>
      </trkpt>
      <trkpt lat="47.19076" lon="4.9511">
        <ele>369.63363647461</ele>
        <time>2019-12-05T09:46:13+0100</time>
      </trkpt>
      <trkpt lat="47.19073" lon="4.9511">
        <ele>369.46279907227</ele>
        <time>2019-12-05T09:46:16+0100</time>
      </trkpt>
      <trkpt lat="47.1907" lon="4.95112">
        <ele>369.26303100586</ele>
        <time>2019-12-05T09:46:19+0100</time>
      </trkpt>
      <trkpt lat="47.19068" lon="4.95112">
        <ele>369.08380126953</ele>
        <time>2019-12-05T09:46:22+0100</time>
      </trkpt>
      <trkpt lat="47.19067" lon="4.95113">
        <ele>368.92404174805</ele>
        <time>2019-12-05T09:46:25+0100</time>
      </trkpt>
      <trkpt lat="47.19064" lon="4.95115">
        <ele>368.78295898438</ele>
        <time>2019-12-05T09:46:28+0100</time>
      </trkpt>
      <trkpt lat="47.19061" lon="4.95116">
        <ele>368.66354370117</ele>
        <time>2019-12-05T09:46:31+0100</time>
      </trkpt>
      <trkpt lat="47.19059" lon="4.95117">
        <ele>368.56216430664</ele>
        <time>2019-12-05T09:46:34+0100</time>
      </trkpt>
      <trkpt lat="47.19056" lon="4.95119">
        <ele>368.45449829102</ele>
        <time>2019-12-05T09:46:37+0100</time>
      </trkpt>
      <trkpt lat="47.19054" lon="4.9512">
        <ele>368.33618164062</ele>
        <time>2019-12-05T09:46:40+0100</time>
      </trkpt>
      <trkpt lat="47.19052" lon="4.95122">
        <ele>368.22311401367</ele>
        <time>2019-12-05T09:46:43+0100</time>
      </trkpt>
      <trkpt lat="47.1905" lon="4.95123">
        <ele>368.11898803711</ele>
        <time>2019-12-05T09:46:46+0100</time>
      </trkpt>
      <trkpt lat="47.19047" lon="4.95124">
        <ele>368.01904296875</ele>
        <time>2019-12-05T09:46:49+0100</time>
      </trkpt>
      <trkpt lat="47.19044" lon="4.95125">
        <ele>367.9211730957</ele>
        <time>2019-12-05T09:46:52+0100</time>
      </trkpt>
      <trkpt lat="47.19042" lon="4.95127">
        <ele>367.84671020508</ele>
        <time>2019-12-05T09:46:55+0100</time>
      </trkpt>
      <trkpt lat="47.19038" lon="4.95129">
        <ele>367.76971435547</ele>
        <time>2019-12-05T09:46:58+0100</time>
      </trkpt>
      <trkpt lat="47.19036" lon="4.95129">
        <ele>367.68087768555</ele>
        <time>2019-12-05T09:47:01+0100</time>
      </trkpt>
      <trkpt lat="47.19033" lon="4.9513">
        <ele>367.58114624023</ele>
        <time>2019-12-05T09:47:04+0100</time>
      </trkpt>
      <trkpt lat="47.19031" lon="4.95132">
        <ele>367.4787902832</ele>
        <time>2019-12-05T09:47:07+0100</time>
      </trkpt>
      <trkpt lat="47.19029" lon="4.95133">
        <ele>367.37347412109</ele>
        <time>2019-12-05T09:47:10+0100</time>
      </trkpt>
      <trkpt lat="47.19027" lon="4.95133">
        <ele>367.29373168945</ele>
        <time>2019-12-05T09:47:13+0100</time>
      </trkpt>
      <trkpt lat="47.19024" lon="4.95134">
        <ele>367.22229003906</ele>
        <time>2019-12-05T09:47:16+0100</time>
      </trkpt>
      <trkpt lat="47.1902" lon="4.95134">
        <ele>367.16705322266</ele>
        <time>2019-12-05T09:47:19+0100</time>
      </trkpt>
      <trkpt lat="47.19017" lon="4.95135">
        <ele>367.07357788086</ele>
        <time>2019-12-05T09:47:22+0100</time>
      </trkpt>
      <trkpt lat="47.19015" lon="4.95136">
        <ele>366.97927856445</ele>
        <time>2019-12-05T09:47:25+0100</time>
      </trkpt>
      <trkpt lat="47.19012" lon="4.95136">
        <ele>366.89947509766</ele>
        <time>2019-12-05T09:47:28+0100</time>
      </trkpt>
      <trkpt lat="47.1901" lon="4.95137">
        <ele>366.83749389648</ele>
        <time>2019-12-05T09:47:31+0100</time>
      </trkpt>
      <trkpt lat="47.19008" lon="4.95138">
        <ele>366.79913330078</ele>
        <time>2019-12-05T09:47:34+0100</time>
      </trkpt>
      <trkpt lat="47.19006" lon="4.9514">
        <ele>366.7392578125</ele>
        <time>2019-12-05T09:47:37+0100</time>
      </trkpt>
      <trkpt lat="47.19004" lon="4.9514">
        <ele>366.68200683594</ele>
        <time>2019-12-05T09:47:40+0100</time>
      </trkpt>
      <trkpt lat="47.19002" lon="4.95142">
        <ele>366.65420532227</ele>
        <time>2019-12-05T09:47:43+0100</time>
      </trkpt>
      <trkpt lat="47.19" lon="4.95143">
        <ele>366.59979248047</ele>
        <time>2019-12-05T09:47:46+0100</time>
      </trkpt>
      <trkpt lat="47.18998" lon="4.95145">
        <ele>366.60009765625</ele>
        <time>2019-12-05T09:47:49+0100</time>
      </trkpt>
      <trkpt lat="47.18994" lon="4.95146">
        <ele>366.64538574219</ele>
        <time>2019-12-05T09:47:52+0100</time>
      </trkpt>
      <trkpt lat="47.18991" lon="4.95146">
        <ele>366.74710083008</ele>
        <time>2019-12-05T09:47:55+0100</time>
      </trkpt>
      <trkpt lat="47.18989" lon="4.95147">
        <ele>366.85076904297</ele>
        <time>2019-12-05T09:47:58+0100</time>
      </trkpt>
      <trkpt lat="47.18986" lon="4.95148">
        <ele>366.91952514648</ele>
        <time>2019-12-05T09:48:01+0100</time>
      </trkpt>
      <trkpt lat="47.18983" lon="4.95148">
        <ele>366.93438720703</ele>
        <time>2019-12-05T09:48:04+0100</time>
      </trkpt>
      <trkpt lat="47.18981" lon="4.9515">
        <ele>366.97039794922</ele>
        <time>2019-12-05T09:48:07+0100</time>
      </trkpt>
      <trkpt lat="47.18978" lon="4.95152">
        <ele>367.0143737793</ele>
        <time>2019-12-05T09:48:10+0100</time>
      </trkpt>
      <trkpt lat="47.18973" lon="4.95153">
        <ele>366.97583007812</ele>
        <time>2019-12-05T09:48:13+0100</time>
      </trkpt>
      <trkpt lat="47.18971" lon="4.95153">
        <ele>366.90515136719</ele>
        <time>2019-12-05T09:48:16+0100</time>
      </trkpt>
      <trkpt lat="47.18968" lon="4.95154">
        <ele>366.78076171875</ele>
        <time>2019-12-05T09:48:19+0100</time>
      </trkpt>
      <trkpt lat="47.18965" lon="4.95155">
        <ele>366.61538696289</ele>
        <time>2019-12-05T09:48:22+0100</time>
      </trkpt>
      <trkpt lat="47.18961" lon="4.95155">
        <ele>366.45022583008</ele>
        <time>2019-12-05T09:48:25+0100</time>
      </trkpt>
      <trkpt lat="47.18959" lon="4.95155">
        <ele>366.27389526367</ele>
        <time>2019-12-05T09:48:28+0100</time>
      </trkpt>
      <trkpt lat="47.18955" lon="4.95155">
        <ele>366.08337402344</ele>
        <time>2019-12-05T09:48:31+0100</time>
      </trkpt>
      <trkpt lat="47.18952" lon="4.95157">
        <ele>365.87762451172</ele>
        <time>2019-12-05T09:48:34+0100</time>
      </trkpt>
      <trkpt lat="47.18948" lon="4.95157">
        <ele>365.65594482422</ele>
        <time>2019-12-05T09:48:36+0100</time>
      </trkpt>
      <trkpt lat="47.18946" lon="4.95158">
        <ele>365.40322875977</ele>
        <time>2019-12-05T09:48:39+0100</time>
      </trkpt>
      <trkpt lat="47.18942" lon="4.95159">
        <ele>365.14181518555</ele>
        <time>2019-12-05T09:48:42+0100</time>
      </trkpt>
      <trkpt lat="47.18938" lon="4.95159">
        <ele>364.8623046875</ele>
        <time>2019-12-05T09:48:45+0100</time>
      </trkpt>
      <trkpt lat="47.18937" lon="4.95159">
        <ele>364.55941772461</ele>
        <time>2019-12-05T09:48:48+0100</time>
      </trkpt>
      <trkpt lat="47.18934" lon="4.95158">
        <ele>364.25823974609</ele>
        <time>2019-12-05T09:48:51+0100</time>
      </trkpt>
      <trkpt lat="47.1893" lon="4.95159">
        <ele>363.96408081055</ele>
        <time>2019-12-05T09:48:54+0100</time>
      </trkpt>
      <trkpt lat="47.18928" lon="4.95159">
        <ele>363.70162963867</ele>
        <time>2019-12-05T09:48:57+0100</time>
      </trkpt>
      <trkpt lat="47.18924" lon="4.9516">
        <ele>363.43203735352</ele>
        <time>2019-12-05T09:49:00+0100</time>
      </trkpt>
      <trkpt lat="47.18921" lon="4.95162">
        <ele>363.13244628906</ele>
        <time>2019-12-05T09:49:03+0100</time>
      </trkpt>
      <trkpt lat="47.18918" lon="4.95162">
        <ele>362.83355712891</ele>
        <time>2019-12-05T09:49:06+0100</time>
      </trkpt>
      <trkpt lat="47.18915" lon="4.95163">
        <ele>362.51940917969</ele>
        <time>2019-12-05T09:49:09+0100</time>
      </trkpt>
      <trkpt lat="47.18915" lon="4.95164">
        <ele>362.18899536133</ele>
        <time>2019-12-05T09:49:12+0100</time>
      </trkpt>
      <trkpt lat="47.18912" lon="4.95165">
        <ele>361.85928344727</ele>
        <time>2019-12-05T09:49:15+0100</time>
      </trkpt>
      <trkpt lat="47.1891" lon="4.95166">
        <ele>361.62579345703</ele>
        <time>2019-12-05T09:49:18+0100</time>
      </trkpt>
      <trkpt lat="47.18908" lon="4.95167">
        <ele>361.30560302734</ele>
        <time>2019-12-05T09:49:21+0100</time>
      </trkpt>
      <trkpt lat="47.18906" lon="4.9517">
        <ele>360.97183227539</ele>
        <time>2019-12-05T09:49:24+0100</time>
      </trkpt>
      <trkpt lat="47.18904" lon="4.95173">
        <ele>360.61175537109</ele>
        <time>2019-12-05T09:49:27+0100</time>
      </trkpt>
      <trkpt lat="47.18902" lon="4.95175">
        <ele>360.34817504883</ele>
        <time>2019-12-05T09:49:30+0100</time>
      </trkpt>
      <trkpt lat="47.18902" lon="4.95175">
        <ele>359.92816162109</ele>
        <time>2019-12-05T09:49:33+0100</time>
      </trkpt>
      <trkpt lat="47.18901" lon="4.95177">
        <ele>359.88369750977</ele>
        <time>2019-12-05T09:49:36+0100</time>
      </trkpt>
      <trkpt lat="47.18901" lon="4.95178">
        <ele>359.67587280273</ele>
        <time>2019-12-05T09:49:39+0100</time>
      </trkpt>
      <trkpt lat="47.18901" lon="4.95178">
        <ele>359.61688232422</ele>
        <time>2019-12-05T09:49:42+0100</time>
      </trkpt>
      <trkpt lat="47.18901" lon="4.95179">
        <ele>359.55471801758</ele>
        <time>2019-12-05T09:49:45+0100</time>
      </trkpt>
      <trkpt lat="47.189" lon="4.95179">
        <ele>359.48471069336</ele>
        <time>2019-12-05T09:49:48+0100</time>
      </trkpt>
      <trkpt lat="47.189" lon="4.9518">
        <ele>359.40490722656</ele>
        <time>2019-12-05T09:49:51+0100</time>
      </trkpt>
      <trkpt lat="47.189" lon="4.9518">
        <ele>359.31954956055</ele>
        <time>2019-12-05T09:49:54+0100</time>
      </trkpt>
      <trkpt lat="47.189" lon="4.9518">
        <ele>359.23168945312</ele>
        <time>2019-12-05T09:49:57+0100</time>
      </trkpt>
      <trkpt lat="47.189" lon="4.9518">
        <ele>359.14242553711</ele>
        <time>2019-12-05T09:50:00+0100</time>
      </trkpt>
      <trkpt lat="47.189" lon="4.9518">
        <ele>359.05383300781</ele>
        <time>2019-12-05T09:50:03+0100</time>
      </trkpt>
      <trkpt lat="47.189" lon="4.9518">
        <ele>358.96731567383</ele>
        <time>2019-12-05T09:50:06+0100</time>
      </trkpt>
      <trkpt lat="47.189" lon="4.95181">
        <ele>358.88363647461</ele>
        <time>2019-12-05T09:50:09+0100</time>
      </trkpt>
      <trkpt lat="47.189" lon="4.95182">
        <ele>358.79803466797</ele>
        <time>2019-12-05T09:50:12+0100</time>
      </trkpt>
      <trkpt lat="47.189" lon="4.95182">
        <ele>358.71441650391</ele>
        <time>2019-12-05T09:50:15+0100</time>
      </trkpt>
      <trkpt lat="47.189" lon="4.95182">
        <ele>358.63320922852</ele>
        <time>2019-12-05T09:50:18+0100</time>
      </trkpt>
      <trkpt lat="47.189" lon="4.95182">
        <ele>358.55419921875</ele>
        <time>2019-12-05T09:50:21+0100</time>
      </trkpt>
      <trkpt lat="47.189" lon="4.95182">
        <ele>358.47601318359</ele>
        <time>2019-12-05T09:50:24+0100</time>
      </trkpt>
      <trkpt lat="47.189" lon="4.95182">
        <ele>358.17440795898</ele>
        <time>2019-12-05T09:50:27+0100</time>
      </trkpt>
      <trkpt lat="47.189" lon="4.95181">
        <ele>357.68328857422</ele>
        <time>2019-12-05T09:50:30+0100</time>
      </trkpt>
      <trkpt lat="47.18899" lon="4.95182">
        <ele>357.0241394043</ele>
        <time>2019-12-05T09:50:33+0100</time>
      </trkpt>
      <trkpt lat="47.18896" lon="4.95181">
        <ele>356.42077636719</ele>
        <time>2019-12-05T09:50:36+0100</time>
      </trkpt>
      <trkpt lat="47.18893" lon="4.95182">
        <ele>355.86166381836</ele>
        <time>2019-12-05T09:50:39+0100</time>
      </trkpt>
      <trkpt lat="47.1889" lon="4.95181">
        <ele>355.33801269531</ele>
        <time>2019-12-05T09:50:42+0100</time>
      </trkpt>
      <trkpt lat="47.18887" lon="4.9518">
        <ele>354.84564208984</ele>
        <time>2019-12-05T09:50:45+0100</time>
      </trkpt>
      <trkpt lat="47.18885" lon="4.9518">
        <ele>354.35171508789</ele>
        <time>2019-12-05T09:50:48+0100</time>
      </trkpt>
      <trkpt lat="47.18884" lon="4.9518">
        <ele>353.89349365234</ele>
        <time>2019-12-05T09:50:51+0100</time>
      </trkpt>
      <trkpt lat="47.18882" lon="4.9518">
        <ele>353.44647216797</ele>
        <time>2019-12-05T09:50:54+0100</time>
      </trkpt>
      <trkpt lat="47.1888" lon="4.9518">
        <ele>353.01626586914</ele>
        <time>2019-12-05T09:50:57+0100</time>
      </trkpt>
      <trkpt lat="47.18877" lon="4.9518">
        <ele>352.60266113281</ele>
        <time>2019-12-05T09:51:00+0100</time>
      </trkpt>
      <trkpt lat="47.18875" lon="4.95181">
        <ele>352.22543334961</ele>
        <time>2019-12-05T09:51:03+0100</time>
      </trkpt>
      <trkpt lat="47.18871" lon="4.9518">
        <ele>351.87432861328</ele>
        <time>2019-12-05T09:51:06+0100</time>
      </trkpt>
      <trkpt lat="47.18868" lon="4.9518">
        <ele>351.53729248047</ele>
        <time>2019-12-05T09:51:09+0100</time>
      </trkpt>
      <trkpt lat="47.18866" lon="4.9518">
        <ele>351.22940063477</ele>
        <time>2019-12-05T09:51:12+0100</time>
      </trkpt>
      <trkpt lat="47.18864" lon="4.9518">
        <ele>350.94921875</ele>
        <time>2019-12-05T09:51:15+0100</time>
      </trkpt>
      <trkpt lat="47.18862" lon="4.95181">
        <ele>350.66632080078</ele>
        <time>2019-12-05T09:51:18+0100</time>
      </trkpt>
      <trkpt lat="47.18858" lon="4.95182">
        <ele>350.38677978516</ele>
        <time>2019-12-05T09:51:21+0100</time>
      </trkpt>
      <trkpt lat="47.18855" lon="4.95182">
        <ele>350.14553833008</ele>
        <time>2019-12-05T09:51:24+0100</time>
      </trkpt>
      <trkpt lat="47.18853" lon="4.95182">
        <ele>349.92868041992</ele>
        <time>2019-12-05T09:51:27+0100</time>
      </trkpt>
      <trkpt lat="47.18851" lon="4.95183">
        <ele>349.71325683594</ele>
        <time>2019-12-05T09:51:30+0100</time>
      </trkpt>
      <trkpt lat="47.18848" lon="4.95183">
        <ele>349.47314453125</ele>
        <time>2019-12-05T09:51:33+0100</time>
      </trkpt>
      <trkpt lat="47.18845" lon="4.95184">
        <ele>349.21176147461</ele>
        <time>2019-12-05T09:51:36+0100</time>
      </trkpt>
      <trkpt lat="47.18843" lon="4.95184">
        <ele>348.97143554688</ele>
        <time>2019-12-05T09:51:39+0100</time>
      </trkpt>
      <trkpt lat="47.1884" lon="4.95185">
        <ele>348.71118164062</ele>
        <time>2019-12-05T09:51:42+0100</time>
      </trkpt>
      <trkpt lat="47.18837" lon="4.95185">
        <ele>348.44757080078</ele>
        <time>2019-12-05T09:51:45+0100</time>
      </trkpt>
      <trkpt lat="47.18834" lon="4.95185">
        <ele>348.18109130859</ele>
        <time>2019-12-05T09:51:48+0100</time>
      </trkpt>
      <trkpt lat="47.18833" lon="4.95186">
        <ele>347.88128662109</ele>
        <time>2019-12-05T09:51:51+0100</time>
      </trkpt>
      <trkpt lat="47.1883" lon="4.95186">
        <ele>347.53588867188</ele>
        <time>2019-12-05T09:51:54+0100</time>
      </trkpt>
      <trkpt lat="47.18828" lon="4.95186">
        <ele>347.26867675781</ele>
        <time>2019-12-05T09:51:57+0100</time>
      </trkpt>
      <trkpt lat="47.18825" lon="4.95187">
        <ele>346.7741394043</ele>
        <time>2019-12-05T09:52:00+0100</time>
      </trkpt>
      <trkpt lat="47.18824" lon="4.95187">
        <ele>346.19543457031</ele>
        <time>2019-12-05T09:52:03+0100</time>
      </trkpt>
      <trkpt lat="47.18821" lon="4.95187">
        <ele>345.66055297852</ele>
        <time>2019-12-05T09:52:06+0100</time>
      </trkpt>
      <trkpt lat="47.18819" lon="4.95187">
        <ele>345.1813659668</ele>
        <time>2019-12-05T09:52:09+0100</time>
      </trkpt>
      <trkpt lat="47.18817" lon="4.95187">
        <ele>344.7158203125</ele>
        <time>2019-12-05T09:52:12+0100</time>
      </trkpt>
      <trkpt lat="47.18815" lon="4.95187">
        <ele>344.27655029297</ele>
        <time>2019-12-05T09:52:15+0100</time>
      </trkpt>
      <trkpt lat="47.18812" lon="4.95187">
        <ele>343.84173583984</ele>
        <time>2019-12-05T09:52:18+0100</time>
      </trkpt>
      <trkpt lat="47.18809" lon="4.95187">
        <ele>343.38977050781</ele>
        <time>2019-12-05T09:52:21+0100</time>
      </trkpt>
      <trkpt lat="47.18807" lon="4.95187">
        <ele>342.93466186523</ele>
        <time>2019-12-05T09:52:24+0100</time>
      </trkpt>
      <trkpt lat="47.18803" lon="4.95188">
        <ele>342.45199584961</ele>
        <time>2019-12-05T09:52:27+0100</time>
      </trkpt>
      <trkpt lat="47.18801" lon="4.95189">
        <ele>341.97509765625</ele>
        <time>2019-12-05T09:52:30+0100</time>
      </trkpt>
      <trkpt lat="47.18798" lon="4.95189">
        <ele>341.49575805664</ele>
        <time>2019-12-05T09:52:33+0100</time>
      </trkpt>
      <trkpt lat="47.18796" lon="4.95189">
        <ele>341.03857421875</ele>
        <time>2019-12-05T09:52:36+0100</time>
      </trkpt>
      <trkpt lat="47.18794" lon="4.95189">
        <ele>340.5888671875</ele>
        <time>2019-12-05T09:52:39+0100</time>
      </trkpt>
      <trkpt lat="47.18791" lon="4.95189">
        <ele>340.09292602539</ele>
        <time>2019-12-05T09:52:42+0100</time>
      </trkpt>
      <trkpt lat="47.18788" lon="4.9519">
        <ele>339.57104492188</ele>
        <time>2019-12-05T09:52:45+0100</time>
      </trkpt>
      <trkpt lat="47.18785" lon="4.9519">
        <ele>339.05990600586</ele>
        <time>2019-12-05T09:52:48+0100</time>
      </trkpt>
      <trkpt lat="47.18782" lon="4.9519">
        <ele>338.54840087891</ele>
        <time>2019-12-05T09:52:51+0100</time>
      </trkpt>
      <trkpt lat="47.1878" lon="4.9519">
        <ele>338.01080322266</ele>
        <time>2019-12-05T09:52:54+0100</time>
      </trkpt>
      <trkpt lat="47.18778" lon="4.9519">
        <ele>337.50827026367</ele>
        <time>2019-12-05T09:52:57+0100</time>
      </trkpt>
      <trkpt lat="47.18775" lon="4.9519">
        <ele>337.02709960938</ele>
        <time>2019-12-05T09:53:00+0100</time>
      </trkpt>
      <trkpt lat="47.18773" lon="4.95189">
        <ele>336.56295776367</ele>
        <time>2019-12-05T09:53:03+0100</time>
      </trkpt>
      <trkpt lat="47.1877" lon="4.95188">
        <ele>336.09466552734</ele>
        <time>2019-12-05T09:53:06+0100</time>
      </trkpt>
      <trkpt lat="47.18767" lon="4.95187">
        <ele>335.63043212891</ele>
        <time>2019-12-05T09:53:09+0100</time>
      </trkpt>
      <trkpt lat="47.18765" lon="4.95186">
        <ele>335.18045043945</ele>
        <time>2019-12-05T09:53:12+0100</time>
      </trkpt>
      <trkpt lat="47.18762" lon="4.95185">
        <ele>334.73587036133</ele>
        <time>2019-12-05T09:53:15+0100</time>
      </trkpt>
      <trkpt lat="47.1876" lon="4.95184">
        <ele>334.3073425293</ele>
        <time>2019-12-05T09:53:18+0100</time>
      </trkpt>
      <trkpt lat="47.18758" lon="4.95185">
        <ele>333.89685058594</ele>
        <time>2019-12-05T09:53:21+0100</time>
      </trkpt>
      <trkpt lat="47.18755" lon="4.95185">
        <ele>333.46923828125</ele>
        <time>2019-12-05T09:53:24+0100</time>
      </trkpt>
      <trkpt lat="47.18752" lon="4.95185">
        <ele>333.01895141602</ele>
        <time>2019-12-05T09:53:27+0100</time>
      </trkpt>
      <trkpt lat="47.18751" lon="4.95184">
        <ele>332.56018066406</ele>
        <time>2019-12-05T09:53:30+0100</time>
      </trkpt>
      <trkpt lat="47.18748" lon="4.95183">
        <ele>332.1042175293</ele>
        <time>2019-12-05T09:53:33+0100</time>
      </trkpt>
      <trkpt lat="47.18745" lon="4.95183">
        <ele>331.66583251953</ele>
        <time>2019-12-05T09:53:36+0100</time>
      </trkpt>
      <trkpt lat="47.18742" lon="4.95182">
        <ele>331.35855102539</ele>
        <time>2019-12-05T09:53:39+0100</time>
      </trkpt>
      <trkpt lat="47.1874" lon="4.95181">
        <ele>330.90731811523</ele>
        <time>2019-12-05T09:53:42+0100</time>
      </trkpt>
      <trkpt lat="47.18738" lon="4.9518">
        <ele>330.44451904297</ele>
        <time>2019-12-05T09:53:45+0100</time>
      </trkpt>
      <trkpt lat="47.18735" lon="4.95179">
        <ele>329.99267578125</ele>
        <time>2019-12-05T09:53:48+0100</time>
      </trkpt>
      <trkpt lat="47.18733" lon="4.95178">
        <ele>329.54626464844</ele>
        <time>2019-12-05T09:53:51+0100</time>
      </trkpt>
      <trkpt lat="47.18731" lon="4.95177">
        <ele>329.08514404297</ele>
        <time>2019-12-05T09:53:54+0100</time>
      </trkpt>
      <trkpt lat="47.18729" lon="4.95176">
        <ele>328.62481689453</ele>
        <time>2019-12-05T09:53:57+0100</time>
      </trkpt>
      <trkpt lat="47.18726" lon="4.95175">
        <ele>328.17462158203</ele>
        <time>2019-12-05T09:54:00+0100</time>
      </trkpt>
      <trkpt lat="47.18725" lon="4.95175">
        <ele>327.7262878418</ele>
        <time>2019-12-05T09:54:03+0100</time>
      </trkpt>
      <trkpt lat="47.18722" lon="4.95174">
        <ele>327.27603149414</ele>
        <time>2019-12-05T09:54:06+0100</time>
      </trkpt>
      <trkpt lat="47.18719" lon="4.95174">
        <ele>326.86145019531</ele>
        <time>2019-12-05T09:54:09+0100</time>
      </trkpt>
      <trkpt lat="47.18717" lon="4.95172">
        <ele>326.45571899414</ele>
        <time>2019-12-05T09:54:12+0100</time>
      </trkpt>
      <trkpt lat="47.18715" lon="4.95172">
        <ele>326.04467773438</ele>
        <time>2019-12-05T09:54:15+0100</time>
      </trkpt>
      <trkpt lat="47.18712" lon="4.9517">
        <ele>325.64474487305</ele>
        <time>2019-12-05T09:54:18+0100</time>
      </trkpt>
      <trkpt lat="47.1871" lon="4.95169">
        <ele>325.22357177734</ele>
        <time>2019-12-05T09:54:21+0100</time>
      </trkpt>
      <trkpt lat="47.18709" lon="4.95167">
        <ele>324.90646362305</ele>
        <time>2019-12-05T09:54:24+0100</time>
      </trkpt>
      <trkpt lat="47.18708" lon="4.95166">
        <ele>324.44543457031</ele>
        <time>2019-12-05T09:54:27+0100</time>
      </trkpt>
      <trkpt lat="47.18705" lon="4.95165">
        <ele>323.96740722656</ele>
        <time>2019-12-05T09:54:30+0100</time>
      </trkpt>
      <trkpt lat="47.18701" lon="4.95162">
        <ele>323.51126098633</ele>
        <time>2019-12-05T09:54:33+0100</time>
      </trkpt>
      <trkpt lat="47.18698" lon="4.95159">
        <ele>323.09552001953</ele>
        <time>2019-12-05T09:54:36+0100</time>
      </trkpt>
      <trkpt lat="47.18696" lon="4.95157">
        <ele>322.70086669922</ele>
        <time>2019-12-05T09:54:39+0100</time>
      </trkpt>
      <trkpt lat="47.18694" lon="4.95155">
        <ele>322.32357788086</ele>
        <time>2019-12-05T09:54:42+0100</time>
      </trkpt>
      <trkpt lat="47.18693" lon="4.9515">
        <ele>321.95791625977</ele>
        <time>2019-12-05T09:54:45+0100</time>
      </trkpt>
      <trkpt lat="47.18692" lon="4.95148">
        <ele>321.69445800781</ele>
        <time>2019-12-05T09:54:48+0100</time>
      </trkpt>
      <trkpt lat="47.18689" lon="4.95145">
        <ele>321.29568481445</ele>
        <time>2019-12-05T09:54:51+0100</time>
      </trkpt>
      <trkpt lat="47.18688" lon="4.9514">
        <ele>320.88595581055</ele>
        <time>2019-12-05T09:54:54+0100</time>
      </trkpt>
      <trkpt lat="47.18686" lon="4.95136">
        <ele>320.4772644043</ele>
        <time>2019-12-05T09:54:57+0100</time>
      </trkpt>
      <trkpt lat="47.18682" lon="4.9513">
        <ele>320.05511474609</ele>
        <time>2019-12-05T09:55:00+0100</time>
      </trkpt>
      <trkpt lat="47.18682" lon="4.95123">
        <ele>319.43566894531</ele>
        <time>2019-12-05T09:55:03+0100</time>
      </trkpt>
      <trkpt lat="47.18683" lon="4.95119">
        <ele>318.78894042969</ele>
        <time>2019-12-05T09:55:06+0100</time>
      </trkpt>
      <trkpt lat="47.18683" lon="4.95115">
        <ele>318.15335083008</ele>
        <time>2019-12-05T09:55:09+0100</time>
      </trkpt>
      <trkpt lat="47.18683" lon="4.95113">
        <ele>317.4599609375</ele>
        <time>2019-12-05T09:55:12+0100</time>
      </trkpt>
      <trkpt lat="47.18683" lon="4.95108">
        <ele>316.73806762695</ele>
        <time>2019-12-05T09:55:15+0100</time>
      </trkpt>
      <trkpt lat="47.18682" lon="4.95102">
        <ele>316.06207275391</ele>
        <time>2019-12-05T09:55:18+0100</time>
      </trkpt>
      <trkpt lat="47.1868" lon="4.95098">
        <ele>315.52032470703</ele>
        <time>2019-12-05T09:55:21+0100</time>
      </trkpt>
      <trkpt lat="47.1868" lon="4.95096">
        <ele>315.00079345703</ele>
        <time>2019-12-05T09:55:24+0100</time>
      </trkpt>
      <trkpt lat="47.18679" lon="4.95093">
        <ele>314.44952392578</ele>
        <time>2019-12-05T09:55:27+0100</time>
      </trkpt>
      <trkpt lat="47.18678" lon="4.95091">
        <ele>313.90716552734</ele>
        <time>2019-12-05T09:55:30+0100</time>
      </trkpt>
      <trkpt lat="47.18674" lon="4.95089">
        <ele>313.44445800781</ele>
        <time>2019-12-05T09:55:33+0100</time>
      </trkpt>
      <trkpt lat="47.18671" lon="4.9509">
        <ele>312.916015625</ele>
        <time>2019-12-05T09:55:36+0100</time>
      </trkpt>
      <trkpt lat="47.18669" lon="4.95089">
        <ele>312.47091674805</ele>
        <time>2019-12-05T09:55:39+0100</time>
      </trkpt>
      <trkpt lat="47.18666" lon="4.95086">
        <ele>312.13619995117</ele>
        <time>2019-12-05T09:55:42+0100</time>
      </trkpt>
      <trkpt lat="47.18664" lon="4.95083">
        <ele>311.92971801758</ele>
        <time>2019-12-05T09:55:45+0100</time>
      </trkpt>
      <trkpt lat="47.18662" lon="4.9508">
        <ele>311.63479614258</ele>
        <time>2019-12-05T09:55:48+0100</time>
      </trkpt>
      <trkpt lat="47.18662" lon="4.95078">
        <ele>311.36077880859</ele>
        <time>2019-12-05T09:55:51+0100</time>
      </trkpt>
      <trkpt lat="47.18662" lon="4.95073">
        <ele>311.03552246094</ele>
        <time>2019-12-05T09:55:54+0100</time>
      </trkpt>
      <trkpt lat="47.18661" lon="4.95073">
        <ele>310.69760131836</ele>
        <time>2019-12-05T09:55:57+0100</time>
      </trkpt>
      <trkpt lat="47.18661" lon="4.95069">
        <ele>310.27694702148</ele>
        <time>2019-12-05T09:56:00+0100</time>
      </trkpt>
      <trkpt lat="47.18661" lon="4.95062">
        <ele>309.81829833984</ele>
        <time>2019-12-05T09:56:03+0100</time>
      </trkpt>
      <trkpt lat="47.18661" lon="4.95062">
        <ele>309.32180786133</ele>
        <time>2019-12-05T09:56:06+0100</time>
      </trkpt>
      <trkpt lat="47.1866" lon="4.95057">
        <ele>308.84201049805</ele>
        <time>2019-12-05T09:56:09+0100</time>
      </trkpt>
      <trkpt lat="47.1866" lon="4.95053">
        <ele>308.29479980469</ele>
        <time>2019-12-05T09:56:12+0100</time>
      </trkpt>
      <trkpt lat="47.1866" lon="4.95051">
        <ele>307.69427490234</ele>
        <time>2019-12-05T09:56:15+0100</time>
      </trkpt>
      <trkpt lat="47.18661" lon="4.9505">
        <ele>307.13400268555</ele>
        <time>2019-12-05T09:56:18+0100</time>
      </trkpt>
      <trkpt lat="47.1866" lon="4.95044">
        <ele>306.65393066406</ele>
        <time>2019-12-05T09:56:21+0100</time>
      </trkpt>
      <trkpt lat="47.1866" lon="4.95043">
        <ele>306.18197631836</ele>
        <time>2019-12-05T09:56:24+0100</time>
      </trkpt>
      <trkpt lat="47.18659" lon="4.9504">
        <ele>305.66384887695</ele>
        <time>2019-12-05T09:56:27+0100</time>
      </trkpt>
      <trkpt lat="47.18658" lon="4.95039">
        <ele>305.2958984375</ele>
        <time>2019-12-05T09:56:30+0100</time>
      </trkpt>
      <trkpt lat="47.18658" lon="4.95036">
        <ele>304.98358154297</ele>
        <time>2019-12-05T09:56:33+0100</time>
      </trkpt>
      <trkpt lat="47.18657" lon="4.95032">
        <ele>304.65319824219</ele>
        <time>2019-12-05T09:56:36+0100</time>
      </trkpt>
      <trkpt lat="47.18657" lon="4.9503">
        <ele>304.30276489258</ele>
        <time>2019-12-05T09:56:39+0100</time>
      </trkpt>
      <trkpt lat="47.18656" lon="4.95028">
        <ele>304.03424072266</ele>
        <time>2019-12-05T09:56:42+0100</time>
      </trkpt>
      <trkpt lat="47.18655" lon="4.95024">
        <ele>303.53405761719</ele>
        <time>2019-12-05T09:56:45+0100</time>
      </trkpt>
      <trkpt lat="47.18654" lon="4.95025">
        <ele>303.1999206543</ele>
        <time>2019-12-05T09:56:48+0100</time>
      </trkpt>
      <trkpt lat="47.18653" lon="4.95025">
        <ele>302.84033203125</ele>
        <time>2019-12-05T09:56:51+0100</time>
      </trkpt>
      <trkpt lat="47.18653" lon="4.95024">
        <ele>302.77963256836</ele>
        <time>2019-12-05T09:56:54+0100</time>
      </trkpt>
      <trkpt lat="47.18653" lon="4.95024">
        <ele>302.71884155273</ele>
        <time>2019-12-05T09:56:57+0100</time>
      </trkpt>
      <trkpt lat="47.18653" lon="4.95024">
        <ele>302.6650390625</ele>
        <time>2019-12-05T09:57:00+0100</time>
      </trkpt>
      <trkpt lat="47.18653" lon="4.9502">
        <ele>302.36727905273</ele>
        <time>2019-12-05T09:57:03+0100</time>
      </trkpt>
      <trkpt lat="47.18653" lon="4.95019">
        <ele>302.23651123047</ele>
        <time>2019-12-05T09:57:06+0100</time>
      </trkpt>
      <trkpt lat="47.18653" lon="4.95018">
        <ele>301.99053955078</ele>
        <time>2019-12-05T09:57:09+0100</time>
      </trkpt>
      <trkpt lat="47.18653" lon="4.95017">
        <ele>301.73428344727</ele>
        <time>2019-12-05T09:57:12+0100</time>
      </trkpt>
      <trkpt lat="47.18652" lon="4.95017">
        <ele>301.69473266602</ele>
        <time>2019-12-05T09:57:15+0100</time>
      </trkpt>
      <trkpt lat="47.18652" lon="4.95015">
        <ele>301.66070556641</ele>
        <time>2019-12-05T09:57:18+0100</time>
      </trkpt>
      <trkpt lat="47.18652" lon="4.95015">
        <ele>301.56918334961</ele>
        <time>2019-12-05T09:57:21+0100</time>
      </trkpt>
      <trkpt lat="47.18651" lon="4.95015">
        <ele>301.50662231445</ele>
        <time>2019-12-05T09:57:24+0100</time>
      </trkpt>
      <trkpt lat="47.18651" lon="4.95013">
        <ele>301.47369384766</ele>
        <time>2019-12-05T09:57:27+0100</time>
      </trkpt>
      <trkpt lat="47.18649" lon="4.95016">
        <ele>301.40390014648</ele>
        <time>2019-12-05T09:57:30+0100</time>
      </trkpt>
      <trkpt lat="47.18648" lon="4.95016">
        <ele>301.2209777832</ele>
        <time>2019-12-05T09:57:33+0100</time>
      </trkpt>
      <trkpt lat="47.18645" lon="4.95016">
        <ele>301.01156616211</ele>
        <time>2019-12-05T09:57:36+0100</time>
      </trkpt>
      <trkpt lat="47.18643" lon="4.95015">
        <ele>300.80630493164</ele>
        <time>2019-12-05T09:57:39+0100</time>
      </trkpt>
      <trkpt lat="47.18642" lon="4.95015">
        <ele>300.51586914062</ele>
        <time>2019-12-05T09:57:42+0100</time>
      </trkpt>
      <trkpt lat="47.18642" lon="4.95015">
        <ele>300.29476928711</ele>
        <time>2019-12-05T09:57:45+0100</time>
      </trkpt>
      <trkpt lat="47.18642" lon="4.95015">
        <ele>300.07348632812</ele>
        <time>2019-12-05T09:57:48+0100</time>
      </trkpt>
      <trkpt lat="47.18641" lon="4.95015">
        <ele>299.86676025391</ele>
        <time>2019-12-05T09:57:51+0100</time>
      </trkpt>
      <trkpt lat="47.18641" lon="4.95014">
        <ele>299.62991333008</ele>
        <time>2019-12-05T09:57:54+0100</time>
      </trkpt>
      <trkpt lat="47.1864" lon="4.95015">
        <ele>299.37869262695</ele>
        <time>2019-12-05T09:57:57+0100</time>
      </trkpt>
      <trkpt lat="47.1864" lon="4.95014">
        <ele>299.10021972656</ele>
        <time>2019-12-05T09:58:00+0100</time>
      </trkpt>
      <trkpt lat="47.18637" lon="4.95014">
        <ele>298.83734130859</ele>
        <time>2019-12-05T09:58:03+0100</time>
      </trkpt>
      <trkpt lat="47.18635" lon="4.95013">
        <ele>298.47570800781</ele>
        <time>2019-12-05T09:58:06+0100</time>
      </trkpt>
      <trkpt lat="47.18632" lon="4.95012">
        <ele>298.17190551758</ele>
        <time>2019-12-05T09:58:09+0100</time>
      </trkpt>
      <trkpt lat="47.18631" lon="4.95012">
        <ele>297.86871337891</ele>
        <time>2019-12-05T09:58:12+0100</time>
      </trkpt>
      <trkpt lat="47.1863" lon="4.95012">
        <ele>297.75628662109</ele>
        <time>2019-12-05T09:58:15+0100</time>
      </trkpt>
      <trkpt lat="47.18628" lon="4.95012">
        <ele>297.46078491211</ele>
        <time>2019-12-05T09:58:18+0100</time>
      </trkpt>
      <trkpt lat="47.18628" lon="4.95011">
        <ele>297.34454345703</ele>
        <time>2019-12-05T09:58:21+0100</time>
      </trkpt>
      <trkpt lat="47.18627" lon="4.95011">
        <ele>297.21621704102</ele>
        <time>2019-12-05T09:58:24+0100</time>
      </trkpt>
      <trkpt lat="47.18626" lon="4.95012">
        <ele>297.09393310547</ele>
        <time>2019-12-05T09:58:27+0100</time>
      </trkpt>
      <trkpt lat="47.18625" lon="4.95012">
        <ele>296.84896850586</ele>
        <time>2019-12-05T09:58:30+0100</time>
      </trkpt>
      <trkpt lat="47.18624" lon="4.95013">
        <ele>296.68606567383</ele>
        <time>2019-12-05T09:58:33+0100</time>
      </trkpt>
      <trkpt lat="47.18623" lon="4.95014">
        <ele>296.49066162109</ele>
        <time>2019-12-05T09:58:36+0100</time>
      </trkpt>
      <trkpt lat="47.1862" lon="4.95015">
        <ele>296.2978515625</ele>
        <time>2019-12-05T09:58:39+0100</time>
      </trkpt>
      <trkpt lat="47.1862" lon="4.95015">
        <ele>296.24691772461</ele>
        <time>2019-12-05T09:58:42+0100</time>
      </trkpt>
      <trkpt lat="47.18618" lon="4.95016">
        <ele>296.0290222168</ele>
        <time>2019-12-05T09:58:45+0100</time>
      </trkpt>
      <trkpt lat="47.18616" lon="4.95017">
        <ele>295.66537475586</ele>
        <time>2019-12-05T09:58:48+0100</time>
      </trkpt>
      <trkpt lat="47.18615" lon="4.95018">
        <ele>295.32580566406</ele>
        <time>2019-12-05T09:58:51+0100</time>
      </trkpt>
      <trkpt lat="47.18614" lon="4.95019">
        <ele>295.27758789062</ele>
        <time>2019-12-05T09:58:54+0100</time>
      </trkpt>
      <trkpt lat="47.18614" lon="4.95019">
        <ele>295.22570800781</ele>
        <time>2019-12-05T09:58:57+0100</time>
      </trkpt>
      <trkpt lat="47.18614" lon="4.95019">
        <ele>295.17211914062</ele>
        <time>2019-12-05T09:59:00+0100</time>
      </trkpt>
      <trkpt lat="47.18614" lon="4.95019">
        <ele>295.11633300781</ele>
        <time>2019-12-05T09:59:03+0100</time>
      </trkpt>
      <trkpt lat="47.18614" lon="4.9502">
        <ele>294.87841796875</ele>
        <time>2019-12-05T09:59:06+0100</time>
      </trkpt>
      <trkpt lat="47.18614" lon="4.9502">
        <ele>294.81283569336</ele>
        <time>2019-12-05T09:59:09+0100</time>
      </trkpt>
      <trkpt lat="47.18614" lon="4.9502">
        <ele>294.74752807617</ele>
        <time>2019-12-05T09:59:12+0100</time>
      </trkpt>
      <trkpt lat="47.18614" lon="4.9502">
        <ele>294.68276977539</ele>
        <time>2019-12-05T09:59:15+0100</time>
      </trkpt>
      <trkpt lat="47.18614" lon="4.9502">
        <ele>294.61773681641</ele>
        <time>2019-12-05T09:59:18+0100</time>
      </trkpt>
      <trkpt lat="47.18614" lon="4.9502">
        <ele>294.55041503906</ele>
        <time>2019-12-05T09:59:21+0100</time>
      </trkpt>
      <trkpt lat="47.18614" lon="4.9502">
        <ele>294.04739379883</ele>
        <time>2019-12-05T09:59:24+0100</time>
      </trkpt>
      <trkpt lat="47.18614" lon="4.9502">
        <ele>293.97418212891</ele>
        <time>2019-12-05T09:59:27+0100</time>
      </trkpt>
      <trkpt lat="47.18614" lon="4.9502">
        <ele>293.89849853516</ele>
        <time>2019-12-05T09:59:30+0100</time>
      </trkpt>
      <trkpt lat="47.18614" lon="4.9502">
        <ele>293.82266235352</ele>
        <time>2019-12-05T09:59:33+0100</time>
      </trkpt>
      <trkpt lat="47.18614" lon="4.95021">
        <ele>293.7412109375</ele>
        <time>2019-12-05T09:59:36+0100</time>
      </trkpt>
      <trkpt lat="47.18614" lon="4.95021">
        <ele>293.66226196289</ele>
        <time>2019-12-05T09:59:39+0100</time>
      </trkpt>
      <trkpt lat="47.18614" lon="4.95021">
        <ele>293.58404541016</ele>
        <time>2019-12-05T09:59:42+0100</time>
      </trkpt>
      <trkpt lat="47.18614" lon="4.95021">
        <ele>293.50958251953</ele>
        <time>2019-12-05T09:59:45+0100</time>
      </trkpt>
      <trkpt lat="47.18614" lon="4.95021">
        <ele>293.44049072266</ele>
        <time>2019-12-05T09:59:48+0100</time>
      </trkpt>
      <trkpt lat="47.18614" lon="4.95021">
        <ele>293.37582397461</ele>
        <time>2019-12-05T09:59:51+0100</time>
      </trkpt>
      <trkpt lat="47.18613" lon="4.95022">
        <ele>293.3166809082</ele>
        <time>2019-12-05T09:59:54+0100</time>
      </trkpt>
      <trkpt lat="47.18613" lon="4.95022">
        <ele>293.26449584961</ele>
        <time>2019-12-05T09:59:57+0100</time>
      </trkpt>
      <trkpt lat="47.18613" lon="4.95022">
        <ele>293.21719360352</ele>
        <time>2019-12-05T10:00:00+0100</time>
      </trkpt>
      <trkpt lat="47.18613" lon="4.95022">
        <ele>293.17224121094</ele>
        <time>2019-12-05T10:00:03+0100</time>
      </trkpt>
      <trkpt lat="47.18613" lon="4.95022">
        <ele>293.12994384766</ele>
        <time>2019-12-05T10:00:06+0100</time>
      </trkpt>
      <trkpt lat="47.18613" lon="4.95022">
        <ele>293.09048461914</ele>
        <time>2019-12-05T10:00:09+0100</time>
      </trkpt>
      <trkpt lat="47.18612" lon="4.95022">
        <ele>293.05233764648</ele>
        <time>2019-12-05T10:00:12+0100</time>
      </trkpt>
      <trkpt lat="47.18612" lon="4.95022">
        <ele>293.0139465332</ele>
        <time>2019-12-05T10:00:15+0100</time>
      </trkpt>
      <trkpt lat="47.18612" lon="4.95022">
        <ele>292.97485351562</ele>
        <time>2019-12-05T10:00:18+0100</time>
      </trkpt>
      <trkpt lat="47.18612" lon="4.95022">
        <ele>292.93444824219</ele>
        <time>2019-12-05T10:00:21+0100</time>
      </trkpt>
      <trkpt lat="47.18612" lon="4.95022">
        <ele>292.89508056641</ele>
        <time>2019-12-05T10:00:24+0100</time>
      </trkpt>
      <trkpt lat="47.18612" lon="4.95022">
        <ele>292.85382080078</ele>
        <time>2019-12-05T10:00:27+0100</time>
      </trkpt>
      <trkpt lat="47.18612" lon="4.95021">
        <ele>292.80715942383</ele>
        <time>2019-12-05T10:00:30+0100</time>
      </trkpt>
      <trkpt lat="47.18612" lon="4.95021">
        <ele>292.75598144531</ele>
        <time>2019-12-05T10:00:33+0100</time>
      </trkpt>
      <trkpt lat="47.18612" lon="4.95021">
        <ele>292.7018737793</ele>
        <time>2019-12-05T10:00:36+0100</time>
      </trkpt>
      <trkpt lat="47.18612" lon="4.95021">
        <ele>292.64349365234</ele>
        <time>2019-12-05T10:00:39+0100</time>
      </trkpt>
      <trkpt lat="47.18612" lon="4.95021">
        <ele>292.58142089844</ele>
        <time>2019-12-05T10:00:42+0100</time>
      </trkpt>
      <trkpt lat="47.18612" lon="4.95021">
        <ele>292.51748657227</ele>
        <time>2019-12-05T10:00:45+0100</time>
      </trkpt>
      <trkpt lat="47.18612" lon="4.95021">
        <ele>292.45462036133</ele>
        <time>2019-12-05T10:00:48+0100</time>
      </trkpt>
      <trkpt lat="47.18612" lon="4.95021">
        <ele>291.97317504883</ele>
        <time>2019-12-05T10:00:51+0100</time>
      </trkpt>
      <trkpt lat="47.18612" lon="4.9502">
        <ele>291.33245849609</ele>
        <time>2019-12-05T10:00:54+0100</time>
      </trkpt>
      <trkpt lat="47.18609" lon="4.95019">
        <ele>290.75009155273</ele>
        <time>2019-12-05T10:00:57+0100</time>
      </trkpt>
      <trkpt lat="47.18608" lon="4.95019">
        <ele>290.22406005859</ele>
        <time>2019-12-05T10:01:00+0100</time>
      </trkpt>
      <trkpt lat="47.18606" lon="4.95018">
        <ele>289.70901489258</ele>
        <time>2019-12-05T10:01:03+0100</time>
      </trkpt>
      <trkpt lat="47.18603" lon="4.95018">
        <ele>289.23193359375</ele>
        <time>2019-12-05T10:01:06+0100</time>
      </trkpt>
      <trkpt lat="47.18601" lon="4.95019">
        <ele>288.82138061523</ele>
        <time>2019-12-05T10:01:09+0100</time>
      </trkpt>
      <trkpt lat="47.18597" lon="4.95018">
        <ele>288.46746826172</ele>
        <time>2019-12-05T10:01:12+0100</time>
      </trkpt>
      <trkpt lat="47.18594" lon="4.95019">
        <ele>288.14764404297</ele>
        <time>2019-12-05T10:01:15+0100</time>
      </trkpt>
      <trkpt lat="47.18591" lon="4.9502">
        <ele>287.90277099609</ele>
        <time>2019-12-05T10:01:18+0100</time>
      </trkpt>
      <trkpt lat="47.18588" lon="4.95021">
        <ele>287.70031738281</ele>
        <time>2019-12-05T10:01:21+0100</time>
      </trkpt>
      <trkpt lat="47.18585" lon="4.95022">
        <ele>287.53283691406</ele>
        <time>2019-12-05T10:01:24+0100</time>
      </trkpt>
      <trkpt lat="47.18582" lon="4.95023">
        <ele>287.43283081055</ele>
        <time>2019-12-05T10:01:27+0100</time>
      </trkpt>
      <trkpt lat="47.1858" lon="4.95025">
        <ele>287.3923034668</ele>
        <time>2019-12-05T10:01:30+0100</time>
      </trkpt>
      <trkpt lat="47.1858" lon="4.95026">
        <ele>287.38995361328</ele>
        <time>2019-12-05T10:01:33+0100</time>
      </trkpt>
      <trkpt lat="47.1858" lon="4.95026">
        <ele>287.39361572266</ele>
        <time>2019-12-05T10:01:36+0100</time>
      </trkpt>
      <trkpt lat="47.1858" lon="4.95026">
        <ele>287.39724731445</ele>
        <time>2019-12-05T10:01:39+0100</time>
      </trkpt>
      <trkpt lat="47.18579" lon="4.95026">
        <ele>287.4450378418</ele>
        <time>2019-12-05T10:01:42+0100</time>
      </trkpt>
      <trkpt lat="47.18576" lon="4.95027">
        <ele>287.53598022461</ele>
        <time>2019-12-05T10:01:45+0100</time>
      </trkpt>
      <trkpt lat="47.18574" lon="4.95028">
        <ele>287.61315917969</ele>
        <time>2019-12-05T10:01:48+0100</time>
      </trkpt>
      <trkpt lat="47.18571" lon="4.95029">
        <ele>287.68045043945</ele>
        <time>2019-12-05T10:01:51+0100</time>
      </trkpt>
      <trkpt lat="47.18568" lon="4.9503">
        <ele>287.72381591797</ele>
        <time>2019-12-05T10:01:54+0100</time>
      </trkpt>
      <trkpt lat="47.18564" lon="4.95032">
        <ele>287.70474243164</ele>
        <time>2019-12-05T10:01:57+0100</time>
      </trkpt>
      <trkpt lat="47.18561" lon="4.95033">
        <ele>287.64593505859</ele>
        <time>2019-12-05T10:02:00+0100</time>
      </trkpt>
      <trkpt lat="47.1856" lon="4.95032">
        <ele>287.61535644531</ele>
        <time>2019-12-05T10:02:03+0100</time>
      </trkpt>
      <trkpt lat="47.1856" lon="4.95032">
        <ele>287.57290649414</ele>
        <time>2019-12-05T10:02:06+0100</time>
      </trkpt>
      <trkpt lat="47.18557" lon="4.95031">
        <ele>287.56307983398</ele>
        <time>2019-12-05T10:02:09+0100</time>
      </trkpt>
      <trkpt lat="47.18554" lon="4.95033">
        <ele>287.61080932617</ele>
        <time>2019-12-05T10:02:13+0100</time>
      </trkpt>
      <trkpt lat="47.18551" lon="4.95035">
        <ele>287.61898803711</ele>
        <time>2019-12-05T10:02:16+0100</time>
      </trkpt>
      <trkpt lat="47.18548" lon="4.95036">
        <ele>287.63870239258</ele>
        <time>2019-12-05T10:02:19+0100</time>
      </trkpt>
      <trkpt lat="47.18542" lon="4.95037">
        <ele>287.73324584961</ele>
        <time>2019-12-05T10:02:22+0100</time>
      </trkpt>
      <trkpt lat="47.18537" lon="4.95036">
        <ele>287.9147644043</ele>
        <time>2019-12-05T10:02:25+0100</time>
      </trkpt>
      <trkpt lat="47.18534" lon="4.95035">
        <ele>288.13543701172</ele>
        <time>2019-12-05T10:02:28+0100</time>
      </trkpt>
      <trkpt lat="47.18533" lon="4.95034">
        <ele>288.40411376953</ele>
        <time>2019-12-05T10:02:31+0100</time>
      </trkpt>
      <trkpt lat="47.1853" lon="4.95034">
        <ele>288.65979003906</ele>
        <time>2019-12-05T10:02:34+0100</time>
      </trkpt>
      <trkpt lat="47.18528" lon="4.95034">
        <ele>288.90505981445</ele>
        <time>2019-12-05T10:02:37+0100</time>
      </trkpt>
      <trkpt lat="47.18527" lon="4.95035">
        <ele>289.00817871094</ele>
        <time>2019-12-05T10:02:40+0100</time>
      </trkpt>
      <trkpt lat="47.18525" lon="4.95035">
        <ele>289.09045410156</ele>
        <time>2019-12-05T10:02:43+0100</time>
      </trkpt>
      <trkpt lat="47.18522" lon="4.95034">
        <ele>289.19818115234</ele>
        <time>2019-12-05T10:02:46+0100</time>
      </trkpt>
      <trkpt lat="47.18522" lon="4.95035">
        <ele>289.22540283203</ele>
        <time>2019-12-05T10:02:49+0100</time>
      </trkpt>
      <trkpt lat="47.18521" lon="4.95034">
        <ele>289.2301940918</ele>
        <time>2019-12-05T10:02:52+0100</time>
      </trkpt>
      <trkpt lat="47.18517" lon="4.95033">
        <ele>289.29498291016</ele>
        <time>2019-12-05T10:02:55+0100</time>
      </trkpt>
      <trkpt lat="47.18511" lon="4.9503">
        <ele>289.43853759766</ele>
        <time>2019-12-05T10:02:58+0100</time>
      </trkpt>
      <trkpt lat="47.18506" lon="4.95028">
        <ele>289.6028137207</ele>
        <time>2019-12-05T10:03:01+0100</time>
      </trkpt>
      <trkpt lat="47.18503" lon="4.95027">
        <ele>289.75939941406</ele>
        <time>2019-12-05T10:03:04+0100</time>
      </trkpt>
      <trkpt lat="47.185" lon="4.95025">
        <ele>289.89215087891</ele>
        <time>2019-12-05T10:03:07+0100</time>
      </trkpt>
      <trkpt lat="47.18498" lon="4.95025">
        <ele>289.97711181641</ele>
        <time>2019-12-05T10:03:10+0100</time>
      </trkpt>
      <trkpt lat="47.18495" lon="4.95025">
        <ele>290.06182861328</ele>
        <time>2019-12-05T10:03:13+0100</time>
      </trkpt>
      <trkpt lat="47.18494" lon="4.95024">
        <ele>290.12710571289</ele>
        <time>2019-12-05T10:03:16+0100</time>
      </trkpt>
      <trkpt lat="47.18494" lon="4.95024">
        <ele>290.17266845703</ele>
        <time>2019-12-05T10:03:19+0100</time>
      </trkpt>
      <trkpt lat="47.18489" lon="4.95024">
        <ele>290.30404663086</ele>
        <time>2019-12-05T10:03:22+0100</time>
      </trkpt>
      <trkpt lat="47.18486" lon="4.95023">
        <ele>290.3899230957</ele>
        <time>2019-12-05T10:03:25+0100</time>
      </trkpt>
      <trkpt lat="47.18486" lon="4.95022">
        <ele>290.56475830078</ele>
        <time>2019-12-05T10:03:28+0100</time>
      </trkpt>
      <trkpt lat="47.18483" lon="4.95021">
        <ele>290.78970336914</ele>
        <time>2019-12-05T10:03:31+0100</time>
      </trkpt>
      <trkpt lat="47.18481" lon="4.95021">
        <ele>291.03860473633</ele>
        <time>2019-12-05T10:03:34+0100</time>
      </trkpt>
      <trkpt lat="47.18479" lon="4.9502">
        <ele>291.27160644531</ele>
        <time>2019-12-05T10:03:37+0100</time>
      </trkpt>
      <trkpt lat="47.18476" lon="4.95019">
        <ele>291.49615478516</ele>
        <time>2019-12-05T10:03:40+0100</time>
      </trkpt>
      <trkpt lat="47.18474" lon="4.95019">
        <ele>291.73751831055</ele>
        <time>2019-12-05T10:03:43+0100</time>
      </trkpt>
      <trkpt lat="47.18471" lon="4.95018">
        <ele>291.97848510742</ele>
        <time>2019-12-05T10:03:46+0100</time>
      </trkpt>
      <trkpt lat="47.18468" lon="4.95018">
        <ele>292.21728515625</ele>
        <time>2019-12-05T10:03:49+0100</time>
      </trkpt>
      <trkpt lat="47.18466" lon="4.95018">
        <ele>292.45910644531</ele>
        <time>2019-12-05T10:03:52+0100</time>
      </trkpt>
      <trkpt lat="47.18464" lon="4.95017">
        <ele>292.7106628418</ele>
        <time>2019-12-05T10:03:55+0100</time>
      </trkpt>
      <trkpt lat="47.18462" lon="4.95016">
        <ele>292.92852783203</ele>
        <time>2019-12-05T10:03:58+0100</time>
      </trkpt>
      <trkpt lat="47.1846" lon="4.95017">
        <ele>293.18426513672</ele>
        <time>2019-12-05T10:04:01+0100</time>
      </trkpt>
      <trkpt lat="47.18457" lon="4.95018">
        <ele>293.48803710938</ele>
        <time>2019-12-05T10:04:04+0100</time>
      </trkpt>
      <trkpt lat="47.18455" lon="4.95017">
        <ele>293.8235168457</ele>
        <time>2019-12-05T10:04:07+0100</time>
      </trkpt>
      <trkpt lat="47.18451" lon="4.95018">
        <ele>294.16485595703</ele>
        <time>2019-12-05T10:04:10+0100</time>
      </trkpt>
      <trkpt lat="47.18448" lon="4.95019">
        <ele>294.47943115234</ele>
        <time>2019-12-05T10:04:13+0100</time>
      </trkpt>
      <trkpt lat="47.18444" lon="4.95019">
        <ele>294.74002075195</ele>
        <time>2019-12-05T10:04:16+0100</time>
      </trkpt>
      <trkpt lat="47.18441" lon="4.9502">
        <ele>294.98178100586</ele>
        <time>2019-12-05T10:04:19+0100</time>
      </trkpt>
      <trkpt lat="47.18439" lon="4.9502">
        <ele>295.19766235352</ele>
        <time>2019-12-05T10:04:22+0100</time>
      </trkpt>
      <trkpt lat="47.18436" lon="4.9502">
        <ele>295.39727783203</ele>
        <time>2019-12-05T10:04:25+0100</time>
      </trkpt>
      <trkpt lat="47.18433" lon="4.9502">
        <ele>295.56942749023</ele>
        <time>2019-12-05T10:04:28+0100</time>
      </trkpt>
      <trkpt lat="47.1843" lon="4.95019">
        <ele>295.73147583008</ele>
        <time>2019-12-05T10:04:31+0100</time>
      </trkpt>
      <trkpt lat="47.18428" lon="4.95019">
        <ele>295.90704345703</ele>
        <time>2019-12-05T10:04:34+0100</time>
      </trkpt>
      <trkpt lat="47.18426" lon="4.95018">
        <ele>296.08813476562</ele>
        <time>2019-12-05T10:04:37+0100</time>
      </trkpt>
      <trkpt lat="47.18425" lon="4.95017">
        <ele>296.27499389648</ele>
        <time>2019-12-05T10:04:40+0100</time>
      </trkpt>
      <trkpt lat="47.18424" lon="4.95016">
        <ele>296.47415161133</ele>
        <time>2019-12-05T10:04:43+0100</time>
      </trkpt>
      <trkpt lat="47.18422" lon="4.95016">
        <ele>296.70248413086</ele>
        <time>2019-12-05T10:04:46+0100</time>
      </trkpt>
      <trkpt lat="47.1842" lon="4.95016">
        <ele>296.92282104492</ele>
        <time>2019-12-05T10:04:49+0100</time>
      </trkpt>
      <trkpt lat="47.18417" lon="4.95016">
        <ele>297.14712524414</ele>
        <time>2019-12-05T10:04:52+0100</time>
      </trkpt>
      <trkpt lat="47.18413" lon="4.95016">
        <ele>297.33721923828</ele>
        <time>2019-12-05T10:04:55+0100</time>
      </trkpt>
      <trkpt lat="47.18411" lon="4.95017">
        <ele>297.48785400391</ele>
        <time>2019-12-05T10:04:58+0100</time>
      </trkpt>
      <trkpt lat="47.18408" lon="4.95017">
        <ele>297.62957763672</ele>
        <time>2019-12-05T10:05:01+0100</time>
      </trkpt>
      <trkpt lat="47.18406" lon="4.95016">
        <ele>297.75659179688</ele>
        <time>2019-12-05T10:05:04+0100</time>
      </trkpt>
      <trkpt lat="47.18405" lon="4.95016">
        <ele>297.8935546875</ele>
        <time>2019-12-05T10:05:07+0100</time>
      </trkpt>
      <trkpt lat="47.18402" lon="4.95015">
        <ele>298.06448364258</ele>
        <time>2019-12-05T10:05:10+0100</time>
      </trkpt>
      <trkpt lat="47.18399" lon="4.95014">
        <ele>298.24099731445</ele>
        <time>2019-12-05T10:05:13+0100</time>
      </trkpt>
      <trkpt lat="47.18396" lon="4.95014">
        <ele>298.3918762207</ele>
        <time>2019-12-05T10:05:16+0100</time>
      </trkpt>
      <trkpt lat="47.18394" lon="4.95013">
        <ele>298.54135131836</ele>
        <time>2019-12-05T10:05:19+0100</time>
      </trkpt>
      <trkpt lat="47.18391" lon="4.95013">
        <ele>298.66983032227</ele>
        <time>2019-12-05T10:05:22+0100</time>
      </trkpt>
      <trkpt lat="47.18389" lon="4.95013">
        <ele>298.80853271484</ele>
        <time>2019-12-05T10:05:25+0100</time>
      </trkpt>
      <trkpt lat="47.18386" lon="4.95012">
        <ele>298.96551513672</ele>
        <time>2019-12-05T10:05:28+0100</time>
      </trkpt>
      <trkpt lat="47.18383" lon="4.9501">
        <ele>299.13739013672</ele>
        <time>2019-12-05T10:05:31+0100</time>
      </trkpt>
      <trkpt lat="47.18381" lon="4.9501">
        <ele>299.30239868164</ele>
        <time>2019-12-05T10:05:34+0100</time>
      </trkpt>
      <trkpt lat="47.18378" lon="4.9501">
        <ele>299.43920898438</ele>
        <time>2019-12-05T10:05:37+0100</time>
      </trkpt>
      <trkpt lat="47.18377" lon="4.9501">
        <ele>299.55618286133</ele>
        <time>2019-12-05T10:05:40+0100</time>
      </trkpt>
      <trkpt lat="47.18375" lon="4.95009">
        <ele>299.67044067383</ele>
        <time>2019-12-05T10:05:43+0100</time>
      </trkpt>
      <trkpt lat="47.18372" lon="4.95009">
        <ele>299.79168701172</ele>
        <time>2019-12-05T10:05:46+0100</time>
      </trkpt>
      <trkpt lat="47.1837" lon="4.95009">
        <ele>299.93041992188</ele>
        <time>2019-12-05T10:05:49+0100</time>
      </trkpt>
      <trkpt lat="47.18368" lon="4.95009">
        <ele>300.09652709961</ele>
        <time>2019-12-05T10:05:52+0100</time>
      </trkpt>
      <trkpt lat="47.18364" lon="4.9501">
        <ele>300.28140258789</ele>
        <time>2019-12-05T10:05:55+0100</time>
      </trkpt>
      <trkpt lat="47.1836" lon="4.95009">
        <ele>300.45498657227</ele>
        <time>2019-12-05T10:05:58+0100</time>
      </trkpt>
      <trkpt lat="47.18358" lon="4.95009">
        <ele>300.60726928711</ele>
        <time>2019-12-05T10:06:01+0100</time>
      </trkpt>
      <trkpt lat="47.18356" lon="4.95009">
        <ele>300.72576904297</ele>
        <time>2019-12-05T10:06:04+0100</time>
      </trkpt>
      <trkpt lat="47.18354" lon="4.95008">
        <ele>300.7887878418</ele>
        <time>2019-12-05T10:06:07+0100</time>
      </trkpt>
      <trkpt lat="47.18352" lon="4.95008">
        <ele>300.83624267578</ele>
        <time>2019-12-05T10:06:10+0100</time>
      </trkpt>
      <trkpt lat="47.18349" lon="4.95007">
        <ele>300.92376708984</ele>
        <time>2019-12-05T10:06:13+0100</time>
      </trkpt>
      <trkpt lat="47.18347" lon="4.95005">
        <ele>301.03256225586</ele>
        <time>2019-12-05T10:06:16+0100</time>
      </trkpt>
      <trkpt lat="47.18345" lon="4.95004">
        <ele>301.11776733398</ele>
        <time>2019-12-05T10:06:19+0100</time>
      </trkpt>
      <trkpt lat="47.18342" lon="4.95002">
        <ele>301.24600219727</ele>
        <time>2019-12-05T10:06:22+0100</time>
      </trkpt>
      <trkpt lat="47.1834" lon="4.95002">
        <ele>301.36248779297</ele>
        <time>2019-12-05T10:06:25+0100</time>
      </trkpt>
      <trkpt lat="47.18337" lon="4.95">
        <ele>301.47866821289</ele>
        <time>2019-12-05T10:06:28+0100</time>
      </trkpt>
      <trkpt lat="47.18334" lon="4.95">
        <ele>301.59722900391</ele>
        <time>2019-12-05T10:06:31+0100</time>
      </trkpt>
      <trkpt lat="47.18331" lon="4.94997">
        <ele>301.71356201172</ele>
        <time>2019-12-05T10:06:34+0100</time>
      </trkpt>
      <trkpt lat="47.18328" lon="4.94996">
        <ele>301.78128051758</ele>
        <time>2019-12-05T10:06:37+0100</time>
      </trkpt>
      <trkpt lat="47.18327" lon="4.94996">
        <ele>301.79806518555</ele>
        <time>2019-12-05T10:06:40+0100</time>
      </trkpt>
      <trkpt lat="47.18326" lon="4.94995">
        <ele>301.83828735352</ele>
        <time>2019-12-05T10:06:43+0100</time>
      </trkpt>
      <trkpt lat="47.18323" lon="4.94992">
        <ele>301.96951293945</ele>
        <time>2019-12-05T10:06:46+0100</time>
      </trkpt>
      <trkpt lat="47.1832" lon="4.9499">
        <ele>302.11563110352</ele>
        <time>2019-12-05T10:06:49+0100</time>
      </trkpt>
      <trkpt lat="47.18318" lon="4.94989">
        <ele>302.27578735352</ele>
        <time>2019-12-05T10:06:52+0100</time>
      </trkpt>
      <trkpt lat="47.18317" lon="4.94988">
        <ele>302.46990966797</ele>
        <time>2019-12-05T10:06:55+0100</time>
      </trkpt>
      <trkpt lat="47.18315" lon="4.94987">
        <ele>302.66128540039</ele>
        <time>2019-12-05T10:06:58+0100</time>
      </trkpt>
      <trkpt lat="47.18313" lon="4.94986">
        <ele>302.83682250977</ele>
        <time>2019-12-05T10:07:01+0100</time>
      </trkpt>
      <trkpt lat="47.1831" lon="4.94984">
        <ele>302.96438598633</ele>
        <time>2019-12-05T10:07:04+0100</time>
      </trkpt>
      <trkpt lat="47.18309" lon="4.94982">
        <ele>303.08224487305</ele>
        <time>2019-12-05T10:07:07+0100</time>
      </trkpt>
      <trkpt lat="47.18307" lon="4.94979">
        <ele>303.2287902832</ele>
        <time>2019-12-05T10:07:10+0100</time>
      </trkpt>
      <trkpt lat="47.18305" lon="4.94976">
        <ele>303.38739013672</ele>
        <time>2019-12-05T10:07:13+0100</time>
      </trkpt>
      <trkpt lat="47.18303" lon="4.94975">
        <ele>303.5458984375</ele>
        <time>2019-12-05T10:07:16+0100</time>
      </trkpt>
      <trkpt lat="47.18301" lon="4.94973">
        <ele>303.68145751953</ele>
        <time>2019-12-05T10:07:19+0100</time>
      </trkpt>
      <trkpt lat="47.183" lon="4.94973">
        <ele>303.85781860352</ele>
        <time>2019-12-05T10:07:22+0100</time>
      </trkpt>
      <trkpt lat="47.18298" lon="4.94972">
        <ele>304.08480834961</ele>
        <time>2019-12-05T10:07:25+0100</time>
      </trkpt>
      <trkpt lat="47.18296" lon="4.94971">
        <ele>304.37033081055</ele>
        <time>2019-12-05T10:07:28+0100</time>
      </trkpt>
      <trkpt lat="47.18293" lon="4.94972">
        <ele>304.6696472168</ele>
        <time>2019-12-05T10:07:31+0100</time>
      </trkpt>
      <trkpt lat="47.18288" lon="4.94969">
        <ele>304.87530517578</ele>
        <time>2019-12-05T10:07:34+0100</time>
      </trkpt>
      <trkpt lat="47.18284" lon="4.94967">
        <ele>304.98077392578</ele>
        <time>2019-12-05T10:07:37+0100</time>
      </trkpt>
      <trkpt lat="47.18281" lon="4.94966">
        <ele>305.00454711914</ele>
        <time>2019-12-05T10:07:40+0100</time>
      </trkpt>
      <trkpt lat="47.18279" lon="4.94962">
        <ele>305.01617431641</ele>
        <time>2019-12-05T10:07:43+0100</time>
      </trkpt>
      <trkpt lat="47.18277" lon="4.9496">
        <ele>305.02291870117</ele>
        <time>2019-12-05T10:07:46+0100</time>
      </trkpt>
      <trkpt lat="47.18277" lon="4.94959">
        <ele>305.13314819336</ele>
        <time>2019-12-05T10:07:49+0100</time>
      </trkpt>
      <trkpt lat="47.18275" lon="4.94957">
        <ele>305.34539794922</ele>
        <time>2019-12-05T10:07:52+0100</time>
      </trkpt>
      <trkpt lat="47.18273" lon="4.94955">
        <ele>305.65386962891</ele>
        <time>2019-12-05T10:07:55+0100</time>
      </trkpt>
      <trkpt lat="47.18271" lon="4.94953">
        <ele>305.92175292969</ele>
        <time>2019-12-05T10:07:58+0100</time>
      </trkpt>
      <trkpt lat="47.18268" lon="4.94951">
        <ele>306.00689697266</ele>
        <time>2019-12-05T10:08:01+0100</time>
      </trkpt>
      <trkpt lat="47.18266" lon="4.94947">
        <ele>305.98904418945</ele>
        <time>2019-12-05T10:08:04+0100</time>
      </trkpt>
      <trkpt lat="47.18264" lon="4.94946">
        <ele>305.9638671875</ele>
        <time>2019-12-05T10:08:07+0100</time>
      </trkpt>
      <trkpt lat="47.18263" lon="4.94943">
        <ele>305.92510986328</ele>
        <time>2019-12-05T10:08:10+0100</time>
      </trkpt>
      <trkpt lat="47.18262" lon="4.94941">
        <ele>305.84420776367</ele>
        <time>2019-12-05T10:08:13+0100</time>
      </trkpt>
      <trkpt lat="47.1826" lon="4.94937">
        <ele>305.78308105469</ele>
        <time>2019-12-05T10:08:16+0100</time>
      </trkpt>
      <trkpt lat="47.18258" lon="4.94934">
        <ele>305.72250366211</ele>
        <time>2019-12-05T10:08:19+0100</time>
      </trkpt>
      <trkpt lat="47.18256" lon="4.94932">
        <ele>305.65765380859</ele>
        <time>2019-12-05T10:08:22+0100</time>
      </trkpt>
      <trkpt lat="47.18256" lon="4.94932">
        <ele>305.63241577148</ele>
        <time>2019-12-05T10:08:25+0100</time>
      </trkpt>
      <trkpt lat="47.18254" lon="4.94929">
        <ele>305.67755126953</ele>
        <time>2019-12-05T10:08:28+0100</time>
      </trkpt>
      <trkpt lat="47.18253" lon="4.94929">
        <ele>305.72479248047</ele>
        <time>2019-12-05T10:08:31+0100</time>
      </trkpt>
      <trkpt lat="47.18252" lon="4.9493">
        <ele>305.77764892578</ele>
        <time>2019-12-05T10:08:34+0100</time>
      </trkpt>
      <trkpt lat="47.18252" lon="4.9493">
        <ele>305.78964233398</ele>
        <time>2019-12-05T10:08:37+0100</time>
      </trkpt>
      <trkpt lat="47.18252" lon="4.9493">
        <ele>305.80014038086</ele>
        <time>2019-12-05T10:08:40+0100</time>
      </trkpt>
      <trkpt lat="47.18252" lon="4.9493">
        <ele>305.80194091797</ele>
        <time>2019-12-05T10:08:43+0100</time>
      </trkpt>
      <trkpt lat="47.18252" lon="4.9493">
        <ele>305.796875</ele>
        <time>2019-12-05T10:08:46+0100</time>
      </trkpt>
      <trkpt lat="47.18251" lon="4.94927">
        <ele>305.73831176758</ele>
        <time>2019-12-05T10:08:49+0100</time>
      </trkpt>
      <trkpt lat="47.1825" lon="4.94925">
        <ele>305.67608642578</ele>
        <time>2019-12-05T10:08:52+0100</time>
      </trkpt>
      <trkpt lat="47.1825" lon="4.94924">
        <ele>305.6584777832</ele>
        <time>2019-12-05T10:08:55+0100</time>
      </trkpt>
      <trkpt lat="47.1825" lon="4.94924">
        <ele>305.63998413086</ele>
        <time>2019-12-05T10:08:58+0100</time>
      </trkpt>
      <trkpt lat="47.1825" lon="4.94925">
        <ele>305.62261962891</ele>
        <time>2019-12-05T10:09:01+0100</time>
      </trkpt>
      <trkpt lat="47.1825" lon="4.94925">
        <ele>305.60726928711</ele>
        <time>2019-12-05T10:09:04+0100</time>
      </trkpt>
      <trkpt lat="47.1825" lon="4.94925">
        <ele>305.59292602539</ele>
        <time>2019-12-05T10:09:07+0100</time>
      </trkpt>
      <trkpt lat="47.1825" lon="4.94924">
        <ele>305.57922363281</ele>
        <time>2019-12-05T10:09:10+0100</time>
      </trkpt>
      <trkpt lat="47.18249" lon="4.94924">
        <ele>305.52966308594</ele>
        <time>2019-12-05T10:09:13+0100</time>
      </trkpt>
      <trkpt lat="47.18249" lon="4.94924">
        <ele>305.5168762207</ele>
        <time>2019-12-05T10:09:16+0100</time>
      </trkpt>
      <trkpt lat="47.18249" lon="4.94923">
        <ele>305.50354003906</ele>
        <time>2019-12-05T10:09:19+0100</time>
      </trkpt>
      <trkpt lat="47.18249" lon="4.94923">
        <ele>305.48840332031</ele>
        <time>2019-12-05T10:09:22+0100</time>
      </trkpt>
      <trkpt lat="47.18249" lon="4.94924">
        <ele>305.47021484375</ele>
        <time>2019-12-05T10:09:25+0100</time>
      </trkpt>
      <trkpt lat="47.18249" lon="4.94924">
        <ele>305.45162963867</ele>
        <time>2019-12-05T10:09:28+0100</time>
      </trkpt>
      <trkpt lat="47.18249" lon="4.94924">
        <ele>305.43325805664</ele>
        <time>2019-12-05T10:09:31+0100</time>
      </trkpt>
      <trkpt lat="47.18249" lon="4.94924">
        <ele>305.41506958008</ele>
        <time>2019-12-05T10:09:34+0100</time>
      </trkpt>
      <trkpt lat="47.18249" lon="4.94924">
        <ele>305.39721679688</ele>
        <time>2019-12-05T10:09:37+0100</time>
      </trkpt>
      <trkpt lat="47.18249" lon="4.94924">
        <ele>305.37982177734</ele>
        <time>2019-12-05T10:09:40+0100</time>
      </trkpt>
      <trkpt lat="47.18249" lon="4.94924">
        <ele>305.3630065918</ele>
        <time>2019-12-05T10:09:43+0100</time>
      </trkpt>
      <trkpt lat="47.1825" lon="4.94924">
        <ele>305.34634399414</ele>
        <time>2019-12-05T10:09:46+0100</time>
      </trkpt>
      <trkpt lat="47.1825" lon="4.94924">
        <ele>305.33157348633</ele>
        <time>2019-12-05T10:09:49+0100</time>
      </trkpt>
      <trkpt lat="47.1825" lon="4.94924">
        <ele>305.31964111328</ele>
        <time>2019-12-05T10:09:52+0100</time>
      </trkpt>
      <trkpt lat="47.1825" lon="4.94924">
        <ele>305.30877685547</ele>
        <time>2019-12-05T10:09:55+0100</time>
      </trkpt>
      <trkpt lat="47.1825" lon="4.94924">
        <ele>305.27047729492</ele>
        <time>2019-12-05T10:09:58+0100</time>
      </trkpt>
      <trkpt lat="47.18249" lon="4.94924">
        <ele>305.18688964844</ele>
        <time>2019-12-05T10:10:01+0100</time>
      </trkpt>
      <trkpt lat="47.1825" lon="4.94924">
        <ele>305.1803894043</ele>
        <time>2019-12-05T10:10:04+0100</time>
      </trkpt>
      <trkpt lat="47.1825" lon="4.94924">
        <ele>305.17413330078</ele>
        <time>2019-12-05T10:10:07+0100</time>
      </trkpt>
      <trkpt lat="47.1825" lon="4.94924">
        <ele>305.16714477539</ele>
        <time>2019-12-05T10:10:10+0100</time>
      </trkpt>
      <trkpt lat="47.1825" lon="4.94924">
        <ele>305.16241455078</ele>
        <time>2019-12-05T10:10:13+0100</time>
      </trkpt>
      <trkpt lat="47.1825" lon="4.94924">
        <ele>305.16018676758</ele>
        <time>2019-12-05T10:10:16+0100</time>
      </trkpt>
      <trkpt lat="47.1825" lon="4.94923">
        <ele>305.15896606445</ele>
        <time>2019-12-05T10:10:19+0100</time>
      </trkpt>
      <trkpt lat="47.1825" lon="4.94923">
        <ele>305.16067504883</ele>
        <time>2019-12-05T10:10:22+0100</time>
      </trkpt>
      <trkpt lat="47.1825" lon="4.94923">
        <ele>305.16937255859</ele>
        <time>2019-12-05T10:10:25+0100</time>
      </trkpt>
      <trkpt lat="47.1825" lon="4.94923">
        <ele>305.18026733398</ele>
        <time>2019-12-05T10:10:28+0100</time>
      </trkpt>
      <trkpt lat="47.18249" lon="4.94923">
        <ele>305.18978881836</ele>
        <time>2019-12-05T10:10:31+0100</time>
      </trkpt>
      <trkpt lat="47.18249" lon="4.94923">
        <ele>305.19732666016</ele>
        <time>2019-12-05T10:10:34+0100</time>
      </trkpt>
      <trkpt lat="47.18249" lon="4.94922">
        <ele>305.20715332031</ele>
        <time>2019-12-05T10:10:37+0100</time>
      </trkpt>
      <trkpt lat="47.18249" lon="4.94922">
        <ele>305.21829223633</ele>
        <time>2019-12-05T10:10:40+0100</time>
      </trkpt>
      <trkpt lat="47.18249" lon="4.94922">
        <ele>305.23342895508</ele>
        <time>2019-12-05T10:10:43+0100</time>
      </trkpt>
      <trkpt lat="47.18249" lon="4.94922">
        <ele>305.25317382812</ele>
        <time>2019-12-05T10:10:46+0100</time>
      </trkpt>
      <trkpt lat="47.18249" lon="4.94921">
        <ele>305.27163696289</ele>
        <time>2019-12-05T10:10:49+0100</time>
      </trkpt>
      <trkpt lat="47.18249" lon="4.94921">
        <ele>305.28930664062</ele>
        <time>2019-12-05T10:10:52+0100</time>
      </trkpt>
      <trkpt lat="47.18248" lon="4.94921">
        <ele>305.30477905273</ele>
        <time>2019-12-05T10:10:55+0100</time>
      </trkpt>
      <trkpt lat="47.18248" lon="4.94921">
        <ele>305.31887817383</ele>
        <time>2019-12-05T10:10:58+0100</time>
      </trkpt>
      <trkpt lat="47.18248" lon="4.94921">
        <ele>305.33282470703</ele>
        <time>2019-12-05T10:11:01+0100</time>
      </trkpt>
      <trkpt lat="47.18249" lon="4.94921">
        <ele>305.34616088867</ele>
        <time>2019-12-05T10:11:04+0100</time>
      </trkpt>
      <trkpt lat="47.18247" lon="4.9492">
        <ele>305.45477294922</ele>
        <time>2019-12-05T10:11:07+0100</time>
      </trkpt>
      <trkpt lat="47.18248" lon="4.9492">
        <ele>305.51406860352</ele>
        <time>2019-12-05T10:11:10+0100</time>
      </trkpt>
      <trkpt lat="47.18247" lon="4.94919">
        <ele>305.52551269531</ele>
        <time>2019-12-05T10:11:13+0100</time>
      </trkpt>
      <trkpt lat="47.18247" lon="4.9492">
        <ele>305.52679443359</ele>
        <time>2019-12-05T10:11:16+0100</time>
      </trkpt>
      <trkpt lat="47.18247" lon="4.9492">
        <ele>305.52514648438</ele>
        <time>2019-12-05T10:11:19+0100</time>
      </trkpt>
      <trkpt lat="47.18247" lon="4.9492">
        <ele>305.52383422852</ele>
        <time>2019-12-05T10:11:22+0100</time>
      </trkpt>
      <trkpt lat="47.18247" lon="4.94921">
        <ele>305.52847290039</ele>
        <time>2019-12-05T10:11:25+0100</time>
      </trkpt>
      <trkpt lat="47.18246" lon="4.9492">
        <ele>305.55352783203</ele>
        <time>2019-12-05T10:11:28+0100</time>
      </trkpt>
      <trkpt lat="47.18246" lon="4.9492">
        <ele>305.55999755859</ele>
        <time>2019-12-05T10:11:31+0100</time>
      </trkpt>
      <trkpt lat="47.18246" lon="4.9492">
        <ele>305.56616210938</ele>
        <time>2019-12-05T10:11:34+0100</time>
      </trkpt>
      <trkpt lat="47.18246" lon="4.9492">
        <ele>305.57238769531</ele>
        <time>2019-12-05T10:11:37+0100</time>
      </trkpt>
      <trkpt lat="47.18246" lon="4.9492">
        <ele>305.57843017578</ele>
        <time>2019-12-05T10:11:40+0100</time>
      </trkpt>
      <trkpt lat="47.18246" lon="4.9492">
        <ele>305.58221435547</ele>
        <time>2019-12-05T10:11:43+0100</time>
      </trkpt>
      <trkpt lat="47.18246" lon="4.9492">
        <ele>305.58145141602</ele>
        <time>2019-12-05T10:11:46+0100</time>
      </trkpt>
      <trkpt lat="47.18246" lon="4.9492">
        <ele>305.57629394531</ele>
        <time>2019-12-05T10:11:49+0100</time>
      </trkpt>
      <trkpt lat="47.18246" lon="4.9492">
        <ele>305.57138061523</ele>
        <time>2019-12-05T10:11:52+0100</time>
      </trkpt>
      <trkpt lat="47.18246" lon="4.9492">
        <ele>305.56558227539</ele>
        <time>2019-12-05T10:11:55+0100</time>
      </trkpt>
      <trkpt lat="47.18246" lon="4.94918">
        <ele>305.56890869141</ele>
        <time>2019-12-05T10:11:58+0100</time>
      </trkpt>
      <trkpt lat="47.18246" lon="4.94918">
        <ele>305.57794189453</ele>
        <time>2019-12-05T10:12:01+0100</time>
      </trkpt>
      <trkpt lat="47.18246" lon="4.94918">
        <ele>305.5891418457</ele>
        <time>2019-12-05T10:12:04+0100</time>
      </trkpt>
      <trkpt lat="47.18246" lon="4.94918">
        <ele>305.5998840332</ele>
        <time>2019-12-05T10:12:07+0100</time>
      </trkpt>
      <trkpt lat="47.18246" lon="4.94918">
        <ele>305.60507202148</ele>
        <time>2019-12-05T10:12:10+0100</time>
      </trkpt>
      <trkpt lat="47.18246" lon="4.94918">
        <ele>305.60568237305</ele>
        <time>2019-12-05T10:12:13+0100</time>
      </trkpt>
      <trkpt lat="47.18246" lon="4.94917">
        <ele>305.60256958008</ele>
        <time>2019-12-05T10:12:16+0100</time>
      </trkpt>
      <trkpt lat="47.18246" lon="4.94917">
        <ele>305.59323120117</ele>
        <time>2019-12-05T10:12:19+0100</time>
      </trkpt>
      <trkpt lat="47.18246" lon="4.94917">
        <ele>305.57736206055</ele>
        <time>2019-12-05T10:12:22+0100</time>
      </trkpt>
      <trkpt lat="47.18246" lon="4.94917">
        <ele>305.55877685547</ele>
        <time>2019-12-05T10:12:25+0100</time>
      </trkpt>
      <trkpt lat="47.18246" lon="4.94917">
        <ele>305.54104614258</ele>
        <time>2019-12-05T10:12:28+0100</time>
      </trkpt>
      <trkpt lat="47.18246" lon="4.94917">
        <ele>305.52114868164</ele>
        <time>2019-12-05T10:12:31+0100</time>
      </trkpt>
      <trkpt lat="47.18246" lon="4.94917">
        <ele>305.49966430664</ele>
        <time>2019-12-05T10:12:34+0100</time>
      </trkpt>
      <trkpt lat="47.18246" lon="4.94917">
        <ele>305.47732543945</ele>
        <time>2019-12-05T10:12:37+0100</time>
      </trkpt>
      <trkpt lat="47.18247" lon="4.94917">
        <ele>305.45455932617</ele>
        <time>2019-12-05T10:12:40+0100</time>
      </trkpt>
      <trkpt lat="47.18247" lon="4.94917">
        <ele>305.43215942383</ele>
        <time>2019-12-05T10:12:43+0100</time>
      </trkpt>
      <trkpt lat="47.18247" lon="4.94917">
        <ele>305.41040039062</ele>
        <time>2019-12-05T10:12:46+0100</time>
      </trkpt>
      <trkpt lat="47.18247" lon="4.94917">
        <ele>305.38946533203</ele>
        <time>2019-12-05T10:12:49+0100</time>
      </trkpt>
      <trkpt lat="47.18247" lon="4.94917">
        <ele>305.3694152832</ele>
        <time>2019-12-05T10:12:52+0100</time>
      </trkpt>
      <trkpt lat="47.18247" lon="4.94917">
        <ele>305.34985351562</ele>
        <time>2019-12-05T10:12:55+0100</time>
      </trkpt>
      <trkpt lat="47.18247" lon="4.94917">
        <ele>305.32989501953</ele>
        <time>2019-12-05T10:12:58+0100</time>
      </trkpt>
      <trkpt lat="47.18247" lon="4.94917">
        <ele>305.30990600586</ele>
        <time>2019-12-05T10:13:01+0100</time>
      </trkpt>
      <trkpt lat="47.18247" lon="4.94917">
        <ele>305.29080200195</ele>
        <time>2019-12-05T10:13:04+0100</time>
      </trkpt>
      <trkpt lat="47.18247" lon="4.94917">
        <ele>305.27334594727</ele>
        <time>2019-12-05T10:13:07+0100</time>
      </trkpt>
      <trkpt lat="47.18247" lon="4.94917">
        <ele>305.25622558594</ele>
        <time>2019-12-05T10:13:10+0100</time>
      </trkpt>
      <trkpt lat="47.18247" lon="4.94917">
        <ele>305.23760986328</ele>
        <time>2019-12-05T10:13:13+0100</time>
      </trkpt>
      <trkpt lat="47.18247" lon="4.94917">
        <ele>305.22360229492</ele>
        <time>2019-12-05T10:13:16+0100</time>
      </trkpt>
      <trkpt lat="47.18247" lon="4.94917">
        <ele>305.21685791016</ele>
        <time>2019-12-05T10:13:19+0100</time>
      </trkpt>
      <trkpt lat="47.18247" lon="4.94918">
        <ele>305.21087646484</ele>
        <time>2019-12-05T10:13:22+0100</time>
      </trkpt>
      <trkpt lat="47.18247" lon="4.94918">
        <ele>305.20291137695</ele>
        <time>2019-12-05T10:13:25+0100</time>
      </trkpt>
      <trkpt lat="47.18247" lon="4.94918">
        <ele>305.19641113281</ele>
        <time>2019-12-05T10:13:28+0100</time>
      </trkpt>
      <trkpt lat="47.18247" lon="4.94918">
        <ele>305.1842956543</ele>
        <time>2019-12-05T10:13:31+0100</time>
      </trkpt>
      <trkpt lat="47.18247" lon="4.94918">
        <ele>305.19381713867</ele>
        <time>2019-12-05T10:13:34+0100</time>
      </trkpt>
      <trkpt lat="47.18247" lon="4.94918">
        <ele>305.20611572266</ele>
        <time>2019-12-05T10:13:37+0100</time>
      </trkpt>
      <trkpt lat="47.18247" lon="4.94918">
        <ele>305.21896362305</ele>
        <time>2019-12-05T10:13:40+0100</time>
      </trkpt>
      <trkpt lat="47.18246" lon="4.94918">
        <ele>305.2555847168</ele>
        <time>2019-12-05T10:13:43+0100</time>
      </trkpt>
      <trkpt lat="47.18244" lon="4.94917">
        <ele>305.34716796875</ele>
        <time>2019-12-05T10:13:46+0100</time>
      </trkpt>
      <trkpt lat="47.18244" lon="4.94917">
        <ele>305.3600769043</ele>
        <time>2019-12-05T10:13:49+0100</time>
      </trkpt>
      <trkpt lat="47.18243" lon="4.94916">
        <ele>305.41006469727</ele>
        <time>2019-12-05T10:13:52+0100</time>
      </trkpt>
      <trkpt lat="47.18242" lon="4.94916">
        <ele>305.51733398438</ele>
        <time>2019-12-05T10:13:55+0100</time>
      </trkpt>
      <trkpt lat="47.18242" lon="4.94915">
        <ele>305.52825927734</ele>
        <time>2019-12-05T10:13:58+0100</time>
      </trkpt>
      <trkpt lat="47.18241" lon="4.94915">
        <ele>305.54040527344</ele>
        <time>2019-12-05T10:14:01+0100</time>
      </trkpt>
      <trkpt lat="47.18241" lon="4.94915">
        <ele>305.5530090332</ele>
        <time>2019-12-05T10:14:04+0100</time>
      </trkpt>
      <trkpt lat="47.18241" lon="4.94915">
        <ele>305.57263183594</ele>
        <time>2019-12-05T10:14:07+0100</time>
      </trkpt>
      <trkpt lat="47.18241" lon="4.94915">
        <ele>305.59689331055</ele>
        <time>2019-12-05T10:14:10+0100</time>
      </trkpt>
      <trkpt lat="47.18241" lon="4.94915">
        <ele>305.62167358398</ele>
        <time>2019-12-05T10:14:13+0100</time>
      </trkpt>
      <trkpt lat="47.1824" lon="4.94914">
        <ele>305.72613525391</ele>
        <time>2019-12-05T10:14:16+0100</time>
      </trkpt>
      <trkpt lat="47.18236" lon="4.9491">
        <ele>306.01483154297</ele>
        <time>2019-12-05T10:14:19+0100</time>
      </trkpt>
      <trkpt lat="47.18236" lon="4.94909">
        <ele>306.04843139648</ele>
        <time>2019-12-05T10:14:22+0100</time>
      </trkpt>
      <trkpt lat="47.18236" lon="4.94909">
        <ele>306.08340454102</ele>
        <time>2019-12-05T10:14:25+0100</time>
      </trkpt>
      <trkpt lat="47.18236" lon="4.94909">
        <ele>306.11752319336</ele>
        <time>2019-12-05T10:14:28+0100</time>
      </trkpt>
      <trkpt lat="47.18235" lon="4.94909">
        <ele>306.14920043945</ele>
        <time>2019-12-05T10:14:31+0100</time>
      </trkpt>
      <trkpt lat="47.18235" lon="4.94908">
        <ele>306.26235961914</ele>
        <time>2019-12-05T10:14:34+0100</time>
      </trkpt>
      <trkpt lat="47.18233" lon="4.94906">
        <ele>306.52941894531</ele>
        <time>2019-12-05T10:14:37+0100</time>
      </trkpt>
      <trkpt lat="47.18231" lon="4.94905">
        <ele>306.78262329102</ele>
        <time>2019-12-05T10:14:40+0100</time>
      </trkpt>
      <trkpt lat="47.1823" lon="4.94906">
        <ele>307.00872802734</ele>
        <time>2019-12-05T10:14:43+0100</time>
      </trkpt>
      <trkpt lat="47.1823" lon="4.94906">
        <ele>307.02932739258</ele>
        <time>2019-12-05T10:14:46+0100</time>
      </trkpt>
      <trkpt lat="47.18229" lon="4.94906">
        <ele>307.05236816406</ele>
        <time>2019-12-05T10:14:49+0100</time>
      </trkpt>
      <trkpt lat="47.18229" lon="4.94905">
        <ele>307.07650756836</ele>
        <time>2019-12-05T10:14:52+0100</time>
      </trkpt>
      <trkpt lat="47.18228" lon="4.94905">
        <ele>307.31140136719</ele>
        <time>2019-12-05T10:14:55+0100</time>
      </trkpt>
      <trkpt lat="47.18227" lon="4.94904">
        <ele>307.54666137695</ele>
        <time>2019-12-05T10:14:58+0100</time>
      </trkpt>
      <trkpt lat="47.18224" lon="4.94904">
        <ele>307.78335571289</ele>
        <time>2019-12-05T10:15:01+0100</time>
      </trkpt>
      <trkpt lat="47.18222" lon="4.94902">
        <ele>308.05075073242</ele>
        <time>2019-12-05T10:15:04+0100</time>
      </trkpt>
      <trkpt lat="47.1822" lon="4.94902">
        <ele>308.2829284668</ele>
        <time>2019-12-05T10:15:07+0100</time>
      </trkpt>
      <trkpt lat="47.18218" lon="4.94902">
        <ele>308.43399047852</ele>
        <time>2019-12-05T10:15:10+0100</time>
      </trkpt>
      <trkpt lat="47.18216" lon="4.949">
        <ele>308.49346923828</ele>
        <time>2019-12-05T10:15:13+0100</time>
      </trkpt>
      <trkpt lat="47.18216" lon="4.949">
        <ele>308.50054931641</ele>
        <time>2019-12-05T10:15:16+0100</time>
      </trkpt>
      <trkpt lat="47.18216" lon="4.949">
        <ele>308.52975463867</ele>
        <time>2019-12-05T10:15:19+0100</time>
      </trkpt>
      <trkpt lat="47.18214" lon="4.94899">
        <ele>308.61163330078</ele>
        <time>2019-12-05T10:15:22+0100</time>
      </trkpt>
      <trkpt lat="47.18212" lon="4.94897">
        <ele>308.68286132812</ele>
        <time>2019-12-05T10:15:25+0100</time>
      </trkpt>
      <trkpt lat="47.1821" lon="4.94897">
        <ele>308.8161315918</ele>
        <time>2019-12-05T10:15:28+0100</time>
      </trkpt>
      <trkpt lat="47.18206" lon="4.94895">
        <ele>308.99209594727</ele>
        <time>2019-12-05T10:15:31+0100</time>
      </trkpt>
      <trkpt lat="47.18204" lon="4.94896">
        <ele>309.15115356445</ele>
        <time>2019-12-05T10:15:34+0100</time>
      </trkpt>
      <trkpt lat="47.18202" lon="4.94896">
        <ele>309.25698852539</ele>
        <time>2019-12-05T10:15:37+0100</time>
      </trkpt>
      <trkpt lat="47.18201" lon="4.94897">
        <ele>309.31115722656</ele>
        <time>2019-12-05T10:15:40+0100</time>
      </trkpt>
      <trkpt lat="47.18199" lon="4.94896">
        <ele>309.458984375</ele>
        <time>2019-12-05T10:15:43+0100</time>
      </trkpt>
      <trkpt lat="47.18197" lon="4.94895">
        <ele>309.65081787109</ele>
        <time>2019-12-05T10:15:46+0100</time>
      </trkpt>
      <trkpt lat="47.18195" lon="4.94895">
        <ele>309.90045166016</ele>
        <time>2019-12-05T10:15:49+0100</time>
      </trkpt>
      <trkpt lat="47.18192" lon="4.94895">
        <ele>310.16818237305</ele>
        <time>2019-12-05T10:15:51+0100</time>
      </trkpt>
      <trkpt lat="47.1819" lon="4.94894">
        <ele>310.39831542969</ele>
        <time>2019-12-05T10:15:54+0100</time>
      </trkpt>
      <trkpt lat="47.18189" lon="4.94894">
        <ele>310.62631225586</ele>
        <time>2019-12-05T10:15:57+0100</time>
      </trkpt>
      <trkpt lat="47.18186" lon="4.94894">
        <ele>310.82748413086</ele>
        <time>2019-12-05T10:16:00+0100</time>
      </trkpt>
      <trkpt lat="47.18184" lon="4.94894">
        <ele>311.03329467773</ele>
        <time>2019-12-05T10:16:03+0100</time>
      </trkpt>
      <trkpt lat="47.18183" lon="4.94894">
        <ele>311.25155639648</ele>
        <time>2019-12-05T10:16:06+0100</time>
      </trkpt>
      <trkpt lat="47.18182" lon="4.94894">
        <ele>311.40051269531</ele>
        <time>2019-12-05T10:16:09+0100</time>
      </trkpt>
      <trkpt lat="47.18182" lon="4.94894">
        <ele>311.42276000977</ele>
        <time>2019-12-05T10:16:12+0100</time>
      </trkpt>
      <trkpt lat="47.18182" lon="4.94894">
        <ele>311.44580078125</ele>
        <time>2019-12-05T10:16:15+0100</time>
      </trkpt>
      <trkpt lat="47.18182" lon="4.94894">
        <ele>311.46844482422</ele>
        <time>2019-12-05T10:16:18+0100</time>
      </trkpt>
      <trkpt lat="47.18182" lon="4.94894">
        <ele>311.49075317383</ele>
        <time>2019-12-05T10:16:21+0100</time>
      </trkpt>
      <trkpt lat="47.18182" lon="4.94894">
        <ele>311.51300048828</ele>
        <time>2019-12-05T10:16:24+0100</time>
      </trkpt>
      <trkpt lat="47.18182" lon="4.94894">
        <ele>311.5339050293</ele>
        <time>2019-12-05T10:16:27+0100</time>
      </trkpt>
      <trkpt lat="47.18182" lon="4.94894">
        <ele>311.55471801758</ele>
        <time>2019-12-05T10:16:30+0100</time>
      </trkpt>
      <trkpt lat="47.18182" lon="4.94894">
        <ele>311.57174682617</ele>
        <time>2019-12-05T10:16:33+0100</time>
      </trkpt>
      <trkpt lat="47.18182" lon="4.94894">
        <ele>311.58160400391</ele>
        <time>2019-12-05T10:16:36+0100</time>
      </trkpt>
      <trkpt lat="47.18182" lon="4.94893">
        <ele>311.58737182617</ele>
        <time>2019-12-05T10:16:39+0100</time>
      </trkpt>
      <trkpt lat="47.18182" lon="4.94893">
        <ele>311.59301757812</ele>
        <time>2019-12-05T10:16:42+0100</time>
      </trkpt>
      <trkpt lat="47.18182" lon="4.94893">
        <ele>311.60119628906</ele>
        <time>2019-12-05T10:16:45+0100</time>
      </trkpt>
      <trkpt lat="47.18181" lon="4.94895">
        <ele>311.69073486328</ele>
        <time>2019-12-05T10:16:48+0100</time>
      </trkpt>
      <trkpt lat="47.18179" lon="4.94894">
        <ele>311.74661254883</ele>
        <time>2019-12-05T10:16:51+0100</time>
      </trkpt>
      <trkpt lat="47.18178" lon="4.94894">
        <ele>311.78659057617</ele>
        <time>2019-12-05T10:16:54+0100</time>
      </trkpt>
      <trkpt lat="47.18177" lon="4.94894">
        <ele>311.85620117188</ele>
        <time>2019-12-05T10:16:57+0100</time>
      </trkpt>
      <trkpt lat="47.18177" lon="4.94894">
        <ele>311.90512084961</ele>
        <time>2019-12-05T10:17:00+0100</time>
      </trkpt>
      <trkpt lat="47.18177" lon="4.94894">
        <ele>311.95614624023</ele>
        <time>2019-12-05T10:17:03+0100</time>
      </trkpt>
      <trkpt lat="47.18176" lon="4.94894">
        <ele>311.96667480469</ele>
        <time>2019-12-05T10:17:06+0100</time>
      </trkpt>
      <trkpt lat="47.18176" lon="4.94894">
        <ele>311.97549438477</ele>
        <time>2019-12-05T10:17:09+0100</time>
      </trkpt>
      <trkpt lat="47.18176" lon="4.94894">
        <ele>311.98059082031</ele>
        <time>2019-12-05T10:17:12+0100</time>
      </trkpt>
      <trkpt lat="47.18176" lon="4.94894">
        <ele>311.98034667969</ele>
        <time>2019-12-05T10:17:15+0100</time>
      </trkpt>
      <trkpt lat="47.18176" lon="4.94895">
        <ele>311.97744750977</ele>
        <time>2019-12-05T10:17:18+0100</time>
      </trkpt>
      <trkpt lat="47.18175" lon="4.94896">
        <ele>311.96426391602</ele>
        <time>2019-12-05T10:17:21+0100</time>
      </trkpt>
      <trkpt lat="47.18173" lon="4.949">
        <ele>311.9931640625</ele>
        <time>2019-12-05T10:17:24+0100</time>
      </trkpt>
      <trkpt lat="47.18171" lon="4.94902">
        <ele>312.06039428711</ele>
        <time>2019-12-05T10:17:27+0100</time>
      </trkpt>
      <trkpt lat="47.18169" lon="4.94905">
        <ele>312.12054443359</ele>
        <time>2019-12-05T10:17:30+0100</time>
      </trkpt>
      <trkpt lat="47.18167" lon="4.94906">
        <ele>312.17657470703</ele>
        <time>2019-12-05T10:17:33+0100</time>
      </trkpt>
      <trkpt lat="47.18167" lon="4.94906">
        <ele>312.17755126953</ele>
        <time>2019-12-05T10:17:36+0100</time>
      </trkpt>
      <trkpt lat="47.18166" lon="4.94907">
        <ele>312.13961791992</ele>
        <time>2019-12-05T10:17:39+0100</time>
      </trkpt>
      <trkpt lat="47.18165" lon="4.9491">
        <ele>312.11392211914</ele>
        <time>2019-12-05T10:17:42+0100</time>
      </trkpt>
      <trkpt lat="47.18164" lon="4.94913">
        <ele>312.11352539062</ele>
        <time>2019-12-05T10:17:45+0100</time>
      </trkpt>
      <trkpt lat="47.18162" lon="4.94916">
        <ele>312.09902954102</ele>
        <time>2019-12-05T10:17:48+0100</time>
      </trkpt>
      <trkpt lat="47.1816" lon="4.94919">
        <ele>312.10791015625</ele>
        <time>2019-12-05T10:17:51+0100</time>
      </trkpt>
      <trkpt lat="47.18159" lon="4.9492">
        <ele>312.04531860352</ele>
        <time>2019-12-05T10:17:54+0100</time>
      </trkpt>
      <trkpt lat="47.18157" lon="4.94925">
        <ele>311.97848510742</ele>
        <time>2019-12-05T10:17:57+0100</time>
      </trkpt>
      <trkpt lat="47.18155" lon="4.94928">
        <ele>311.90481567383</ele>
        <time>2019-12-05T10:18:00+0100</time>
      </trkpt>
      <trkpt lat="47.18153" lon="4.94931">
        <ele>311.86727905273</ele>
        <time>2019-12-05T10:18:03+0100</time>
      </trkpt>
      <trkpt lat="47.1815" lon="4.94936">
        <ele>311.84170532227</ele>
        <time>2019-12-05T10:18:06+0100</time>
      </trkpt>
      <trkpt lat="47.18149" lon="4.94939">
        <ele>311.82244873047</ele>
        <time>2019-12-05T10:18:09+0100</time>
      </trkpt>
      <trkpt lat="47.18147" lon="4.94943">
        <ele>311.82174682617</ele>
        <time>2019-12-05T10:18:12+0100</time>
      </trkpt>
      <trkpt lat="47.18145" lon="4.94947">
        <ele>311.84487915039</ele>
        <time>2019-12-05T10:18:15+0100</time>
      </trkpt>
      <trkpt lat="47.18143" lon="4.9495">
        <ele>311.87243652344</ele>
        <time>2019-12-05T10:18:18+0100</time>
      </trkpt>
      <trkpt lat="47.18142" lon="4.94953">
        <ele>311.884765625</ele>
        <time>2019-12-05T10:18:21+0100</time>
      </trkpt>
      <trkpt lat="47.1814" lon="4.94956">
        <ele>311.83142089844</ele>
        <time>2019-12-05T10:18:24+0100</time>
      </trkpt>
      <trkpt lat="47.18139" lon="4.94959">
        <ele>311.77975463867</ele>
        <time>2019-12-05T10:18:27+0100</time>
      </trkpt>
      <trkpt lat="47.18137" lon="4.94962">
        <ele>311.74850463867</ele>
        <time>2019-12-05T10:18:30+0100</time>
      </trkpt>
      <trkpt lat="47.18136" lon="4.94966">
        <ele>311.7341003418</ele>
        <time>2019-12-05T10:18:33+0100</time>
      </trkpt>
      <trkpt lat="47.18134" lon="4.94972">
        <ele>311.80419921875</ele>
        <time>2019-12-05T10:18:36+0100</time>
      </trkpt>
      <trkpt lat="47.18133" lon="4.94979">
        <ele>311.85528564453</ele>
        <time>2019-12-05T10:18:39+0100</time>
      </trkpt>
      <trkpt lat="47.18132" lon="4.94986">
        <ele>311.88757324219</ele>
        <time>2019-12-05T10:18:42+0100</time>
      </trkpt>
      <trkpt lat="47.18132" lon="4.94992">
        <ele>311.92321777344</ele>
        <time>2019-12-05T10:18:45+0100</time>
      </trkpt>
      <trkpt lat="47.18131" lon="4.94997">
        <ele>311.96240234375</ele>
        <time>2019-12-05T10:18:48+0100</time>
      </trkpt>
      <trkpt lat="47.18129" lon="4.95002">
        <ele>312.08670043945</ele>
        <time>2019-12-05T10:18:51+0100</time>
      </trkpt>
      <trkpt lat="47.18129" lon="4.95007">
        <ele>312.25503540039</ele>
        <time>2019-12-05T10:18:54+0100</time>
      </trkpt>
      <trkpt lat="47.18127" lon="4.9501">
        <ele>312.41165161133</ele>
        <time>2019-12-05T10:18:57+0100</time>
      </trkpt>
      <trkpt lat="47.18126" lon="4.95014">
        <ele>312.56948852539</ele>
        <time>2019-12-05T10:19:00+0100</time>
      </trkpt>
      <trkpt lat="47.18124" lon="4.95018">
        <ele>312.77313232422</ele>
        <time>2019-12-05T10:19:03+0100</time>
      </trkpt>
      <trkpt lat="47.18123" lon="4.95022">
        <ele>313.00534057617</ele>
        <time>2019-12-05T10:19:06+0100</time>
      </trkpt>
      <trkpt lat="47.18121" lon="4.95026">
        <ele>313.30523681641</ele>
        <time>2019-12-05T10:19:09+0100</time>
      </trkpt>
      <trkpt lat="47.18119" lon="4.95029">
        <ele>313.52661132812</ele>
        <time>2019-12-05T10:19:12+0100</time>
      </trkpt>
      <trkpt lat="47.18117" lon="4.95033">
        <ele>313.8349609375</ele>
        <time>2019-12-05T10:19:15+0100</time>
      </trkpt>
      <trkpt lat="47.18116" lon="4.95037">
        <ele>314.11126708984</ele>
        <time>2019-12-05T10:19:18+0100</time>
      </trkpt>
      <trkpt lat="47.18113" lon="4.95041">
        <ele>314.37893676758</ele>
        <time>2019-12-05T10:19:21+0100</time>
      </trkpt>
      <trkpt lat="47.18111" lon="4.95045">
        <ele>314.61395263672</ele>
        <time>2019-12-05T10:19:24+0100</time>
      </trkpt>
      <trkpt lat="47.18109" lon="4.9505">
        <ele>314.76596069336</ele>
        <time>2019-12-05T10:19:27+0100</time>
      </trkpt>
      <trkpt lat="47.18107" lon="4.95055">
        <ele>314.88287353516</ele>
        <time>2019-12-05T10:19:30+0100</time>
      </trkpt>
      <trkpt lat="47.18105" lon="4.9506">
        <ele>314.9866027832</ele>
        <time>2019-12-05T10:19:33+0100</time>
      </trkpt>
      <trkpt lat="47.18104" lon="4.95065">
        <ele>315.0569152832</ele>
        <time>2019-12-05T10:19:36+0100</time>
      </trkpt>
      <trkpt lat="47.18103" lon="4.9507">
        <ele>315.0361328125</ele>
        <time>2019-12-05T10:19:39+0100</time>
      </trkpt>
      <trkpt lat="47.18101" lon="4.95075">
        <ele>314.97186279297</ele>
        <time>2019-12-05T10:19:42+0100</time>
      </trkpt>
      <trkpt lat="47.181" lon="4.9508">
        <ele>314.89599609375</ele>
        <time>2019-12-05T10:19:45+0100</time>
      </trkpt>
      <trkpt lat="47.181" lon="4.95084">
        <ele>314.79656982422</ele>
        <time>2019-12-05T10:19:48+0100</time>
      </trkpt>
      <trkpt lat="47.18099" lon="4.95089">
        <ele>314.68856811523</ele>
        <time>2019-12-05T10:19:51+0100</time>
      </trkpt>
      <trkpt lat="47.18097" lon="4.95093">
        <ele>314.58563232422</ele>
        <time>2019-12-05T10:19:54+0100</time>
      </trkpt>
      <trkpt lat="47.18096" lon="4.95097">
        <ele>314.462890625</ele>
        <time>2019-12-05T10:19:57+0100</time>
      </trkpt>
      <trkpt lat="47.18094" lon="4.95103">
        <ele>314.4114074707</ele>
        <time>2019-12-05T10:20:00+0100</time>
      </trkpt>
      <trkpt lat="47.18093" lon="4.95108">
        <ele>314.38812255859</ele>
        <time>2019-12-05T10:20:03+0100</time>
      </trkpt>
      <trkpt lat="47.18092" lon="4.95113">
        <ele>314.3805847168</ele>
        <time>2019-12-05T10:20:06+0100</time>
      </trkpt>
      <trkpt lat="47.18091" lon="4.95118">
        <ele>314.34829711914</ele>
        <time>2019-12-05T10:20:09+0100</time>
      </trkpt>
      <trkpt lat="47.18089" lon="4.95122">
        <ele>314.31228637695</ele>
        <time>2019-12-05T10:20:12+0100</time>
      </trkpt>
      <trkpt lat="47.18088" lon="4.95126">
        <ele>314.27221679688</ele>
        <time>2019-12-05T10:20:15+0100</time>
      </trkpt>
      <trkpt lat="47.18087" lon="4.9513">
        <ele>314.22317504883</ele>
        <time>2019-12-05T10:20:18+0100</time>
      </trkpt>
      <trkpt lat="47.18086" lon="4.95133">
        <ele>314.17498779297</ele>
        <time>2019-12-05T10:20:21+0100</time>
      </trkpt>
      <trkpt lat="47.18085" lon="4.95137">
        <ele>314.15536499023</ele>
        <time>2019-12-05T10:20:24+0100</time>
      </trkpt>
      <trkpt lat="47.18084" lon="4.95139">
        <ele>314.16830444336</ele>
        <time>2019-12-05T10:20:27+0100</time>
      </trkpt>
      <trkpt lat="47.18082" lon="4.95143">
        <ele>314.19619750977</ele>
        <time>2019-12-05T10:20:30+0100</time>
      </trkpt>
      <trkpt lat="47.1808" lon="4.95149">
        <ele>314.22180175781</ele>
        <time>2019-12-05T10:20:33+0100</time>
      </trkpt>
      <trkpt lat="47.18079" lon="4.95154">
        <ele>314.27090454102</ele>
        <time>2019-12-05T10:20:36+0100</time>
      </trkpt>
      <trkpt lat="47.18077" lon="4.95158">
        <ele>314.30535888672</ele>
        <time>2019-12-05T10:20:39+0100</time>
      </trkpt>
      <trkpt lat="47.18076" lon="4.95163">
        <ele>314.36572265625</ele>
        <time>2019-12-05T10:20:42+0100</time>
      </trkpt>
      <trkpt lat="47.18075" lon="4.95169">
        <ele>314.41006469727</ele>
        <time>2019-12-05T10:20:45+0100</time>
      </trkpt>
      <trkpt lat="47.18074" lon="4.95175">
        <ele>314.41366577148</ele>
        <time>2019-12-05T10:20:48+0100</time>
      </trkpt>
      <trkpt lat="47.18072" lon="4.9518">
        <ele>314.40237426758</ele>
        <time>2019-12-05T10:20:51+0100</time>
      </trkpt>
      <trkpt lat="47.18071" lon="4.95185">
        <ele>314.43795776367</ele>
        <time>2019-12-05T10:20:54+0100</time>
      </trkpt>
      <trkpt lat="47.1807" lon="4.9519">
        <ele>314.51434326172</ele>
        <time>2019-12-05T10:20:57+0100</time>
      </trkpt>
      <trkpt lat="47.18068" lon="4.95194">
        <ele>314.58267211914</ele>
        <time>2019-12-05T10:21:00+0100</time>
      </trkpt>
      <trkpt lat="47.18068" lon="4.95199">
        <ele>314.58895874023</ele>
        <time>2019-12-05T10:21:03+0100</time>
      </trkpt>
      <trkpt lat="47.18067" lon="4.95203">
        <ele>314.58898925781</ele>
        <time>2019-12-05T10:21:06+0100</time>
      </trkpt>
      <trkpt lat="47.18066" lon="4.95207">
        <ele>314.57125854492</ele>
        <time>2019-12-05T10:21:09+0100</time>
      </trkpt>
      <trkpt lat="47.18066" lon="4.95211">
        <ele>314.54739379883</ele>
        <time>2019-12-05T10:21:12+0100</time>
      </trkpt>
      <trkpt lat="47.18065" lon="4.95214">
        <ele>314.45159912109</ele>
        <time>2019-12-05T10:21:15+0100</time>
      </trkpt>
      <trkpt lat="47.18064" lon="4.95218">
        <ele>314.37799072266</ele>
        <time>2019-12-05T10:21:18+0100</time>
      </trkpt>
      <trkpt lat="47.18063" lon="4.95222">
        <ele>314.2890625</ele>
        <time>2019-12-05T10:21:21+0100</time>
      </trkpt>
      <trkpt lat="47.18062" lon="4.95226">
        <ele>314.20877075195</ele>
        <time>2019-12-05T10:21:24+0100</time>
      </trkpt>
      <trkpt lat="47.18062" lon="4.95229">
        <ele>314.12265014648</ele>
        <time>2019-12-05T10:21:27+0100</time>
      </trkpt>
      <trkpt lat="47.18061" lon="4.95234">
        <ele>313.99227905273</ele>
        <time>2019-12-05T10:21:30+0100</time>
      </trkpt>
      <trkpt lat="47.18061" lon="4.95237">
        <ele>313.90380859375</ele>
        <time>2019-12-05T10:21:33+0100</time>
      </trkpt>
      <trkpt lat="47.18059" lon="4.95242">
        <ele>313.90933227539</ele>
        <time>2019-12-05T10:21:36+0100</time>
      </trkpt>
      <trkpt lat="47.18056" lon="4.95246">
        <ele>313.95217895508</ele>
        <time>2019-12-05T10:21:39+0100</time>
      </trkpt>
      <trkpt lat="47.18053" lon="4.95251">
        <ele>314.01077270508</ele>
        <time>2019-12-05T10:21:42+0100</time>
      </trkpt>
      <trkpt lat="47.1805" lon="4.95256">
        <ele>314.04580688477</ele>
        <time>2019-12-05T10:21:45+0100</time>
      </trkpt>
      <trkpt lat="47.18048" lon="4.95259">
        <ele>314.0927734375</ele>
        <time>2019-12-05T10:21:48+0100</time>
      </trkpt>
      <trkpt lat="47.18045" lon="4.95261">
        <ele>314.138671875</ele>
        <time>2019-12-05T10:21:51+0100</time>
      </trkpt>
      <trkpt lat="47.18041" lon="4.95264">
        <ele>314.19079589844</ele>
        <time>2019-12-05T10:21:54+0100</time>
      </trkpt>
      <trkpt lat="47.18038" lon="4.95266">
        <ele>314.25323486328</ele>
        <time>2019-12-05T10:21:57+0100</time>
      </trkpt>
      <trkpt lat="47.18034" lon="4.95267">
        <ele>314.30554199219</ele>
        <time>2019-12-05T10:22:00+0100</time>
      </trkpt>
      <trkpt lat="47.1803" lon="4.95268">
        <ele>314.35784912109</ele>
        <time>2019-12-05T10:22:03+0100</time>
      </trkpt>
      <trkpt lat="47.18027" lon="4.95269">
        <ele>314.43969726562</ele>
        <time>2019-12-05T10:22:06+0100</time>
      </trkpt>
      <trkpt lat="47.18024" lon="4.9527">
        <ele>314.52026367188</ele>
        <time>2019-12-05T10:22:09+0100</time>
      </trkpt>
      <trkpt lat="47.18021" lon="4.9527">
        <ele>314.62310791016</ele>
        <time>2019-12-05T10:22:12+0100</time>
      </trkpt>
      <trkpt lat="47.18018" lon="4.9527">
        <ele>314.78155517578</ele>
        <time>2019-12-05T10:22:15+0100</time>
      </trkpt>
      <trkpt lat="47.18016" lon="4.95271">
        <ele>314.94256591797</ele>
        <time>2019-12-05T10:22:18+0100</time>
      </trkpt>
      <trkpt lat="47.18013" lon="4.95271">
        <ele>315.13665771484</ele>
        <time>2019-12-05T10:22:21+0100</time>
      </trkpt>
      <trkpt lat="47.18011" lon="4.95272">
        <ele>315.35485839844</ele>
        <time>2019-12-05T10:22:24+0100</time>
      </trkpt>
      <trkpt lat="47.18008" lon="4.95273">
        <ele>315.55270385742</ele>
        <time>2019-12-05T10:22:27+0100</time>
      </trkpt>
      <trkpt lat="47.18005" lon="4.95274">
        <ele>315.76373291016</ele>
        <time>2019-12-05T10:22:30+0100</time>
      </trkpt>
      <trkpt lat="47.18003" lon="4.95274">
        <ele>315.99057006836</ele>
        <time>2019-12-05T10:22:33+0100</time>
      </trkpt>
      <trkpt lat="47.18001" lon="4.95276">
        <ele>316.22396850586</ele>
        <time>2019-12-05T10:22:36+0100</time>
      </trkpt>
      <trkpt lat="47.18" lon="4.95277">
        <ele>316.48034667969</ele>
        <time>2019-12-05T10:22:39+0100</time>
      </trkpt>
      <trkpt lat="47.17997" lon="4.95278">
        <ele>316.71926879883</ele>
        <time>2019-12-05T10:22:42+0100</time>
      </trkpt>
      <trkpt lat="47.17995" lon="4.95279">
        <ele>316.95004272461</ele>
        <time>2019-12-05T10:22:45+0100</time>
      </trkpt>
      <trkpt lat="47.17992" lon="4.95281">
        <ele>317.16424560547</ele>
        <time>2019-12-05T10:22:48+0100</time>
      </trkpt>
      <trkpt lat="47.17989" lon="4.95283">
        <ele>317.36270141602</ele>
        <time>2019-12-05T10:22:51+0100</time>
      </trkpt>
      <trkpt lat="47.17986" lon="4.95285">
        <ele>317.5598449707</ele>
        <time>2019-12-05T10:22:54+0100</time>
      </trkpt>
      <trkpt lat="47.17983" lon="4.95287">
        <ele>317.73315429688</ele>
        <time>2019-12-05T10:22:57+0100</time>
      </trkpt>
      <trkpt lat="47.17979" lon="4.95289">
        <ele>317.87692260742</ele>
        <time>2019-12-05T10:23:00+0100</time>
      </trkpt>
      <trkpt lat="47.17977" lon="4.95291">
        <ele>317.99700927734</ele>
        <time>2019-12-05T10:23:03+0100</time>
      </trkpt>
      <trkpt lat="47.17974" lon="4.95292">
        <ele>318.09634399414</ele>
        <time>2019-12-05T10:23:06+0100</time>
      </trkpt>
      <trkpt lat="47.17972" lon="4.95294">
        <ele>318.13717651367</ele>
        <time>2019-12-05T10:23:09+0100</time>
      </trkpt>
      <trkpt lat="47.1797" lon="4.95295">
        <ele>318.08825683594</ele>
        <time>2019-12-05T10:23:12+0100</time>
      </trkpt>
      <trkpt lat="47.17967" lon="4.95298">
        <ele>317.90707397461</ele>
        <time>2019-12-05T10:23:15+0100</time>
      </trkpt>
      <trkpt lat="47.17964" lon="4.953">
        <ele>317.7087097168</ele>
        <time>2019-12-05T10:23:18+0100</time>
      </trkpt>
      <trkpt lat="47.17961" lon="4.95302">
        <ele>317.54159545898</ele>
        <time>2019-12-05T10:23:21+0100</time>
      </trkpt>
      <trkpt lat="47.17959" lon="4.95302">
        <ele>317.30700683594</ele>
        <time>2019-12-05T10:23:24+0100</time>
      </trkpt>
      <trkpt lat="47.17956" lon="4.95303">
        <ele>317.00787353516</ele>
        <time>2019-12-05T10:23:27+0100</time>
      </trkpt>
      <trkpt lat="47.17954" lon="4.95306">
        <ele>316.77713012695</ele>
        <time>2019-12-05T10:23:30+0100</time>
      </trkpt>
      <trkpt lat="47.17951" lon="4.95309">
        <ele>316.61187744141</ele>
        <time>2019-12-05T10:23:33+0100</time>
      </trkpt>
      <trkpt lat="47.17949" lon="4.9531">
        <ele>316.48675537109</ele>
        <time>2019-12-05T10:23:36+0100</time>
      </trkpt>
      <trkpt lat="47.17947" lon="4.95311">
        <ele>316.34600830078</ele>
        <time>2019-12-05T10:23:39+0100</time>
      </trkpt>
      <trkpt lat="47.17945" lon="4.95314">
        <ele>316.21075439453</ele>
        <time>2019-12-05T10:23:42+0100</time>
      </trkpt>
      <trkpt lat="47.17941" lon="4.95316">
        <ele>316.09515380859</ele>
        <time>2019-12-05T10:23:45+0100</time>
      </trkpt>
      <trkpt lat="47.17938" lon="4.95319">
        <ele>315.92337036133</ele>
        <time>2019-12-05T10:23:48+0100</time>
      </trkpt>
      <trkpt lat="47.17934" lon="4.95321">
        <ele>315.62017822266</ele>
        <time>2019-12-05T10:23:51+0100</time>
      </trkpt>
      <trkpt lat="47.17931" lon="4.95324">
        <ele>315.18426513672</ele>
        <time>2019-12-05T10:23:54+0100</time>
      </trkpt>
      <trkpt lat="47.17927" lon="4.95329">
        <ele>314.69528198242</ele>
        <time>2019-12-05T10:23:57+0100</time>
      </trkpt>
      <trkpt lat="47.17926" lon="4.95331">
        <ele>314.16705322266</ele>
        <time>2019-12-05T10:24:00+0100</time>
      </trkpt>
      <trkpt lat="47.17923" lon="4.95333">
        <ele>313.65756225586</ele>
        <time>2019-12-05T10:24:03+0100</time>
      </trkpt>
      <trkpt lat="47.1792" lon="4.95334">
        <ele>313.21102905273</ele>
        <time>2019-12-05T10:24:06+0100</time>
      </trkpt>
      <trkpt lat="47.17917" lon="4.95335">
        <ele>312.73306274414</ele>
        <time>2019-12-05T10:24:09+0100</time>
      </trkpt>
      <trkpt lat="47.17915" lon="4.95335">
        <ele>312.25820922852</ele>
        <time>2019-12-05T10:24:12+0100</time>
      </trkpt>
      <trkpt lat="47.17912" lon="4.95334">
        <ele>311.849609375</ele>
        <time>2019-12-05T10:24:15+0100</time>
      </trkpt>
      <trkpt lat="47.17909" lon="4.95334">
        <ele>311.45391845703</ele>
        <time>2019-12-05T10:24:18+0100</time>
      </trkpt>
      <trkpt lat="47.17905" lon="4.95334">
        <ele>311.08227539062</ele>
        <time>2019-12-05T10:24:21+0100</time>
      </trkpt>
      <trkpt lat="47.17903" lon="4.95333">
        <ele>310.76098632812</ele>
        <time>2019-12-05T10:24:24+0100</time>
      </trkpt>
      <trkpt lat="47.179" lon="4.95333">
        <ele>310.54022216797</ele>
        <time>2019-12-05T10:24:27+0100</time>
      </trkpt>
      <trkpt lat="47.17897" lon="4.95332">
        <ele>310.38577270508</ele>
        <time>2019-12-05T10:24:30+0100</time>
      </trkpt>
      <trkpt lat="47.17894" lon="4.95333">
        <ele>310.28057861328</ele>
        <time>2019-12-05T10:24:33+0100</time>
      </trkpt>
      <trkpt lat="47.17891" lon="4.95332">
        <ele>310.24917602539</ele>
        <time>2019-12-05T10:24:36+0100</time>
      </trkpt>
      <trkpt lat="47.17889" lon="4.95332">
        <ele>310.36056518555</ele>
        <time>2019-12-05T10:24:39+0100</time>
      </trkpt>
      <trkpt lat="47.17885" lon="4.95331">
        <ele>310.52725219727</ele>
        <time>2019-12-05T10:24:42+0100</time>
      </trkpt>
      <trkpt lat="47.17882" lon="4.95331">
        <ele>310.58703613281</ele>
        <time>2019-12-05T10:24:45+0100</time>
      </trkpt>
      <trkpt lat="47.17878" lon="4.95331">
        <ele>310.40469360352</ele>
        <time>2019-12-05T10:24:48+0100</time>
      </trkpt>
      <trkpt lat="47.17875" lon="4.95331">
        <ele>310.19055175781</ele>
        <time>2019-12-05T10:24:51+0100</time>
      </trkpt>
      <trkpt lat="47.17872" lon="4.95331">
        <ele>309.970703125</ele>
        <time>2019-12-05T10:24:54+0100</time>
      </trkpt>
      <trkpt lat="47.17869" lon="4.9533">
        <ele>309.72180175781</ele>
        <time>2019-12-05T10:24:57+0100</time>
      </trkpt>
      <trkpt lat="47.17866" lon="4.95329">
        <ele>309.51745605469</ele>
        <time>2019-12-05T10:25:00+0100</time>
      </trkpt>
      <trkpt lat="47.17862" lon="4.95329">
        <ele>309.32308959961</ele>
        <time>2019-12-05T10:25:03+0100</time>
      </trkpt>
      <trkpt lat="47.17858" lon="4.95328">
        <ele>308.94787597656</ele>
        <time>2019-12-05T10:25:06+0100</time>
      </trkpt>
      <trkpt lat="47.17855" lon="4.95327">
        <ele>308.54507446289</ele>
        <time>2019-12-05T10:25:09+0100</time>
      </trkpt>
      <trkpt lat="47.17852" lon="4.95327">
        <ele>308.18881225586</ele>
        <time>2019-12-05T10:25:12+0100</time>
      </trkpt>
      <trkpt lat="47.1785" lon="4.95327">
        <ele>307.85021972656</ele>
        <time>2019-12-05T10:25:15+0100</time>
      </trkpt>
      <trkpt lat="47.17845" lon="4.95326">
        <ele>307.43096923828</ele>
        <time>2019-12-05T10:25:18+0100</time>
      </trkpt>
      <trkpt lat="47.17842" lon="4.95325">
        <ele>306.939453125</ele>
        <time>2019-12-05T10:25:21+0100</time>
      </trkpt>
      <trkpt lat="47.17839" lon="4.95325">
        <ele>306.47360229492</ele>
        <time>2019-12-05T10:25:24+0100</time>
      </trkpt>
      <trkpt lat="47.17837" lon="4.95325">
        <ele>305.97137451172</ele>
        <time>2019-12-05T10:25:27+0100</time>
      </trkpt>
      <trkpt lat="47.17835" lon="4.95324">
        <ele>305.52719116211</ele>
        <time>2019-12-05T10:25:30+0100</time>
      </trkpt>
      <trkpt lat="47.17832" lon="4.95323">
        <ele>305.07989501953</ele>
        <time>2019-12-05T10:25:33+0100</time>
      </trkpt>
      <trkpt lat="47.17828" lon="4.95322">
        <ele>304.71551513672</ele>
        <time>2019-12-05T10:25:36+0100</time>
      </trkpt>
      <trkpt lat="47.17824" lon="4.95322">
        <ele>304.41549682617</ele>
        <time>2019-12-05T10:25:39+0100</time>
      </trkpt>
      <trkpt lat="47.1782" lon="4.95322">
        <ele>304.20132446289</ele>
        <time>2019-12-05T10:25:42+0100</time>
      </trkpt>
      <trkpt lat="47.17817" lon="4.95321">
        <ele>304.01544189453</ele>
        <time>2019-12-05T10:25:45+0100</time>
      </trkpt>
      <trkpt lat="47.17812" lon="4.9532">
        <ele>303.85357666016</ele>
        <time>2019-12-05T10:25:48+0100</time>
      </trkpt>
      <trkpt lat="47.1781" lon="4.9532">
        <ele>303.64028930664</ele>
        <time>2019-12-05T10:25:51+0100</time>
      </trkpt>
      <trkpt lat="47.17808" lon="4.95319">
        <ele>303.42633056641</ele>
        <time>2019-12-05T10:25:54+0100</time>
      </trkpt>
      <trkpt lat="47.17803" lon="4.9532">
        <ele>303.31344604492</ele>
        <time>2019-12-05T10:25:57+0100</time>
      </trkpt>
      <trkpt lat="47.17801" lon="4.9532">
        <ele>303.26025390625</ele>
        <time>2019-12-05T10:26:00+0100</time>
      </trkpt>
      <trkpt lat="47.17797" lon="4.9532">
        <ele>303.19915771484</ele>
        <time>2019-12-05T10:26:03+0100</time>
      </trkpt>
      <trkpt lat="47.17795" lon="4.9532">
        <ele>303.09878540039</ele>
        <time>2019-12-05T10:26:06+0100</time>
      </trkpt>
      <trkpt lat="47.17793" lon="4.95318">
        <ele>302.9264831543</ele>
        <time>2019-12-05T10:26:09+0100</time>
      </trkpt>
      <trkpt lat="47.17789" lon="4.95318">
        <ele>302.65579223633</ele>
        <time>2019-12-05T10:26:12+0100</time>
      </trkpt>
      <trkpt lat="47.17786" lon="4.95317">
        <ele>302.40536499023</ele>
        <time>2019-12-05T10:26:15+0100</time>
      </trkpt>
      <trkpt lat="47.17783" lon="4.95317">
        <ele>302.15490722656</ele>
        <time>2019-12-05T10:26:18+0100</time>
      </trkpt>
      <trkpt lat="47.1778" lon="4.95317">
        <ele>301.83697509766</ele>
        <time>2019-12-05T10:26:21+0100</time>
      </trkpt>
      <trkpt lat="47.17778" lon="4.95316">
        <ele>301.46151733398</ele>
        <time>2019-12-05T10:26:24+0100</time>
      </trkpt>
      <trkpt lat="47.17774" lon="4.95314">
        <ele>300.96862792969</ele>
        <time>2019-12-05T10:26:27+0100</time>
      </trkpt>
      <trkpt lat="47.1777" lon="4.95313">
        <ele>300.45559692383</ele>
        <time>2019-12-05T10:26:30+0100</time>
      </trkpt>
      <trkpt lat="47.17766" lon="4.95313">
        <ele>299.85104370117</ele>
        <time>2019-12-05T10:26:33+0100</time>
      </trkpt>
      <trkpt lat="47.17763" lon="4.95313">
        <ele>299.18231201172</ele>
        <time>2019-12-05T10:26:36+0100</time>
      </trkpt>
      <trkpt lat="47.1776" lon="4.95312">
        <ele>298.421875</ele>
        <time>2019-12-05T10:26:39+0100</time>
      </trkpt>
      <trkpt lat="47.17757" lon="4.95311">
        <ele>297.5954284668</ele>
        <time>2019-12-05T10:26:42+0100</time>
      </trkpt>
      <trkpt lat="47.17754" lon="4.95311">
        <ele>296.83288574219</ele>
        <time>2019-12-05T10:26:45+0100</time>
      </trkpt>
      <trkpt lat="47.17751" lon="4.95311">
        <ele>296.0993347168</ele>
        <time>2019-12-05T10:26:48+0100</time>
      </trkpt>
      <trkpt lat="47.17749" lon="4.9531">
        <ele>295.36294555664</ele>
        <time>2019-12-05T10:26:51+0100</time>
      </trkpt>
      <trkpt lat="47.17746" lon="4.95309">
        <ele>294.6916809082</ele>
        <time>2019-12-05T10:26:54+0100</time>
      </trkpt>
      <trkpt lat="47.17743" lon="4.9531">
        <ele>294.09078979492</ele>
        <time>2019-12-05T10:26:57+0100</time>
      </trkpt>
      <trkpt lat="47.17742" lon="4.9531">
        <ele>293.60687255859</ele>
        <time>2019-12-05T10:27:00+0100</time>
      </trkpt>
      <trkpt lat="47.17742" lon="4.9531">
        <ele>293.56161499023</ele>
        <time>2019-12-05T10:27:03+0100</time>
      </trkpt>
      <trkpt lat="47.17742" lon="4.9531">
        <ele>293.51455688477</ele>
        <time>2019-12-05T10:27:06+0100</time>
      </trkpt>
      <trkpt lat="47.17741" lon="4.9531">
        <ele>293.46517944336</ele>
        <time>2019-12-05T10:27:09+0100</time>
      </trkpt>
      <trkpt lat="47.17741" lon="4.95309">
        <ele>293.28671264648</ele>
        <time>2019-12-05T10:27:12+0100</time>
      </trkpt>
      <trkpt lat="47.17741" lon="4.95308">
        <ele>293.27520751953</ele>
        <time>2019-12-05T10:27:15+0100</time>
      </trkpt>
      <trkpt lat="47.17741" lon="4.95307">
        <ele>293.30505371094</ele>
        <time>2019-12-05T10:27:18+0100</time>
      </trkpt>
      <trkpt lat="47.17742" lon="4.95306">
        <ele>293.35003662109</ele>
        <time>2019-12-05T10:27:21+0100</time>
      </trkpt>
      <trkpt lat="47.17742" lon="4.95306">
        <ele>293.38409423828</ele>
        <time>2019-12-05T10:27:24+0100</time>
      </trkpt>
      <trkpt lat="47.17741" lon="4.95306">
        <ele>293.38400268555</ele>
        <time>2019-12-05T10:27:27+0100</time>
      </trkpt>
      <trkpt lat="47.17741" lon="4.95306">
        <ele>293.34426879883</ele>
        <time>2019-12-05T10:27:30+0100</time>
      </trkpt>
      <trkpt lat="47.17741" lon="4.95306">
        <ele>293.27261352539</ele>
        <time>2019-12-05T10:27:33+0100</time>
      </trkpt>
      <trkpt lat="47.17741" lon="4.95306">
        <ele>293.20227050781</ele>
        <time>2019-12-05T10:27:36+0100</time>
      </trkpt>
      <trkpt lat="47.1774" lon="4.95306">
        <ele>292.81680297852</ele>
        <time>2019-12-05T10:27:39+0100</time>
      </trkpt>
      <trkpt lat="47.17738" lon="4.95306">
        <ele>292.60430908203</ele>
        <time>2019-12-05T10:27:42+0100</time>
      </trkpt>
      <trkpt lat="47.17738" lon="4.95306">
        <ele>292.57284545898</ele>
        <time>2019-12-05T10:27:45+0100</time>
      </trkpt>
      <trkpt lat="47.17738" lon="4.95306">
        <ele>292.58480834961</ele>
        <time>2019-12-05T10:27:48+0100</time>
      </trkpt>
      <trkpt lat="47.17735" lon="4.95305">
        <ele>292.72915649414</ele>
        <time>2019-12-05T10:27:51+0100</time>
      </trkpt>
      <trkpt lat="47.17732" lon="4.95304">
        <ele>292.86752319336</ele>
        <time>2019-12-05T10:27:54+0100</time>
      </trkpt>
      <trkpt lat="47.17729" lon="4.95304">
        <ele>292.88006591797</ele>
        <time>2019-12-05T10:27:57+0100</time>
      </trkpt>
      <trkpt lat="47.17726" lon="4.95302">
        <ele>292.80206298828</ele>
        <time>2019-12-05T10:28:00+0100</time>
      </trkpt>
      <trkpt lat="47.17722" lon="4.95299">
        <ele>292.68795776367</ele>
        <time>2019-12-05T10:28:03+0100</time>
      </trkpt>
      <trkpt lat="47.17719" lon="4.95297">
        <ele>292.50964355469</ele>
        <time>2019-12-05T10:28:06+0100</time>
      </trkpt>
      <trkpt lat="47.17716" lon="4.95294">
        <ele>292.29040527344</ele>
        <time>2019-12-05T10:28:09+0100</time>
      </trkpt>
      <trkpt lat="47.17714" lon="4.95293">
        <ele>292.03491210938</ele>
        <time>2019-12-05T10:28:12+0100</time>
      </trkpt>
      <trkpt lat="47.17712" lon="4.95292">
        <ele>291.6689453125</ele>
        <time>2019-12-05T10:28:15+0100</time>
      </trkpt>
      <trkpt lat="47.17709" lon="4.95289">
        <ele>291.22573852539</ele>
        <time>2019-12-05T10:28:18+0100</time>
      </trkpt>
      <trkpt lat="47.17705" lon="4.95286">
        <ele>290.83450317383</ele>
        <time>2019-12-05T10:28:21+0100</time>
      </trkpt>
      <trkpt lat="47.17701" lon="4.95281">
        <ele>290.64511108398</ele>
        <time>2019-12-05T10:28:24+0100</time>
      </trkpt>
      <trkpt lat="47.177" lon="4.95279">
        <ele>290.52734375</ele>
        <time>2019-12-05T10:28:27+0100</time>
      </trkpt>
      <trkpt lat="47.17697" lon="4.95276">
        <ele>290.43298339844</ele>
        <time>2019-12-05T10:28:30+0100</time>
      </trkpt>
      <trkpt lat="47.17695" lon="4.95274">
        <ele>290.30331420898</ele>
        <time>2019-12-05T10:28:33+0100</time>
      </trkpt>
      <trkpt lat="47.17693" lon="4.9527">
        <ele>290.19024658203</ele>
        <time>2019-12-05T10:28:36+0100</time>
      </trkpt>
      <trkpt lat="47.1769" lon="4.95266">
        <ele>290.08102416992</ele>
        <time>2019-12-05T10:28:39+0100</time>
      </trkpt>
      <trkpt lat="47.17689" lon="4.95263">
        <ele>290.05880737305</ele>
        <time>2019-12-05T10:28:42+0100</time>
      </trkpt>
      <trkpt lat="47.17688" lon="4.95261">
        <ele>290.12646484375</ele>
        <time>2019-12-05T10:28:45+0100</time>
      </trkpt>
      <trkpt lat="47.17684" lon="4.95259">
        <ele>290.18508911133</ele>
        <time>2019-12-05T10:28:48+0100</time>
      </trkpt>
      <trkpt lat="47.17682" lon="4.95256">
        <ele>290.33059692383</ele>
        <time>2019-12-05T10:28:51+0100</time>
      </trkpt>
      <trkpt lat="47.17679" lon="4.95255">
        <ele>290.49389648438</ele>
        <time>2019-12-05T10:28:54+0100</time>
      </trkpt>
      <trkpt lat="47.17676" lon="4.95255">
        <ele>290.75021362305</ele>
        <time>2019-12-05T10:28:57+0100</time>
      </trkpt>
      <trkpt lat="47.1767" lon="4.95251">
        <ele>291.1096496582</ele>
        <time>2019-12-05T10:29:00+0100</time>
      </trkpt>
      <trkpt lat="47.17665" lon="4.9525">
        <ele>291.45153808594</ele>
        <time>2019-12-05T10:29:03+0100</time>
      </trkpt>
      <trkpt lat="47.17663" lon="4.95246">
        <ele>291.77685546875</ele>
        <time>2019-12-05T10:29:06+0100</time>
      </trkpt>
      <trkpt lat="47.17661" lon="4.95243">
        <ele>292.08911132812</ele>
        <time>2019-12-05T10:29:09+0100</time>
      </trkpt>
      <trkpt lat="47.17658" lon="4.9524">
        <ele>292.38549804688</ele>
        <time>2019-12-05T10:29:12+0100</time>
      </trkpt>
      <trkpt lat="47.17654" lon="4.95237">
        <ele>292.64981079102</ele>
        <time>2019-12-05T10:29:15+0100</time>
      </trkpt>
      <trkpt lat="47.17651" lon="4.95235">
        <ele>292.88021850586</ele>
        <time>2019-12-05T10:29:18+0100</time>
      </trkpt>
      <trkpt lat="47.17648" lon="4.95232">
        <ele>293.04879760742</ele>
        <time>2019-12-05T10:29:21+0100</time>
      </trkpt>
      <trkpt lat="47.17645" lon="4.9523">
        <ele>293.17224121094</ele>
        <time>2019-12-05T10:29:25+0100</time>
      </trkpt>
      <trkpt lat="47.17641" lon="4.95227">
        <ele>293.30801391602</ele>
        <time>2019-12-05T10:29:28+0100</time>
      </trkpt>
      <trkpt lat="47.17637" lon="4.95225">
        <ele>293.39904785156</ele>
        <time>2019-12-05T10:29:31+0100</time>
      </trkpt>
      <trkpt lat="47.17634" lon="4.95221">
        <ele>293.43106079102</ele>
        <time>2019-12-05T10:29:34+0100</time>
      </trkpt>
      <trkpt lat="47.1763" lon="4.95219">
        <ele>293.39642333984</ele>
        <time>2019-12-05T10:29:37+0100</time>
      </trkpt>
      <trkpt lat="47.17626" lon="4.95218">
        <ele>293.31262207031</ele>
        <time>2019-12-05T10:29:40+0100</time>
      </trkpt>
      <trkpt lat="47.17622" lon="4.95217">
        <ele>293.23217773438</ele>
        <time>2019-12-05T10:29:43+0100</time>
      </trkpt>
      <trkpt lat="47.17618" lon="4.95217">
        <ele>293.15493774414</ele>
        <time>2019-12-05T10:29:46+0100</time>
      </trkpt>
      <trkpt lat="47.17614" lon="4.95216">
        <ele>293.07656860352</ele>
        <time>2019-12-05T10:29:49+0100</time>
      </trkpt>
      <trkpt lat="47.1761" lon="4.95215">
        <ele>292.99353027344</ele>
        <time>2019-12-05T10:29:52+0100</time>
      </trkpt>
      <trkpt lat="47.17606" lon="4.95215">
        <ele>292.99313354492</ele>
        <time>2019-12-05T10:29:55+0100</time>
      </trkpt>
      <trkpt lat="47.17603" lon="4.95215">
        <ele>293.12423706055</ele>
        <time>2019-12-05T10:29:58+0100</time>
      </trkpt>
      <trkpt lat="47.17598" lon="4.95214">
        <ele>293.16818237305</ele>
        <time>2019-12-05T10:30:01+0100</time>
      </trkpt>
      <trkpt lat="47.17592" lon="4.95214">
        <ele>293.06753540039</ele>
        <time>2019-12-05T10:30:04+0100</time>
      </trkpt>
      <trkpt lat="47.17587" lon="4.95213">
        <ele>292.71127319336</ele>
        <time>2019-12-05T10:30:07+0100</time>
      </trkpt>
      <trkpt lat="47.17583" lon="4.95212">
        <ele>292.21398925781</ele>
        <time>2019-12-05T10:30:10+0100</time>
      </trkpt>
      <trkpt lat="47.1758" lon="4.95211">
        <ele>291.67993164062</ele>
        <time>2019-12-05T10:30:13+0100</time>
      </trkpt>
      <trkpt lat="47.17577" lon="4.95212">
        <ele>291.17346191406</ele>
        <time>2019-12-05T10:30:16+0100</time>
      </trkpt>
      <trkpt lat="47.17575" lon="4.95211">
        <ele>290.8122253418</ele>
        <time>2019-12-05T10:30:19+0100</time>
      </trkpt>
      <trkpt lat="47.17571" lon="4.95211">
        <ele>290.58282470703</ele>
        <time>2019-12-05T10:30:22+0100</time>
      </trkpt>
      <trkpt lat="47.17568" lon="4.95211">
        <ele>290.49145507812</ele>
        <time>2019-12-05T10:30:25+0100</time>
      </trkpt>
      <trkpt lat="47.17566" lon="4.9521">
        <ele>290.43212890625</ele>
        <time>2019-12-05T10:30:28+0100</time>
      </trkpt>
      <trkpt lat="47.17563" lon="4.95212">
        <ele>290.50302124023</ele>
        <time>2019-12-05T10:30:31+0100</time>
      </trkpt>
      <trkpt lat="47.17557" lon="4.95215">
        <ele>290.49029541016</ele>
        <time>2019-12-05T10:30:34+0100</time>
      </trkpt>
      <trkpt lat="47.17553" lon="4.95216">
        <ele>290.20718383789</ele>
        <time>2019-12-05T10:30:37+0100</time>
      </trkpt>
      <trkpt lat="47.1755" lon="4.95219">
        <ele>289.82815551758</ele>
        <time>2019-12-05T10:30:40+0100</time>
      </trkpt>
      <trkpt lat="47.17546" lon="4.95221">
        <ele>289.44677734375</ele>
        <time>2019-12-05T10:30:43+0100</time>
      </trkpt>
      <trkpt lat="47.17542" lon="4.95224">
        <ele>289.01620483398</ele>
        <time>2019-12-05T10:30:46+0100</time>
      </trkpt>
      <trkpt lat="47.17539" lon="4.95228">
        <ele>288.58648681641</ele>
        <time>2019-12-05T10:30:49+0100</time>
      </trkpt>
      <trkpt lat="47.17536" lon="4.95235">
        <ele>288.13967895508</ele>
        <time>2019-12-05T10:30:52+0100</time>
      </trkpt>
      <trkpt lat="47.17534" lon="4.95238">
        <ele>287.64031982422</ele>
        <time>2019-12-05T10:30:55+0100</time>
      </trkpt>
      <trkpt lat="47.17531" lon="4.95241">
        <ele>287.12542724609</ele>
        <time>2019-12-05T10:30:58+0100</time>
      </trkpt>
      <trkpt lat="47.17528" lon="4.95246">
        <ele>286.62249755859</ele>
        <time>2019-12-05T10:31:01+0100</time>
      </trkpt>
      <trkpt lat="47.17525" lon="4.95251">
        <ele>286.10916137695</ele>
        <time>2019-12-05T10:31:04+0100</time>
      </trkpt>
      <trkpt lat="47.17523" lon="4.95254">
        <ele>285.58572387695</ele>
        <time>2019-12-05T10:31:07+0100</time>
      </trkpt>
      <trkpt lat="47.1752" lon="4.95257">
        <ele>285.09451293945</ele>
        <time>2019-12-05T10:31:10+0100</time>
      </trkpt>
      <trkpt lat="47.17517" lon="4.95264">
        <ele>284.55947875977</ele>
        <time>2019-12-05T10:31:13+0100</time>
      </trkpt>
      <trkpt lat="47.17515" lon="4.95267">
        <ele>283.99761962891</ele>
        <time>2019-12-05T10:31:16+0100</time>
      </trkpt>
      <trkpt lat="47.17512" lon="4.95274">
        <ele>283.39813232422</ele>
        <time>2019-12-05T10:31:19+0100</time>
      </trkpt>
      <trkpt lat="47.17509" lon="4.95277">
        <ele>282.79028320312</ele>
        <time>2019-12-05T10:31:22+0100</time>
      </trkpt>
      <trkpt lat="47.17507" lon="4.9528">
        <ele>282.18353271484</ele>
        <time>2019-12-05T10:31:25+0100</time>
      </trkpt>
      <trkpt lat="47.17504" lon="4.95284">
        <ele>281.58514404297</ele>
        <time>2019-12-05T10:31:28+0100</time>
      </trkpt>
      <trkpt lat="47.17501" lon="4.95288">
        <ele>280.97915649414</ele>
        <time>2019-12-05T10:31:31+0100</time>
      </trkpt>
      <trkpt lat="47.17499" lon="4.95293">
        <ele>280.40969848633</ele>
        <time>2019-12-05T10:31:34+0100</time>
      </trkpt>
      <trkpt lat="47.17496" lon="4.95298">
        <ele>279.84024047852</ele>
        <time>2019-12-05T10:31:37+0100</time>
      </trkpt>
      <trkpt lat="47.17493" lon="4.95303">
        <ele>279.27770996094</ele>
        <time>2019-12-05T10:31:40+0100</time>
      </trkpt>
      <trkpt lat="47.17491" lon="4.95308">
        <ele>278.72918701172</ele>
        <time>2019-12-05T10:31:43+0100</time>
      </trkpt>
      <trkpt lat="47.1749" lon="4.95312">
        <ele>278.27337646484</ele>
        <time>2019-12-05T10:31:46+0100</time>
      </trkpt>
      <trkpt lat="47.17488" lon="4.95317">
        <ele>277.88415527344</ele>
        <time>2019-12-05T10:31:49+0100</time>
      </trkpt>
      <trkpt lat="47.17487" lon="4.95322">
        <ele>277.53991699219</ele>
        <time>2019-12-05T10:31:52+0100</time>
      </trkpt>
      <trkpt lat="47.17486" lon="4.95328">
        <ele>277.23529052734</ele>
        <time>2019-12-05T10:31:55+0100</time>
      </trkpt>
      <trkpt lat="47.17485" lon="4.95333">
        <ele>276.93533325195</ele>
        <time>2019-12-05T10:31:58+0100</time>
      </trkpt>
      <trkpt lat="47.17485" lon="4.95337">
        <ele>276.61492919922</ele>
        <time>2019-12-05T10:32:01+0100</time>
      </trkpt>
      <trkpt lat="47.17484" lon="4.95342">
        <ele>276.25988769531</ele>
        <time>2019-12-05T10:32:04+0100</time>
      </trkpt>
      <trkpt lat="47.17485" lon="4.95348">
        <ele>275.93246459961</ele>
        <time>2019-12-05T10:32:07+0100</time>
      </trkpt>
      <trkpt lat="47.17487" lon="4.95353">
        <ele>275.56951904297</ele>
        <time>2019-12-05T10:32:10+0100</time>
      </trkpt>
      <trkpt lat="47.1749" lon="4.95359">
        <ele>275.16732788086</ele>
        <time>2019-12-05T10:32:13+0100</time>
      </trkpt>
      <trkpt lat="47.17493" lon="4.95363">
        <ele>274.71044921875</ele>
        <time>2019-12-05T10:32:16+0100</time>
      </trkpt>
      <trkpt lat="47.17495" lon="4.95368">
        <ele>274.16348266602</ele>
        <time>2019-12-05T10:32:19+0100</time>
      </trkpt>
      <trkpt lat="47.17498" lon="4.95372">
        <ele>273.53860473633</ele>
        <time>2019-12-05T10:32:22+0100</time>
      </trkpt>
      <trkpt lat="47.17501" lon="4.95375">
        <ele>272.93710327148</ele>
        <time>2019-12-05T10:32:25+0100</time>
      </trkpt>
      <trkpt lat="47.17504" lon="4.95378">
        <ele>272.3805847168</ele>
        <time>2019-12-05T10:32:28+0100</time>
      </trkpt>
      <trkpt lat="47.17507" lon="4.95381">
        <ele>271.84371948242</ele>
        <time>2019-12-05T10:32:31+0100</time>
      </trkpt>
      <trkpt lat="47.1751" lon="4.95385">
        <ele>271.30001831055</ele>
        <time>2019-12-05T10:32:34+0100</time>
      </trkpt>
      <trkpt lat="47.17513" lon="4.95388">
        <ele>270.78079223633</ele>
        <time>2019-12-05T10:32:37+0100</time>
      </trkpt>
      <trkpt lat="47.17516" lon="4.95391">
        <ele>270.31848144531</ele>
        <time>2019-12-05T10:32:40+0100</time>
      </trkpt>
      <trkpt lat="47.17519" lon="4.95394">
        <ele>269.89505004883</ele>
        <time>2019-12-05T10:32:43+0100</time>
      </trkpt>
      <trkpt lat="47.17522" lon="4.95398">
        <ele>269.47540283203</ele>
        <time>2019-12-05T10:32:46+0100</time>
      </trkpt>
      <trkpt lat="47.17525" lon="4.95401">
        <ele>269.06762695312</ele>
        <time>2019-12-05T10:32:49+0100</time>
      </trkpt>
      <trkpt lat="47.17528" lon="4.95403">
        <ele>268.7135925293</ele>
        <time>2019-12-05T10:32:52+0100</time>
      </trkpt>
      <trkpt lat="47.1753" lon="4.95407">
        <ele>268.42791748047</ele>
        <time>2019-12-05T10:32:55+0100</time>
      </trkpt>
      <trkpt lat="47.17533" lon="4.9541">
        <ele>268.11624145508</ele>
        <time>2019-12-05T10:32:58+0100</time>
      </trkpt>
      <trkpt lat="47.17535" lon="4.95413">
        <ele>267.82843017578</ele>
        <time>2019-12-05T10:33:01+0100</time>
      </trkpt>
      <trkpt lat="47.17537" lon="4.95416">
        <ele>267.55804443359</ele>
        <time>2019-12-05T10:33:04+0100</time>
      </trkpt>
      <trkpt lat="47.1754" lon="4.9542">
        <ele>267.28857421875</ele>
        <time>2019-12-05T10:33:07+0100</time>
      </trkpt>
      <trkpt lat="47.17543" lon="4.95422">
        <ele>267.07772827148</ele>
        <time>2019-12-05T10:33:10+0100</time>
      </trkpt>
      <trkpt lat="47.17545" lon="4.95425">
        <ele>266.90740966797</ele>
        <time>2019-12-05T10:33:13+0100</time>
      </trkpt>
      <trkpt lat="47.17548" lon="4.95428">
        <ele>266.7470703125</ele>
        <time>2019-12-05T10:33:16+0100</time>
      </trkpt>
      <trkpt lat="47.17551" lon="4.95432">
        <ele>266.62448120117</ele>
        <time>2019-12-05T10:33:19+0100</time>
      </trkpt>
      <trkpt lat="47.17553" lon="4.95436">
        <ele>266.46490478516</ele>
        <time>2019-12-05T10:33:22+0100</time>
      </trkpt>
      <trkpt lat="47.17555" lon="4.95439">
        <ele>266.28286743164</ele>
        <time>2019-12-05T10:33:25+0100</time>
      </trkpt>
      <trkpt lat="47.17558" lon="4.95441">
        <ele>266.15347290039</ele>
        <time>2019-12-05T10:33:28+0100</time>
      </trkpt>
      <trkpt lat="47.17561" lon="4.95446">
        <ele>265.97158813477</ele>
        <time>2019-12-05T10:33:31+0100</time>
      </trkpt>
      <trkpt lat="47.17564" lon="4.95449">
        <ele>265.76834106445</ele>
        <time>2019-12-05T10:33:34+0100</time>
      </trkpt>
      <trkpt lat="47.17567" lon="4.95452">
        <ele>265.58981323242</ele>
        <time>2019-12-05T10:33:37+0100</time>
      </trkpt>
      <trkpt lat="47.17569" lon="4.95455">
        <ele>265.42742919922</ele>
        <time>2019-12-05T10:33:40+0100</time>
      </trkpt>
      <trkpt lat="47.17572" lon="4.95458">
        <ele>265.28091430664</ele>
        <time>2019-12-05T10:33:43+0100</time>
      </trkpt>
      <trkpt lat="47.17575" lon="4.95461">
        <ele>265.11178588867</ele>
        <time>2019-12-05T10:33:46+0100</time>
      </trkpt>
      <trkpt lat="47.17578" lon="4.95463">
        <ele>264.93215942383</ele>
        <time>2019-12-05T10:33:49+0100</time>
      </trkpt>
      <trkpt lat="47.17581" lon="4.95465">
        <ele>264.75128173828</ele>
        <time>2019-12-05T10:33:52+0100</time>
      </trkpt>
      <trkpt lat="47.17583" lon="4.95467">
        <ele>264.63327026367</ele>
        <time>2019-12-05T10:33:55+0100</time>
      </trkpt>
      <trkpt lat="47.17583" lon="4.95468">
        <ele>264.58065795898</ele>
        <time>2019-12-05T10:33:58+0100</time>
      </trkpt>
      <trkpt lat="47.17585" lon="4.9547">
        <ele>264.54223632812</ele>
        <time>2019-12-05T10:34:01+0100</time>
      </trkpt>
      <trkpt lat="47.17585" lon="4.9547">
        <ele>264.53598022461</ele>
        <time>2019-12-05T10:34:04+0100</time>
      </trkpt>
      <trkpt lat="47.17585" lon="4.9547">
        <ele>264.56195068359</ele>
        <time>2019-12-05T10:34:07+0100</time>
      </trkpt>
      <trkpt lat="47.17587" lon="4.95473">
        <ele>264.60049438477</ele>
        <time>2019-12-05T10:34:10+0100</time>
      </trkpt>
      <trkpt lat="47.1759" lon="4.95476">
        <ele>264.62072753906</ele>
        <time>2019-12-05T10:34:13+0100</time>
      </trkpt>
      <trkpt lat="47.1759" lon="4.95476">
        <ele>264.62121582031</ele>
        <time>2019-12-05T10:34:16+0100</time>
      </trkpt>
      <trkpt lat="47.17589" lon="4.95476">
        <ele>264.60406494141</ele>
        <time>2019-12-05T10:34:19+0100</time>
      </trkpt>
      <trkpt lat="47.17592" lon="4.95479">
        <ele>264.58892822266</ele>
        <time>2019-12-05T10:34:22+0100</time>
      </trkpt>
      <trkpt lat="47.17592" lon="4.95479">
        <ele>264.59490966797</ele>
        <time>2019-12-05T10:34:25+0100</time>
      </trkpt>
      <trkpt lat="47.17596" lon="4.95481">
        <ele>264.59069824219</ele>
        <time>2019-12-05T10:34:28+0100</time>
      </trkpt>
      <trkpt lat="47.17599" lon="4.95484">
        <ele>264.49322509766</ele>
        <time>2019-12-05T10:34:31+0100</time>
      </trkpt>
      <trkpt lat="47.17603" lon="4.95486">
        <ele>264.37686157227</ele>
        <time>2019-12-05T10:34:34+0100</time>
      </trkpt>
      <trkpt lat="47.17607" lon="4.95489">
        <ele>264.31420898438</ele>
        <time>2019-12-05T10:34:37+0100</time>
      </trkpt>
      <trkpt lat="47.1761" lon="4.95492">
        <ele>264.24295043945</ele>
        <time>2019-12-05T10:34:40+0100</time>
      </trkpt>
      <trkpt lat="47.17613" lon="4.95494">
        <ele>264.20147705078</ele>
        <time>2019-12-05T10:34:43+0100</time>
      </trkpt>
      <trkpt lat="47.17616" lon="4.95496">
        <ele>264.18087768555</ele>
        <time>2019-12-05T10:34:46+0100</time>
      </trkpt>
      <trkpt lat="47.1762" lon="4.95498">
        <ele>264.20962524414</ele>
        <time>2019-12-05T10:34:49+0100</time>
      </trkpt>
      <trkpt lat="47.17623" lon="4.95499">
        <ele>264.27819824219</ele>
        <time>2019-12-05T10:34:52+0100</time>
      </trkpt>
      <trkpt lat="47.17626" lon="4.955">
        <ele>264.32119750977</ele>
        <time>2019-12-05T10:34:55+0100</time>
      </trkpt>
      <trkpt lat="47.1763" lon="4.95499">
        <ele>264.37063598633</ele>
        <time>2019-12-05T10:34:58+0100</time>
      </trkpt>
      <trkpt lat="47.17633" lon="4.95498">
        <ele>264.48651123047</ele>
        <time>2019-12-05T10:35:01+0100</time>
      </trkpt>
      <trkpt lat="47.17637" lon="4.95496">
        <ele>264.63638305664</ele>
        <time>2019-12-05T10:35:04+0100</time>
      </trkpt>
      <trkpt lat="47.1764" lon="4.95495">
        <ele>264.82012939453</ele>
        <time>2019-12-05T10:35:07+0100</time>
      </trkpt>
      <trkpt lat="47.17643" lon="4.95493">
        <ele>265.01507568359</ele>
        <time>2019-12-05T10:35:10+0100</time>
      </trkpt>
      <trkpt lat="47.17648" lon="4.95492">
        <ele>265.22463989258</ele>
        <time>2019-12-05T10:35:13+0100</time>
      </trkpt>
      <trkpt lat="47.17652" lon="4.95491">
        <ele>265.47174072266</ele>
        <time>2019-12-05T10:35:16+0100</time>
      </trkpt>
      <trkpt lat="47.17656" lon="4.9549">
        <ele>265.76425170898</ele>
        <time>2019-12-05T10:35:19+0100</time>
      </trkpt>
      <trkpt lat="47.17659" lon="4.95489">
        <ele>266.07992553711</ele>
        <time>2019-12-05T10:35:22+0100</time>
      </trkpt>
      <trkpt lat="47.17661" lon="4.95487">
        <ele>266.32211303711</ele>
        <time>2019-12-05T10:35:25+0100</time>
      </trkpt>
      <trkpt lat="47.17664" lon="4.95487">
        <ele>266.53530883789</ele>
        <time>2019-12-05T10:35:28+0100</time>
      </trkpt>
      <trkpt lat="47.17667" lon="4.95487">
        <ele>266.68173217773</ele>
        <time>2019-12-05T10:35:31+0100</time>
      </trkpt>
      <trkpt lat="47.1767" lon="4.95487">
        <ele>266.82083129883</ele>
        <time>2019-12-05T10:35:34+0100</time>
      </trkpt>
      <trkpt lat="47.17673" lon="4.95487">
        <ele>266.93359375</ele>
        <time>2019-12-05T10:35:37+0100</time>
      </trkpt>
      <trkpt lat="47.17676" lon="4.95488">
        <ele>267.02392578125</ele>
        <time>2019-12-05T10:35:40+0100</time>
      </trkpt>
      <trkpt lat="47.1768" lon="4.95488">
        <ele>267.07647705078</ele>
        <time>2019-12-05T10:35:43+0100</time>
      </trkpt>
      <trkpt lat="47.17684" lon="4.9549">
        <ele>267.1408996582</ele>
        <time>2019-12-05T10:35:46+0100</time>
      </trkpt>
      <trkpt lat="47.17687" lon="4.95491">
        <ele>267.201171875</ele>
        <time>2019-12-05T10:35:49+0100</time>
      </trkpt>
      <trkpt lat="47.17691" lon="4.95493">
        <ele>267.24533081055</ele>
        <time>2019-12-05T10:35:52+0100</time>
      </trkpt>
      <trkpt lat="47.17694" lon="4.95494">
        <ele>267.29193115234</ele>
        <time>2019-12-05T10:35:55+0100</time>
      </trkpt>
      <trkpt lat="47.17697" lon="4.95497">
        <ele>267.38491821289</ele>
        <time>2019-12-05T10:35:58+0100</time>
      </trkpt>
      <trkpt lat="47.177" lon="4.95499">
        <ele>267.45587158203</ele>
        <time>2019-12-05T10:36:01+0100</time>
      </trkpt>
      <trkpt lat="47.17703" lon="4.955">
        <ele>267.51721191406</ele>
        <time>2019-12-05T10:36:04+0100</time>
      </trkpt>
      <trkpt lat="47.17705" lon="4.95503">
        <ele>267.50341796875</ele>
        <time>2019-12-05T10:36:07+0100</time>
      </trkpt>
      <trkpt lat="47.17707" lon="4.95506">
        <ele>267.49456787109</ele>
        <time>2019-12-05T10:36:10+0100</time>
      </trkpt>
      <trkpt lat="47.1771" lon="4.95508">
        <ele>267.52661132812</ele>
        <time>2019-12-05T10:36:13+0100</time>
      </trkpt>
      <trkpt lat="47.17714" lon="4.9551">
        <ele>267.57095336914</ele>
        <time>2019-12-05T10:36:16+0100</time>
      </trkpt>
      <trkpt lat="47.17717" lon="4.95513">
        <ele>267.64245605469</ele>
        <time>2019-12-05T10:36:19+0100</time>
      </trkpt>
      <trkpt lat="47.1772" lon="4.95514">
        <ele>267.74685668945</ele>
        <time>2019-12-05T10:36:22+0100</time>
      </trkpt>
      <trkpt lat="47.17723" lon="4.95515">
        <ele>267.90194702148</ele>
        <time>2019-12-05T10:36:25+0100</time>
      </trkpt>
      <trkpt lat="47.17726" lon="4.95517">
        <ele>268.08270263672</ele>
        <time>2019-12-05T10:36:28+0100</time>
      </trkpt>
      <trkpt lat="47.17728" lon="4.95521">
        <ele>268.29568481445</ele>
        <time>2019-12-05T10:36:31+0100</time>
      </trkpt>
      <trkpt lat="47.1773" lon="4.95523">
        <ele>268.51940917969</ele>
        <time>2019-12-05T10:36:34+0100</time>
      </trkpt>
      <trkpt lat="47.17732" lon="4.95524">
        <ele>268.72705078125</ele>
        <time>2019-12-05T10:36:37+0100</time>
      </trkpt>
      <trkpt lat="47.17734" lon="4.95524">
        <ele>268.89196777344</ele>
        <time>2019-12-05T10:36:40+0100</time>
      </trkpt>
      <trkpt lat="47.17735" lon="4.95523">
        <ele>268.96215820312</ele>
        <time>2019-12-05T10:36:43+0100</time>
      </trkpt>
      <trkpt lat="47.17737" lon="4.95524">
        <ele>269.15319824219</ele>
        <time>2019-12-05T10:36:46+0100</time>
      </trkpt>
      <trkpt lat="47.17739" lon="4.95525">
        <ele>269.35363769531</ele>
        <time>2019-12-05T10:36:49+0100</time>
      </trkpt>
      <trkpt lat="47.17742" lon="4.95526">
        <ele>269.5500793457</ele>
        <time>2019-12-05T10:36:52+0100</time>
      </trkpt>
      <trkpt lat="47.17745" lon="4.95526">
        <ele>269.69580078125</ele>
        <time>2019-12-05T10:36:55+0100</time>
      </trkpt>
      <trkpt lat="47.17749" lon="4.95527">
        <ele>269.73129272461</ele>
        <time>2019-12-05T10:36:58+0100</time>
      </trkpt>
      <trkpt lat="47.17752" lon="4.95529">
        <ele>269.74490356445</ele>
        <time>2019-12-05T10:37:01+0100</time>
      </trkpt>
      <trkpt lat="47.17755" lon="4.95529">
        <ele>269.73736572266</ele>
        <time>2019-12-05T10:37:04+0100</time>
      </trkpt>
      <trkpt lat="47.17757" lon="4.9553">
        <ele>269.75189208984</ele>
        <time>2019-12-05T10:37:07+0100</time>
      </trkpt>
      <trkpt lat="47.1776" lon="4.95531">
        <ele>269.78622436523</ele>
        <time>2019-12-05T10:37:10+0100</time>
      </trkpt>
      <trkpt lat="47.17759" lon="4.95532">
        <ele>269.82308959961</ele>
        <time>2019-12-05T10:37:13+0100</time>
      </trkpt>
      <trkpt lat="47.17758" lon="4.95532">
        <ele>269.892578125</ele>
        <time>2019-12-05T10:37:16+0100</time>
      </trkpt>
      <trkpt lat="47.17758" lon="4.95532">
        <ele>270.0446472168</ele>
        <time>2019-12-05T10:37:19+0100</time>
      </trkpt>
      <trkpt lat="47.17759" lon="4.95533">
        <ele>270.1657409668</ele>
        <time>2019-12-05T10:37:22+0100</time>
      </trkpt>
      <trkpt lat="47.17762" lon="4.95534">
        <ele>270.22470092773</ele>
        <time>2019-12-05T10:37:25+0100</time>
      </trkpt>
      <trkpt lat="47.17766" lon="4.95536">
        <ele>270.28875732422</ele>
        <time>2019-12-05T10:37:28+0100</time>
      </trkpt>
      <trkpt lat="47.17768" lon="4.95538">
        <ele>270.33001708984</ele>
        <time>2019-12-05T10:37:31+0100</time>
      </trkpt>
      <trkpt lat="47.1777" lon="4.9554">
        <ele>270.36584472656</ele>
        <time>2019-12-05T10:37:34+0100</time>
      </trkpt>
      <trkpt lat="47.17774" lon="4.95542">
        <ele>270.35897827148</ele>
        <time>2019-12-05T10:37:37+0100</time>
      </trkpt>
      <trkpt lat="47.17777" lon="4.95543">
        <ele>270.38024902344</ele>
        <time>2019-12-05T10:37:40+0100</time>
      </trkpt>
      <trkpt lat="47.1778" lon="4.95543">
        <ele>270.46496582031</ele>
        <time>2019-12-05T10:37:43+0100</time>
      </trkpt>
      <trkpt lat="47.17784" lon="4.95544">
        <ele>270.59957885742</ele>
        <time>2019-12-05T10:37:46+0100</time>
      </trkpt>
      <trkpt lat="47.17787" lon="4.95546">
        <ele>270.7282409668</ele>
        <time>2019-12-05T10:37:49+0100</time>
      </trkpt>
      <trkpt lat="47.17789" lon="4.95547">
        <ele>270.85894775391</ele>
        <time>2019-12-05T10:37:52+0100</time>
      </trkpt>
      <trkpt lat="47.17793" lon="4.95547">
        <ele>270.93383789062</ele>
        <time>2019-12-05T10:37:55+0100</time>
      </trkpt>
      <trkpt lat="47.17797" lon="4.95548">
        <ele>270.98571777344</ele>
        <time>2019-12-05T10:37:58+0100</time>
      </trkpt>
      <trkpt lat="47.178" lon="4.95549">
        <ele>271.05700683594</ele>
        <time>2019-12-05T10:38:01+0100</time>
      </trkpt>
      <trkpt lat="47.17804" lon="4.9555">
        <ele>271.11013793945</ele>
        <time>2019-12-05T10:38:04+0100</time>
      </trkpt>
      <trkpt lat="47.17807" lon="4.95551">
        <ele>271.16445922852</ele>
        <time>2019-12-05T10:38:07+0100</time>
      </trkpt>
      <trkpt lat="47.1781" lon="4.95552">
        <ele>271.24072265625</ele>
        <time>2019-12-05T10:38:10+0100</time>
      </trkpt>
      <trkpt lat="47.17813" lon="4.95553">
        <ele>271.36459350586</ele>
        <time>2019-12-05T10:38:13+0100</time>
      </trkpt>
      <trkpt lat="47.17817" lon="4.95555">
        <ele>271.51260375977</ele>
        <time>2019-12-05T10:38:16+0100</time>
      </trkpt>
      <trkpt lat="47.1782" lon="4.95558">
        <ele>271.60607910156</ele>
        <time>2019-12-05T10:38:19+0100</time>
      </trkpt>
      <trkpt lat="47.17824" lon="4.95562">
        <ele>271.64770507812</ele>
        <time>2019-12-05T10:38:22+0100</time>
      </trkpt>
      <trkpt lat="47.17827" lon="4.95565">
        <ele>271.6423034668</ele>
        <time>2019-12-05T10:38:25+0100</time>
      </trkpt>
      <trkpt lat="47.1783" lon="4.95568">
        <ele>271.60952758789</ele>
        <time>2019-12-05T10:38:28+0100</time>
      </trkpt>
      <trkpt lat="47.17833" lon="4.95571">
        <ele>271.56582641602</ele>
        <time>2019-12-05T10:38:31+0100</time>
      </trkpt>
      <trkpt lat="47.17836" lon="4.95574">
        <ele>271.51812744141</ele>
        <time>2019-12-05T10:38:34+0100</time>
      </trkpt>
      <trkpt lat="47.17839" lon="4.95577">
        <ele>271.4958190918</ele>
        <time>2019-12-05T10:38:37+0100</time>
      </trkpt>
      <trkpt lat="47.17842" lon="4.95579">
        <ele>271.46676635742</ele>
        <time>2019-12-05T10:38:40+0100</time>
      </trkpt>
      <trkpt lat="47.17845" lon="4.95582">
        <ele>271.45803833008</ele>
        <time>2019-12-05T10:38:43+0100</time>
      </trkpt>
      <trkpt lat="47.17848" lon="4.95584">
        <ele>271.45913696289</ele>
        <time>2019-12-05T10:38:46+0100</time>
      </trkpt>
      <trkpt lat="47.17851" lon="4.95586">
        <ele>271.482421875</ele>
        <time>2019-12-05T10:38:49+0100</time>
      </trkpt>
      <trkpt lat="47.17854" lon="4.95588">
        <ele>271.55123901367</ele>
        <time>2019-12-05T10:38:52+0100</time>
      </trkpt>
      <trkpt lat="47.17857" lon="4.95589">
        <ele>271.68469238281</ele>
        <time>2019-12-05T10:38:55+0100</time>
      </trkpt>
      <trkpt lat="47.17861" lon="4.95591">
        <ele>271.81790161133</ele>
        <time>2019-12-05T10:38:58+0100</time>
      </trkpt>
      <trkpt lat="47.17863" lon="4.95593">
        <ele>271.9885559082</ele>
        <time>2019-12-05T10:39:01+0100</time>
      </trkpt>
      <trkpt lat="47.17867" lon="4.95595">
        <ele>272.15493774414</ele>
        <time>2019-12-05T10:39:04+0100</time>
      </trkpt>
      <trkpt lat="47.1787" lon="4.95597">
        <ele>272.29135131836</ele>
        <time>2019-12-05T10:39:07+0100</time>
      </trkpt>
      <trkpt lat="47.17873" lon="4.95599">
        <ele>272.39208984375</ele>
        <time>2019-12-05T10:39:10+0100</time>
      </trkpt>
      <trkpt lat="47.17876" lon="4.95601">
        <ele>272.46746826172</ele>
        <time>2019-12-05T10:39:13+0100</time>
      </trkpt>
      <trkpt lat="47.17879" lon="4.95603">
        <ele>272.52578735352</ele>
        <time>2019-12-05T10:39:16+0100</time>
      </trkpt>
      <trkpt lat="47.1788" lon="4.95604">
        <ele>272.59802246094</ele>
        <time>2019-12-05T10:39:19+0100</time>
      </trkpt>
      <trkpt lat="47.17883" lon="4.95606">
        <ele>272.64093017578</ele>
        <time>2019-12-05T10:39:22+0100</time>
      </trkpt>
      <trkpt lat="47.17886" lon="4.95606">
        <ele>272.66284179688</ele>
        <time>2019-12-05T10:39:25+0100</time>
      </trkpt>
      <trkpt lat="47.17889" lon="4.95608">
        <ele>272.73767089844</ele>
        <time>2019-12-05T10:39:28+0100</time>
      </trkpt>
      <trkpt lat="47.17892" lon="4.95609">
        <ele>272.85507202148</ele>
        <time>2019-12-05T10:39:31+0100</time>
      </trkpt>
      <trkpt lat="47.17894" lon="4.95611">
        <ele>273.02453613281</ele>
        <time>2019-12-05T10:39:34+0100</time>
      </trkpt>
      <trkpt lat="47.17897" lon="4.95613">
        <ele>273.1989440918</ele>
        <time>2019-12-05T10:39:37+0100</time>
      </trkpt>
      <trkpt lat="47.179" lon="4.95615">
        <ele>273.35397338867</ele>
        <time>2019-12-05T10:39:40+0100</time>
      </trkpt>
      <trkpt lat="47.17903" lon="4.95616">
        <ele>273.47543334961</ele>
        <time>2019-12-05T10:39:43+0100</time>
      </trkpt>
      <trkpt lat="47.17907" lon="4.95617">
        <ele>273.58126831055</ele>
        <time>2019-12-05T10:39:46+0100</time>
      </trkpt>
      <trkpt lat="47.17909" lon="4.95619">
        <ele>273.69464111328</ele>
        <time>2019-12-05T10:39:49+0100</time>
      </trkpt>
      <trkpt lat="47.17912" lon="4.95621">
        <ele>273.80163574219</ele>
        <time>2019-12-05T10:39:52+0100</time>
      </trkpt>
      <trkpt lat="47.17915" lon="4.95623">
        <ele>273.85971069336</ele>
        <time>2019-12-05T10:39:55+0100</time>
      </trkpt>
      <trkpt lat="47.17919" lon="4.95624">
        <ele>273.90209960938</ele>
        <time>2019-12-05T10:39:58+0100</time>
      </trkpt>
      <trkpt lat="47.17923" lon="4.95625">
        <ele>273.92718505859</ele>
        <time>2019-12-05T10:40:01+0100</time>
      </trkpt>
      <trkpt lat="47.17924" lon="4.95626">
        <ele>273.99185180664</ele>
        <time>2019-12-05T10:40:04+0100</time>
      </trkpt>
      <trkpt lat="47.17929" lon="4.95625">
        <ele>274.17764282227</ele>
        <time>2019-12-05T10:40:07+0100</time>
      </trkpt>
      <trkpt lat="47.17934" lon="4.95625">
        <ele>274.38610839844</ele>
        <time>2019-12-05T10:40:10+0100</time>
      </trkpt>
      <trkpt lat="47.17938" lon="4.95626">
        <ele>274.56378173828</ele>
        <time>2019-12-05T10:40:13+0100</time>
      </trkpt>
      <trkpt lat="47.17941" lon="4.95627">
        <ele>274.76498413086</ele>
        <time>2019-12-05T10:40:16+0100</time>
      </trkpt>
      <trkpt lat="47.17944" lon="4.95628">
        <ele>274.94653320312</ele>
        <time>2019-12-05T10:40:19+0100</time>
      </trkpt>
      <trkpt lat="47.17946" lon="4.95629">
        <ele>275.11187744141</ele>
        <time>2019-12-05T10:40:22+0100</time>
      </trkpt>
      <trkpt lat="47.17947" lon="4.95629">
        <ele>275.25637817383</ele>
        <time>2019-12-05T10:40:25+0100</time>
      </trkpt>
      <trkpt lat="47.17948" lon="4.95629">
        <ele>275.39273071289</ele>
        <time>2019-12-05T10:40:28+0100</time>
      </trkpt>
      <trkpt lat="47.17949" lon="4.95629">
        <ele>275.43347167969</ele>
        <time>2019-12-05T10:40:31+0100</time>
      </trkpt>
      <trkpt lat="47.17949" lon="4.95629">
        <ele>275.5036315918</ele>
        <time>2019-12-05T10:40:34+0100</time>
      </trkpt>
      <trkpt lat="47.17952" lon="4.9563">
        <ele>275.62145996094</ele>
        <time>2019-12-05T10:40:37+0100</time>
      </trkpt>
      <trkpt lat="47.17955" lon="4.95631">
        <ele>275.72421264648</ele>
        <time>2019-12-05T10:40:40+0100</time>
      </trkpt>
      <trkpt lat="47.17958" lon="4.95633">
        <ele>275.77178955078</ele>
        <time>2019-12-05T10:40:43+0100</time>
      </trkpt>
      <trkpt lat="47.17961" lon="4.95634">
        <ele>275.7936706543</ele>
        <time>2019-12-05T10:40:46+0100</time>
      </trkpt>
      <trkpt lat="47.17964" lon="4.95634">
        <ele>275.83023071289</ele>
        <time>2019-12-05T10:40:49+0100</time>
      </trkpt>
      <trkpt lat="47.17968" lon="4.95635">
        <ele>275.8733215332</ele>
        <time>2019-12-05T10:40:52+0100</time>
      </trkpt>
      <trkpt lat="47.17971" lon="4.95636">
        <ele>275.89358520508</ele>
        <time>2019-12-05T10:40:55+0100</time>
      </trkpt>
      <trkpt lat="47.17974" lon="4.95637">
        <ele>275.89196777344</ele>
        <time>2019-12-05T10:40:58+0100</time>
      </trkpt>
      <trkpt lat="47.17976" lon="4.95639">
        <ele>275.92440795898</ele>
        <time>2019-12-05T10:41:01+0100</time>
      </trkpt>
      <trkpt lat="47.17979" lon="4.9564">
        <ele>275.92221069336</ele>
        <time>2019-12-05T10:41:04+0100</time>
      </trkpt>
      <trkpt lat="47.17983" lon="4.95641">
        <ele>275.88580322266</ele>
        <time>2019-12-05T10:41:07+0100</time>
      </trkpt>
      <trkpt lat="47.17987" lon="4.95642">
        <ele>275.88259887695</ele>
        <time>2019-12-05T10:41:10+0100</time>
      </trkpt>
      <trkpt lat="47.17991" lon="4.95644">
        <ele>275.91262817383</ele>
        <time>2019-12-05T10:41:13+0100</time>
      </trkpt>
      <trkpt lat="47.17995" lon="4.95646">
        <ele>275.96151733398</ele>
        <time>2019-12-05T10:41:16+0100</time>
      </trkpt>
      <trkpt lat="47.17998" lon="4.9565">
        <ele>276.02465820312</ele>
        <time>2019-12-05T10:41:19+0100</time>
      </trkpt>
      <trkpt lat="47.18001" lon="4.95653">
        <ele>276.05883789062</ele>
        <time>2019-12-05T10:41:22+0100</time>
      </trkpt>
      <trkpt lat="47.18003" lon="4.95656">
        <ele>276.0888671875</ele>
        <time>2019-12-05T10:41:25+0100</time>
      </trkpt>
      <trkpt lat="47.18005" lon="4.95658">
        <ele>276.10211181641</ele>
        <time>2019-12-05T10:41:28+0100</time>
      </trkpt>
      <trkpt lat="47.18009" lon="4.95661">
        <ele>276.11392211914</ele>
        <time>2019-12-05T10:41:31+0100</time>
      </trkpt>
      <trkpt lat="47.18011" lon="4.95665">
        <ele>276.13659667969</ele>
        <time>2019-12-05T10:41:34+0100</time>
      </trkpt>
      <trkpt lat="47.18014" lon="4.95668">
        <ele>276.15774536133</ele>
        <time>2019-12-05T10:41:37+0100</time>
      </trkpt>
      <trkpt lat="47.18017" lon="4.95671">
        <ele>276.16720581055</ele>
        <time>2019-12-05T10:41:40+0100</time>
      </trkpt>
      <trkpt lat="47.1802" lon="4.95674">
        <ele>276.1676940918</ele>
        <time>2019-12-05T10:41:43+0100</time>
      </trkpt>
      <trkpt lat="47.18024" lon="4.95676">
        <ele>276.16482543945</ele>
        <time>2019-12-05T10:41:46+0100</time>
      </trkpt>
      <trkpt lat="47.18027" lon="4.95678">
        <ele>276.18927001953</ele>
        <time>2019-12-05T10:41:49+0100</time>
      </trkpt>
      <trkpt lat="47.1803" lon="4.9568">
        <ele>276.20416259766</ele>
        <time>2019-12-05T10:41:52+0100</time>
      </trkpt>
      <trkpt lat="47.18034" lon="4.95682">
        <ele>276.21258544922</ele>
        <time>2019-12-05T10:41:55+0100</time>
      </trkpt>
      <trkpt lat="47.18037" lon="4.95684">
        <ele>276.23867797852</ele>
        <time>2019-12-05T10:41:58+0100</time>
      </trkpt>
      <trkpt lat="47.18041" lon="4.95686">
        <ele>276.25598144531</ele>
        <time>2019-12-05T10:42:01+0100</time>
      </trkpt>
      <trkpt lat="47.18044" lon="4.95689">
        <ele>276.27282714844</ele>
        <time>2019-12-05T10:42:04+0100</time>
      </trkpt>
      <trkpt lat="47.18047" lon="4.95691">
        <ele>276.26992797852</ele>
        <time>2019-12-05T10:42:07+0100</time>
      </trkpt>
      <trkpt lat="47.1805" lon="4.95691">
        <ele>276.24661254883</ele>
        <time>2019-12-05T10:42:10+0100</time>
      </trkpt>
      <trkpt lat="47.18054" lon="4.95694">
        <ele>276.28198242188</ele>
        <time>2019-12-05T10:42:13+0100</time>
      </trkpt>
      <trkpt lat="47.18057" lon="4.95695">
        <ele>276.35623168945</ele>
        <time>2019-12-05T10:42:16+0100</time>
      </trkpt>
      <trkpt lat="47.1806" lon="4.95698">
        <ele>276.46853637695</ele>
        <time>2019-12-05T10:42:19+0100</time>
      </trkpt>
      <trkpt lat="47.18064" lon="4.957">
        <ele>276.57531738281</ele>
        <time>2019-12-05T10:42:22+0100</time>
      </trkpt>
      <trkpt lat="47.18067" lon="4.95701">
        <ele>276.64840698242</ele>
        <time>2019-12-05T10:42:25+0100</time>
      </trkpt>
      <trkpt lat="47.1807" lon="4.95704">
        <ele>276.70428466797</ele>
        <time>2019-12-05T10:42:28+0100</time>
      </trkpt>
      <trkpt lat="47.18072" lon="4.95705">
        <ele>276.78466796875</ele>
        <time>2019-12-05T10:42:31+0100</time>
      </trkpt>
      <trkpt lat="47.18074" lon="4.95708">
        <ele>276.86871337891</ele>
        <time>2019-12-05T10:42:34+0100</time>
      </trkpt>
      <trkpt lat="47.18077" lon="4.9571">
        <ele>276.87829589844</ele>
        <time>2019-12-05T10:42:37+0100</time>
      </trkpt>
      <trkpt lat="47.18081" lon="4.95712">
        <ele>276.79647827148</ele>
        <time>2019-12-05T10:42:40+0100</time>
      </trkpt>
      <trkpt lat="47.18085" lon="4.95713">
        <ele>276.61865234375</ele>
        <time>2019-12-05T10:42:43+0100</time>
      </trkpt>
      <trkpt lat="47.18088" lon="4.95715">
        <ele>276.40698242188</ele>
        <time>2019-12-05T10:42:46+0100</time>
      </trkpt>
      <trkpt lat="47.18091" lon="4.95716">
        <ele>276.22033691406</ele>
        <time>2019-12-05T10:42:49+0100</time>
      </trkpt>
      <trkpt lat="47.18094" lon="4.95718">
        <ele>276.05847167969</ele>
        <time>2019-12-05T10:42:52+0100</time>
      </trkpt>
      <trkpt lat="47.18097" lon="4.95721">
        <ele>275.90850830078</ele>
        <time>2019-12-05T10:42:55+0100</time>
      </trkpt>
      <trkpt lat="47.181" lon="4.95723">
        <ele>275.73513793945</ele>
        <time>2019-12-05T10:42:58+0100</time>
      </trkpt>
      <trkpt lat="47.18102" lon="4.95726">
        <ele>275.58850097656</ele>
        <time>2019-12-05T10:43:01+0100</time>
      </trkpt>
      <trkpt lat="47.18105" lon="4.95729">
        <ele>275.50601196289</ele>
        <time>2019-12-05T10:43:04+0100</time>
      </trkpt>
      <trkpt lat="47.18108" lon="4.9573">
        <ele>275.42395019531</ele>
        <time>2019-12-05T10:43:06+0100</time>
      </trkpt>
      <trkpt lat="47.18111" lon="4.95732">
        <ele>275.3385925293</ele>
        <time>2019-12-05T10:43:09+0100</time>
      </trkpt>
      <trkpt lat="47.18115" lon="4.95734">
        <ele>275.25521850586</ele>
        <time>2019-12-05T10:43:12+0100</time>
      </trkpt>
      <trkpt lat="47.18118" lon="4.95736">
        <ele>275.17242431641</ele>
        <time>2019-12-05T10:43:15+0100</time>
      </trkpt>
      <trkpt lat="47.18121" lon="4.95737">
        <ele>275.12091064453</ele>
        <time>2019-12-05T10:43:18+0100</time>
      </trkpt>
      <trkpt lat="47.18124" lon="4.9574">
        <ele>275.09280395508</ele>
        <time>2019-12-05T10:43:21+0100</time>
      </trkpt>
      <trkpt lat="47.18127" lon="4.95742">
        <ele>275.02349853516</ele>
        <time>2019-12-05T10:43:24+0100</time>
      </trkpt>
      <trkpt lat="47.1813" lon="4.95745">
        <ele>274.90274047852</ele>
        <time>2019-12-05T10:43:27+0100</time>
      </trkpt>
      <trkpt lat="47.18133" lon="4.95747">
        <ele>274.7799987793</ele>
        <time>2019-12-05T10:43:30+0100</time>
      </trkpt>
      <trkpt lat="47.18137" lon="4.9575">
        <ele>274.64300537109</ele>
        <time>2019-12-05T10:43:33+0100</time>
      </trkpt>
      <trkpt lat="47.18141" lon="4.95752">
        <ele>274.49118041992</ele>
        <time>2019-12-05T10:43:36+0100</time>
      </trkpt>
      <trkpt lat="47.18144" lon="4.95754">
        <ele>274.32089233398</ele>
        <time>2019-12-05T10:43:39+0100</time>
      </trkpt>
      <trkpt lat="47.18146" lon="4.95756">
        <ele>274.18203735352</ele>
        <time>2019-12-05T10:43:42+0100</time>
      </trkpt>
      <trkpt lat="47.18148" lon="4.95757">
        <ele>274.11737060547</ele>
        <time>2019-12-05T10:43:45+0100</time>
      </trkpt>
      <trkpt lat="47.1815" lon="4.95758">
        <ele>274.11349487305</ele>
        <time>2019-12-05T10:43:48+0100</time>
      </trkpt>
      <trkpt lat="47.18154" lon="4.95761">
        <ele>274.10650634766</ele>
        <time>2019-12-05T10:43:51+0100</time>
      </trkpt>
      <trkpt lat="47.18157" lon="4.95763">
        <ele>274.02291870117</ele>
        <time>2019-12-05T10:43:54+0100</time>
      </trkpt>
      <trkpt lat="47.1816" lon="4.95765">
        <ele>273.88531494141</ele>
        <time>2019-12-05T10:43:57+0100</time>
      </trkpt>
      <trkpt lat="47.18162" lon="4.95767">
        <ele>273.75646972656</ele>
        <time>2019-12-05T10:44:00+0100</time>
      </trkpt>
      <trkpt lat="47.18165" lon="4.95769">
        <ele>273.60916137695</ele>
        <time>2019-12-05T10:44:03+0100</time>
      </trkpt>
      <trkpt lat="47.18168" lon="4.9577">
        <ele>273.40545654297</ele>
        <time>2019-12-05T10:44:06+0100</time>
      </trkpt>
      <trkpt lat="47.18169" lon="4.95773">
        <ele>273.099609375</ele>
        <time>2019-12-05T10:44:09+0100</time>
      </trkpt>
      <trkpt lat="47.1817" lon="4.95775">
        <ele>272.84646606445</ele>
        <time>2019-12-05T10:44:12+0100</time>
      </trkpt>
      <trkpt lat="47.18172" lon="4.95777">
        <ele>272.45550537109</ele>
        <time>2019-12-05T10:44:15+0100</time>
      </trkpt>
      <trkpt lat="47.18174" lon="4.95778">
        <ele>272.03860473633</ele>
        <time>2019-12-05T10:44:18+0100</time>
      </trkpt>
      <trkpt lat="47.18177" lon="4.95779">
        <ele>271.64093017578</ele>
        <time>2019-12-05T10:44:21+0100</time>
      </trkpt>
      <trkpt lat="47.1818" lon="4.9578">
        <ele>271.25430297852</ele>
        <time>2019-12-05T10:44:24+0100</time>
      </trkpt>
      <trkpt lat="47.18183" lon="4.95781">
        <ele>270.88812255859</ele>
        <time>2019-12-05T10:44:27+0100</time>
      </trkpt>
      <trkpt lat="47.18185" lon="4.95782">
        <ele>270.57568359375</ele>
        <time>2019-12-05T10:44:30+0100</time>
      </trkpt>
      <trkpt lat="47.18187" lon="4.95784">
        <ele>270.30407714844</ele>
        <time>2019-12-05T10:44:33+0100</time>
      </trkpt>
      <trkpt lat="47.18188" lon="4.95784">
        <ele>270.19934082031</ele>
        <time>2019-12-05T10:44:36+0100</time>
      </trkpt>
      <trkpt lat="47.18188" lon="4.95785">
        <ele>270.10223388672</ele>
        <time>2019-12-05T10:44:39+0100</time>
      </trkpt>
      <trkpt lat="47.18189" lon="4.95786">
        <ele>269.93719482422</ele>
        <time>2019-12-05T10:44:42+0100</time>
      </trkpt>
      <trkpt lat="47.18193" lon="4.9579">
        <ele>269.71813964844</ele>
        <time>2019-12-05T10:44:45+0100</time>
      </trkpt>
      <trkpt lat="47.18196" lon="4.95791">
        <ele>269.51037597656</ele>
        <time>2019-12-05T10:44:48+0100</time>
      </trkpt>
      <trkpt lat="47.18198" lon="4.95792">
        <ele>269.34143066406</ele>
        <time>2019-12-05T10:44:51+0100</time>
      </trkpt>
      <trkpt lat="47.182" lon="4.95796">
        <ele>269.20846557617</ele>
        <time>2019-12-05T10:44:54+0100</time>
      </trkpt>
      <trkpt lat="47.18202" lon="4.95796">
        <ele>269.11370849609</ele>
        <time>2019-12-05T10:44:57+0100</time>
      </trkpt>
      <trkpt lat="47.18206" lon="4.95799">
        <ele>269.05035400391</ele>
        <time>2019-12-05T10:45:00+0100</time>
      </trkpt>
      <trkpt lat="47.1821" lon="4.95801">
        <ele>268.89929199219</ele>
        <time>2019-12-05T10:45:03+0100</time>
      </trkpt>
      <trkpt lat="47.18214" lon="4.95803">
        <ele>268.73815917969</ele>
        <time>2019-12-05T10:45:06+0100</time>
      </trkpt>
      <trkpt lat="47.18216" lon="4.95806">
        <ele>268.5959777832</ele>
        <time>2019-12-05T10:45:09+0100</time>
      </trkpt>
      <trkpt lat="47.18218" lon="4.95806">
        <ele>268.50149536133</ele>
        <time>2019-12-05T10:45:12+0100</time>
      </trkpt>
      <trkpt lat="47.18219" lon="4.95806">
        <ele>268.42306518555</ele>
        <time>2019-12-05T10:45:15+0100</time>
      </trkpt>
      <trkpt lat="47.18221" lon="4.95808">
        <ele>268.34384155273</ele>
        <time>2019-12-05T10:45:18+0100</time>
      </trkpt>
      <trkpt lat="47.18224" lon="4.95811">
        <ele>268.25714111328</ele>
        <time>2019-12-05T10:45:21+0100</time>
      </trkpt>
      <trkpt lat="47.18226" lon="4.95815">
        <ele>268.17376708984</ele>
        <time>2019-12-05T10:45:24+0100</time>
      </trkpt>
      <trkpt lat="47.18229" lon="4.95817">
        <ele>268.11502075195</ele>
        <time>2019-12-05T10:45:27+0100</time>
      </trkpt>
      <trkpt lat="47.18232" lon="4.95819">
        <ele>268.00643920898</ele>
        <time>2019-12-05T10:45:30+0100</time>
      </trkpt>
      <trkpt lat="47.18236" lon="4.95821">
        <ele>267.9001159668</ele>
        <time>2019-12-05T10:45:33+0100</time>
      </trkpt>
      <trkpt lat="47.18239" lon="4.95823">
        <ele>267.83053588867</ele>
        <time>2019-12-05T10:45:36+0100</time>
      </trkpt>
      <trkpt lat="47.18243" lon="4.95824">
        <ele>267.77493286133</ele>
        <time>2019-12-05T10:45:39+0100</time>
      </trkpt>
      <trkpt lat="47.18247" lon="4.95825">
        <ele>267.69418334961</ele>
        <time>2019-12-05T10:45:42+0100</time>
      </trkpt>
      <trkpt lat="47.18251" lon="4.95827">
        <ele>267.64324951172</ele>
        <time>2019-12-05T10:45:45+0100</time>
      </trkpt>
      <trkpt lat="47.18254" lon="4.95829">
        <ele>267.6291809082</ele>
        <time>2019-12-05T10:45:48+0100</time>
      </trkpt>
      <trkpt lat="47.18257" lon="4.95829">
        <ele>267.65615844727</ele>
        <time>2019-12-05T10:45:51+0100</time>
      </trkpt>
      <trkpt lat="47.18262" lon="4.9583">
        <ele>267.58612060547</ele>
        <time>2019-12-05T10:45:54+0100</time>
      </trkpt>
      <trkpt lat="47.18265" lon="4.95832">
        <ele>267.44281005859</ele>
        <time>2019-12-05T10:45:57+0100</time>
      </trkpt>
      <trkpt lat="47.18268" lon="4.95834">
        <ele>267.30407714844</ele>
        <time>2019-12-05T10:46:00+0100</time>
      </trkpt>
      <trkpt lat="47.18272" lon="4.95835">
        <ele>267.1389465332</ele>
        <time>2019-12-05T10:46:03+0100</time>
      </trkpt>
      <trkpt lat="47.18274" lon="4.95837">
        <ele>266.96594238281</ele>
        <time>2019-12-05T10:46:06+0100</time>
      </trkpt>
      <trkpt lat="47.18277" lon="4.9584">
        <ele>266.75173950195</ele>
        <time>2019-12-05T10:46:09+0100</time>
      </trkpt>
      <trkpt lat="47.1828" lon="4.95842">
        <ele>266.49557495117</ele>
        <time>2019-12-05T10:46:12+0100</time>
      </trkpt>
      <trkpt lat="47.18283" lon="4.95843">
        <ele>266.26672363281</ele>
        <time>2019-12-05T10:46:15+0100</time>
      </trkpt>
      <trkpt lat="47.18287" lon="4.95845">
        <ele>266.05624389648</ele>
        <time>2019-12-05T10:46:18+0100</time>
      </trkpt>
      <trkpt lat="47.1829" lon="4.95847">
        <ele>265.86114501953</ele>
        <time>2019-12-05T10:46:21+0100</time>
      </trkpt>
      <trkpt lat="47.18293" lon="4.95848">
        <ele>265.72308349609</ele>
        <time>2019-12-05T10:46:24+0100</time>
      </trkpt>
      <trkpt lat="47.18295" lon="4.9585">
        <ele>265.64880371094</ele>
        <time>2019-12-05T10:46:27+0100</time>
      </trkpt>
      <trkpt lat="47.18299" lon="4.95851">
        <ele>265.63882446289</ele>
        <time>2019-12-05T10:46:30+0100</time>
      </trkpt>
      <trkpt lat="47.18302" lon="4.95852">
        <ele>265.62930297852</ele>
        <time>2019-12-05T10:46:33+0100</time>
      </trkpt>
      <trkpt lat="47.18306" lon="4.95854">
        <ele>265.62493896484</ele>
        <time>2019-12-05T10:46:36+0100</time>
      </trkpt>
      <trkpt lat="47.18308" lon="4.95855">
        <ele>265.67163085938</ele>
        <time>2019-12-05T10:46:39+0100</time>
      </trkpt>
      <trkpt lat="47.18312" lon="4.95857">
        <ele>265.78494262695</ele>
        <time>2019-12-05T10:46:42+0100</time>
      </trkpt>
      <trkpt lat="47.18314" lon="4.95859">
        <ele>265.91949462891</ele>
        <time>2019-12-05T10:46:45+0100</time>
      </trkpt>
      <trkpt lat="47.18318" lon="4.95861">
        <ele>266.03848266602</ele>
        <time>2019-12-05T10:46:48+0100</time>
      </trkpt>
      <trkpt lat="47.18321" lon="4.95863">
        <ele>266.11547851562</ele>
        <time>2019-12-05T10:46:51+0100</time>
      </trkpt>
      <trkpt lat="47.18324" lon="4.95865">
        <ele>266.16967773438</ele>
        <time>2019-12-05T10:46:54+0100</time>
      </trkpt>
      <trkpt lat="47.18328" lon="4.95865">
        <ele>266.22384643555</ele>
        <time>2019-12-05T10:46:57+0100</time>
      </trkpt>
      <trkpt lat="47.18331" lon="4.95867">
        <ele>266.26391601562</ele>
        <time>2019-12-05T10:47:00+0100</time>
      </trkpt>
      <trkpt lat="47.18335" lon="4.95869">
        <ele>266.29415893555</ele>
        <time>2019-12-05T10:47:03+0100</time>
      </trkpt>
      <trkpt lat="47.18339" lon="4.95871">
        <ele>266.24398803711</ele>
        <time>2019-12-05T10:47:06+0100</time>
      </trkpt>
      <trkpt lat="47.18342" lon="4.95873">
        <ele>266.11813354492</ele>
        <time>2019-12-05T10:47:09+0100</time>
      </trkpt>
      <trkpt lat="47.18345" lon="4.95874">
        <ele>266.00149536133</ele>
        <time>2019-12-05T10:47:12+0100</time>
      </trkpt>
      <trkpt lat="47.18349" lon="4.95875">
        <ele>265.85675048828</ele>
        <time>2019-12-05T10:47:15+0100</time>
      </trkpt>
      <trkpt lat="47.18353" lon="4.95876">
        <ele>265.72409057617</ele>
        <time>2019-12-05T10:47:18+0100</time>
      </trkpt>
      <trkpt lat="47.18356" lon="4.95877">
        <ele>265.63577270508</ele>
        <time>2019-12-05T10:47:21+0100</time>
      </trkpt>
      <trkpt lat="47.18359" lon="4.95878">
        <ele>265.59622192383</ele>
        <time>2019-12-05T10:47:24+0100</time>
      </trkpt>
      <trkpt lat="47.18362" lon="4.95879">
        <ele>265.58139038086</ele>
        <time>2019-12-05T10:47:27+0100</time>
      </trkpt>
      <trkpt lat="47.18365" lon="4.95881">
        <ele>265.58721923828</ele>
        <time>2019-12-05T10:47:30+0100</time>
      </trkpt>
      <trkpt lat="47.18368" lon="4.95883">
        <ele>265.57766723633</ele>
        <time>2019-12-05T10:47:33+0100</time>
      </trkpt>
      <trkpt lat="47.18371" lon="4.95886">
        <ele>265.49496459961</ele>
        <time>2019-12-05T10:47:36+0100</time>
      </trkpt>
      <trkpt lat="47.18374" lon="4.95887">
        <ele>265.38531494141</ele>
        <time>2019-12-05T10:47:39+0100</time>
      </trkpt>
      <trkpt lat="47.18377" lon="4.95889">
        <ele>265.27209472656</ele>
        <time>2019-12-05T10:47:42+0100</time>
      </trkpt>
      <trkpt lat="47.1838" lon="4.95891">
        <ele>265.14602661133</ele>
        <time>2019-12-05T10:47:45+0100</time>
      </trkpt>
      <trkpt lat="47.18383" lon="4.95892">
        <ele>265.03274536133</ele>
        <time>2019-12-05T10:47:48+0100</time>
      </trkpt>
      <trkpt lat="47.18385" lon="4.95894">
        <ele>264.97045898438</ele>
        <time>2019-12-05T10:47:51+0100</time>
      </trkpt>
      <trkpt lat="47.18388" lon="4.95895">
        <ele>264.94247436523</ele>
        <time>2019-12-05T10:47:54+0100</time>
      </trkpt>
      <trkpt lat="47.18391" lon="4.95895">
        <ele>264.96560668945</ele>
        <time>2019-12-05T10:47:57+0100</time>
      </trkpt>
      <trkpt lat="47.18396" lon="4.95894">
        <ele>264.99118041992</ele>
        <time>2019-12-05T10:48:00+0100</time>
      </trkpt>
      <trkpt lat="47.184" lon="4.95894">
        <ele>265.08441162109</ele>
        <time>2019-12-05T10:48:03+0100</time>
      </trkpt>
      <trkpt lat="47.18403" lon="4.95895">
        <ele>265.18432617188</ele>
        <time>2019-12-05T10:48:06+0100</time>
      </trkpt>
      <trkpt lat="47.18407" lon="4.95897">
        <ele>265.26800537109</ele>
        <time>2019-12-05T10:48:09+0100</time>
      </trkpt>
      <trkpt lat="47.18409" lon="4.95898">
        <ele>265.34976196289</ele>
        <time>2019-12-05T10:48:12+0100</time>
      </trkpt>
      <trkpt lat="47.18412" lon="4.95899">
        <ele>265.45413208008</ele>
        <time>2019-12-05T10:48:15+0100</time>
      </trkpt>
      <trkpt lat="47.18415" lon="4.959">
        <ele>265.55615234375</ele>
        <time>2019-12-05T10:48:18+0100</time>
      </trkpt>
      <trkpt lat="47.18418" lon="4.959">
        <ele>265.59820556641</ele>
        <time>2019-12-05T10:48:21+0100</time>
      </trkpt>
      <trkpt lat="47.18421" lon="4.95902">
        <ele>265.59802246094</ele>
        <time>2019-12-05T10:48:24+0100</time>
      </trkpt>
      <trkpt lat="47.18423" lon="4.95902">
        <ele>265.58242797852</ele>
        <time>2019-12-05T10:48:27+0100</time>
      </trkpt>
      <trkpt lat="47.18424" lon="4.95903">
        <ele>265.65362548828</ele>
        <time>2019-12-05T10:48:30+0100</time>
      </trkpt>
      <trkpt lat="47.18427" lon="4.95903">
        <ele>265.78323364258</ele>
        <time>2019-12-05T10:48:33+0100</time>
      </trkpt>
      <trkpt lat="47.18431" lon="4.95905">
        <ele>265.89599609375</ele>
        <time>2019-12-05T10:48:36+0100</time>
      </trkpt>
      <trkpt lat="47.18435" lon="4.95906">
        <ele>265.87121582031</ele>
        <time>2019-12-05T10:48:39+0100</time>
      </trkpt>
      <trkpt lat="47.18439" lon="4.95907">
        <ele>265.79431152344</ele>
        <time>2019-12-05T10:48:42+0100</time>
      </trkpt>
      <trkpt lat="47.18442" lon="4.95908">
        <ele>265.69635009766</ele>
        <time>2019-12-05T10:48:45+0100</time>
      </trkpt>
      <trkpt lat="47.18445" lon="4.95908">
        <ele>265.62338256836</ele>
        <time>2019-12-05T10:48:48+0100</time>
      </trkpt>
      <trkpt lat="47.18449" lon="4.9591">
        <ele>265.52966308594</ele>
        <time>2019-12-05T10:48:51+0100</time>
      </trkpt>
      <trkpt lat="47.1845" lon="4.95912">
        <ele>265.39303588867</ele>
        <time>2019-12-05T10:48:54+0100</time>
      </trkpt>
      <trkpt lat="47.18452" lon="4.95913">
        <ele>265.27258300781</ele>
        <time>2019-12-05T10:48:57+0100</time>
      </trkpt>
      <trkpt lat="47.18456" lon="4.95914">
        <ele>265.17852783203</ele>
        <time>2019-12-05T10:49:00+0100</time>
      </trkpt>
      <trkpt lat="47.1846" lon="4.95915">
        <ele>265.01831054688</ele>
        <time>2019-12-05T10:49:03+0100</time>
      </trkpt>
      <trkpt lat="47.18464" lon="4.95916">
        <ele>264.85934448242</ele>
        <time>2019-12-05T10:49:06+0100</time>
      </trkpt>
      <trkpt lat="47.18467" lon="4.95917">
        <ele>264.68923950195</ele>
        <time>2019-12-05T10:49:09+0100</time>
      </trkpt>
      <trkpt lat="47.1847" lon="4.95919">
        <ele>264.52166748047</ele>
        <time>2019-12-05T10:49:12+0100</time>
      </trkpt>
      <trkpt lat="47.18472" lon="4.9592">
        <ele>264.36251831055</ele>
        <time>2019-12-05T10:49:15+0100</time>
      </trkpt>
      <trkpt lat="47.18475" lon="4.95923">
        <ele>264.23187255859</ele>
        <time>2019-12-05T10:49:18+0100</time>
      </trkpt>
      <trkpt lat="47.18477" lon="4.95923">
        <ele>264.16046142578</ele>
        <time>2019-12-05T10:49:21+0100</time>
      </trkpt>
      <trkpt lat="47.1848" lon="4.95924">
        <ele>264.13714599609</ele>
        <time>2019-12-05T10:49:24+0100</time>
      </trkpt>
      <trkpt lat="47.18482" lon="4.95926">
        <ele>264.12503051758</ele>
        <time>2019-12-05T10:49:27+0100</time>
      </trkpt>
      <trkpt lat="47.18487" lon="4.95929">
        <ele>264.06954956055</ele>
        <time>2019-12-05T10:49:30+0100</time>
      </trkpt>
      <trkpt lat="47.1849" lon="4.95931">
        <ele>263.96234130859</ele>
        <time>2019-12-05T10:49:33+0100</time>
      </trkpt>
      <trkpt lat="47.18494" lon="4.95933">
        <ele>263.79907226562</ele>
        <time>2019-12-05T10:49:36+0100</time>
      </trkpt>
      <trkpt lat="47.18497" lon="4.95936">
        <ele>263.61334228516</ele>
        <time>2019-12-05T10:49:39+0100</time>
      </trkpt>
      <trkpt lat="47.18499" lon="4.95938">
        <ele>263.52722167969</ele>
        <time>2019-12-05T10:49:42+0100</time>
      </trkpt>
      <trkpt lat="47.18502" lon="4.9594">
        <ele>263.50704956055</ele>
        <time>2019-12-05T10:49:45+0100</time>
      </trkpt>
      <trkpt lat="47.18505" lon="4.95941">
        <ele>263.49713134766</ele>
        <time>2019-12-05T10:49:48+0100</time>
      </trkpt>
      <trkpt lat="47.18507" lon="4.95943">
        <ele>263.51165771484</ele>
        <time>2019-12-05T10:49:51+0100</time>
      </trkpt>
      <trkpt lat="47.1851" lon="4.95946">
        <ele>263.48370361328</ele>
        <time>2019-12-05T10:49:54+0100</time>
      </trkpt>
      <trkpt lat="47.18513" lon="4.95948">
        <ele>263.41467285156</ele>
        <time>2019-12-05T10:49:57+0100</time>
      </trkpt>
      <trkpt lat="47.18516" lon="4.9595">
        <ele>263.30914306641</ele>
        <time>2019-12-05T10:50:00+0100</time>
      </trkpt>
      <trkpt lat="47.18519" lon="4.9595">
        <ele>263.24844360352</ele>
        <time>2019-12-05T10:50:03+0100</time>
      </trkpt>
      <trkpt lat="47.18523" lon="4.95952">
        <ele>263.14889526367</ele>
        <time>2019-12-05T10:50:06+0100</time>
      </trkpt>
      <trkpt lat="47.18526" lon="4.95954">
        <ele>263.00939941406</ele>
        <time>2019-12-05T10:50:09+0100</time>
      </trkpt>
      <trkpt lat="47.18529" lon="4.95955">
        <ele>262.87753295898</ele>
        <time>2019-12-05T10:50:12+0100</time>
      </trkpt>
      <trkpt lat="47.18533" lon="4.95957">
        <ele>262.72625732422</ele>
        <time>2019-12-05T10:50:15+0100</time>
      </trkpt>
      <trkpt lat="47.18537" lon="4.95959">
        <ele>262.57159423828</ele>
        <time>2019-12-05T10:50:18+0100</time>
      </trkpt>
      <trkpt lat="47.1854" lon="4.9596">
        <ele>262.42559814453</ele>
        <time>2019-12-05T10:50:21+0100</time>
      </trkpt>
      <trkpt lat="47.18543" lon="4.95961">
        <ele>262.33322143555</ele>
        <time>2019-12-05T10:50:24+0100</time>
      </trkpt>
      <trkpt lat="47.18546" lon="4.95962">
        <ele>262.34039306641</ele>
        <time>2019-12-05T10:50:27+0100</time>
      </trkpt>
      <trkpt lat="47.1855" lon="4.95962">
        <ele>262.37118530273</ele>
        <time>2019-12-05T10:50:30+0100</time>
      </trkpt>
      <trkpt lat="47.18554" lon="4.95963">
        <ele>262.39022827148</ele>
        <time>2019-12-05T10:50:33+0100</time>
      </trkpt>
      <trkpt lat="47.18557" lon="4.95965">
        <ele>262.34814453125</ele>
        <time>2019-12-05T10:50:36+0100</time>
      </trkpt>
      <trkpt lat="47.18561" lon="4.95967">
        <ele>262.30599975586</ele>
        <time>2019-12-05T10:50:39+0100</time>
      </trkpt>
      <trkpt lat="47.18564" lon="4.95968">
        <ele>262.22991943359</ele>
        <time>2019-12-05T10:50:42+0100</time>
      </trkpt>
      <trkpt lat="47.18567" lon="4.9597">
        <ele>262.1672668457</ele>
        <time>2019-12-05T10:50:45+0100</time>
      </trkpt>
      <trkpt lat="47.1857" lon="4.95971">
        <ele>262.16458129883</ele>
        <time>2019-12-05T10:50:48+0100</time>
      </trkpt>
      <trkpt lat="47.18573" lon="4.95972">
        <ele>262.24514770508</ele>
        <time>2019-12-05T10:50:51+0100</time>
      </trkpt>
      <trkpt lat="47.18576" lon="4.95973">
        <ele>262.32217407227</ele>
        <time>2019-12-05T10:50:54+0100</time>
      </trkpt>
      <trkpt lat="47.18579" lon="4.95975">
        <ele>262.38800048828</ele>
        <time>2019-12-05T10:50:57+0100</time>
      </trkpt>
      <trkpt lat="47.18583" lon="4.95977">
        <ele>262.46789550781</ele>
        <time>2019-12-05T10:51:00+0100</time>
      </trkpt>
      <trkpt lat="47.18585" lon="4.95979">
        <ele>262.54376220703</ele>
        <time>2019-12-05T10:51:03+0100</time>
      </trkpt>
      <trkpt lat="47.18589" lon="4.95981">
        <ele>262.62426757812</ele>
        <time>2019-12-05T10:51:06+0100</time>
      </trkpt>
      <trkpt lat="47.18592" lon="4.95983">
        <ele>262.68676757812</ele>
        <time>2019-12-05T10:51:09+0100</time>
      </trkpt>
      <trkpt lat="47.18596" lon="4.95986">
        <ele>262.69772338867</ele>
        <time>2019-12-05T10:51:12+0100</time>
      </trkpt>
      <trkpt lat="47.18599" lon="4.95988">
        <ele>262.6750793457</ele>
        <time>2019-12-05T10:51:15+0100</time>
      </trkpt>
      <trkpt lat="47.18602" lon="4.9599">
        <ele>262.7158203125</ele>
        <time>2019-12-05T10:51:18+0100</time>
      </trkpt>
      <trkpt lat="47.18606" lon="4.95993">
        <ele>262.7112121582</ele>
        <time>2019-12-05T10:51:21+0100</time>
      </trkpt>
      <trkpt lat="47.18609" lon="4.95995">
        <ele>262.66168212891</ele>
        <time>2019-12-05T10:51:24+0100</time>
      </trkpt>
      <trkpt lat="47.18612" lon="4.95999">
        <ele>262.59811401367</ele>
        <time>2019-12-05T10:51:27+0100</time>
      </trkpt>
      <trkpt lat="47.18615" lon="4.96001">
        <ele>262.53579711914</ele>
        <time>2019-12-05T10:51:30+0100</time>
      </trkpt>
      <trkpt lat="47.18618" lon="4.96002">
        <ele>262.49670410156</ele>
        <time>2019-12-05T10:51:33+0100</time>
      </trkpt>
      <trkpt lat="47.18621" lon="4.96004">
        <ele>262.50146484375</ele>
        <time>2019-12-05T10:51:36+0100</time>
      </trkpt>
      <trkpt lat="47.18624" lon="4.96008">
        <ele>262.45376586914</ele>
        <time>2019-12-05T10:51:39+0100</time>
      </trkpt>
      <trkpt lat="47.18627" lon="4.96011">
        <ele>262.33911132812</ele>
        <time>2019-12-05T10:51:42+0100</time>
      </trkpt>
      <trkpt lat="47.18628" lon="4.96012">
        <ele>262.31329345703</ele>
        <time>2019-12-05T10:51:45+0100</time>
      </trkpt>
      <trkpt lat="47.1863" lon="4.96013">
        <ele>262.41833496094</ele>
        <time>2019-12-05T10:51:48+0100</time>
      </trkpt>
      <trkpt lat="47.18631" lon="4.96017">
        <ele>262.55346679688</ele>
        <time>2019-12-05T10:51:51+0100</time>
      </trkpt>
      <trkpt lat="47.18634" lon="4.96018">
        <ele>262.71893310547</ele>
        <time>2019-12-05T10:51:54+0100</time>
      </trkpt>
      <trkpt lat="47.18637" lon="4.9602">
        <ele>262.90127563477</ele>
        <time>2019-12-05T10:51:57+0100</time>
      </trkpt>
      <trkpt lat="47.1864" lon="4.96023">
        <ele>263.02789306641</ele>
        <time>2019-12-05T10:52:00+0100</time>
      </trkpt>
      <trkpt lat="47.18642" lon="4.96023">
        <ele>263.11312866211</ele>
        <time>2019-12-05T10:52:03+0100</time>
      </trkpt>
      <trkpt lat="47.18645" lon="4.96024">
        <ele>263.13656616211</ele>
        <time>2019-12-05T10:52:06+0100</time>
      </trkpt>
      <trkpt lat="47.18647" lon="4.96024">
        <ele>263.16247558594</ele>
        <time>2019-12-05T10:52:09+0100</time>
      </trkpt>
      <trkpt lat="47.1865" lon="4.96023">
        <ele>263.18182373047</ele>
        <time>2019-12-05T10:52:12+0100</time>
      </trkpt>
      <trkpt lat="47.18655" lon="4.96023">
        <ele>263.13128662109</ele>
        <time>2019-12-05T10:52:15+0100</time>
      </trkpt>
      <trkpt lat="47.18658" lon="4.96023">
        <ele>263.08609008789</ele>
        <time>2019-12-05T10:52:18+0100</time>
      </trkpt>
      <trkpt lat="47.18661" lon="4.96023">
        <ele>263.0690612793</ele>
        <time>2019-12-05T10:52:21+0100</time>
      </trkpt>
      <trkpt lat="47.18664" lon="4.96024">
        <ele>263.04544067383</ele>
        <time>2019-12-05T10:52:24+0100</time>
      </trkpt>
      <trkpt lat="47.18666" lon="4.96024">
        <ele>263.05874633789</ele>
        <time>2019-12-05T10:52:27+0100</time>
      </trkpt>
      <trkpt lat="47.1867" lon="4.96023">
        <ele>263.05679321289</ele>
        <time>2019-12-05T10:52:30+0100</time>
      </trkpt>
      <trkpt lat="47.18672" lon="4.96023">
        <ele>263.05172729492</ele>
        <time>2019-12-05T10:52:33+0100</time>
      </trkpt>
      <trkpt lat="47.18674" lon="4.96023">
        <ele>263.05316162109</ele>
        <time>2019-12-05T10:52:36+0100</time>
      </trkpt>
      <trkpt lat="47.18677" lon="4.96024">
        <ele>263.0783996582</ele>
        <time>2019-12-05T10:52:39+0100</time>
      </trkpt>
      <trkpt lat="47.18679" lon="4.96024">
        <ele>263.1618347168</ele>
        <time>2019-12-05T10:52:42+0100</time>
      </trkpt>
      <trkpt lat="47.18682" lon="4.96025">
        <ele>263.25360107422</ele>
        <time>2019-12-05T10:52:45+0100</time>
      </trkpt>
      <trkpt lat="47.18686" lon="4.96025">
        <ele>263.27731323242</ele>
        <time>2019-12-05T10:52:48+0100</time>
      </trkpt>
      <trkpt lat="47.1869" lon="4.96025">
        <ele>263.224609375</ele>
        <time>2019-12-05T10:52:51+0100</time>
      </trkpt>
      <trkpt lat="47.18693" lon="4.96024">
        <ele>263.17227172852</ele>
        <time>2019-12-05T10:52:54+0100</time>
      </trkpt>
      <trkpt lat="47.18697" lon="4.96025">
        <ele>263.12091064453</ele>
        <time>2019-12-05T10:52:57+0100</time>
      </trkpt>
      <trkpt lat="47.18699" lon="4.96025">
        <ele>263.08679199219</ele>
        <time>2019-12-05T10:53:00+0100</time>
      </trkpt>
      <trkpt lat="47.18702" lon="4.96025">
        <ele>263.04354858398</ele>
        <time>2019-12-05T10:53:03+0100</time>
      </trkpt>
      <trkpt lat="47.18705" lon="4.96025">
        <ele>263.03210449219</ele>
        <time>2019-12-05T10:53:06+0100</time>
      </trkpt>
      <trkpt lat="47.18709" lon="4.96025">
        <ele>263.04614257812</ele>
        <time>2019-12-05T10:53:09+0100</time>
      </trkpt>
      <trkpt lat="47.18712" lon="4.96025">
        <ele>263.09228515625</ele>
        <time>2019-12-05T10:53:12+0100</time>
      </trkpt>
      <trkpt lat="47.18715" lon="4.96026">
        <ele>263.1149597168</ele>
        <time>2019-12-05T10:53:15+0100</time>
      </trkpt>
      <trkpt lat="47.18718" lon="4.96028">
        <ele>263.15399169922</ele>
        <time>2019-12-05T10:53:18+0100</time>
      </trkpt>
      <trkpt lat="47.18721" lon="4.96027">
        <ele>263.16940307617</ele>
        <time>2019-12-05T10:53:21+0100</time>
      </trkpt>
      <trkpt lat="47.18724" lon="4.96028">
        <ele>263.22055053711</ele>
        <time>2019-12-05T10:53:24+0100</time>
      </trkpt>
      <trkpt lat="47.18727" lon="4.96028">
        <ele>263.31512451172</ele>
        <time>2019-12-05T10:53:27+0100</time>
      </trkpt>
      <trkpt lat="47.18731" lon="4.96029">
        <ele>263.42364501953</ele>
        <time>2019-12-05T10:53:30+0100</time>
      </trkpt>
      <trkpt lat="47.18734" lon="4.9603">
        <ele>263.47171020508</ele>
        <time>2019-12-05T10:53:33+0100</time>
      </trkpt>
      <trkpt lat="47.18737" lon="4.9603">
        <ele>263.49795532227</ele>
        <time>2019-12-05T10:53:36+0100</time>
      </trkpt>
      <trkpt lat="47.18741" lon="4.9603">
        <ele>263.58581542969</ele>
        <time>2019-12-05T10:53:39+0100</time>
      </trkpt>
      <trkpt lat="47.18744" lon="4.9603">
        <ele>263.70428466797</ele>
        <time>2019-12-05T10:53:42+0100</time>
      </trkpt>
      <trkpt lat="47.18748" lon="4.96031">
        <ele>263.78857421875</ele>
        <time>2019-12-05T10:53:45+0100</time>
      </trkpt>
      <trkpt lat="47.18751" lon="4.96032">
        <ele>263.84121704102</ele>
        <time>2019-12-05T10:53:48+0100</time>
      </trkpt>
      <trkpt lat="47.18754" lon="4.96033">
        <ele>263.89959716797</ele>
        <time>2019-12-05T10:53:51+0100</time>
      </trkpt>
      <trkpt lat="47.18759" lon="4.96034">
        <ele>263.94619750977</ele>
        <time>2019-12-05T10:53:54+0100</time>
      </trkpt>
      <trkpt lat="47.18762" lon="4.96036">
        <ele>263.92858886719</ele>
        <time>2019-12-05T10:53:57+0100</time>
      </trkpt>
      <trkpt lat="47.18765" lon="4.96037">
        <ele>263.88555908203</ele>
        <time>2019-12-05T10:54:00+0100</time>
      </trkpt>
      <trkpt lat="47.18768" lon="4.96037">
        <ele>263.86578369141</ele>
        <time>2019-12-05T10:54:03+0100</time>
      </trkpt>
      <trkpt lat="47.18771" lon="4.96038">
        <ele>263.86395263672</ele>
        <time>2019-12-05T10:54:06+0100</time>
      </trkpt>
      <trkpt lat="47.18774" lon="4.96038">
        <ele>263.88876342773</ele>
        <time>2019-12-05T10:54:09+0100</time>
      </trkpt>
      <trkpt lat="47.18777" lon="4.96039">
        <ele>263.94787597656</ele>
        <time>2019-12-05T10:54:12+0100</time>
      </trkpt>
      <trkpt lat="47.1878" lon="4.9604">
        <ele>263.98672485352</ele>
        <time>2019-12-05T10:54:15+0100</time>
      </trkpt>
      <trkpt lat="47.18784" lon="4.96041">
        <ele>264.02426147461</ele>
        <time>2019-12-05T10:54:18+0100</time>
      </trkpt>
      <trkpt lat="47.18787" lon="4.96042">
        <ele>264.05401611328</ele>
        <time>2019-12-05T10:54:21+0100</time>
      </trkpt>
      <trkpt lat="47.18791" lon="4.96042">
        <ele>264.08068847656</ele>
        <time>2019-12-05T10:54:24+0100</time>
      </trkpt>
      <trkpt lat="47.18795" lon="4.96042">
        <ele>264.09378051758</ele>
        <time>2019-12-05T10:54:27+0100</time>
      </trkpt>
      <trkpt lat="47.18798" lon="4.96043">
        <ele>264.14660644531</ele>
        <time>2019-12-05T10:54:30+0100</time>
      </trkpt>
      <trkpt lat="47.188" lon="4.96044">
        <ele>264.25247192383</ele>
        <time>2019-12-05T10:54:33+0100</time>
      </trkpt>
      <trkpt lat="47.18802" lon="4.96046">
        <ele>264.4401550293</ele>
        <time>2019-12-05T10:54:36+0100</time>
      </trkpt>
      <trkpt lat="47.18806" lon="4.96047">
        <ele>264.58294677734</ele>
        <time>2019-12-05T10:54:39+0100</time>
      </trkpt>
      <trkpt lat="47.18808" lon="4.96048">
        <ele>264.73962402344</ele>
        <time>2019-12-05T10:54:42+0100</time>
      </trkpt>
      <trkpt lat="47.18813" lon="4.9605">
        <ele>264.88070678711</ele>
        <time>2019-12-05T10:54:45+0100</time>
      </trkpt>
      <trkpt lat="47.18817" lon="4.96049">
        <ele>264.91253662109</ele>
        <time>2019-12-05T10:54:48+0100</time>
      </trkpt>
      <trkpt lat="47.18821" lon="4.96049">
        <ele>264.95266723633</ele>
        <time>2019-12-05T10:54:51+0100</time>
      </trkpt>
      <trkpt lat="47.18824" lon="4.9605">
        <ele>264.94897460938</ele>
        <time>2019-12-05T10:54:54+0100</time>
      </trkpt>
      <trkpt lat="47.18828" lon="4.96051">
        <ele>264.9342956543</ele>
        <time>2019-12-05T10:54:57+0100</time>
      </trkpt>
      <trkpt lat="47.1883" lon="4.96051">
        <ele>264.94915771484</ele>
        <time>2019-12-05T10:55:00+0100</time>
      </trkpt>
      <trkpt lat="47.18833" lon="4.96052">
        <ele>265.01223754883</ele>
        <time>2019-12-05T10:55:03+0100</time>
      </trkpt>
      <trkpt lat="47.18835" lon="4.96052">
        <ele>265.05435180664</ele>
        <time>2019-12-05T10:55:06+0100</time>
      </trkpt>
      <trkpt lat="47.18839" lon="4.96053">
        <ele>265.16516113281</ele>
        <time>2019-12-05T10:55:09+0100</time>
      </trkpt>
      <trkpt lat="47.18843" lon="4.96051">
        <ele>265.28765869141</ele>
        <time>2019-12-05T10:55:12+0100</time>
      </trkpt>
      <trkpt lat="47.18847" lon="4.96051">
        <ele>265.34329223633</ele>
        <time>2019-12-05T10:55:15+0100</time>
      </trkpt>
      <trkpt lat="47.1885" lon="4.9605">
        <ele>265.41326904297</ele>
        <time>2019-12-05T10:55:18+0100</time>
      </trkpt>
      <trkpt lat="47.18852" lon="4.96051">
        <ele>265.53900146484</ele>
        <time>2019-12-05T10:55:21+0100</time>
      </trkpt>
      <trkpt lat="47.18856" lon="4.96051">
        <ele>265.62094116211</ele>
        <time>2019-12-05T10:55:24+0100</time>
      </trkpt>
      <trkpt lat="47.18859" lon="4.9605">
        <ele>265.6413269043</ele>
        <time>2019-12-05T10:55:27+0100</time>
      </trkpt>
      <trkpt lat="47.18863" lon="4.96051">
        <ele>265.64627075195</ele>
        <time>2019-12-05T10:55:30+0100</time>
      </trkpt>
      <trkpt lat="47.18867" lon="4.96051">
        <ele>265.66943359375</ele>
        <time>2019-12-05T10:55:33+0100</time>
      </trkpt>
      <trkpt lat="47.18869" lon="4.9605">
        <ele>265.76455688477</ele>
        <time>2019-12-05T10:55:36+0100</time>
      </trkpt>
      <trkpt lat="47.18873" lon="4.9605">
        <ele>265.85772705078</ele>
        <time>2019-12-05T10:55:39+0100</time>
      </trkpt>
      <trkpt lat="47.18876" lon="4.96051">
        <ele>265.97903442383</ele>
        <time>2019-12-05T10:55:42+0100</time>
      </trkpt>
      <trkpt lat="47.1888" lon="4.96051">
        <ele>266.09072875977</ele>
        <time>2019-12-05T10:55:45+0100</time>
      </trkpt>
      <trkpt lat="47.18882" lon="4.96051">
        <ele>266.20034790039</ele>
        <time>2019-12-05T10:55:48+0100</time>
      </trkpt>
      <trkpt lat="47.18885" lon="4.9605">
        <ele>266.33734130859</ele>
        <time>2019-12-05T10:55:51+0100</time>
      </trkpt>
      <trkpt lat="47.18888" lon="4.9605">
        <ele>266.50723266602</ele>
        <time>2019-12-05T10:55:54+0100</time>
      </trkpt>
      <trkpt lat="47.1889" lon="4.9605">
        <ele>266.65762329102</ele>
        <time>2019-12-05T10:55:57+0100</time>
      </trkpt>
      <trkpt lat="47.18894" lon="4.9605">
        <ele>266.77389526367</ele>
        <time>2019-12-05T10:56:00+0100</time>
      </trkpt>
      <trkpt lat="47.18899" lon="4.9605">
        <ele>266.82183837891</ele>
        <time>2019-12-05T10:56:03+0100</time>
      </trkpt>
      <trkpt lat="47.18903" lon="4.96049">
        <ele>266.83358764648</ele>
        <time>2019-12-05T10:56:06+0100</time>
      </trkpt>
      <trkpt lat="47.18906" lon="4.96049">
        <ele>266.82620239258</ele>
        <time>2019-12-05T10:56:09+0100</time>
      </trkpt>
      <trkpt lat="47.1891" lon="4.96051">
        <ele>266.83355712891</ele>
        <time>2019-12-05T10:56:12+0100</time>
      </trkpt>
      <trkpt lat="47.18913" lon="4.96052">
        <ele>266.91665649414</ele>
        <time>2019-12-05T10:56:15+0100</time>
      </trkpt>
      <trkpt lat="47.18915" lon="4.96053">
        <ele>266.99642944336</ele>
        <time>2019-12-05T10:56:18+0100</time>
      </trkpt>
      <trkpt lat="47.18918" lon="4.96053">
        <ele>267.05917358398</ele>
        <time>2019-12-05T10:56:21+0100</time>
      </trkpt>
      <trkpt lat="47.18921" lon="4.96054">
        <ele>267.12451171875</ele>
        <time>2019-12-05T10:56:24+0100</time>
      </trkpt>
      <trkpt lat="47.18924" lon="4.96054">
        <ele>267.21365356445</ele>
        <time>2019-12-05T10:56:27+0100</time>
      </trkpt>
      <trkpt lat="47.18927" lon="4.96054">
        <ele>267.30212402344</ele>
        <time>2019-12-05T10:56:30+0100</time>
      </trkpt>
      <trkpt lat="47.1893" lon="4.96054">
        <ele>267.43685913086</ele>
        <time>2019-12-05T10:56:33+0100</time>
      </trkpt>
      <trkpt lat="47.18934" lon="4.96056">
        <ele>267.54382324219</ele>
        <time>2019-12-05T10:56:36+0100</time>
      </trkpt>
      <trkpt lat="47.18938" lon="4.96056">
        <ele>267.61950683594</ele>
        <time>2019-12-05T10:56:39+0100</time>
      </trkpt>
      <trkpt lat="47.18941" lon="4.96057">
        <ele>267.70394897461</ele>
        <time>2019-12-05T10:56:42+0100</time>
      </trkpt>
      <trkpt lat="47.18944" lon="4.96056">
        <ele>267.79336547852</ele>
        <time>2019-12-05T10:56:46+0100</time>
      </trkpt>
      <trkpt lat="47.18949" lon="4.96057">
        <ele>267.85321044922</ele>
        <time>2019-12-05T10:56:49+0100</time>
      </trkpt>
      <trkpt lat="47.18953" lon="4.96056">
        <ele>267.91641235352</ele>
        <time>2019-12-05T10:56:52+0100</time>
      </trkpt>
      <trkpt lat="47.18956" lon="4.96056">
        <ele>268.02139282227</ele>
        <time>2019-12-05T10:56:55+0100</time>
      </trkpt>
      <trkpt lat="47.18959" lon="4.96057">
        <ele>268.09689331055</ele>
        <time>2019-12-05T10:56:58+0100</time>
      </trkpt>
      <trkpt lat="47.18962" lon="4.96057">
        <ele>268.18280029297</ele>
        <time>2019-12-05T10:57:01+0100</time>
      </trkpt>
      <trkpt lat="47.18965" lon="4.96058">
        <ele>268.27496337891</ele>
        <time>2019-12-05T10:57:04+0100</time>
      </trkpt>
      <trkpt lat="47.18969" lon="4.9606">
        <ele>268.32440185547</ele>
        <time>2019-12-05T10:57:07+0100</time>
      </trkpt>
      <trkpt lat="47.18973" lon="4.96059">
        <ele>268.35269165039</ele>
        <time>2019-12-05T10:57:10+0100</time>
      </trkpt>
      <trkpt lat="47.18975" lon="4.9606">
        <ele>268.42886352539</ele>
        <time>2019-12-05T10:57:13+0100</time>
      </trkpt>
      <trkpt lat="47.18978" lon="4.9606">
        <ele>268.52645874023</ele>
        <time>2019-12-05T10:57:16+0100</time>
      </trkpt>
      <trkpt lat="47.18982" lon="4.96061">
        <ele>268.5615234375</ele>
        <time>2019-12-05T10:57:19+0100</time>
      </trkpt>
      <trkpt lat="47.18986" lon="4.96061">
        <ele>268.57540893555</ele>
        <time>2019-12-05T10:57:22+0100</time>
      </trkpt>
      <trkpt lat="47.1899" lon="4.9606">
        <ele>268.56530761719</ele>
        <time>2019-12-05T10:57:25+0100</time>
      </trkpt>
      <trkpt lat="47.18994" lon="4.9606">
        <ele>268.51318359375</ele>
        <time>2019-12-05T10:57:28+0100</time>
      </trkpt>
      <trkpt lat="47.18997" lon="4.9606">
        <ele>268.45114135742</ele>
        <time>2019-12-05T10:57:31+0100</time>
      </trkpt>
      <trkpt lat="47.19001" lon="4.9606">
        <ele>268.46801757812</ele>
        <time>2019-12-05T10:57:34+0100</time>
      </trkpt>
      <trkpt lat="47.19005" lon="4.9606">
        <ele>268.45016479492</ele>
        <time>2019-12-05T10:57:37+0100</time>
      </trkpt>
      <trkpt lat="47.19009" lon="4.9606">
        <ele>268.37030029297</ele>
        <time>2019-12-05T10:57:40+0100</time>
      </trkpt>
      <trkpt lat="47.19012" lon="4.96059">
        <ele>268.26705932617</ele>
        <time>2019-12-05T10:57:43+0100</time>
      </trkpt>
      <trkpt lat="47.19016" lon="4.96058">
        <ele>268.21063232422</ele>
        <time>2019-12-05T10:57:46+0100</time>
      </trkpt>
      <trkpt lat="47.19019" lon="4.96057">
        <ele>268.15060424805</ele>
        <time>2019-12-05T10:57:49+0100</time>
      </trkpt>
      <trkpt lat="47.19023" lon="4.96056">
        <ele>268.13018798828</ele>
        <time>2019-12-05T10:57:52+0100</time>
      </trkpt>
      <trkpt lat="47.19025" lon="4.96056">
        <ele>268.13815307617</ele>
        <time>2019-12-05T10:57:55+0100</time>
      </trkpt>
      <trkpt lat="47.19029" lon="4.96054">
        <ele>268.18246459961</ele>
        <time>2019-12-05T10:57:58+0100</time>
      </trkpt>
      <trkpt lat="47.19033" lon="4.96052">
        <ele>268.16998291016</ele>
        <time>2019-12-05T10:58:01+0100</time>
      </trkpt>
      <trkpt lat="47.19036" lon="4.96052">
        <ele>268.16589355469</ele>
        <time>2019-12-05T10:58:04+0100</time>
      </trkpt>
      <trkpt lat="47.19038" lon="4.96052">
        <ele>268.18270874023</ele>
        <time>2019-12-05T10:58:07+0100</time>
      </trkpt>
      <trkpt lat="47.1904" lon="4.96052">
        <ele>268.23950195312</ele>
        <time>2019-12-05T10:58:10+0100</time>
      </trkpt>
      <trkpt lat="47.19043" lon="4.96051">
        <ele>268.28100585938</ele>
        <time>2019-12-05T10:58:13+0100</time>
      </trkpt>
      <trkpt lat="47.19046" lon="4.96048">
        <ele>268.30572509766</ele>
        <time>2019-12-05T10:58:16+0100</time>
      </trkpt>
      <trkpt lat="47.19049" lon="4.96046">
        <ele>268.31228637695</ele>
        <time>2019-12-05T10:58:19+0100</time>
      </trkpt>
      <trkpt lat="47.19052" lon="4.96045">
        <ele>268.30752563477</ele>
        <time>2019-12-05T10:58:22+0100</time>
      </trkpt>
      <trkpt lat="47.19056" lon="4.96041">
        <ele>268.29260253906</ele>
        <time>2019-12-05T10:58:25+0100</time>
      </trkpt>
      <trkpt lat="47.1906" lon="4.96039">
        <ele>268.21923828125</ele>
        <time>2019-12-05T10:58:28+0100</time>
      </trkpt>
      <trkpt lat="47.19062" lon="4.96037">
        <ele>268.14755249023</ele>
        <time>2019-12-05T10:58:31+0100</time>
      </trkpt>
      <trkpt lat="47.19065" lon="4.96035">
        <ele>268.13531494141</ele>
        <time>2019-12-05T10:58:34+0100</time>
      </trkpt>
      <trkpt lat="47.19068" lon="4.96033">
        <ele>268.14215087891</ele>
        <time>2019-12-05T10:58:37+0100</time>
      </trkpt>
      <trkpt lat="47.19071" lon="4.96032">
        <ele>268.15411376953</ele>
        <time>2019-12-05T10:58:40+0100</time>
      </trkpt>
      <trkpt lat="47.19073" lon="4.9603">
        <ele>268.17764282227</ele>
        <time>2019-12-05T10:58:43+0100</time>
      </trkpt>
      <trkpt lat="47.19076" lon="4.96028">
        <ele>268.23007202148</ele>
        <time>2019-12-05T10:58:46+0100</time>
      </trkpt>
      <trkpt lat="47.19078" lon="4.96026">
        <ele>268.27224731445</ele>
        <time>2019-12-05T10:58:49+0100</time>
      </trkpt>
      <trkpt lat="47.19081" lon="4.96024">
        <ele>268.33059692383</ele>
        <time>2019-12-05T10:58:52+0100</time>
      </trkpt>
      <trkpt lat="47.19084" lon="4.96021">
        <ele>268.37420654297</ele>
        <time>2019-12-05T10:58:55+0100</time>
      </trkpt>
      <trkpt lat="47.19088" lon="4.96019">
        <ele>268.43493652344</ele>
        <time>2019-12-05T10:58:58+0100</time>
      </trkpt>
      <trkpt lat="47.19091" lon="4.96017">
        <ele>268.48297119141</ele>
        <time>2019-12-05T10:59:01+0100</time>
      </trkpt>
      <trkpt lat="47.19094" lon="4.96014">
        <ele>268.52593994141</ele>
        <time>2019-12-05T10:59:04+0100</time>
      </trkpt>
      <trkpt lat="47.19097" lon="4.96012">
        <ele>268.54180908203</ele>
        <time>2019-12-05T10:59:07+0100</time>
      </trkpt>
      <trkpt lat="47.19099" lon="4.9601">
        <ele>268.57525634766</ele>
        <time>2019-12-05T10:59:10+0100</time>
      </trkpt>
      <trkpt lat="47.19102" lon="4.96007">
        <ele>268.61596679688</ele>
        <time>2019-12-05T10:59:13+0100</time>
      </trkpt>
      <trkpt lat="47.19104" lon="4.96005">
        <ele>268.66271972656</ele>
        <time>2019-12-05T10:59:16+0100</time>
      </trkpt>
      <trkpt lat="47.19107" lon="4.96002">
        <ele>268.72039794922</ele>
        <time>2019-12-05T10:59:19+0100</time>
      </trkpt>
      <trkpt lat="47.1911" lon="4.96001">
        <ele>268.77206420898</ele>
        <time>2019-12-05T10:59:22+0100</time>
      </trkpt>
      <trkpt lat="47.19112" lon="4.95999">
        <ele>268.81729125977</ele>
        <time>2019-12-05T10:59:25+0100</time>
      </trkpt>
      <trkpt lat="47.19115" lon="4.95997">
        <ele>268.86190795898</ele>
        <time>2019-12-05T10:59:28+0100</time>
      </trkpt>
      <trkpt lat="47.19117" lon="4.95995">
        <ele>268.9296875</ele>
        <time>2019-12-05T10:59:31+0100</time>
      </trkpt>
      <trkpt lat="47.19118" lon="4.95994">
        <ele>269.01025390625</ele>
        <time>2019-12-05T10:59:34+0100</time>
      </trkpt>
      <trkpt lat="47.1912" lon="4.95992">
        <ele>269.11517333984</ele>
        <time>2019-12-05T10:59:37+0100</time>
      </trkpt>
      <trkpt lat="47.19123" lon="4.9599">
        <ele>269.23620605469</ele>
        <time>2019-12-05T10:59:40+0100</time>
      </trkpt>
      <trkpt lat="47.19126" lon="4.95988">
        <ele>269.36505126953</ele>
        <time>2019-12-05T10:59:43+0100</time>
      </trkpt>
      <trkpt lat="47.19129" lon="4.95987">
        <ele>269.50802612305</ele>
        <time>2019-12-05T10:59:46+0100</time>
      </trkpt>
      <trkpt lat="47.19133" lon="4.95986">
        <ele>269.64733886719</ele>
        <time>2019-12-05T10:59:49+0100</time>
      </trkpt>
      <trkpt lat="47.19136" lon="4.95984">
        <ele>269.80755615234</ele>
        <time>2019-12-05T10:59:52+0100</time>
      </trkpt>
      <trkpt lat="47.19139" lon="4.95983">
        <ele>269.99111938477</ele>
        <time>2019-12-05T10:59:55+0100</time>
      </trkpt>
      <trkpt lat="47.19142" lon="4.95983">
        <ele>270.17852783203</ele>
        <time>2019-12-05T10:59:58+0100</time>
      </trkpt>
      <trkpt lat="47.19146" lon="4.95983">
        <ele>270.38403320312</ele>
        <time>2019-12-05T11:00:01+0100</time>
      </trkpt>
      <trkpt lat="47.19149" lon="4.95983">
        <ele>270.60327148438</ele>
        <time>2019-12-05T11:00:04+0100</time>
      </trkpt>
      <trkpt lat="47.19152" lon="4.95983">
        <ele>270.83538818359</ele>
        <time>2019-12-05T11:00:07+0100</time>
      </trkpt>
      <trkpt lat="47.19155" lon="4.95983">
        <ele>271.07278442383</ele>
        <time>2019-12-05T11:00:10+0100</time>
      </trkpt>
      <trkpt lat="47.19158" lon="4.95983">
        <ele>271.29650878906</ele>
        <time>2019-12-05T11:00:13+0100</time>
      </trkpt>
      <trkpt lat="47.19161" lon="4.95984">
        <ele>271.44165039062</ele>
        <time>2019-12-05T11:00:16+0100</time>
      </trkpt>
      <trkpt lat="47.19163" lon="4.95984">
        <ele>271.62384033203</ele>
        <time>2019-12-05T11:00:19+0100</time>
      </trkpt>
      <trkpt lat="47.19165" lon="4.95985">
        <ele>271.80267333984</ele>
        <time>2019-12-05T11:00:22+0100</time>
      </trkpt>
      <trkpt lat="47.19168" lon="4.95985">
        <ele>271.99325561523</ele>
        <time>2019-12-05T11:00:25+0100</time>
      </trkpt>
      <trkpt lat="47.19172" lon="4.95985">
        <ele>272.20492553711</ele>
        <time>2019-12-05T11:00:28+0100</time>
      </trkpt>
      <trkpt lat="47.19175" lon="4.95986">
        <ele>272.41525268555</ele>
        <time>2019-12-05T11:00:31+0100</time>
      </trkpt>
      <trkpt lat="47.19178" lon="4.95987">
        <ele>272.64935302734</ele>
        <time>2019-12-05T11:00:34+0100</time>
      </trkpt>
      <trkpt lat="47.1918" lon="4.95987">
        <ele>272.92889404297</ele>
        <time>2019-12-05T11:00:37+0100</time>
      </trkpt>
      <trkpt lat="47.19182" lon="4.95987">
        <ele>273.25280761719</ele>
        <time>2019-12-05T11:00:40+0100</time>
      </trkpt>
      <trkpt lat="47.19185" lon="4.95988">
        <ele>273.58309936523</ele>
        <time>2019-12-05T11:00:43+0100</time>
      </trkpt>
      <trkpt lat="47.19188" lon="4.95988">
        <ele>273.93371582031</ele>
        <time>2019-12-05T11:00:46+0100</time>
      </trkpt>
      <trkpt lat="47.19192" lon="4.95988">
        <ele>274.27874755859</ele>
        <time>2019-12-05T11:00:49+0100</time>
      </trkpt>
      <trkpt lat="47.19195" lon="4.95989">
        <ele>274.61221313477</ele>
        <time>2019-12-05T11:00:52+0100</time>
      </trkpt>
      <trkpt lat="47.19198" lon="4.95991">
        <ele>274.93298339844</ele>
        <time>2019-12-05T11:00:55+0100</time>
      </trkpt>
      <trkpt lat="47.19202" lon="4.95992">
        <ele>275.23107910156</ele>
        <time>2019-12-05T11:00:58+0100</time>
      </trkpt>
      <trkpt lat="47.19205" lon="4.95993">
        <ele>275.49475097656</ele>
        <time>2019-12-05T11:01:01+0100</time>
      </trkpt>
      <trkpt lat="47.19208" lon="4.95994">
        <ele>275.73516845703</ele>
        <time>2019-12-05T11:01:04+0100</time>
      </trkpt>
      <trkpt lat="47.19211" lon="4.95995">
        <ele>275.95986938477</ele>
        <time>2019-12-05T11:01:07+0100</time>
      </trkpt>
      <trkpt lat="47.19215" lon="4.95996">
        <ele>276.15985107422</ele>
        <time>2019-12-05T11:01:10+0100</time>
      </trkpt>
      <trkpt lat="47.19218" lon="4.95996">
        <ele>276.35556030273</ele>
        <time>2019-12-05T11:01:13+0100</time>
      </trkpt>
      <trkpt lat="47.19222" lon="4.95995">
        <ele>276.53939819336</ele>
        <time>2019-12-05T11:01:16+0100</time>
      </trkpt>
      <trkpt lat="47.19225" lon="4.95995">
        <ele>276.70361328125</ele>
        <time>2019-12-05T11:01:19+0100</time>
      </trkpt>
      <trkpt lat="47.19229" lon="4.95997">
        <ele>276.85070800781</ele>
        <time>2019-12-05T11:01:22+0100</time>
      </trkpt>
      <trkpt lat="47.19232" lon="4.95997">
        <ele>276.98147583008</ele>
        <time>2019-12-05T11:01:25+0100</time>
      </trkpt>
      <trkpt lat="47.19235" lon="4.95998">
        <ele>277.11166381836</ele>
        <time>2019-12-05T11:01:28+0100</time>
      </trkpt>
      <trkpt lat="47.19238" lon="4.95998">
        <ele>277.2253112793</ele>
        <time>2019-12-05T11:01:31+0100</time>
      </trkpt>
      <trkpt lat="47.19241" lon="4.95999">
        <ele>277.31802368164</ele>
        <time>2019-12-05T11:01:34+0100</time>
      </trkpt>
      <trkpt lat="47.19244" lon="4.95999">
        <ele>277.38824462891</ele>
        <time>2019-12-05T11:01:37+0100</time>
      </trkpt>
      <trkpt lat="47.19247" lon="4.95998">
        <ele>277.43563842773</ele>
        <time>2019-12-05T11:01:40+0100</time>
      </trkpt>
      <trkpt lat="47.1925" lon="4.95999">
        <ele>277.46823120117</ele>
        <time>2019-12-05T11:01:43+0100</time>
      </trkpt>
      <trkpt lat="47.19253" lon="4.95999">
        <ele>277.48959350586</ele>
        <time>2019-12-05T11:01:46+0100</time>
      </trkpt>
      <trkpt lat="47.19256" lon="4.95998">
        <ele>277.48989868164</ele>
        <time>2019-12-05T11:01:49+0100</time>
      </trkpt>
      <trkpt lat="47.19259" lon="4.95998">
        <ele>277.4602355957</ele>
        <time>2019-12-05T11:01:52+0100</time>
      </trkpt>
      <trkpt lat="47.19262" lon="4.95999">
        <ele>277.40393066406</ele>
        <time>2019-12-05T11:01:55+0100</time>
      </trkpt>
      <trkpt lat="47.19265" lon="4.96">
        <ele>277.32232666016</ele>
        <time>2019-12-05T11:01:58+0100</time>
      </trkpt>
      <trkpt lat="47.19268" lon="4.96">
        <ele>277.21658325195</ele>
        <time>2019-12-05T11:02:01+0100</time>
      </trkpt>
      <trkpt lat="47.1927" lon="4.96">
        <ele>277.09414672852</ele>
        <time>2019-12-05T11:02:04+0100</time>
      </trkpt>
      <trkpt lat="47.19273" lon="4.96002">
        <ele>276.95651245117</ele>
        <time>2019-12-05T11:02:07+0100</time>
      </trkpt>
      <trkpt lat="47.19276" lon="4.96003">
        <ele>276.80722045898</ele>
        <time>2019-12-05T11:02:10+0100</time>
      </trkpt>
      <trkpt lat="47.1928" lon="4.96004">
        <ele>276.62698364258</ele>
        <time>2019-12-05T11:02:13+0100</time>
      </trkpt>
      <trkpt lat="47.19282" lon="4.96005">
        <ele>276.46154785156</ele>
        <time>2019-12-05T11:02:16+0100</time>
      </trkpt>
      <trkpt lat="47.19285" lon="4.96006">
        <ele>276.2698059082</ele>
        <time>2019-12-05T11:02:19+0100</time>
      </trkpt>
      <trkpt lat="47.19288" lon="4.96007">
        <ele>276.06866455078</ele>
        <time>2019-12-05T11:02:22+0100</time>
      </trkpt>
      <trkpt lat="47.19291" lon="4.96008">
        <ele>275.87127685547</ele>
        <time>2019-12-05T11:02:25+0100</time>
      </trkpt>
      <trkpt lat="47.19295" lon="4.96009">
        <ele>275.67196655273</ele>
        <time>2019-12-05T11:02:28+0100</time>
      </trkpt>
      <trkpt lat="47.19298" lon="4.9601">
        <ele>275.47583007812</ele>
        <time>2019-12-05T11:02:31+0100</time>
      </trkpt>
      <trkpt lat="47.193" lon="4.96011">
        <ele>275.29931640625</ele>
        <time>2019-12-05T11:02:34+0100</time>
      </trkpt>
      <trkpt lat="47.19303" lon="4.96012">
        <ele>275.12084960938</ele>
        <time>2019-12-05T11:02:37+0100</time>
      </trkpt>
      <trkpt lat="47.19306" lon="4.96014">
        <ele>274.94354248047</ele>
        <time>2019-12-05T11:02:40+0100</time>
      </trkpt>
      <trkpt lat="47.19309" lon="4.96016">
        <ele>274.78436279297</ele>
        <time>2019-12-05T11:02:43+0100</time>
      </trkpt>
      <trkpt lat="47.19312" lon="4.96018">
        <ele>274.65756225586</ele>
        <time>2019-12-05T11:02:46+0100</time>
      </trkpt>
      <trkpt lat="47.19315" lon="4.9602">
        <ele>274.56484985352</ele>
        <time>2019-12-05T11:02:49+0100</time>
      </trkpt>
      <trkpt lat="47.19318" lon="4.96022">
        <ele>274.50521850586</ele>
        <time>2019-12-05T11:02:52+0100</time>
      </trkpt>
      <trkpt lat="47.19321" lon="4.96024">
        <ele>274.45568847656</ele>
        <time>2019-12-05T11:02:55+0100</time>
      </trkpt>
      <trkpt lat="47.19324" lon="4.96026">
        <ele>274.40289306641</ele>
        <time>2019-12-05T11:02:58+0100</time>
      </trkpt>
      <trkpt lat="47.19327" lon="4.96029">
        <ele>274.34613037109</ele>
        <time>2019-12-05T11:03:01+0100</time>
      </trkpt>
      <trkpt lat="47.1933" lon="4.9603">
        <ele>274.29721069336</ele>
        <time>2019-12-05T11:03:04+0100</time>
      </trkpt>
      <trkpt lat="47.19333" lon="4.96033">
        <ele>274.24685668945</ele>
        <time>2019-12-05T11:03:07+0100</time>
      </trkpt>
      <trkpt lat="47.19335" lon="4.96035">
        <ele>274.19479370117</ele>
        <time>2019-12-05T11:03:10+0100</time>
      </trkpt>
      <trkpt lat="47.19338" lon="4.96037">
        <ele>274.11978149414</ele>
        <time>2019-12-05T11:03:13+0100</time>
      </trkpt>
      <trkpt lat="47.19341" lon="4.96039">
        <ele>274.01693725586</ele>
        <time>2019-12-05T11:03:16+0100</time>
      </trkpt>
      <trkpt lat="47.19344" lon="4.96041">
        <ele>273.86712646484</ele>
        <time>2019-12-05T11:03:19+0100</time>
      </trkpt>
      <trkpt lat="47.19347" lon="4.96042">
        <ele>273.70071411133</ele>
        <time>2019-12-05T11:03:22+0100</time>
      </trkpt>
      <trkpt lat="47.1935" lon="4.96044">
        <ele>273.50149536133</ele>
        <time>2019-12-05T11:03:25+0100</time>
      </trkpt>
      <trkpt lat="47.19352" lon="4.96047">
        <ele>273.29019165039</ele>
        <time>2019-12-05T11:03:28+0100</time>
      </trkpt>
      <trkpt lat="47.19353" lon="4.9605">
        <ele>273.05288696289</ele>
        <time>2019-12-05T11:03:31+0100</time>
      </trkpt>
      <trkpt lat="47.19356" lon="4.96051">
        <ele>272.81204223633</ele>
        <time>2019-12-05T11:03:34+0100</time>
      </trkpt>
      <trkpt lat="47.19359" lon="4.96052">
        <ele>272.55810546875</ele>
        <time>2019-12-05T11:03:37+0100</time>
      </trkpt>
      <trkpt lat="47.19362" lon="4.96055">
        <ele>272.29830932617</ele>
        <time>2019-12-05T11:03:40+0100</time>
      </trkpt>
      <trkpt lat="47.19365" lon="4.96057">
        <ele>272.03274536133</ele>
        <time>2019-12-05T11:03:43+0100</time>
      </trkpt>
      <trkpt lat="47.19368" lon="4.96059">
        <ele>271.75473022461</ele>
        <time>2019-12-05T11:03:46+0100</time>
      </trkpt>
      <trkpt lat="47.19371" lon="4.9606">
        <ele>271.4807434082</ele>
        <time>2019-12-05T11:03:49+0100</time>
      </trkpt>
      <trkpt lat="47.19374" lon="4.96061">
        <ele>271.21575927734</ele>
        <time>2019-12-05T11:03:52+0100</time>
      </trkpt>
      <trkpt lat="47.19376" lon="4.96062">
        <ele>270.96853637695</ele>
        <time>2019-12-05T11:03:55+0100</time>
      </trkpt>
      <trkpt lat="47.19378" lon="4.96064">
        <ele>270.75909423828</ele>
        <time>2019-12-05T11:03:58+0100</time>
      </trkpt>
      <trkpt lat="47.1938" lon="4.96065">
        <ele>270.59338378906</ele>
        <time>2019-12-05T11:04:01+0100</time>
      </trkpt>
      <trkpt lat="47.19382" lon="4.96067">
        <ele>270.48229980469</ele>
        <time>2019-12-05T11:04:04+0100</time>
      </trkpt>
      <trkpt lat="47.19384" lon="4.96068">
        <ele>270.42144775391</ele>
        <time>2019-12-05T11:04:07+0100</time>
      </trkpt>
      <trkpt lat="47.19386" lon="4.96071">
        <ele>270.37185668945</ele>
        <time>2019-12-05T11:04:10+0100</time>
      </trkpt>
      <trkpt lat="47.19388" lon="4.96073">
        <ele>270.38543701172</ele>
        <time>2019-12-05T11:04:13+0100</time>
      </trkpt>
      <trkpt lat="47.19391" lon="4.96075">
        <ele>270.40872192383</ele>
        <time>2019-12-05T11:04:16+0100</time>
      </trkpt>
      <trkpt lat="47.19394" lon="4.96076">
        <ele>270.40960693359</ele>
        <time>2019-12-05T11:04:19+0100</time>
      </trkpt>
      <trkpt lat="47.19397" lon="4.96078">
        <ele>270.34497070312</ele>
        <time>2019-12-05T11:04:22+0100</time>
      </trkpt>
      <trkpt lat="47.194" lon="4.96079">
        <ele>270.27340698242</ele>
        <time>2019-12-05T11:04:25+0100</time>
      </trkpt>
      <trkpt lat="47.19403" lon="4.9608">
        <ele>270.23150634766</ele>
        <time>2019-12-05T11:04:28+0100</time>
      </trkpt>
      <trkpt lat="47.19406" lon="4.96083">
        <ele>270.18017578125</ele>
        <time>2019-12-05T11:04:31+0100</time>
      </trkpt>
      <trkpt lat="47.19409" lon="4.96085">
        <ele>270.11743164062</ele>
        <time>2019-12-05T11:04:34+0100</time>
      </trkpt>
      <trkpt lat="47.19412" lon="4.96086">
        <ele>270.02255249023</ele>
        <time>2019-12-05T11:04:37+0100</time>
      </trkpt>
      <trkpt lat="47.19414" lon="4.96087">
        <ele>269.90533447266</ele>
        <time>2019-12-05T11:04:40+0100</time>
      </trkpt>
      <trkpt lat="47.19417" lon="4.96088">
        <ele>269.84463500977</ele>
        <time>2019-12-05T11:04:43+0100</time>
      </trkpt>
      <trkpt lat="47.19419" lon="4.96089">
        <ele>269.814453125</ele>
        <time>2019-12-05T11:04:46+0100</time>
      </trkpt>
      <trkpt lat="47.19422" lon="4.96091">
        <ele>269.81015014648</ele>
        <time>2019-12-05T11:04:49+0100</time>
      </trkpt>
      <trkpt lat="47.19426" lon="4.96094">
        <ele>269.76446533203</ele>
        <time>2019-12-05T11:04:52+0100</time>
      </trkpt>
      <trkpt lat="47.19428" lon="4.96095">
        <ele>269.63735961914</ele>
        <time>2019-12-05T11:04:55+0100</time>
      </trkpt>
      <trkpt lat="47.19431" lon="4.96097">
        <ele>269.52136230469</ele>
        <time>2019-12-05T11:04:58+0100</time>
      </trkpt>
      <trkpt lat="47.19435" lon="4.961">
        <ele>269.33554077148</ele>
        <time>2019-12-05T11:05:01+0100</time>
      </trkpt>
      <trkpt lat="47.19437" lon="4.96101">
        <ele>269.16271972656</ele>
        <time>2019-12-05T11:05:04+0100</time>
      </trkpt>
      <trkpt lat="47.1944" lon="4.96104">
        <ele>268.98138427734</ele>
        <time>2019-12-05T11:05:07+0100</time>
      </trkpt>
      <trkpt lat="47.19443" lon="4.96106">
        <ele>268.79098510742</ele>
        <time>2019-12-05T11:05:10+0100</time>
      </trkpt>
      <trkpt lat="47.19445" lon="4.96107">
        <ele>268.60391235352</ele>
        <time>2019-12-05T11:05:13+0100</time>
      </trkpt>
      <trkpt lat="47.19448" lon="4.96109">
        <ele>268.44348144531</ele>
        <time>2019-12-05T11:05:16+0100</time>
      </trkpt>
      <trkpt lat="47.1945" lon="4.9611">
        <ele>268.31567382812</ele>
        <time>2019-12-05T11:05:19+0100</time>
      </trkpt>
      <trkpt lat="47.19453" lon="4.96111">
        <ele>268.21667480469</ele>
        <time>2019-12-05T11:05:22+0100</time>
      </trkpt>
      <trkpt lat="47.19455" lon="4.96112">
        <ele>268.13580322266</ele>
        <time>2019-12-05T11:05:25+0100</time>
      </trkpt>
      <trkpt lat="47.19458" lon="4.96114">
        <ele>268.02453613281</ele>
        <time>2019-12-05T11:05:28+0100</time>
      </trkpt>
      <trkpt lat="47.19461" lon="4.96115">
        <ele>267.89215087891</ele>
        <time>2019-12-05T11:05:31+0100</time>
      </trkpt>
      <trkpt lat="47.19464" lon="4.96117">
        <ele>267.74542236328</ele>
        <time>2019-12-05T11:05:34+0100</time>
      </trkpt>
      <trkpt lat="47.19467" lon="4.96118">
        <ele>267.56903076172</ele>
        <time>2019-12-05T11:05:37+0100</time>
      </trkpt>
      <trkpt lat="47.1947" lon="4.9612">
        <ele>267.3376159668</ele>
        <time>2019-12-05T11:05:40+0100</time>
      </trkpt>
      <trkpt lat="47.19472" lon="4.96122">
        <ele>267.12615966797</ele>
        <time>2019-12-05T11:05:43+0100</time>
      </trkpt>
      <trkpt lat="47.19474" lon="4.96123">
        <ele>267.0673828125</ele>
        <time>2019-12-05T11:05:46+0100</time>
      </trkpt>
      <trkpt lat="47.19477" lon="4.96124">
        <ele>267.10369873047</ele>
        <time>2019-12-05T11:05:49+0100</time>
      </trkpt>
      <trkpt lat="47.1948" lon="4.96126">
        <ele>267.15274047852</ele>
        <time>2019-12-05T11:05:52+0100</time>
      </trkpt>
      <trkpt lat="47.19483" lon="4.96131">
        <ele>267.15374755859</ele>
        <time>2019-12-05T11:05:55+0100</time>
      </trkpt>
      <trkpt lat="47.19486" lon="4.96135">
        <ele>267.09790039062</ele>
        <time>2019-12-05T11:05:58+0100</time>
      </trkpt>
      <trkpt lat="47.19489" lon="4.96138">
        <ele>267.00415039062</ele>
        <time>2019-12-05T11:06:01+0100</time>
      </trkpt>
      <trkpt lat="47.19491" lon="4.96141">
        <ele>266.89617919922</ele>
        <time>2019-12-05T11:06:04+0100</time>
      </trkpt>
      <trkpt lat="47.19494" lon="4.96143">
        <ele>266.81503295898</ele>
        <time>2019-12-05T11:06:07+0100</time>
      </trkpt>
      <trkpt lat="47.19497" lon="4.96145">
        <ele>266.72973632812</ele>
        <time>2019-12-05T11:06:10+0100</time>
      </trkpt>
      <trkpt lat="47.195" lon="4.96147">
        <ele>266.64367675781</ele>
        <time>2019-12-05T11:06:13+0100</time>
      </trkpt>
      <trkpt lat="47.19502" lon="4.96148">
        <ele>266.59954833984</ele>
        <time>2019-12-05T11:06:16+0100</time>
      </trkpt>
      <trkpt lat="47.19505" lon="4.9615">
        <ele>266.57489013672</ele>
        <time>2019-12-05T11:06:19+0100</time>
      </trkpt>
      <trkpt lat="47.19508" lon="4.96152">
        <ele>266.5842590332</ele>
        <time>2019-12-05T11:06:22+0100</time>
      </trkpt>
      <trkpt lat="47.19511" lon="4.96155">
        <ele>266.61071777344</ele>
        <time>2019-12-05T11:06:25+0100</time>
      </trkpt>
      <trkpt lat="47.19513" lon="4.96157">
        <ele>266.65716552734</ele>
        <time>2019-12-05T11:06:28+0100</time>
      </trkpt>
      <trkpt lat="47.19516" lon="4.96159">
        <ele>266.77963256836</ele>
        <time>2019-12-05T11:06:31+0100</time>
      </trkpt>
      <trkpt lat="47.19519" lon="4.96162">
        <ele>266.93441772461</ele>
        <time>2019-12-05T11:06:34+0100</time>
      </trkpt>
      <trkpt lat="47.19522" lon="4.96165">
        <ele>267.06912231445</ele>
        <time>2019-12-05T11:06:37+0100</time>
      </trkpt>
      <trkpt lat="47.19524" lon="4.96166">
        <ele>267.18084716797</ele>
        <time>2019-12-05T11:06:40+0100</time>
      </trkpt>
      <trkpt lat="47.19526" lon="4.96169">
        <ele>267.29022216797</ele>
        <time>2019-12-05T11:06:43+0100</time>
      </trkpt>
      <trkpt lat="47.19529" lon="4.96172">
        <ele>267.35711669922</ele>
        <time>2019-12-05T11:06:46+0100</time>
      </trkpt>
      <trkpt lat="47.19532" lon="4.96174">
        <ele>267.3994140625</ele>
        <time>2019-12-05T11:06:49+0100</time>
      </trkpt>
      <trkpt lat="47.19533" lon="4.96174">
        <ele>267.43212890625</ele>
        <time>2019-12-05T11:06:52+0100</time>
      </trkpt>
      <trkpt lat="47.19534" lon="4.96175">
        <ele>267.46755981445</ele>
        <time>2019-12-05T11:06:55+0100</time>
      </trkpt>
      <trkpt lat="47.19536" lon="4.96175">
        <ele>267.49301147461</ele>
        <time>2019-12-05T11:06:58+0100</time>
      </trkpt>
      <trkpt lat="47.19536" lon="4.96175">
        <ele>267.55560302734</ele>
        <time>2019-12-05T11:07:01+0100</time>
      </trkpt>
      <trkpt lat="47.19536" lon="4.96173">
        <ele>267.61956787109</ele>
        <time>2019-12-05T11:07:04+0100</time>
      </trkpt>
      <trkpt lat="47.19536" lon="4.96173">
        <ele>267.64468383789</ele>
        <time>2019-12-05T11:07:07+0100</time>
      </trkpt>
      <trkpt lat="47.19535" lon="4.96172">
        <ele>267.88284301758</ele>
        <time>2019-12-05T11:07:10+0100</time>
      </trkpt>
      <trkpt lat="47.19536" lon="4.96171">
        <ele>268.13516235352</ele>
        <time>2019-12-05T11:07:13+0100</time>
      </trkpt>
      <trkpt lat="47.19537" lon="4.96172">
        <ele>268.17105102539</ele>
        <time>2019-12-05T11:07:16+0100</time>
      </trkpt>
      <trkpt lat="47.19537" lon="4.96172">
        <ele>268.20895385742</ele>
        <time>2019-12-05T11:07:19+0100</time>
      </trkpt>
      <trkpt lat="47.19537" lon="4.96172">
        <ele>268.25247192383</ele>
        <time>2019-12-05T11:07:22+0100</time>
      </trkpt>
      <trkpt lat="47.19537" lon="4.96172">
        <ele>268.30258178711</ele>
        <time>2019-12-05T11:07:25+0100</time>
      </trkpt>
      <trkpt lat="47.19537" lon="4.96172">
        <ele>268.359375</ele>
        <time>2019-12-05T11:07:28+0100</time>
      </trkpt>
      <trkpt lat="47.19536" lon="4.96172">
        <ele>268.42114257812</ele>
        <time>2019-12-05T11:07:31+0100</time>
      </trkpt>
      <trkpt lat="47.19536" lon="4.96172">
        <ele>268.4899597168</ele>
        <time>2019-12-05T11:07:34+0100</time>
      </trkpt>
      <trkpt lat="47.19536" lon="4.96171">
        <ele>268.56536865234</ele>
        <time>2019-12-05T11:07:37+0100</time>
      </trkpt>
      <trkpt lat="47.19536" lon="4.96171">
        <ele>268.646484375</ele>
        <time>2019-12-05T11:07:40+0100</time>
      </trkpt>
      <trkpt lat="47.19536" lon="4.96171">
        <ele>268.73239135742</ele>
        <time>2019-12-05T11:07:43+0100</time>
      </trkpt>
      <trkpt lat="47.19536" lon="4.96171">
        <ele>268.82208251953</ele>
        <time>2019-12-05T11:07:46+0100</time>
      </trkpt>
      <trkpt lat="47.19536" lon="4.9617">
        <ele>268.91375732422</ele>
        <time>2019-12-05T11:07:49+0100</time>
      </trkpt>
      <trkpt lat="47.19536" lon="4.9617">
        <ele>269.0026550293</ele>
        <time>2019-12-05T11:07:52+0100</time>
      </trkpt>
      <trkpt lat="47.19535" lon="4.96169">
        <ele>269.09048461914</ele>
        <time>2019-12-05T11:07:55+0100</time>
      </trkpt>
      <trkpt lat="47.19535" lon="4.96171">
        <ele>269.94171142578</ele>
        <time>2019-12-05T11:07:58+0100</time>
      </trkpt>
      <trkpt lat="47.19537" lon="4.96173">
        <ele>270.73559570312</ele>
        <time>2019-12-05T11:08:01+0100</time>
      </trkpt>
      <trkpt lat="47.19539" lon="4.96175">
        <ele>271.48028564453</ele>
        <time>2019-12-05T11:08:04+0100</time>
      </trkpt>
      <trkpt lat="47.1954" lon="4.96176">
        <ele>271.77438354492</ele>
        <time>2019-12-05T11:08:07+0100</time>
      </trkpt>
      <trkpt lat="47.1954" lon="4.96177">
        <ele>272.27172851562</ele>
        <time>2019-12-05T11:08:10+0100</time>
      </trkpt>
      <trkpt lat="47.1954" lon="4.96177">
        <ele>272.53671264648</ele>
        <time>2019-12-05T11:08:13+0100</time>
      </trkpt>
      <trkpt lat="47.19539" lon="4.96176">
        <ele>272.60006713867</ele>
        <time>2019-12-05T11:08:16+0100</time>
      </trkpt>
      <trkpt lat="47.19538" lon="4.96175">
        <ele>272.8479309082</ele>
        <time>2019-12-05T11:08:19+0100</time>
      </trkpt>
      <trkpt lat="47.19538" lon="4.96174">
        <ele>273.22454833984</ele>
        <time>2019-12-05T11:08:22+0100</time>
      </trkpt>
      <trkpt lat="47.19537" lon="4.96173">
        <ele>273.27798461914</ele>
        <time>2019-12-05T11:08:25+0100</time>
      </trkpt>
      <trkpt lat="47.19537" lon="4.96173">
        <ele>273.33395385742</ele>
        <time>2019-12-05T11:08:28+0100</time>
      </trkpt>
      <trkpt lat="47.19537" lon="4.96173">
        <ele>273.38928222656</ele>
        <time>2019-12-05T11:08:31+0100</time>
      </trkpt>
      <trkpt lat="47.19534" lon="4.96169">
        <ele>275.66748046875</ele>
        <time>2019-12-05T11:08:36+0100</time>
      </trkpt>
      <trkpt lat="47.19535" lon="4.9617">
        <ele>275.95132446289</ele>
        <time>2019-12-05T11:08:39+0100</time>
      </trkpt>
      <trkpt lat="47.19538" lon="4.96172">
        <ele>276.10113525391</ele>
        <time>2019-12-05T11:08:42+0100</time>
      </trkpt>
      <trkpt lat="47.19539" lon="4.96173">
        <ele>276.1383972168</ele>
        <time>2019-12-05T11:08:45+0100</time>
      </trkpt>
      <trkpt lat="47.19539" lon="4.96173">
        <ele>276.17465209961</ele>
        <time>2019-12-05T11:08:48+0100</time>
      </trkpt>
      <trkpt lat="47.19543" lon="4.96175">
        <ele>276.25598144531</ele>
        <time>2019-12-05T11:08:55+0100</time>
      </trkpt>
      <trkpt lat="47.19539" lon="4.96173">
        <ele>276.69897460938</ele>
        <time>2019-12-05T11:09:00+0100</time>
      </trkpt>
      <trkpt lat="47.19532" lon="4.96173">
        <ele>280.9836730957</ele>
        <time>2019-12-05T11:09:24+0100</time>
      </trkpt>
      <trkpt lat="47.19519" lon="4.96197">
        <ele>282.84677124023</ele>
        <time>2019-12-05T11:10:31+0100</time>
      </trkpt>
      <trkpt lat="47.19518" lon="4.96201">
        <ele>282.47848510742</ele>
        <time>2019-12-05T11:10:36+0100</time>
      </trkpt>
      <trkpt lat="47.19519" lon="4.962">
        <ele>282.17639160156</ele>
        <time>2019-12-05T11:10:42+0100</time>
      </trkpt>
      <trkpt lat="47.19523" lon="4.96201">
        <ele>281.62200927734</ele>
        <time>2019-12-05T11:10:51+0100</time>
      </trkpt>
      <trkpt lat="47.19523" lon="4.96209">
        <ele>280.26690673828</ele>
        <time>2019-12-05T11:11:02+0100</time>
      </trkpt>
      <trkpt lat="47.19521" lon="4.96205">
        <ele>279.91061401367</ele>
        <time>2019-12-05T11:11:09+0100</time>
      </trkpt>
      <trkpt lat="47.19517" lon="4.96201">
        <ele>279.70510864258</ele>
        <time>2019-12-05T11:11:12+0100</time>
      </trkpt>
      <trkpt lat="47.19515" lon="4.962">
        <ele>279.47543334961</ele>
        <time>2019-12-05T11:11:15+0100</time>
      </trkpt>
      <trkpt lat="47.19518" lon="4.96205">
        <ele>279.2956237793</ele>
        <time>2019-12-05T11:11:18+0100</time>
      </trkpt>
      <trkpt lat="47.19524" lon="4.96212">
        <ele>279.27996826172</ele>
        <time>2019-12-05T11:11:21+0100</time>
      </trkpt>
      <trkpt lat="47.19523" lon="4.96212">
        <ele>279.26043701172</ele>
        <time>2019-12-05T11:11:24+0100</time>
      </trkpt>
      <trkpt lat="47.19525" lon="4.96214">
        <ele>279.23892211914</ele>
        <time>2019-12-05T11:11:27+0100</time>
      </trkpt>
      <trkpt lat="47.19521" lon="4.96211">
        <ele>278.10021972656</ele>
        <time>2019-12-05T11:11:37+0100</time>
      </trkpt>
      <trkpt lat="47.19521" lon="4.96211">
        <ele>278.06402587891</ele>
        <time>2019-12-05T11:11:40+0100</time>
      </trkpt>
      <trkpt lat="47.1952" lon="4.9621">
        <ele>278.02725219727</ele>
        <time>2019-12-05T11:11:43+0100</time>
      </trkpt>
      <trkpt lat="47.19518" lon="4.96209">
        <ele>277.62283325195</ele>
        <time>2019-12-05T11:11:47+0100</time>
      </trkpt>
      <trkpt lat="47.19521" lon="4.96207">
        <ele>270.96728515625</ele>
        <time>2019-12-05T11:12:12+0100</time>
      </trkpt>
      <trkpt lat="47.19528" lon="4.96209">
        <ele>270.04296875</ele>
        <time>2019-12-05T11:12:20+0100</time>
      </trkpt>
      <trkpt lat="47.19551" lon="4.96239">
        <ele>269.48797607422</ele>
        <time>2019-12-05T11:12:31+0100</time>
      </trkpt>
      <trkpt lat="47.19551" lon="4.96212">
        <ele>268.26419067383</ele>
        <time>2019-12-05T11:12:34+0100</time>
      </trkpt>
      <trkpt lat="47.19544" lon="4.96197">
        <ele>267.98388671875</ele>
        <time>2019-12-05T11:12:37+0100</time>
      </trkpt>
      <trkpt lat="47.19543" lon="4.96193">
        <ele>267.90768432617</ele>
        <time>2019-12-05T11:12:40+0100</time>
      </trkpt>
      <trkpt lat="47.19542" lon="4.96193">
        <ele>267.89239501953</ele>
        <time>2019-12-05T11:12:43+0100</time>
      </trkpt>
      <trkpt lat="47.19542" lon="4.96193">
        <ele>267.88333129883</ele>
        <time>2019-12-05T11:12:46+0100</time>
      </trkpt>
      <trkpt lat="47.19542" lon="4.96193">
        <ele>267.89486694336</ele>
        <time>2019-12-05T11:12:49+0100</time>
      </trkpt>
      <trkpt lat="47.19542" lon="4.96191">
        <ele>267.92816162109</ele>
        <time>2019-12-05T11:12:52+0100</time>
      </trkpt>
      <trkpt lat="47.19542" lon="4.9619">
        <ele>267.98321533203</ele>
        <time>2019-12-05T11:12:55+0100</time>
      </trkpt>
      <trkpt lat="47.19541" lon="4.96189">
        <ele>268.36294555664</ele>
        <time>2019-12-05T11:12:58+0100</time>
      </trkpt>
      <trkpt lat="47.19541" lon="4.96186">
        <ele>268.66131591797</ele>
        <time>2019-12-05T11:13:01+0100</time>
      </trkpt>
      <trkpt lat="47.19542" lon="4.96184">
        <ele>268.90277099609</ele>
        <time>2019-12-05T11:13:04+0100</time>
      </trkpt>
      <trkpt lat="47.19542" lon="4.96183">
        <ele>268.93447875977</ele>
        <time>2019-12-05T11:13:07+0100</time>
      </trkpt>
      <trkpt lat="47.19542" lon="4.96182">
        <ele>269.06558227539</ele>
        <time>2019-12-05T11:13:10+0100</time>
      </trkpt>
      <trkpt lat="47.19543" lon="4.96183">
        <ele>269.19616699219</ele>
        <time>2019-12-05T11:13:13+0100</time>
      </trkpt>
      <trkpt lat="47.19543" lon="4.96185">
        <ele>269.32592773438</ele>
        <time>2019-12-05T11:13:16+0100</time>
      </trkpt>
      <trkpt lat="47.19544" lon="4.96185">
        <ele>269.35388183594</ele>
        <time>2019-12-05T11:13:19+0100</time>
      </trkpt>
      <trkpt lat="47.19544" lon="4.96185">
        <ele>269.37219238281</ele>
        <time>2019-12-05T11:13:22+0100</time>
      </trkpt>
      <trkpt lat="47.19544" lon="4.96185">
        <ele>269.38494873047</ele>
        <time>2019-12-05T11:13:25+0100</time>
      </trkpt>
      <trkpt lat="47.19544" lon="4.96184">
        <ele>269.39938354492</ele>
        <time>2019-12-05T11:13:28+0100</time>
      </trkpt>
      <trkpt lat="47.19546" lon="4.96183">
        <ele>269.4264831543</ele>
        <time>2019-12-05T11:13:31+0100</time>
      </trkpt>
      <trkpt lat="47.19546" lon="4.96184">
        <ele>269.53173828125</ele>
        <time>2019-12-05T11:13:34+0100</time>
      </trkpt>
      <trkpt lat="47.19548" lon="4.96186">
        <ele>269.74374389648</ele>
        <time>2019-12-05T11:13:37+0100</time>
      </trkpt>
      <trkpt lat="47.1955" lon="4.96187">
        <ele>269.90475463867</ele>
        <time>2019-12-05T11:13:40+0100</time>
      </trkpt>
      <trkpt lat="47.1955" lon="4.96188">
        <ele>270.08337402344</ele>
        <time>2019-12-05T11:13:43+0100</time>
      </trkpt>
      <trkpt lat="47.19549" lon="4.96189">
        <ele>270.13989257812</ele>
        <time>2019-12-05T11:13:46+0100</time>
      </trkpt>
      <trkpt lat="47.1955" lon="4.96191">
        <ele>270.26010131836</ele>
        <time>2019-12-05T11:13:49+0100</time>
      </trkpt>
      <trkpt lat="47.1955" lon="4.96195">
        <ele>270.4045715332</ele>
        <time>2019-12-05T11:13:52+0100</time>
      </trkpt>
      <trkpt lat="47.19551" lon="4.96198">
        <ele>270.49163818359</ele>
        <time>2019-12-05T11:13:55+0100</time>
      </trkpt>
      <trkpt lat="47.19553" lon="4.962">
        <ele>270.70776367188</ele>
        <time>2019-12-05T11:13:58+0100</time>
      </trkpt>
      <trkpt lat="47.19555" lon="4.96202">
        <ele>270.85006713867</ele>
        <time>2019-12-05T11:14:01+0100</time>
      </trkpt>
      <trkpt lat="47.19556" lon="4.96205">
        <ele>271.06900024414</ele>
        <time>2019-12-05T11:14:04+0100</time>
      </trkpt>
      <trkpt lat="47.19556" lon="4.96206">
        <ele>271.2214050293</ele>
        <time>2019-12-05T11:14:07+0100</time>
      </trkpt>
      <trkpt lat="47.19556" lon="4.96207">
        <ele>271.2467956543</ele>
        <time>2019-12-05T11:14:10+0100</time>
      </trkpt>
      <trkpt lat="47.19556" lon="4.96207">
        <ele>271.27459716797</ele>
        <time>2019-12-05T11:14:13+0100</time>
      </trkpt>
      <trkpt lat="47.19556" lon="4.96207">
        <ele>271.30401611328</ele>
        <time>2019-12-05T11:14:16+0100</time>
      </trkpt>
      <trkpt lat="47.19556" lon="4.96208">
        <ele>271.33706665039</ele>
        <time>2019-12-05T11:14:19+0100</time>
      </trkpt>
      <trkpt lat="47.19556" lon="4.96208">
        <ele>271.37030029297</ele>
        <time>2019-12-05T11:14:22+0100</time>
      </trkpt>
      <trkpt lat="47.19555" lon="4.96208">
        <ele>271.40103149414</ele>
        <time>2019-12-05T11:14:25+0100</time>
      </trkpt>
      <trkpt lat="47.19555" lon="4.96209">
        <ele>271.58206176758</ele>
        <time>2019-12-05T11:14:28+0100</time>
      </trkpt>
      <trkpt lat="47.19555" lon="4.96211">
        <ele>271.8176574707</ele>
        <time>2019-12-05T11:14:31+0100</time>
      </trkpt>
      <trkpt lat="47.19553" lon="4.96213">
        <ele>271.94537353516</ele>
        <time>2019-12-05T11:14:34+0100</time>
      </trkpt>
      <trkpt lat="47.19552" lon="4.96214">
        <ele>271.95974731445</ele>
        <time>2019-12-05T11:14:37+0100</time>
      </trkpt>
      <trkpt lat="47.19552" lon="4.96216">
        <ele>271.99359130859</ele>
        <time>2019-12-05T11:14:40+0100</time>
      </trkpt>
      <trkpt lat="47.19551" lon="4.96217">
        <ele>272.03103637695</ele>
        <time>2019-12-05T11:14:43+0100</time>
      </trkpt>
      <trkpt lat="47.19552" lon="4.96219">
        <ele>272.0212097168</ele>
        <time>2019-12-05T11:14:46+0100</time>
      </trkpt>
      <trkpt lat="47.19555" lon="4.96224">
        <ele>272.02301025391</ele>
        <time>2019-12-05T11:14:49+0100</time>
      </trkpt>
      <trkpt lat="47.19559" lon="4.9623">
        <ele>272.07748413086</ele>
        <time>2019-12-05T11:14:52+0100</time>
      </trkpt>
      <trkpt lat="47.19562" lon="4.96234">
        <ele>272.13961791992</ele>
        <time>2019-12-05T11:14:55+0100</time>
      </trkpt>
      <trkpt lat="47.19564" lon="4.96236">
        <ele>272.1741027832</ele>
        <time>2019-12-05T11:14:58+0100</time>
      </trkpt>
      <trkpt lat="47.19565" lon="4.96237">
        <ele>272.16937255859</ele>
        <time>2019-12-05T11:15:01+0100</time>
      </trkpt>
      <trkpt lat="47.19568" lon="4.96239">
        <ele>272.18209838867</ele>
        <time>2019-12-05T11:15:04+0100</time>
      </trkpt>
      <trkpt lat="47.1957" lon="4.96241">
        <ele>272.16409301758</ele>
        <time>2019-12-05T11:15:07+0100</time>
      </trkpt>
      <trkpt lat="47.19572" lon="4.96242">
        <ele>272.11022949219</ele>
        <time>2019-12-05T11:15:10+0100</time>
      </trkpt>
      <trkpt lat="47.19573" lon="4.96244">
        <ele>272.02752685547</ele>
        <time>2019-12-05T11:15:13+0100</time>
      </trkpt>
      <trkpt lat="47.19575" lon="4.96245">
        <ele>271.93518066406</ele>
        <time>2019-12-05T11:15:16+0100</time>
      </trkpt>
      <trkpt lat="47.19575" lon="4.96244">
        <ele>271.86801147461</ele>
        <time>2019-12-05T11:15:19+0100</time>
      </trkpt>
      <trkpt lat="47.19576" lon="4.96245">
        <ele>271.79843139648</ele>
        <time>2019-12-05T11:15:22+0100</time>
      </trkpt>
      <trkpt lat="47.19581" lon="4.96248">
        <ele>271.7174987793</ele>
        <time>2019-12-05T11:15:25+0100</time>
      </trkpt>
      <trkpt lat="47.19583" lon="4.9625">
        <ele>271.66403198242</ele>
        <time>2019-12-05T11:15:28+0100</time>
      </trkpt>
      <trkpt lat="47.19585" lon="4.96251">
        <ele>271.6103515625</ele>
        <time>2019-12-05T11:15:31+0100</time>
      </trkpt>
      <trkpt lat="47.19587" lon="4.96252">
        <ele>271.54553222656</ele>
        <time>2019-12-05T11:15:34+0100</time>
      </trkpt>
      <trkpt lat="47.19589" lon="4.96254">
        <ele>271.46182250977</ele>
        <time>2019-12-05T11:15:37+0100</time>
      </trkpt>
      <trkpt lat="47.19592" lon="4.96255">
        <ele>271.34866333008</ele>
        <time>2019-12-05T11:15:40+0100</time>
      </trkpt>
      <trkpt lat="47.19593" lon="4.96256">
        <ele>271.22445678711</ele>
        <time>2019-12-05T11:15:43+0100</time>
      </trkpt>
      <trkpt lat="47.19595" lon="4.96258">
        <ele>271.07736206055</ele>
        <time>2019-12-05T11:15:46+0100</time>
      </trkpt>
      <trkpt lat="47.19599" lon="4.9626">
        <ele>270.9489440918</ele>
        <time>2019-12-05T11:15:49+0100</time>
      </trkpt>
      <trkpt lat="47.19602" lon="4.96261">
        <ele>270.87878417969</ele>
        <time>2019-12-05T11:15:52+0100</time>
      </trkpt>
      <trkpt lat="47.19605" lon="4.96261">
        <ele>270.80810546875</ele>
        <time>2019-12-05T11:15:55+0100</time>
      </trkpt>
      <trkpt lat="47.19608" lon="4.96262">
        <ele>270.7448425293</ele>
        <time>2019-12-05T11:15:58+0100</time>
      </trkpt>
      <trkpt lat="47.19611" lon="4.96263">
        <ele>270.65823364258</ele>
        <time>2019-12-05T11:16:01+0100</time>
      </trkpt>
      <trkpt lat="47.19614" lon="4.96264">
        <ele>270.54965209961</ele>
        <time>2019-12-05T11:16:04+0100</time>
      </trkpt>
      <trkpt lat="47.19617" lon="4.96265">
        <ele>270.4423828125</ele>
        <time>2019-12-05T11:16:07+0100</time>
      </trkpt>
      <trkpt lat="47.19619" lon="4.96265">
        <ele>270.33975219727</ele>
        <time>2019-12-05T11:16:10+0100</time>
      </trkpt>
      <trkpt lat="47.19623" lon="4.96267">
        <ele>270.21978759766</ele>
        <time>2019-12-05T11:16:13+0100</time>
      </trkpt>
      <trkpt lat="47.19626" lon="4.96267">
        <ele>270.07720947266</ele>
        <time>2019-12-05T11:16:16+0100</time>
      </trkpt>
      <trkpt lat="47.19629" lon="4.96267">
        <ele>269.95635986328</ele>
        <time>2019-12-05T11:16:19+0100</time>
      </trkpt>
      <trkpt lat="47.19633" lon="4.96268">
        <ele>269.83682250977</ele>
        <time>2019-12-05T11:16:22+0100</time>
      </trkpt>
      <trkpt lat="47.19635" lon="4.9627">
        <ele>269.72909545898</ele>
        <time>2019-12-05T11:16:25+0100</time>
      </trkpt>
      <trkpt lat="47.19637" lon="4.96272">
        <ele>269.63507080078</ele>
        <time>2019-12-05T11:16:28+0100</time>
      </trkpt>
      <trkpt lat="47.19639" lon="4.96274">
        <ele>269.56909179688</ele>
        <time>2019-12-05T11:16:31+0100</time>
      </trkpt>
      <trkpt lat="47.19641" lon="4.96275">
        <ele>269.49633789062</ele>
        <time>2019-12-05T11:16:34+0100</time>
      </trkpt>
      <trkpt lat="47.19644" lon="4.96276">
        <ele>269.40762329102</ele>
        <time>2019-12-05T11:16:37+0100</time>
      </trkpt>
      <trkpt lat="47.19647" lon="4.96278">
        <ele>269.31713867188</ele>
        <time>2019-12-05T11:16:40+0100</time>
      </trkpt>
      <trkpt lat="47.1965" lon="4.96279">
        <ele>269.22357177734</ele>
        <time>2019-12-05T11:16:43+0100</time>
      </trkpt>
      <trkpt lat="47.19653" lon="4.96279">
        <ele>269.14791870117</ele>
        <time>2019-12-05T11:16:46+0100</time>
      </trkpt>
      <trkpt lat="47.19654" lon="4.96279">
        <ele>269.18597412109</ele>
        <time>2019-12-05T11:16:49+0100</time>
      </trkpt>
      <trkpt lat="47.19656" lon="4.96279">
        <ele>269.29498291016</ele>
        <time>2019-12-05T11:16:52+0100</time>
      </trkpt>
      <trkpt lat="47.19658" lon="4.9628">
        <ele>269.43804931641</ele>
        <time>2019-12-05T11:16:55+0100</time>
      </trkpt>
      <trkpt lat="47.19661" lon="4.96281">
        <ele>269.63131713867</ele>
        <time>2019-12-05T11:16:58+0100</time>
      </trkpt>
      <trkpt lat="47.19664" lon="4.96282">
        <ele>269.78115844727</ele>
        <time>2019-12-05T11:17:01+0100</time>
      </trkpt>
      <trkpt lat="47.19666" lon="4.96283">
        <ele>269.90606689453</ele>
        <time>2019-12-05T11:17:04+0100</time>
      </trkpt>
      <trkpt lat="47.19669" lon="4.96284">
        <ele>270.03652954102</ele>
        <time>2019-12-05T11:17:07+0100</time>
      </trkpt>
      <trkpt lat="47.19671" lon="4.96285">
        <ele>270.19500732422</ele>
        <time>2019-12-05T11:17:10+0100</time>
      </trkpt>
      <trkpt lat="47.19673" lon="4.96286">
        <ele>270.36883544922</ele>
        <time>2019-12-05T11:17:13+0100</time>
      </trkpt>
      <trkpt lat="47.19675" lon="4.96286">
        <ele>270.53421020508</ele>
        <time>2019-12-05T11:17:16+0100</time>
      </trkpt>
      <trkpt lat="47.19679" lon="4.96288">
        <ele>270.70831298828</ele>
        <time>2019-12-05T11:17:19+0100</time>
      </trkpt>
      <trkpt lat="47.19682" lon="4.96289">
        <ele>270.8694152832</ele>
        <time>2019-12-05T11:17:22+0100</time>
      </trkpt>
      <trkpt lat="47.19686" lon="4.96291">
        <ele>271.01995849609</ele>
        <time>2019-12-05T11:17:25+0100</time>
      </trkpt>
      <trkpt lat="47.19687" lon="4.96291">
        <ele>271.19189453125</ele>
        <time>2019-12-05T11:17:28+0100</time>
      </trkpt>
      <trkpt lat="47.1969" lon="4.96292">
        <ele>271.37017822266</ele>
        <time>2019-12-05T11:17:31+0100</time>
      </trkpt>
      <trkpt lat="47.19693" lon="4.96294">
        <ele>271.55554199219</ele>
        <time>2019-12-05T11:17:34+0100</time>
      </trkpt>
      <trkpt lat="47.19695" lon="4.96296">
        <ele>271.74264526367</ele>
        <time>2019-12-05T11:17:37+0100</time>
      </trkpt>
      <trkpt lat="47.19697" lon="4.96298">
        <ele>271.96423339844</ele>
        <time>2019-12-05T11:17:40+0100</time>
      </trkpt>
      <trkpt lat="47.19699" lon="4.96299">
        <ele>272.17828369141</ele>
        <time>2019-12-05T11:17:43+0100</time>
      </trkpt>
      <trkpt lat="47.197" lon="4.96301">
        <ele>272.36911010742</ele>
        <time>2019-12-05T11:17:46+0100</time>
      </trkpt>
      <trkpt lat="47.19702" lon="4.96303">
        <ele>272.59057617188</ele>
        <time>2019-12-05T11:17:49+0100</time>
      </trkpt>
      <trkpt lat="47.19705" lon="4.96305">
        <ele>272.81149291992</ele>
        <time>2019-12-05T11:17:52+0100</time>
      </trkpt>
      <trkpt lat="47.19708" lon="4.96309">
        <ele>273.00537109375</ele>
        <time>2019-12-05T11:17:55+0100</time>
      </trkpt>
      <trkpt lat="47.1971" lon="4.9631">
        <ele>273.19973754883</ele>
        <time>2019-12-05T11:17:58+0100</time>
      </trkpt>
      <trkpt lat="47.19712" lon="4.96313">
        <ele>273.37280273438</ele>
        <time>2019-12-05T11:18:01+0100</time>
      </trkpt>
      <trkpt lat="47.19714" lon="4.96315">
        <ele>273.52899169922</ele>
        <time>2019-12-05T11:18:04+0100</time>
      </trkpt>
      <trkpt lat="47.19717" lon="4.96316">
        <ele>273.67852783203</ele>
        <time>2019-12-05T11:18:07+0100</time>
      </trkpt>
      <trkpt lat="47.19719" lon="4.96318">
        <ele>273.81967163086</ele>
        <time>2019-12-05T11:18:10+0100</time>
      </trkpt>
      <trkpt lat="47.19721" lon="4.96319">
        <ele>273.96600341797</ele>
        <time>2019-12-05T11:18:13+0100</time>
      </trkpt>
      <trkpt lat="47.19724" lon="4.9632">
        <ele>274.11703491211</ele>
        <time>2019-12-05T11:18:16+0100</time>
      </trkpt>
      <trkpt lat="47.19726" lon="4.96321">
        <ele>274.23565673828</ele>
        <time>2019-12-05T11:18:19+0100</time>
      </trkpt>
      <trkpt lat="47.19729" lon="4.96323">
        <ele>274.36047363281</ele>
        <time>2019-12-05T11:18:22+0100</time>
      </trkpt>
      <trkpt lat="47.19731" lon="4.96324">
        <ele>274.47836303711</ele>
        <time>2019-12-05T11:18:25+0100</time>
      </trkpt>
      <trkpt lat="47.19734" lon="4.96326">
        <ele>274.60620117188</ele>
        <time>2019-12-05T11:18:28+0100</time>
      </trkpt>
      <trkpt lat="47.19737" lon="4.96328">
        <ele>274.68716430664</ele>
        <time>2019-12-05T11:18:31+0100</time>
      </trkpt>
      <trkpt lat="47.19739" lon="4.96329">
        <ele>274.73928833008</ele>
        <time>2019-12-05T11:18:34+0100</time>
      </trkpt>
      <trkpt lat="47.19742" lon="4.9633">
        <ele>274.77630615234</ele>
        <time>2019-12-05T11:18:37+0100</time>
      </trkpt>
      <trkpt lat="47.19744" lon="4.9633">
        <ele>274.81176757812</ele>
        <time>2019-12-05T11:18:40+0100</time>
      </trkpt>
      <trkpt lat="47.19746" lon="4.96332">
        <ele>274.83975219727</ele>
        <time>2019-12-05T11:18:43+0100</time>
      </trkpt>
      <trkpt lat="47.19749" lon="4.96333">
        <ele>274.85720825195</ele>
        <time>2019-12-05T11:18:46+0100</time>
      </trkpt>
      <trkpt lat="47.19752" lon="4.96334">
        <ele>274.85824584961</ele>
        <time>2019-12-05T11:18:49+0100</time>
      </trkpt>
      <trkpt lat="47.19755" lon="4.96335">
        <ele>274.82241821289</ele>
        <time>2019-12-05T11:18:52+0100</time>
      </trkpt>
      <trkpt lat="47.19757" lon="4.96337">
        <ele>274.75924682617</ele>
        <time>2019-12-05T11:18:55+0100</time>
      </trkpt>
      <trkpt lat="47.1976" lon="4.96338">
        <ele>274.69110107422</ele>
        <time>2019-12-05T11:18:58+0100</time>
      </trkpt>
      <trkpt lat="47.19761" lon="4.96339">
        <ele>274.63705444336</ele>
        <time>2019-12-05T11:19:01+0100</time>
      </trkpt>
      <trkpt lat="47.19765" lon="4.96341">
        <ele>274.59585571289</ele>
        <time>2019-12-05T11:19:04+0100</time>
      </trkpt>
      <trkpt lat="47.19767" lon="4.96342">
        <ele>274.56652832031</ele>
        <time>2019-12-05T11:19:07+0100</time>
      </trkpt>
      <trkpt lat="47.1977" lon="4.96344">
        <ele>274.52584838867</ele>
        <time>2019-12-05T11:19:10+0100</time>
      </trkpt>
      <trkpt lat="47.19772" lon="4.96345">
        <ele>274.47610473633</ele>
        <time>2019-12-05T11:19:13+0100</time>
      </trkpt>
      <trkpt lat="47.19774" lon="4.96347">
        <ele>274.42755126953</ele>
        <time>2019-12-05T11:19:16+0100</time>
      </trkpt>
      <trkpt lat="47.19776" lon="4.96347">
        <ele>274.39028930664</ele>
        <time>2019-12-05T11:19:19+0100</time>
      </trkpt>
      <trkpt lat="47.19778" lon="4.96349">
        <ele>274.36798095703</ele>
        <time>2019-12-05T11:19:22+0100</time>
      </trkpt>
      <trkpt lat="47.19781" lon="4.96351">
        <ele>274.34735107422</ele>
        <time>2019-12-05T11:19:25+0100</time>
      </trkpt>
      <trkpt lat="47.19784" lon="4.96351">
        <ele>274.37930297852</ele>
        <time>2019-12-05T11:19:28+0100</time>
      </trkpt>
      <trkpt lat="47.19786" lon="4.96352">
        <ele>274.48492431641</ele>
        <time>2019-12-05T11:19:31+0100</time>
      </trkpt>
      <trkpt lat="47.19789" lon="4.96353">
        <ele>274.59371948242</ele>
        <time>2019-12-05T11:19:34+0100</time>
      </trkpt>
      <trkpt lat="47.19791" lon="4.96353">
        <ele>274.70275878906</ele>
        <time>2019-12-05T11:19:37+0100</time>
      </trkpt>
      <trkpt lat="47.19795" lon="4.96354">
        <ele>274.81127929688</ele>
        <time>2019-12-05T11:19:40+0100</time>
      </trkpt>
      <trkpt lat="47.19798" lon="4.96354">
        <ele>274.92327880859</ele>
        <time>2019-12-05T11:19:43+0100</time>
      </trkpt>
      <trkpt lat="47.198" lon="4.96354">
        <ele>275.07751464844</ele>
        <time>2019-12-05T11:19:46+0100</time>
      </trkpt>
      <trkpt lat="47.19802" lon="4.96353">
        <ele>275.24884033203</ele>
        <time>2019-12-05T11:19:49+0100</time>
      </trkpt>
      <trkpt lat="47.19802" lon="4.96353">
        <ele>275.37265014648</ele>
        <time>2019-12-05T11:19:52+0100</time>
      </trkpt>
      <trkpt lat="47.19804" lon="4.96352">
        <ele>275.54455566406</ele>
        <time>2019-12-05T11:19:55+0100</time>
      </trkpt>
      <trkpt lat="47.19806" lon="4.96351">
        <ele>275.70098876953</ele>
        <time>2019-12-05T11:19:58+0100</time>
      </trkpt>
      <trkpt lat="47.19808" lon="4.96351">
        <ele>275.84091186523</ele>
        <time>2019-12-05T11:20:01+0100</time>
      </trkpt>
      <trkpt lat="47.19809" lon="4.96351">
        <ele>275.96569824219</ele>
        <time>2019-12-05T11:20:04+0100</time>
      </trkpt>
      <trkpt lat="47.1981" lon="4.96351">
        <ele>276.08642578125</ele>
        <time>2019-12-05T11:20:07+0100</time>
      </trkpt>
      <trkpt lat="47.19813" lon="4.96352">
        <ele>276.22708129883</ele>
        <time>2019-12-05T11:20:10+0100</time>
      </trkpt>
      <trkpt lat="47.19815" lon="4.96354">
        <ele>276.38647460938</ele>
        <time>2019-12-05T11:20:13+0100</time>
      </trkpt>
      <trkpt lat="47.19818" lon="4.96354">
        <ele>276.56616210938</ele>
        <time>2019-12-05T11:20:16+0100</time>
      </trkpt>
      <trkpt lat="47.1982" lon="4.96353">
        <ele>276.75549316406</ele>
        <time>2019-12-05T11:20:19+0100</time>
      </trkpt>
      <trkpt lat="47.19822" lon="4.9635">
        <ele>276.94036865234</ele>
        <time>2019-12-05T11:20:22+0100</time>
      </trkpt>
      <trkpt lat="47.19824" lon="4.96347">
        <ele>277.10562133789</ele>
        <time>2019-12-05T11:20:25+0100</time>
      </trkpt>
      <trkpt lat="47.19825" lon="4.96346">
        <ele>277.25042724609</ele>
        <time>2019-12-05T11:20:28+0100</time>
      </trkpt>
      <trkpt lat="47.19826" lon="4.96344">
        <ele>277.36947631836</ele>
        <time>2019-12-05T11:20:31+0100</time>
      </trkpt>
      <trkpt lat="47.19828" lon="4.96341">
        <ele>277.50357055664</ele>
        <time>2019-12-05T11:20:34+0100</time>
      </trkpt>
      <trkpt lat="47.19828" lon="4.96338">
        <ele>277.67852783203</ele>
        <time>2019-12-05T11:20:37+0100</time>
      </trkpt>
      <trkpt lat="47.19829" lon="4.96336">
        <ele>277.84991455078</ele>
        <time>2019-12-05T11:20:40+0100</time>
      </trkpt>
      <trkpt lat="47.1983" lon="4.96335">
        <ele>277.97476196289</ele>
        <time>2019-12-05T11:20:43+0100</time>
      </trkpt>
      <trkpt lat="47.19831" lon="4.96331">
        <ele>278.09439086914</ele>
        <time>2019-12-05T11:20:46+0100</time>
      </trkpt>
      <trkpt lat="47.19832" lon="4.96329">
        <ele>278.21884155273</ele>
        <time>2019-12-05T11:20:49+0100</time>
      </trkpt>
      <trkpt lat="47.19833" lon="4.96327">
        <ele>278.34158325195</ele>
        <time>2019-12-05T11:20:52+0100</time>
      </trkpt>
      <trkpt lat="47.19834" lon="4.96324">
        <ele>278.49688720703</ele>
        <time>2019-12-05T11:20:55+0100</time>
      </trkpt>
      <trkpt lat="47.19835" lon="4.9632">
        <ele>278.64654541016</ele>
        <time>2019-12-05T11:20:58+0100</time>
      </trkpt>
      <trkpt lat="47.19835" lon="4.96318">
        <ele>278.78598022461</ele>
        <time>2019-12-05T11:21:01+0100</time>
      </trkpt>
      <trkpt lat="47.19837" lon="4.96314">
        <ele>278.93832397461</ele>
        <time>2019-12-05T11:21:04+0100</time>
      </trkpt>
      <trkpt lat="47.19838" lon="4.96311">
        <ele>279.05633544922</ele>
        <time>2019-12-05T11:21:07+0100</time>
      </trkpt>
      <trkpt lat="47.19839" lon="4.96308">
        <ele>279.16937255859</ele>
        <time>2019-12-05T11:21:10+0100</time>
      </trkpt>
      <trkpt lat="47.1984" lon="4.96305">
        <ele>279.30917358398</ele>
        <time>2019-12-05T11:21:13+0100</time>
      </trkpt>
      <trkpt lat="47.19842" lon="4.96302">
        <ele>279.40463256836</ele>
        <time>2019-12-05T11:21:16+0100</time>
      </trkpt>
      <trkpt lat="47.19844" lon="4.963">
        <ele>279.47354125977</ele>
        <time>2019-12-05T11:21:19+0100</time>
      </trkpt>
      <trkpt lat="47.19845" lon="4.96298">
        <ele>279.56677246094</ele>
        <time>2019-12-05T11:21:22+0100</time>
      </trkpt>
      <trkpt lat="47.19846" lon="4.96296">
        <ele>279.65570068359</ele>
        <time>2019-12-05T11:21:25+0100</time>
      </trkpt>
      <trkpt lat="47.19848" lon="4.96294">
        <ele>279.70245361328</ele>
        <time>2019-12-05T11:21:28+0100</time>
      </trkpt>
      <trkpt lat="47.19849" lon="4.96292">
        <ele>279.75170898438</ele>
        <time>2019-12-05T11:21:31+0100</time>
      </trkpt>
      <trkpt lat="47.19851" lon="4.96288">
        <ele>279.78909301758</ele>
        <time>2019-12-05T11:21:34+0100</time>
      </trkpt>
      <trkpt lat="47.19852" lon="4.96287">
        <ele>279.82138061523</ele>
        <time>2019-12-05T11:21:37+0100</time>
      </trkpt>
      <trkpt lat="47.19853" lon="4.96284">
        <ele>279.87487792969</ele>
        <time>2019-12-05T11:21:40+0100</time>
      </trkpt>
      <trkpt lat="47.19854" lon="4.96283">
        <ele>279.91821289062</ele>
        <time>2019-12-05T11:21:43+0100</time>
      </trkpt>
      <trkpt lat="47.19856" lon="4.96279">
        <ele>279.97415161133</ele>
        <time>2019-12-05T11:21:46+0100</time>
      </trkpt>
      <trkpt lat="47.19858" lon="4.96275">
        <ele>280.03793334961</ele>
        <time>2019-12-05T11:21:49+0100</time>
      </trkpt>
      <trkpt lat="47.19859" lon="4.96274">
        <ele>280.1061706543</ele>
        <time>2019-12-05T11:21:52+0100</time>
      </trkpt>
      <trkpt lat="47.19861" lon="4.96271">
        <ele>280.16915893555</ele>
        <time>2019-12-05T11:21:55+0100</time>
      </trkpt>
      <trkpt lat="47.19863" lon="4.96269">
        <ele>280.21252441406</ele>
        <time>2019-12-05T11:21:58+0100</time>
      </trkpt>
      <trkpt lat="47.19864" lon="4.96267">
        <ele>280.28942871094</ele>
        <time>2019-12-05T11:22:01+0100</time>
      </trkpt>
      <trkpt lat="47.19866" lon="4.96265">
        <ele>280.41000366211</ele>
        <time>2019-12-05T11:22:04+0100</time>
      </trkpt>
      <trkpt lat="47.19867" lon="4.96262">
        <ele>280.55114746094</ele>
        <time>2019-12-05T11:22:07+0100</time>
      </trkpt>
      <trkpt lat="47.19869" lon="4.96258">
        <ele>280.79830932617</ele>
        <time>2019-12-05T11:22:10+0100</time>
      </trkpt>
      <trkpt lat="47.19871" lon="4.96255">
        <ele>280.96661376953</ele>
        <time>2019-12-05T11:22:13+0100</time>
      </trkpt>
      <trkpt lat="47.19872" lon="4.96253">
        <ele>281.11071777344</ele>
        <time>2019-12-05T11:22:16+0100</time>
      </trkpt>
      <trkpt lat="47.19872" lon="4.96251">
        <ele>281.12109375</ele>
        <time>2019-12-05T11:22:19+0100</time>
      </trkpt>
      <trkpt lat="47.19872" lon="4.9625">
        <ele>281.11975097656</ele>
        <time>2019-12-05T11:22:22+0100</time>
      </trkpt>
      <trkpt lat="47.19872" lon="4.96252">
        <ele>281.1203918457</ele>
        <time>2019-12-05T11:22:25+0100</time>
      </trkpt>
      <trkpt lat="47.19871" lon="4.96253">
        <ele>281.16354370117</ele>
        <time>2019-12-05T11:22:28+0100</time>
      </trkpt>
      <trkpt lat="47.19871" lon="4.96252">
        <ele>281.1689453125</ele>
        <time>2019-12-05T11:22:31+0100</time>
      </trkpt>
      <trkpt lat="47.19871" lon="4.96252">
        <ele>281.16549682617</ele>
        <time>2019-12-05T11:22:34+0100</time>
      </trkpt>
      <trkpt lat="47.19871" lon="4.96252">
        <ele>281.11627197266</ele>
        <time>2019-12-05T11:22:37+0100</time>
      </trkpt>
      <trkpt lat="47.19872" lon="4.96251">
        <ele>281.06704711914</ele>
        <time>2019-12-05T11:22:40+0100</time>
      </trkpt>
      <trkpt lat="47.19873" lon="4.9625">
        <ele>280.98123168945</ele>
        <time>2019-12-05T11:22:43+0100</time>
      </trkpt>
      <trkpt lat="47.19873" lon="4.9625">
        <ele>280.87948608398</ele>
        <time>2019-12-05T11:22:46+0100</time>
      </trkpt>
      <trkpt lat="47.19873" lon="4.9625">
        <ele>280.75122070312</ele>
        <time>2019-12-05T11:22:49+0100</time>
      </trkpt>
      <trkpt lat="47.19874" lon="4.96249">
        <ele>280.4479675293</ele>
        <time>2019-12-05T11:22:52+0100</time>
      </trkpt>
      <trkpt lat="47.19875" lon="4.96246">
        <ele>280.18692016602</ele>
        <time>2019-12-05T11:22:55+0100</time>
      </trkpt>
      <trkpt lat="47.19876" lon="4.96246">
        <ele>280.10122680664</ele>
        <time>2019-12-05T11:22:58+0100</time>
      </trkpt>
      <trkpt lat="47.19876" lon="4.96246">
        <ele>280.08578491211</ele>
        <time>2019-12-05T11:23:01+0100</time>
      </trkpt>
      <trkpt lat="47.19876" lon="4.96246">
        <ele>280.06585693359</ele>
        <time>2019-12-05T11:23:04+0100</time>
      </trkpt>
      <trkpt lat="47.19876" lon="4.96247">
        <ele>279.89834594727</ele>
        <time>2019-12-05T11:23:07+0100</time>
      </trkpt>
      <trkpt lat="47.19876" lon="4.96248">
        <ele>279.8034362793</ele>
        <time>2019-12-05T11:23:10+0100</time>
      </trkpt>
      <trkpt lat="47.19876" lon="4.96247">
        <ele>279.78021240234</ele>
        <time>2019-12-05T11:23:13+0100</time>
      </trkpt>
      <trkpt lat="47.19876" lon="4.96248">
        <ele>279.75476074219</ele>
        <time>2019-12-05T11:23:16+0100</time>
      </trkpt>
      <trkpt lat="47.19876" lon="4.96248">
        <ele>279.65423583984</ele>
        <time>2019-12-05T11:23:19+0100</time>
      </trkpt>
      <trkpt lat="47.19876" lon="4.96247">
        <ele>279.51110839844</ele>
        <time>2019-12-05T11:23:22+0100</time>
      </trkpt>
      <trkpt lat="47.19876" lon="4.96246">
        <ele>279.40539550781</ele>
        <time>2019-12-05T11:23:25+0100</time>
      </trkpt>
      <trkpt lat="47.19876" lon="4.96245">
        <ele>279.30621337891</ele>
        <time>2019-12-05T11:23:28+0100</time>
      </trkpt>
      <trkpt lat="47.19877" lon="4.96245">
        <ele>279.23107910156</ele>
        <time>2019-12-05T11:23:31+0100</time>
      </trkpt>
      <trkpt lat="47.19877" lon="4.96245">
        <ele>279.2080078125</ele>
        <time>2019-12-05T11:23:35+0100</time>
      </trkpt>
      <trkpt lat="47.19878" lon="4.96244">
        <ele>278.95849609375</ele>
        <time>2019-12-05T11:23:38+0100</time>
      </trkpt>
      <trkpt lat="47.1988" lon="4.96242">
        <ele>278.69332885742</ele>
        <time>2019-12-05T11:23:41+0100</time>
      </trkpt>
      <trkpt lat="47.19882" lon="4.9624">
        <ele>278.44378662109</ele>
        <time>2019-12-05T11:23:44+0100</time>
      </trkpt>
      <trkpt lat="47.19883" lon="4.96239">
        <ele>278.20608520508</ele>
        <time>2019-12-05T11:23:47+0100</time>
      </trkpt>
      <trkpt lat="47.19885" lon="4.96235">
        <ele>277.99505615234</ele>
        <time>2019-12-05T11:23:50+0100</time>
      </trkpt>
      <trkpt lat="47.19887" lon="4.96232">
        <ele>277.76849365234</ele>
        <time>2019-12-05T11:23:53+0100</time>
      </trkpt>
      <trkpt lat="47.19889" lon="4.9623">
        <ele>277.53060913086</ele>
        <time>2019-12-05T11:23:56+0100</time>
      </trkpt>
      <trkpt lat="47.19891" lon="4.96231">
        <ele>277.32232666016</ele>
        <time>2019-12-05T11:23:59+0100</time>
      </trkpt>
      <trkpt lat="47.19893" lon="4.96232">
        <ele>277.21450805664</ele>
        <time>2019-12-05T11:24:02+0100</time>
      </trkpt>
      <trkpt lat="47.19895" lon="4.96232">
        <ele>277.17263793945</ele>
        <time>2019-12-05T11:24:05+0100</time>
      </trkpt>
      <trkpt lat="47.19895" lon="4.96233">
        <ele>277.16552734375</ele>
        <time>2019-12-05T11:24:08+0100</time>
      </trkpt>
      <trkpt lat="47.19894" lon="4.96234">
        <ele>277.15472412109</ele>
        <time>2019-12-05T11:24:11+0100</time>
      </trkpt>
      <trkpt lat="47.19894" lon="4.96235">
        <ele>277.15444946289</ele>
        <time>2019-12-05T11:24:14+0100</time>
      </trkpt>
      <trkpt lat="47.19894" lon="4.96235">
        <ele>277.15609741211</ele>
        <time>2019-12-05T11:24:17+0100</time>
      </trkpt>
      <trkpt lat="47.19894" lon="4.96235">
        <ele>277.1589050293</ele>
        <time>2019-12-05T11:24:20+0100</time>
      </trkpt>
      <trkpt lat="47.19894" lon="4.96235">
        <ele>277.1623840332</ele>
        <time>2019-12-05T11:24:23+0100</time>
      </trkpt>
      <trkpt lat="47.19894" lon="4.96235">
        <ele>277.1657409668</ele>
        <time>2019-12-05T11:24:26+0100</time>
      </trkpt>
      <trkpt lat="47.19894" lon="4.96235">
        <ele>277.16809082031</ele>
        <time>2019-12-05T11:24:29+0100</time>
      </trkpt>
      <trkpt lat="47.19894" lon="4.96235">
        <ele>277.16937255859</ele>
        <time>2019-12-05T11:24:32+0100</time>
      </trkpt>
      <trkpt lat="47.19894" lon="4.96235">
        <ele>277.16983032227</ele>
        <time>2019-12-05T11:24:35+0100</time>
      </trkpt>
      <trkpt lat="47.19893" lon="4.96235">
        <ele>277.17092895508</ele>
        <time>2019-12-05T11:24:38+0100</time>
      </trkpt>
      <trkpt lat="47.19893" lon="4.96235">
        <ele>277.17306518555</ele>
        <time>2019-12-05T11:24:41+0100</time>
      </trkpt>
      <trkpt lat="47.19893" lon="4.96235">
        <ele>277.17617797852</ele>
        <time>2019-12-05T11:24:44+0100</time>
      </trkpt>
      <trkpt lat="47.19893" lon="4.96235">
        <ele>277.18035888672</ele>
        <time>2019-12-05T11:24:47+0100</time>
      </trkpt>
      <trkpt lat="47.19893" lon="4.96235">
        <ele>277.18356323242</ele>
        <time>2019-12-05T11:24:50+0100</time>
      </trkpt>
      <trkpt lat="47.19893" lon="4.96235">
        <ele>277.18496704102</ele>
        <time>2019-12-05T11:24:53+0100</time>
      </trkpt>
      <trkpt lat="47.19893" lon="4.96235">
        <ele>277.1862487793</ele>
        <time>2019-12-05T11:24:56+0100</time>
      </trkpt>
      <trkpt lat="47.19893" lon="4.96235">
        <ele>277.18762207031</ele>
        <time>2019-12-05T11:24:59+0100</time>
      </trkpt>
      <trkpt lat="47.19893" lon="4.96235">
        <ele>277.18850708008</ele>
        <time>2019-12-05T11:25:02+0100</time>
      </trkpt>
      <trkpt lat="47.19893" lon="4.96235">
        <ele>277.18942260742</ele>
        <time>2019-12-05T11:25:05+0100</time>
      </trkpt>
      <trkpt lat="47.19893" lon="4.96234">
        <ele>277.19039916992</ele>
        <time>2019-12-05T11:25:08+0100</time>
      </trkpt>
      <trkpt lat="47.19893" lon="4.96234">
        <ele>277.19259643555</ele>
        <time>2019-12-05T11:25:11+0100</time>
      </trkpt>
      <trkpt lat="47.19893" lon="4.96234">
        <ele>277.19622802734</ele>
        <time>2019-12-05T11:25:14+0100</time>
      </trkpt>
      <trkpt lat="47.19893" lon="4.96234">
        <ele>277.20190429688</ele>
        <time>2019-12-05T11:25:17+0100</time>
      </trkpt>
      <trkpt lat="47.19893" lon="4.96234">
        <ele>277.20904541016</ele>
        <time>2019-12-05T11:25:20+0100</time>
      </trkpt>
      <trkpt lat="47.19893" lon="4.96234">
        <ele>277.21688842773</ele>
        <time>2019-12-05T11:25:23+0100</time>
      </trkpt>
      <trkpt lat="47.19893" lon="4.96234">
        <ele>277.22518920898</ele>
        <time>2019-12-05T11:25:26+0100</time>
      </trkpt>
      <trkpt lat="47.19893" lon="4.96234">
        <ele>277.23425292969</ele>
        <time>2019-12-05T11:25:29+0100</time>
      </trkpt>
      <trkpt lat="47.19893" lon="4.96234">
        <ele>277.24465942383</ele>
        <time>2019-12-05T11:25:32+0100</time>
      </trkpt>
      <trkpt lat="47.19895" lon="4.96233">
        <ele>277.25735473633</ele>
        <time>2019-12-05T11:25:35+0100</time>
      </trkpt>
      <trkpt lat="47.19895" lon="4.96233">
        <ele>277.27450561523</ele>
        <time>2019-12-05T11:25:38+0100</time>
      </trkpt>
      <trkpt lat="47.19895" lon="4.96233">
        <ele>277.29675292969</ele>
        <time>2019-12-05T11:25:41+0100</time>
      </trkpt>
      <trkpt lat="47.19895" lon="4.96233">
        <ele>277.40380859375</ele>
        <time>2019-12-05T11:25:44+0100</time>
      </trkpt>
      <trkpt lat="47.19895" lon="4.96233">
        <ele>277.43368530273</ele>
        <time>2019-12-05T11:25:47+0100</time>
      </trkpt>
      <trkpt lat="47.19895" lon="4.96233">
        <ele>277.46646118164</ele>
        <time>2019-12-05T11:25:50+0100</time>
      </trkpt>
      <trkpt lat="47.19895" lon="4.96233">
        <ele>277.60208129883</ele>
        <time>2019-12-05T11:25:53+0100</time>
      </trkpt>
      <trkpt lat="47.19897" lon="4.96232">
        <ele>277.94668579102</ele>
        <time>2019-12-05T11:25:56+0100</time>
      </trkpt>
      <trkpt lat="47.19898" lon="4.9623">
        <ele>278.20104980469</ele>
        <time>2019-12-05T11:25:59+0100</time>
      </trkpt>
    </trkseg>
  </trk>
</gpx>